<?xml version="1.0" encoding="UTF-8" standalone="no" ?>
<gpx xmlns="http://www.topografix.com/GPX/1/1" xmlns:xsi="http://www.w3.org/2001/XMLSchema-instance" xsi:schemaLocation="http://www.topografix.com/GPX/1/1 http://www.topografix.com/GPX/1/1/gpx.xsd" version="1.1" creator="VisuGPX - https://www.visugpx.com">
  <metadata>
    <name>015SG77-8110803</name>
    <desc><![CDATA[
02]]></desc>
  </metadata>
  <trk>
    <name><![CDATA[015SG77-8110803]]></name>
    <trkseg>
      <trkpt lat="46.70024" lon="-1.93384">
        <ele>3</ele>
        <time>2018-03-14T22:02:13Z</time>
      </trkpt>
      <trkpt lat="46.70025" lon="-1.93386">
        <ele>3</ele>
        <time>2018-03-14T22:03:13Z</time>
      </trkpt>
      <trkpt lat="46.70028" lon="-1.93388">
        <ele>3</ele>
        <time>2018-03-14T22:04:13Z</time>
      </trkpt>
      <trkpt lat="46.7003" lon="-1.93391">
        <ele>3</ele>
        <time>2018-03-14T22:05:13Z</time>
      </trkpt>
      <trkpt lat="46.70033" lon="-1.93394">
        <ele>2</ele>
        <time>2018-03-14T22:06:13Z</time>
      </trkpt>
      <trkpt lat="46.70036" lon="-1.93397">
        <ele>2</ele>
        <time>2018-03-14T22:07:13Z</time>
      </trkpt>
      <trkpt lat="46.70038" lon="-1.93398">
        <ele>2</ele>
        <time>2018-03-14T22:08:13Z</time>
      </trkpt>
      <trkpt lat="46.70041" lon="-1.934">
        <ele>2</ele>
        <time>2018-03-14T22:09:13Z</time>
      </trkpt>
      <trkpt lat="46.70043" lon="-1.93401">
        <ele>2</ele>
        <time>2018-03-14T22:10:13Z</time>
      </trkpt>
      <trkpt lat="46.70046" lon="-1.93402">
        <ele>2</ele>
        <time>2018-03-14T22:11:13Z</time>
      </trkpt>
      <trkpt lat="46.70052" lon="-1.93405">
        <ele>2</ele>
        <time>2018-03-14T22:12:13Z</time>
      </trkpt>
      <trkpt lat="46.70052" lon="-1.93404">
        <ele>2</ele>
        <time>2018-03-14T22:13:13Z</time>
      </trkpt>
      <trkpt lat="46.70052" lon="-1.93403">
        <ele>2</ele>
        <time>2018-03-14T22:14:13Z</time>
      </trkpt>
      <trkpt lat="46.70052" lon="-1.93402">
        <ele>2</ele>
        <time>2018-03-14T22:15:13Z</time>
      </trkpt>
      <trkpt lat="46.70052" lon="-1.93401">
        <ele>2</ele>
        <time>2018-03-14T22:16:13Z</time>
      </trkpt>
      <trkpt lat="46.70053" lon="-1.93401">
        <ele>2</ele>
        <time>2018-03-14T22:17:13Z</time>
      </trkpt>
      <trkpt lat="46.70053" lon="-1.934">
        <ele>2</ele>
        <time>2018-03-14T22:18:13Z</time>
      </trkpt>
      <trkpt lat="46.70053" lon="-1.93399">
        <ele>2</ele>
        <time>2018-03-14T22:19:13Z</time>
      </trkpt>
      <trkpt lat="46.70054" lon="-1.93399">
        <ele>2</ele>
        <time>2018-03-14T22:20:13Z</time>
      </trkpt>
      <trkpt lat="46.70054" lon="-1.93398">
        <ele>2</ele>
        <time>2018-03-14T22:21:13Z</time>
      </trkpt>
      <trkpt lat="46.70055" lon="-1.93398">
        <ele>2</ele>
        <time>2018-03-14T22:22:13Z</time>
      </trkpt>
      <trkpt lat="46.70056" lon="-1.93398">
        <ele>2</ele>
        <time>2018-03-14T22:23:13Z</time>
      </trkpt>
      <trkpt lat="46.70056" lon="-1.93397">
        <ele>2</ele>
        <time>2018-03-14T22:24:13Z</time>
      </trkpt>
      <trkpt lat="46.70057" lon="-1.93397">
        <ele>2</ele>
        <time>2018-03-14T22:25:13Z</time>
      </trkpt>
      <trkpt lat="46.70058" lon="-1.93397">
        <ele>2</ele>
        <time>2018-03-14T22:26:13Z</time>
      </trkpt>
      <trkpt lat="46.70059" lon="-1.93398">
        <ele>2</ele>
        <time>2018-03-14T22:27:13Z</time>
      </trkpt>
      <trkpt lat="46.7006" lon="-1.93398">
        <ele>2</ele>
        <time>2018-03-14T22:28:13Z</time>
      </trkpt>
      <trkpt lat="46.7006" lon="-1.93399">
        <ele>2</ele>
        <time>2018-03-14T22:29:13Z</time>
      </trkpt>
      <trkpt lat="46.70061" lon="-1.93399">
        <ele>2</ele>
        <time>2018-03-14T22:30:13Z</time>
      </trkpt>
      <trkpt lat="46.70061" lon="-1.934">
        <ele>2</ele>
        <time>2018-03-14T22:31:13Z</time>
      </trkpt>
      <trkpt lat="46.70061" lon="-1.93401">
        <ele>2</ele>
        <time>2018-03-14T22:32:13Z</time>
      </trkpt>
      <trkpt lat="46.70062" lon="-1.93401">
        <ele>2</ele>
        <time>2018-03-14T22:33:13Z</time>
      </trkpt>
      <trkpt lat="46.70062" lon="-1.93402">
        <ele>2</ele>
        <time>2018-03-14T22:34:13Z</time>
      </trkpt>
      <trkpt lat="46.70062" lon="-1.93403">
        <ele>2</ele>
        <time>2018-03-14T22:35:13Z</time>
      </trkpt>
      <trkpt lat="46.70062" lon="-1.93404">
        <ele>2</ele>
        <time>2018-03-14T22:36:13Z</time>
      </trkpt>
      <trkpt lat="46.70062" lon="-1.93405">
        <ele>2</ele>
        <time>2018-03-14T22:37:13Z</time>
      </trkpt>
      <trkpt lat="46.70083" lon="-1.93405">
        <ele>2</ele>
        <time>2018-03-14T22:38:13Z</time>
      </trkpt>
      <trkpt lat="46.70093" lon="-1.934">
        <ele>2</ele>
        <time>2018-03-14T22:39:13Z</time>
      </trkpt>
      <trkpt lat="46.70098" lon="-1.93397">
        <ele>2</ele>
        <time>2018-03-14T22:40:13Z</time>
      </trkpt>
      <trkpt lat="46.70102" lon="-1.93395">
        <ele>2</ele>
        <time>2018-03-14T22:41:13Z</time>
      </trkpt>
      <trkpt lat="46.70107" lon="-1.93391">
        <ele>2</ele>
        <time>2018-03-14T22:42:13Z</time>
      </trkpt>
      <trkpt lat="46.70111" lon="-1.93388">
        <ele>2</ele>
        <time>2018-03-14T22:43:13Z</time>
      </trkpt>
      <trkpt lat="46.70114" lon="-1.93384">
        <ele>2</ele>
        <time>2018-03-14T22:44:13Z</time>
      </trkpt>
      <trkpt lat="46.70114" lon="-1.93384">
        <ele>2</ele>
        <time>2018-03-14T22:45:13Z</time>
      </trkpt>
      <trkpt lat="46.70115" lon="-1.93383">
        <ele>2</ele>
        <time>2018-03-14T22:46:13Z</time>
      </trkpt>
      <trkpt lat="46.70115" lon="-1.93382">
        <ele>2</ele>
        <time>2018-03-14T22:47:13Z</time>
      </trkpt>
      <trkpt lat="46.70115" lon="-1.93381">
        <ele>2</ele>
        <time>2018-03-14T22:48:13Z</time>
      </trkpt>
      <trkpt lat="46.70116" lon="-1.9338">
        <ele>2</ele>
        <time>2018-03-14T22:49:13Z</time>
      </trkpt>
      <trkpt lat="46.70116" lon="-1.93378">
        <ele>2</ele>
        <time>2018-03-14T22:50:13Z</time>
      </trkpt>
      <trkpt lat="46.70116" lon="-1.93377">
        <ele>2</ele>
        <time>2018-03-14T22:51:13Z</time>
      </trkpt>
      <trkpt lat="46.70117" lon="-1.93376">
        <ele>2</ele>
        <time>2018-03-14T22:52:13Z</time>
      </trkpt>
      <trkpt lat="46.70117" lon="-1.93375">
        <ele>2</ele>
        <time>2018-03-14T22:53:13Z</time>
      </trkpt>
      <trkpt lat="46.70118" lon="-1.93374">
        <ele>1</ele>
        <time>2018-03-14T22:54:13Z</time>
      </trkpt>
      <trkpt lat="46.70119" lon="-1.93373">
        <ele>1</ele>
        <time>2018-03-14T22:55:13Z</time>
      </trkpt>
      <trkpt lat="46.70119" lon="-1.93372">
        <ele>1</ele>
        <time>2018-03-14T22:56:13Z</time>
      </trkpt>
      <trkpt lat="46.7012" lon="-1.93372">
        <ele>1</ele>
        <time>2018-03-14T22:57:13Z</time>
      </trkpt>
      <trkpt lat="46.70121" lon="-1.93371">
        <ele>1</ele>
        <time>2018-03-14T22:58:13Z</time>
      </trkpt>
      <trkpt lat="46.70122" lon="-1.9337">
        <ele>1</ele>
        <time>2018-03-14T22:59:13Z</time>
      </trkpt>
      <trkpt lat="46.70123" lon="-1.93369">
        <ele>1</ele>
        <time>2018-03-14T23:00:13Z</time>
      </trkpt>
      <trkpt lat="46.70124" lon="-1.93369">
        <ele>1</ele>
        <time>2018-03-14T23:01:13Z</time>
      </trkpt>
      <trkpt lat="46.70125" lon="-1.93368">
        <ele>2</ele>
        <time>2018-03-14T23:02:13Z</time>
      </trkpt>
      <trkpt lat="46.70126" lon="-1.93368">
        <ele>2</ele>
        <time>2018-03-14T23:03:13Z</time>
      </trkpt>
      <trkpt lat="46.70127" lon="-1.93368">
        <ele>2</ele>
        <time>2018-03-14T23:04:13Z</time>
      </trkpt>
      <trkpt lat="46.70128" lon="-1.93368">
        <ele>2</ele>
        <time>2018-03-14T23:05:13Z</time>
      </trkpt>
      <trkpt lat="46.70129" lon="-1.93368">
        <ele>2</ele>
        <time>2018-03-14T23:06:13Z</time>
      </trkpt>
      <trkpt lat="46.7013" lon="-1.93368">
        <ele>2</ele>
        <time>2018-03-14T23:07:13Z</time>
      </trkpt>
      <trkpt lat="46.70131" lon="-1.93369">
        <ele>2</ele>
        <time>2018-03-14T23:08:13Z</time>
      </trkpt>
      <trkpt lat="46.70132" lon="-1.93369">
        <ele>2</ele>
        <time>2018-03-14T23:09:13Z</time>
      </trkpt>
      <trkpt lat="46.70132" lon="-1.9337">
        <ele>2</ele>
        <time>2018-03-14T23:10:13Z</time>
      </trkpt>
      <trkpt lat="46.70133" lon="-1.9337">
        <ele>2</ele>
        <time>2018-03-14T23:11:13Z</time>
      </trkpt>
      <trkpt lat="46.70134" lon="-1.93371">
        <ele>2</ele>
        <time>2018-03-14T23:12:13Z</time>
      </trkpt>
      <trkpt lat="46.70135" lon="-1.93372">
        <ele>2</ele>
        <time>2018-03-14T23:13:13Z</time>
      </trkpt>
      <trkpt lat="46.70136" lon="-1.93373">
        <ele>2</ele>
        <time>2018-03-14T23:14:13Z</time>
      </trkpt>
      <trkpt lat="46.70136" lon="-1.93374">
        <ele>2</ele>
        <time>2018-03-14T23:15:13Z</time>
      </trkpt>
      <trkpt lat="46.70137" lon="-1.93374">
        <ele>2</ele>
        <time>2018-03-14T23:16:13Z</time>
      </trkpt>
      <trkpt lat="46.70137" lon="-1.93375">
        <ele>1</ele>
        <time>2018-03-14T23:17:13Z</time>
      </trkpt>
      <trkpt lat="46.70138" lon="-1.93376">
        <ele>1</ele>
        <time>2018-03-14T23:18:13Z</time>
      </trkpt>
      <trkpt lat="46.70138" lon="-1.93377">
        <ele>1</ele>
        <time>2018-03-14T23:19:13Z</time>
      </trkpt>
      <trkpt lat="46.70138" lon="-1.93378">
        <ele>1</ele>
        <time>2018-03-14T23:20:13Z</time>
      </trkpt>
      <trkpt lat="46.70165" lon="-1.93375">
        <ele>1</ele>
        <time>2018-03-14T23:21:13Z</time>
      </trkpt>
      <trkpt lat="46.7017" lon="-1.93374">
        <ele>1</ele>
        <time>2018-03-14T23:22:13Z</time>
      </trkpt>
      <trkpt lat="46.70173" lon="-1.93372">
        <ele>1</ele>
        <time>2018-03-14T23:23:13Z</time>
      </trkpt>
      <trkpt lat="46.70181" lon="-1.93366">
        <ele>2</ele>
        <time>2018-03-14T23:24:13Z</time>
      </trkpt>
      <trkpt lat="46.70194" lon="-1.93356">
        <ele>1</ele>
        <time>2018-03-14T23:25:13Z</time>
      </trkpt>
      <trkpt lat="46.70205" lon="-1.93347">
        <ele>1</ele>
        <time>2018-03-14T23:26:13Z</time>
      </trkpt>
      <trkpt lat="46.70211" lon="-1.9334">
        <ele>1</ele>
        <time>2018-03-14T23:27:13Z</time>
      </trkpt>
      <trkpt lat="46.70216" lon="-1.93332">
        <ele>1</ele>
        <time>2018-03-14T23:28:13Z</time>
      </trkpt>
      <trkpt lat="46.70224" lon="-1.9332">
        <ele>1</ele>
        <time>2018-03-14T23:29:13Z</time>
      </trkpt>
      <trkpt lat="46.70239" lon="-1.93295">
        <ele>2</ele>
        <time>2018-03-14T23:30:13Z</time>
      </trkpt>
      <trkpt lat="46.70251" lon="-1.9328">
        <ele>2</ele>
        <time>2018-03-14T23:31:13Z</time>
      </trkpt>
      <trkpt lat="46.70263" lon="-1.93271">
        <ele>2</ele>
        <time>2018-03-14T23:32:13Z</time>
      </trkpt>
      <trkpt lat="46.70276" lon="-1.93263">
        <ele>2</ele>
        <time>2018-03-14T23:33:13Z</time>
      </trkpt>
      <trkpt lat="46.7028" lon="-1.9326">
        <ele>2</ele>
        <time>2018-03-14T23:34:13Z</time>
      </trkpt>
      <trkpt lat="46.70288" lon="-1.93253">
        <ele>2</ele>
        <time>2018-03-14T23:35:13Z</time>
      </trkpt>
      <trkpt lat="46.70295" lon="-1.93245">
        <ele>2</ele>
        <time>2018-03-14T23:36:13Z</time>
      </trkpt>
      <trkpt lat="46.70304" lon="-1.9323">
        <ele>2</ele>
        <time>2018-03-14T23:37:13Z</time>
      </trkpt>
      <trkpt lat="46.70304" lon="-1.9323">
        <ele>2</ele>
        <time>2018-03-14T23:38:13Z</time>
      </trkpt>
      <trkpt lat="46.70328" lon="-1.93232">
        <ele>2</ele>
        <time>2018-03-14T23:39:13Z</time>
      </trkpt>
      <trkpt lat="46.70362" lon="-1.9324">
        <ele>2</ele>
        <time>2018-03-14T23:40:13Z</time>
      </trkpt>
      <trkpt lat="46.70398" lon="-1.93249">
        <ele>3</ele>
        <time>2018-03-14T23:41:13Z</time>
      </trkpt>
      <trkpt lat="46.70419" lon="-1.93258">
        <ele>3</ele>
        <time>2018-03-14T23:42:13Z</time>
      </trkpt>
      <trkpt lat="46.70429" lon="-1.93262">
        <ele>3</ele>
        <time>2018-03-14T23:43:13Z</time>
      </trkpt>
      <trkpt lat="46.70439" lon="-1.93265">
        <ele>3</ele>
        <time>2018-03-14T23:44:13Z</time>
      </trkpt>
      <trkpt lat="46.70449" lon="-1.93267">
        <ele>3</ele>
        <time>2018-03-14T23:45:13Z</time>
      </trkpt>
      <trkpt lat="46.70458" lon="-1.93268">
        <ele>3</ele>
        <time>2018-03-14T23:46:13Z</time>
      </trkpt>
      <trkpt lat="46.70465" lon="-1.93267">
        <ele>3</ele>
        <time>2018-03-14T23:47:13Z</time>
      </trkpt>
      <trkpt lat="46.70472" lon="-1.93265">
        <ele>3</ele>
        <time>2018-03-14T23:48:13Z</time>
      </trkpt>
      <trkpt lat="46.7048" lon="-1.9326">
        <ele>4</ele>
        <time>2018-03-14T23:49:13Z</time>
      </trkpt>
      <trkpt lat="46.70489" lon="-1.93253">
        <ele>4</ele>
        <time>2018-03-14T23:50:13Z</time>
      </trkpt>
      <trkpt lat="46.70503" lon="-1.93244">
        <ele>4</ele>
        <time>2018-03-14T23:51:13Z</time>
      </trkpt>
      <trkpt lat="46.7052" lon="-1.93232">
        <ele>5</ele>
        <time>2018-03-14T23:52:13Z</time>
      </trkpt>
      <trkpt lat="46.70533" lon="-1.93223">
        <ele>5</ele>
        <time>2018-03-14T23:53:13Z</time>
      </trkpt>
      <trkpt lat="46.70548" lon="-1.93216">
        <ele>5</ele>
        <time>2018-03-14T23:54:13Z</time>
      </trkpt>
      <trkpt lat="46.70566" lon="-1.93211">
        <ele>6</ele>
        <time>2018-03-14T23:55:13Z</time>
      </trkpt>
      <trkpt lat="46.70588" lon="-1.93206">
        <ele>6</ele>
        <time>2018-03-14T23:56:13Z</time>
      </trkpt>
      <trkpt lat="46.7061" lon="-1.93202">
        <ele>7</ele>
        <time>2018-03-14T23:57:13Z</time>
      </trkpt>
      <trkpt lat="46.7063" lon="-1.93198">
        <ele>7</ele>
        <time>2018-03-14T23:58:13Z</time>
      </trkpt>
      <trkpt lat="46.70648" lon="-1.93197">
        <ele>8</ele>
        <time>2018-03-14T23:59:13Z</time>
      </trkpt>
      <trkpt lat="46.70659" lon="-1.93197">
        <ele>8</ele>
        <time>2018-03-15T00:00:13Z</time>
      </trkpt>
      <trkpt lat="46.70671" lon="-1.932">
        <ele>8</ele>
        <time>2018-03-15T00:01:13Z</time>
      </trkpt>
      <trkpt lat="46.70691" lon="-1.93205">
        <ele>8</ele>
        <time>2018-03-15T00:02:13Z</time>
      </trkpt>
      <trkpt lat="46.7071" lon="-1.93211">
        <ele>8</ele>
        <time>2018-03-15T00:03:13Z</time>
      </trkpt>
      <trkpt lat="46.70712" lon="-1.93212">
        <ele>8</ele>
        <time>2018-03-15T00:04:13Z</time>
      </trkpt>
      <trkpt lat="46.70729" lon="-1.93213">
        <ele>8</ele>
        <time>2018-03-15T00:05:13Z</time>
      </trkpt>
      <trkpt lat="46.70745" lon="-1.93212">
        <ele>8</ele>
        <time>2018-03-15T00:06:13Z</time>
      </trkpt>
      <trkpt lat="46.70752" lon="-1.9321">
        <ele>8</ele>
        <time>2018-03-15T00:07:13Z</time>
      </trkpt>
      <trkpt lat="46.70758" lon="-1.93207">
        <ele>8</ele>
        <time>2018-03-15T00:08:13Z</time>
      </trkpt>
      <trkpt lat="46.70766" lon="-1.93202">
        <ele>8</ele>
        <time>2018-03-15T00:09:13Z</time>
      </trkpt>
      <trkpt lat="46.70772" lon="-1.93197">
        <ele>8</ele>
        <time>2018-03-15T00:10:13Z</time>
      </trkpt>
      <trkpt lat="46.70785" lon="-1.93186">
        <ele>9</ele>
        <time>2018-03-15T00:11:13Z</time>
      </trkpt>
      <trkpt lat="46.70795" lon="-1.93179">
        <ele>9</ele>
        <time>2018-03-15T00:12:13Z</time>
      </trkpt>
      <trkpt lat="46.70804" lon="-1.93173">
        <ele>9</ele>
        <time>2018-03-15T00:13:13Z</time>
      </trkpt>
      <trkpt lat="46.70813" lon="-1.9317">
        <ele>9</ele>
        <time>2018-03-15T00:14:13Z</time>
      </trkpt>
      <trkpt lat="46.70821" lon="-1.93168">
        <ele>9</ele>
        <time>2018-03-15T00:15:13Z</time>
      </trkpt>
      <trkpt lat="46.70829" lon="-1.93167">
        <ele>9</ele>
        <time>2018-03-15T00:16:13Z</time>
      </trkpt>
      <trkpt lat="46.70835" lon="-1.93168">
        <ele>9</ele>
        <time>2018-03-15T00:17:13Z</time>
      </trkpt>
      <trkpt lat="46.70844" lon="-1.93169">
        <ele>9</ele>
        <time>2018-03-15T00:18:13Z</time>
      </trkpt>
      <trkpt lat="46.70877" lon="-1.93174">
        <ele>8</ele>
        <time>2018-03-15T00:19:13Z</time>
      </trkpt>
      <trkpt lat="46.70916" lon="-1.93179">
        <ele>7</ele>
        <time>2018-03-15T00:20:13Z</time>
      </trkpt>
      <trkpt lat="46.70936" lon="-1.93181">
        <ele>7</ele>
        <time>2018-03-15T00:21:13Z</time>
      </trkpt>
      <trkpt lat="46.70956" lon="-1.93184">
        <ele>7</ele>
        <time>2018-03-15T00:22:13Z</time>
      </trkpt>
      <trkpt lat="46.70974" lon="-1.93184">
        <ele>7</ele>
        <time>2018-03-15T00:23:13Z</time>
      </trkpt>
      <trkpt lat="46.71007" lon="-1.9318">
        <ele>7</ele>
        <time>2018-03-15T00:24:13Z</time>
      </trkpt>
      <trkpt lat="46.71025" lon="-1.93175">
        <ele>7</ele>
        <time>2018-03-15T00:25:13Z</time>
      </trkpt>
      <trkpt lat="46.71038" lon="-1.93168">
        <ele>7</ele>
        <time>2018-03-15T00:26:13Z</time>
      </trkpt>
      <trkpt lat="46.71048" lon="-1.93158">
        <ele>7</ele>
        <time>2018-03-15T00:27:13Z</time>
      </trkpt>
      <trkpt lat="46.71062" lon="-1.93143">
        <ele>7</ele>
        <time>2018-03-15T00:28:13Z</time>
      </trkpt>
      <trkpt lat="46.7109" lon="-1.93111">
        <ele>7</ele>
        <time>2018-03-15T00:29:13Z</time>
      </trkpt>
      <trkpt lat="46.71123" lon="-1.93073">
        <ele>7</ele>
        <time>2018-03-15T00:30:13Z</time>
      </trkpt>
      <trkpt lat="46.71124" lon="-1.93072">
        <ele>7</ele>
        <time>2018-03-15T00:31:13Z</time>
      </trkpt>
      <trkpt lat="46.71141" lon="-1.93051">
        <ele>7</ele>
        <time>2018-03-15T00:32:13Z</time>
      </trkpt>
      <trkpt lat="46.7115" lon="-1.93042">
        <ele>7</ele>
        <time>2018-03-15T00:33:13Z</time>
      </trkpt>
      <trkpt lat="46.71159" lon="-1.93035">
        <ele>8</ele>
        <time>2018-03-15T00:34:13Z</time>
      </trkpt>
      <trkpt lat="46.71167" lon="-1.93032">
        <ele>8</ele>
        <time>2018-03-15T00:35:13Z</time>
      </trkpt>
      <trkpt lat="46.71178" lon="-1.9303">
        <ele>7</ele>
        <time>2018-03-15T00:36:13Z</time>
      </trkpt>
      <trkpt lat="46.71195" lon="-1.93028">
        <ele>7</ele>
        <time>2018-03-15T00:37:13Z</time>
      </trkpt>
      <trkpt lat="46.71215" lon="-1.93028">
        <ele>6</ele>
        <time>2018-03-15T00:38:13Z</time>
      </trkpt>
      <trkpt lat="46.71225" lon="-1.93026">
        <ele>6</ele>
        <time>2018-03-15T00:39:13Z</time>
      </trkpt>
      <trkpt lat="46.71236" lon="-1.93024">
        <ele>5</ele>
        <time>2018-03-15T00:40:13Z</time>
      </trkpt>
      <trkpt lat="46.71243" lon="-1.93018">
        <ele>5</ele>
        <time>2018-03-15T00:41:13Z</time>
      </trkpt>
      <trkpt lat="46.71246" lon="-1.93012">
        <ele>5</ele>
        <time>2018-03-15T00:42:13Z</time>
      </trkpt>
      <trkpt lat="46.71249" lon="-1.93002">
        <ele>5</ele>
        <time>2018-03-15T00:43:13Z</time>
      </trkpt>
      <trkpt lat="46.71252" lon="-1.92988">
        <ele>5</ele>
        <time>2018-03-15T00:44:13Z</time>
      </trkpt>
      <trkpt lat="46.71256" lon="-1.92969">
        <ele>5</ele>
        <time>2018-03-15T00:45:13Z</time>
      </trkpt>
      <trkpt lat="46.71259" lon="-1.92949">
        <ele>5</ele>
        <time>2018-03-15T00:46:13Z</time>
      </trkpt>
      <trkpt lat="46.71259" lon="-1.92949">
        <ele>5</ele>
        <time>2018-03-15T00:47:13Z</time>
      </trkpt>
      <trkpt lat="46.71261" lon="-1.92937">
        <ele>4</ele>
        <time>2018-03-15T00:48:13Z</time>
      </trkpt>
      <trkpt lat="46.71265" lon="-1.92901">
        <ele>3</ele>
        <time>2018-03-15T00:49:13Z</time>
      </trkpt>
      <trkpt lat="46.71269" lon="-1.9287">
        <ele>3</ele>
        <time>2018-03-15T00:50:13Z</time>
      </trkpt>
      <trkpt lat="46.71269" lon="-1.92869">
        <ele>3</ele>
        <time>2018-03-15T00:51:13Z</time>
      </trkpt>
      <trkpt lat="46.71274" lon="-1.92841">
        <ele>3</ele>
        <time>2018-03-15T00:52:13Z</time>
      </trkpt>
      <trkpt lat="46.71281" lon="-1.92808">
        <ele>4</ele>
        <time>2018-03-15T00:53:13Z</time>
      </trkpt>
      <trkpt lat="46.71289" lon="-1.92771">
        <ele>4</ele>
        <time>2018-03-15T00:54:13Z</time>
      </trkpt>
      <trkpt lat="46.71299" lon="-1.92726">
        <ele>5</ele>
        <time>2018-03-15T00:55:13Z</time>
      </trkpt>
      <trkpt lat="46.71299" lon="-1.92723">
        <ele>5</ele>
        <time>2018-03-15T00:56:13Z</time>
      </trkpt>
      <trkpt lat="46.71306" lon="-1.927">
        <ele>6</ele>
        <time>2018-03-15T00:57:13Z</time>
      </trkpt>
      <trkpt lat="46.71306" lon="-1.92696">
        <ele>6</ele>
        <time>2018-03-15T00:58:13Z</time>
      </trkpt>
      <trkpt lat="46.71307" lon="-1.92691">
        <ele>6</ele>
        <time>2018-03-15T00:59:13Z</time>
      </trkpt>
      <trkpt lat="46.71308" lon="-1.92684">
        <ele>6</ele>
        <time>2018-03-15T01:00:13Z</time>
      </trkpt>
      <trkpt lat="46.71308" lon="-1.92681">
        <ele>7</ele>
        <time>2018-03-15T01:01:13Z</time>
      </trkpt>
      <trkpt lat="46.71307" lon="-1.92661">
        <ele>7</ele>
        <time>2018-03-15T01:02:13Z</time>
      </trkpt>
      <trkpt lat="46.71305" lon="-1.92644">
        <ele>8</ele>
        <time>2018-03-15T01:03:13Z</time>
      </trkpt>
      <trkpt lat="46.71305" lon="-1.9264">
        <ele>8</ele>
        <time>2018-03-15T01:04:13Z</time>
      </trkpt>
      <trkpt lat="46.71305" lon="-1.92636">
        <ele>8</ele>
        <time>2018-03-15T01:05:13Z</time>
      </trkpt>
      <trkpt lat="46.71305" lon="-1.92629">
        <ele>8</ele>
        <time>2018-03-15T01:06:13Z</time>
      </trkpt>
      <trkpt lat="46.71306" lon="-1.92623">
        <ele>8</ele>
        <time>2018-03-15T01:07:13Z</time>
      </trkpt>
      <trkpt lat="46.71307" lon="-1.92618">
        <ele>8</ele>
        <time>2018-03-15T01:08:13Z</time>
      </trkpt>
      <trkpt lat="46.71311" lon="-1.92597">
        <ele>8</ele>
        <time>2018-03-15T01:09:13Z</time>
      </trkpt>
      <trkpt lat="46.71325" lon="-1.92544">
        <ele>8</ele>
        <time>2018-03-15T01:10:13Z</time>
      </trkpt>
      <trkpt lat="46.7133" lon="-1.92521">
        <ele>8</ele>
        <time>2018-03-15T01:11:13Z</time>
      </trkpt>
      <trkpt lat="46.71331" lon="-1.92518">
        <ele>8</ele>
        <time>2018-03-15T01:12:13Z</time>
      </trkpt>
      <trkpt lat="46.71332" lon="-1.92515">
        <ele>8</ele>
        <time>2018-03-15T01:13:13Z</time>
      </trkpt>
      <trkpt lat="46.71333" lon="-1.92509">
        <ele>8</ele>
        <time>2018-03-15T01:14:13Z</time>
      </trkpt>
      <trkpt lat="46.71333" lon="-1.92502">
        <ele>8</ele>
        <time>2018-03-15T01:15:13Z</time>
      </trkpt>
      <trkpt lat="46.71332" lon="-1.92476">
        <ele>8</ele>
        <time>2018-03-15T01:16:13Z</time>
      </trkpt>
      <trkpt lat="46.7133" lon="-1.92445">
        <ele>9</ele>
        <time>2018-03-15T01:17:13Z</time>
      </trkpt>
      <trkpt lat="46.71327" lon="-1.92413">
        <ele>9</ele>
        <time>2018-03-15T01:18:13Z</time>
      </trkpt>
      <trkpt lat="46.71326" lon="-1.92402">
        <ele>9</ele>
        <time>2018-03-15T01:19:13Z</time>
      </trkpt>
      <trkpt lat="46.71323" lon="-1.92389">
        <ele>9</ele>
        <time>2018-03-15T01:20:13Z</time>
      </trkpt>
      <trkpt lat="46.71322" lon="-1.92385">
        <ele>9</ele>
        <time>2018-03-15T01:21:13Z</time>
      </trkpt>
      <trkpt lat="46.71321" lon="-1.9238">
        <ele>9</ele>
        <time>2018-03-15T01:22:13Z</time>
      </trkpt>
      <trkpt lat="46.71318" lon="-1.9237">
        <ele>9</ele>
        <time>2018-03-15T01:23:13Z</time>
      </trkpt>
      <trkpt lat="46.71315" lon="-1.92363">
        <ele>9</ele>
        <time>2018-03-15T01:24:13Z</time>
      </trkpt>
      <trkpt lat="46.71311" lon="-1.92355">
        <ele>9</ele>
        <time>2018-03-15T01:25:13Z</time>
      </trkpt>
      <trkpt lat="46.71306" lon="-1.92347">
        <ele>9</ele>
        <time>2018-03-15T01:26:13Z</time>
      </trkpt>
      <trkpt lat="46.71306" lon="-1.92347">
        <ele>9</ele>
        <time>2018-03-15T01:27:13Z</time>
      </trkpt>
      <trkpt lat="46.71322" lon="-1.92344">
        <ele>8</ele>
        <time>2018-03-15T01:28:13Z</time>
      </trkpt>
      <trkpt lat="46.71334" lon="-1.9234">
        <ele>8</ele>
        <time>2018-03-15T01:29:13Z</time>
      </trkpt>
      <trkpt lat="46.71352" lon="-1.92336">
        <ele>7</ele>
        <time>2018-03-15T01:30:13Z</time>
      </trkpt>
      <trkpt lat="46.71383" lon="-1.92327">
        <ele>6</ele>
        <time>2018-03-15T01:31:13Z</time>
      </trkpt>
      <trkpt lat="46.71414" lon="-1.92316">
        <ele>5</ele>
        <time>2018-03-15T01:32:13Z</time>
      </trkpt>
      <trkpt lat="46.71418" lon="-1.92313">
        <ele>5</ele>
        <time>2018-03-15T01:33:13Z</time>
      </trkpt>
      <trkpt lat="46.71421" lon="-1.92311">
        <ele>5</ele>
        <time>2018-03-15T01:34:13Z</time>
      </trkpt>
      <trkpt lat="46.71423" lon="-1.92308">
        <ele>5</ele>
        <time>2018-03-15T01:35:13Z</time>
      </trkpt>
      <trkpt lat="46.71426" lon="-1.92303">
        <ele>5</ele>
        <time>2018-03-15T01:36:13Z</time>
      </trkpt>
      <trkpt lat="46.71429" lon="-1.92297">
        <ele>5</ele>
        <time>2018-03-15T01:37:13Z</time>
      </trkpt>
      <trkpt lat="46.71432" lon="-1.92285">
        <ele>5</ele>
        <time>2018-03-15T01:38:13Z</time>
      </trkpt>
      <trkpt lat="46.71432" lon="-1.92282">
        <ele>5</ele>
        <time>2018-03-15T01:39:13Z</time>
      </trkpt>
      <trkpt lat="46.7144" lon="-1.92252">
        <ele>6</ele>
        <time>2018-03-15T01:40:13Z</time>
      </trkpt>
      <trkpt lat="46.71448" lon="-1.92225">
        <ele>6</ele>
        <time>2018-03-15T01:41:13Z</time>
      </trkpt>
      <trkpt lat="46.71456" lon="-1.92198">
        <ele>6</ele>
        <time>2018-03-15T01:42:13Z</time>
      </trkpt>
      <trkpt lat="46.71459" lon="-1.92185">
        <ele>6</ele>
        <time>2018-03-15T01:43:13Z</time>
      </trkpt>
      <trkpt lat="46.7146" lon="-1.92183">
        <ele>6</ele>
        <time>2018-03-15T01:44:13Z</time>
      </trkpt>
      <trkpt lat="46.71466" lon="-1.92164">
        <ele>6</ele>
        <time>2018-03-15T01:45:13Z</time>
      </trkpt>
      <trkpt lat="46.71469" lon="-1.9215">
        <ele>6</ele>
        <time>2018-03-15T01:46:13Z</time>
      </trkpt>
      <trkpt lat="46.71474" lon="-1.92129">
        <ele>6</ele>
        <time>2018-03-15T01:47:13Z</time>
      </trkpt>
      <trkpt lat="46.7148" lon="-1.92105">
        <ele>6</ele>
        <time>2018-03-15T01:48:13Z</time>
      </trkpt>
      <trkpt lat="46.71484" lon="-1.92081">
        <ele>5</ele>
        <time>2018-03-15T01:49:13Z</time>
      </trkpt>
      <trkpt lat="46.71491" lon="-1.9204">
        <ele>6</ele>
        <time>2018-03-15T01:50:13Z</time>
      </trkpt>
      <trkpt lat="46.71492" lon="-1.92037">
        <ele>6</ele>
        <time>2018-03-15T01:51:13Z</time>
      </trkpt>
      <trkpt lat="46.715" lon="-1.91985">
        <ele>7</ele>
        <time>2018-03-15T01:52:13Z</time>
      </trkpt>
      <trkpt lat="46.71504" lon="-1.91966">
        <ele>7</ele>
        <time>2018-03-15T01:53:13Z</time>
      </trkpt>
      <trkpt lat="46.71508" lon="-1.9194">
        <ele>7</ele>
        <time>2018-03-15T01:54:13Z</time>
      </trkpt>
      <trkpt lat="46.71511" lon="-1.91921">
        <ele>7</ele>
        <time>2018-03-15T01:55:13Z</time>
      </trkpt>
      <trkpt lat="46.71515" lon="-1.91902">
        <ele>7</ele>
        <time>2018-03-15T01:56:13Z</time>
      </trkpt>
      <trkpt lat="46.71518" lon="-1.91883">
        <ele>8</ele>
        <time>2018-03-15T01:57:13Z</time>
      </trkpt>
      <trkpt lat="46.71523" lon="-1.91865">
        <ele>8</ele>
        <time>2018-03-15T01:58:13Z</time>
      </trkpt>
      <trkpt lat="46.71528" lon="-1.91847">
        <ele>8</ele>
        <time>2018-03-15T01:59:13Z</time>
      </trkpt>
      <trkpt lat="46.71534" lon="-1.91828">
        <ele>8</ele>
        <time>2018-03-15T02:00:13Z</time>
      </trkpt>
      <trkpt lat="46.71548" lon="-1.91786">
        <ele>7</ele>
        <time>2018-03-15T02:01:13Z</time>
      </trkpt>
      <trkpt lat="46.71559" lon="-1.91759">
        <ele>7</ele>
        <time>2018-03-15T02:02:13Z</time>
      </trkpt>
      <trkpt lat="46.71565" lon="-1.91742">
        <ele>7</ele>
        <time>2018-03-15T02:03:13Z</time>
      </trkpt>
      <trkpt lat="46.71573" lon="-1.91722">
        <ele>7</ele>
        <time>2018-03-15T02:04:13Z</time>
      </trkpt>
      <trkpt lat="46.71589" lon="-1.91683">
        <ele>7</ele>
        <time>2018-03-15T02:05:13Z</time>
      </trkpt>
      <trkpt lat="46.71614" lon="-1.91622">
        <ele>5</ele>
        <time>2018-03-15T02:06:13Z</time>
      </trkpt>
      <trkpt lat="46.71624" lon="-1.91596">
        <ele>5</ele>
        <time>2018-03-15T02:07:13Z</time>
      </trkpt>
      <trkpt lat="46.71632" lon="-1.9158">
        <ele>4</ele>
        <time>2018-03-15T02:08:13Z</time>
      </trkpt>
      <trkpt lat="46.71641" lon="-1.9157">
        <ele>4</ele>
        <time>2018-03-15T02:09:13Z</time>
      </trkpt>
      <trkpt lat="46.71648" lon="-1.91565">
        <ele>4</ele>
        <time>2018-03-15T02:10:13Z</time>
      </trkpt>
      <trkpt lat="46.71664" lon="-1.91556">
        <ele>3</ele>
        <time>2018-03-15T02:11:13Z</time>
      </trkpt>
      <trkpt lat="46.71674" lon="-1.91552">
        <ele>3</ele>
        <time>2018-03-15T02:12:13Z</time>
      </trkpt>
      <trkpt lat="46.71699" lon="-1.9154">
        <ele>2</ele>
        <time>2018-03-15T02:13:13Z</time>
      </trkpt>
      <trkpt lat="46.71723" lon="-1.91529">
        <ele>2</ele>
        <time>2018-03-15T02:14:13Z</time>
      </trkpt>
      <trkpt lat="46.7174" lon="-1.91519">
        <ele>2</ele>
        <time>2018-03-15T02:15:13Z</time>
      </trkpt>
      <trkpt lat="46.7175" lon="-1.91512">
        <ele>2</ele>
        <time>2018-03-15T02:16:13Z</time>
      </trkpt>
      <trkpt lat="46.7176" lon="-1.91502">
        <ele>2</ele>
        <time>2018-03-15T02:17:13Z</time>
      </trkpt>
      <trkpt lat="46.71765" lon="-1.91492">
        <ele>2</ele>
        <time>2018-03-15T02:18:13Z</time>
      </trkpt>
      <trkpt lat="46.71768" lon="-1.91484">
        <ele>2</ele>
        <time>2018-03-15T02:19:13Z</time>
      </trkpt>
      <trkpt lat="46.7177" lon="-1.91473">
        <ele>2</ele>
        <time>2018-03-15T02:20:13Z</time>
      </trkpt>
      <trkpt lat="46.71777" lon="-1.91414">
        <ele>1</ele>
        <time>2018-03-15T02:21:13Z</time>
      </trkpt>
      <trkpt lat="46.7178" lon="-1.91384">
        <ele>1</ele>
        <time>2018-03-15T02:22:13Z</time>
      </trkpt>
      <trkpt lat="46.71785" lon="-1.91362">
        <ele>1</ele>
        <time>2018-03-15T02:23:13Z</time>
      </trkpt>
      <trkpt lat="46.71792" lon="-1.91336">
        <ele>1</ele>
        <time>2018-03-15T02:24:13Z</time>
      </trkpt>
      <trkpt lat="46.71809" lon="-1.91278">
        <ele>2</ele>
        <time>2018-03-15T02:25:13Z</time>
      </trkpt>
      <trkpt lat="46.71822" lon="-1.91229">
        <ele>3</ele>
        <time>2018-03-15T02:26:13Z</time>
      </trkpt>
      <trkpt lat="46.71834" lon="-1.91176">
        <ele>3</ele>
        <time>2018-03-15T02:27:13Z</time>
      </trkpt>
      <trkpt lat="46.71839" lon="-1.91152">
        <ele>3</ele>
        <time>2018-03-15T02:28:13Z</time>
      </trkpt>
      <trkpt lat="46.71847" lon="-1.91107">
        <ele>2</ele>
        <time>2018-03-15T02:29:13Z</time>
      </trkpt>
      <trkpt lat="46.71851" lon="-1.91083">
        <ele>2</ele>
        <time>2018-03-15T02:30:13Z</time>
      </trkpt>
      <trkpt lat="46.71852" lon="-1.91064">
        <ele>2</ele>
        <time>2018-03-15T02:31:13Z</time>
      </trkpt>
      <trkpt lat="46.71852" lon="-1.91047">
        <ele>2</ele>
        <time>2018-03-15T02:32:13Z</time>
      </trkpt>
      <trkpt lat="46.71851" lon="-1.9102">
        <ele>3</ele>
        <time>2018-03-15T02:33:13Z</time>
      </trkpt>
      <trkpt lat="46.71846" lon="-1.90978">
        <ele>3</ele>
        <time>2018-03-15T02:34:13Z</time>
      </trkpt>
      <trkpt lat="46.71837" lon="-1.90885">
        <ele>5</ele>
        <time>2018-03-15T02:35:13Z</time>
      </trkpt>
      <trkpt lat="46.71832" lon="-1.90833">
        <ele>6</ele>
        <time>2018-03-15T02:36:13Z</time>
      </trkpt>
      <trkpt lat="46.71827" lon="-1.90802">
        <ele>6</ele>
        <time>2018-03-15T02:37:13Z</time>
      </trkpt>
      <trkpt lat="46.71821" lon="-1.90766">
        <ele>6</ele>
        <time>2018-03-15T02:38:13Z</time>
      </trkpt>
      <trkpt lat="46.7182" lon="-1.90764">
        <ele>6</ele>
        <time>2018-03-15T02:39:13Z</time>
      </trkpt>
      <trkpt lat="46.71811" lon="-1.90722">
        <ele>6</ele>
        <time>2018-03-15T02:40:13Z</time>
      </trkpt>
      <trkpt lat="46.71801" lon="-1.90668">
        <ele>5</ele>
        <time>2018-03-15T02:41:13Z</time>
      </trkpt>
      <trkpt lat="46.71797" lon="-1.90646">
        <ele>5</ele>
        <time>2018-03-15T02:42:13Z</time>
      </trkpt>
      <trkpt lat="46.71795" lon="-1.90616">
        <ele>6</ele>
        <time>2018-03-15T02:43:13Z</time>
      </trkpt>
      <trkpt lat="46.71795" lon="-1.90597">
        <ele>7</ele>
        <time>2018-03-15T02:44:13Z</time>
      </trkpt>
      <trkpt lat="46.71795" lon="-1.90578">
        <ele>7</ele>
        <time>2018-03-15T02:45:13Z</time>
      </trkpt>
      <trkpt lat="46.71798" lon="-1.90553">
        <ele>7</ele>
        <time>2018-03-15T02:46:13Z</time>
      </trkpt>
      <trkpt lat="46.71806" lon="-1.90529">
        <ele>7</ele>
        <time>2018-03-15T02:47:13Z</time>
      </trkpt>
      <trkpt lat="46.71818" lon="-1.90502">
        <ele>6</ele>
        <time>2018-03-15T02:48:13Z</time>
      </trkpt>
      <trkpt lat="46.71819" lon="-1.90499">
        <ele>6</ele>
        <time>2018-03-15T02:49:13Z</time>
      </trkpt>
      <trkpt lat="46.7183" lon="-1.90473">
        <ele>5</ele>
        <time>2018-03-15T02:50:13Z</time>
      </trkpt>
      <trkpt lat="46.71842" lon="-1.90449">
        <ele>5</ele>
        <time>2018-03-15T02:51:13Z</time>
      </trkpt>
      <trkpt lat="46.71845" lon="-1.90439">
        <ele>4</ele>
        <time>2018-03-15T02:52:13Z</time>
      </trkpt>
      <trkpt lat="46.71846" lon="-1.90435">
        <ele>4</ele>
        <time>2018-03-15T02:53:13Z</time>
      </trkpt>
      <trkpt lat="46.71847" lon="-1.90431">
        <ele>4</ele>
        <time>2018-03-15T02:54:13Z</time>
      </trkpt>
      <trkpt lat="46.71848" lon="-1.90421">
        <ele>4</ele>
        <time>2018-03-15T02:55:13Z</time>
      </trkpt>
      <trkpt lat="46.71851" lon="-1.90389">
        <ele>5</ele>
        <time>2018-03-15T02:56:13Z</time>
      </trkpt>
      <trkpt lat="46.71852" lon="-1.90384">
        <ele>5</ele>
        <time>2018-03-15T02:57:13Z</time>
      </trkpt>
      <trkpt lat="46.71852" lon="-1.9038">
        <ele>5</ele>
        <time>2018-03-15T02:58:13Z</time>
      </trkpt>
      <trkpt lat="46.71851" lon="-1.90377">
        <ele>5</ele>
        <time>2018-03-15T02:59:13Z</time>
      </trkpt>
      <trkpt lat="46.71851" lon="-1.90375">
        <ele>5</ele>
        <time>2018-03-15T03:00:13Z</time>
      </trkpt>
      <trkpt lat="46.7185" lon="-1.90372">
        <ele>5</ele>
        <time>2018-03-15T03:01:13Z</time>
      </trkpt>
      <trkpt lat="46.7185" lon="-1.9037">
        <ele>5</ele>
        <time>2018-03-15T03:02:13Z</time>
      </trkpt>
      <trkpt lat="46.71848" lon="-1.90366">
        <ele>5</ele>
        <time>2018-03-15T03:03:13Z</time>
      </trkpt>
      <trkpt lat="46.71844" lon="-1.90358">
        <ele>6</ele>
        <time>2018-03-15T03:04:13Z</time>
      </trkpt>
      <trkpt lat="46.71839" lon="-1.90349">
        <ele>6</ele>
        <time>2018-03-15T03:05:13Z</time>
      </trkpt>
      <trkpt lat="46.71839" lon="-1.90349">
        <ele>6</ele>
        <time>2018-03-15T03:06:13Z</time>
      </trkpt>
      <trkpt lat="46.71865" lon="-1.90316">
        <ele>6</ele>
        <time>2018-03-15T03:07:13Z</time>
      </trkpt>
      <trkpt lat="46.71869" lon="-1.90308">
        <ele>6</ele>
        <time>2018-03-15T03:08:13Z</time>
      </trkpt>
      <trkpt lat="46.71872" lon="-1.90301">
        <ele>6</ele>
        <time>2018-03-15T03:09:13Z</time>
      </trkpt>
      <trkpt lat="46.71876" lon="-1.90283">
        <ele>7</ele>
        <time>2018-03-15T03:10:13Z</time>
      </trkpt>
      <trkpt lat="46.71879" lon="-1.90274">
        <ele>7</ele>
        <time>2018-03-15T03:11:13Z</time>
      </trkpt>
      <trkpt lat="46.71883" lon="-1.90267">
        <ele>7</ele>
        <time>2018-03-15T03:12:13Z</time>
      </trkpt>
      <trkpt lat="46.71886" lon="-1.90263">
        <ele>7</ele>
        <time>2018-03-15T03:13:13Z</time>
      </trkpt>
      <trkpt lat="46.7189" lon="-1.9026">
        <ele>7</ele>
        <time>2018-03-15T03:14:13Z</time>
      </trkpt>
      <trkpt lat="46.71896" lon="-1.90256">
        <ele>7</ele>
        <time>2018-03-15T03:15:13Z</time>
      </trkpt>
      <trkpt lat="46.719" lon="-1.90254">
        <ele>7</ele>
        <time>2018-03-15T03:16:13Z</time>
      </trkpt>
      <trkpt lat="46.71914" lon="-1.90248">
        <ele>6</ele>
        <time>2018-03-15T03:17:13Z</time>
      </trkpt>
      <trkpt lat="46.71927" lon="-1.9024">
        <ele>6</ele>
        <time>2018-03-15T03:18:13Z</time>
      </trkpt>
      <trkpt lat="46.71934" lon="-1.90235">
        <ele>6</ele>
        <time>2018-03-15T03:19:13Z</time>
      </trkpt>
      <trkpt lat="46.71941" lon="-1.90227">
        <ele>6</ele>
        <time>2018-03-15T03:20:13Z</time>
      </trkpt>
      <trkpt lat="46.71946" lon="-1.90218">
        <ele>6</ele>
        <time>2018-03-15T03:21:13Z</time>
      </trkpt>
      <trkpt lat="46.71949" lon="-1.90211">
        <ele>6</ele>
        <time>2018-03-15T03:22:13Z</time>
      </trkpt>
      <trkpt lat="46.71953" lon="-1.90203">
        <ele>6</ele>
        <time>2018-03-15T03:23:13Z</time>
      </trkpt>
      <trkpt lat="46.71953" lon="-1.90201">
        <ele>6</ele>
        <time>2018-03-15T03:24:13Z</time>
      </trkpt>
      <trkpt lat="46.71956" lon="-1.90191">
        <ele>6</ele>
        <time>2018-03-15T03:25:13Z</time>
      </trkpt>
      <trkpt lat="46.71958" lon="-1.90176">
        <ele>6</ele>
        <time>2018-03-15T03:26:13Z</time>
      </trkpt>
      <trkpt lat="46.71959" lon="-1.90153">
        <ele>6</ele>
        <time>2018-03-15T03:27:13Z</time>
      </trkpt>
      <trkpt lat="46.71962" lon="-1.90125">
        <ele>6</ele>
        <time>2018-03-15T03:28:13Z</time>
      </trkpt>
      <trkpt lat="46.71965" lon="-1.90106">
        <ele>6</ele>
        <time>2018-03-15T03:29:13Z</time>
      </trkpt>
      <trkpt lat="46.71968" lon="-1.9008">
        <ele>6</ele>
        <time>2018-03-15T03:30:13Z</time>
      </trkpt>
      <trkpt lat="46.71973" lon="-1.90062">
        <ele>6</ele>
        <time>2018-03-15T03:31:13Z</time>
      </trkpt>
      <trkpt lat="46.71979" lon="-1.9005">
        <ele>6</ele>
        <time>2018-03-15T03:32:13Z</time>
      </trkpt>
      <trkpt lat="46.7199" lon="-1.90031">
        <ele>6</ele>
        <time>2018-03-15T03:33:13Z</time>
      </trkpt>
      <trkpt lat="46.72002" lon="-1.90007">
        <ele>6</ele>
        <time>2018-03-15T03:34:13Z</time>
      </trkpt>
      <trkpt lat="46.72013" lon="-1.89987">
        <ele>6</ele>
        <time>2018-03-15T03:35:13Z</time>
      </trkpt>
      <trkpt lat="46.7202" lon="-1.89975">
        <ele>7</ele>
        <time>2018-03-15T03:36:13Z</time>
      </trkpt>
      <trkpt lat="46.72029" lon="-1.8996">
        <ele>7</ele>
        <time>2018-03-15T03:37:13Z</time>
      </trkpt>
      <trkpt lat="46.72037" lon="-1.89948">
        <ele>7</ele>
        <time>2018-03-15T03:38:13Z</time>
      </trkpt>
      <trkpt lat="46.72042" lon="-1.89942">
        <ele>7</ele>
        <time>2018-03-15T03:39:13Z</time>
      </trkpt>
      <trkpt lat="46.72056" lon="-1.8993">
        <ele>7</ele>
        <time>2018-03-15T03:40:13Z</time>
      </trkpt>
      <trkpt lat="46.72084" lon="-1.89908">
        <ele>7</ele>
        <time>2018-03-15T03:41:13Z</time>
      </trkpt>
      <trkpt lat="46.72119" lon="-1.89878">
        <ele>8</ele>
        <time>2018-03-15T03:42:13Z</time>
      </trkpt>
      <trkpt lat="46.72143" lon="-1.89859">
        <ele>9</ele>
        <time>2018-03-15T03:43:13Z</time>
      </trkpt>
      <trkpt lat="46.72178" lon="-1.8983">
        <ele>9</ele>
        <time>2018-03-15T03:44:13Z</time>
      </trkpt>
      <trkpt lat="46.72203" lon="-1.89809">
        <ele>8</ele>
        <time>2018-03-15T03:45:13Z</time>
      </trkpt>
      <trkpt lat="46.72225" lon="-1.89792">
        <ele>7</ele>
        <time>2018-03-15T03:46:13Z</time>
      </trkpt>
      <trkpt lat="46.72253" lon="-1.8977">
        <ele>7</ele>
        <time>2018-03-15T03:47:13Z</time>
      </trkpt>
      <trkpt lat="46.72372" lon="-1.89674">
        <ele>4</ele>
        <time>2018-03-15T03:48:13Z</time>
      </trkpt>
      <trkpt lat="46.72402" lon="-1.89652">
        <ele>3</ele>
        <time>2018-03-15T03:49:13Z</time>
      </trkpt>
      <trkpt lat="46.72424" lon="-1.89628">
        <ele>3</ele>
        <time>2018-03-15T03:50:13Z</time>
      </trkpt>
      <trkpt lat="46.72427" lon="-1.89625">
        <ele>3</ele>
        <time>2018-03-15T03:51:13Z</time>
      </trkpt>
      <trkpt lat="46.72442" lon="-1.89608">
        <ele>3</ele>
        <time>2018-03-15T03:52:13Z</time>
      </trkpt>
      <trkpt lat="46.72455" lon="-1.89591">
        <ele>3</ele>
        <time>2018-03-15T03:53:13Z</time>
      </trkpt>
      <trkpt lat="46.7247" lon="-1.89559">
        <ele>4</ele>
        <time>2018-03-15T03:54:13Z</time>
      </trkpt>
      <trkpt lat="46.72476" lon="-1.89546">
        <ele>4</ele>
        <time>2018-03-15T03:55:13Z</time>
      </trkpt>
      <trkpt lat="46.72476" lon="-1.89545">
        <ele>4</ele>
        <time>2018-03-15T03:56:13Z</time>
      </trkpt>
      <trkpt lat="46.72475" lon="-1.89545">
        <ele>4</ele>
        <time>2018-03-15T03:57:13Z</time>
      </trkpt>
      <trkpt lat="46.72475" lon="-1.89544">
        <ele>4</ele>
        <time>2018-03-15T03:58:13Z</time>
      </trkpt>
      <trkpt lat="46.72475" lon="-1.89543">
        <ele>4</ele>
        <time>2018-03-15T03:59:13Z</time>
      </trkpt>
      <trkpt lat="46.72475" lon="-1.89542">
        <ele>4</ele>
        <time>2018-03-15T04:00:13Z</time>
      </trkpt>
      <trkpt lat="46.72475" lon="-1.89541">
        <ele>4</ele>
        <time>2018-03-15T04:01:13Z</time>
      </trkpt>
      <trkpt lat="46.72476" lon="-1.8954">
        <ele>4</ele>
        <time>2018-03-15T04:02:13Z</time>
      </trkpt>
      <trkpt lat="46.72476" lon="-1.89539">
        <ele>4</ele>
        <time>2018-03-15T04:03:13Z</time>
      </trkpt>
      <trkpt lat="46.72476" lon="-1.89538">
        <ele>4</ele>
        <time>2018-03-15T04:04:13Z</time>
      </trkpt>
      <trkpt lat="46.72476" lon="-1.89537">
        <ele>4</ele>
        <time>2018-03-15T04:05:13Z</time>
      </trkpt>
      <trkpt lat="46.72477" lon="-1.89537">
        <ele>4</ele>
        <time>2018-03-15T04:06:13Z</time>
      </trkpt>
      <trkpt lat="46.72477" lon="-1.89536">
        <ele>4</ele>
        <time>2018-03-15T04:07:13Z</time>
      </trkpt>
      <trkpt lat="46.72478" lon="-1.89536">
        <ele>4</ele>
        <time>2018-03-15T04:08:13Z</time>
      </trkpt>
      <trkpt lat="46.72478" lon="-1.89535">
        <ele>4</ele>
        <time>2018-03-15T04:09:13Z</time>
      </trkpt>
      <trkpt lat="46.72479" lon="-1.89534">
        <ele>4</ele>
        <time>2018-03-15T04:10:13Z</time>
      </trkpt>
      <trkpt lat="46.7248" lon="-1.89534">
        <ele>4</ele>
        <time>2018-03-15T04:11:13Z</time>
      </trkpt>
      <trkpt lat="46.7248" lon="-1.89533">
        <ele>4</ele>
        <time>2018-03-15T04:12:13Z</time>
      </trkpt>
      <trkpt lat="46.72481" lon="-1.89533">
        <ele>4</ele>
        <time>2018-03-15T04:13:13Z</time>
      </trkpt>
      <trkpt lat="46.72482" lon="-1.89533">
        <ele>4</ele>
        <time>2018-03-15T04:14:13Z</time>
      </trkpt>
      <trkpt lat="46.72483" lon="-1.89533">
        <ele>4</ele>
        <time>2018-03-15T04:15:13Z</time>
      </trkpt>
      <trkpt lat="46.72483" lon="-1.89534">
        <ele>4</ele>
        <time>2018-03-15T04:16:13Z</time>
      </trkpt>
      <trkpt lat="46.72484" lon="-1.89534">
        <ele>4</ele>
        <time>2018-03-15T04:17:13Z</time>
      </trkpt>
      <trkpt lat="46.72485" lon="-1.89534">
        <ele>4</ele>
        <time>2018-03-15T04:18:13Z</time>
      </trkpt>
      <trkpt lat="46.72495" lon="-1.89523">
        <ele>4</ele>
        <time>2018-03-15T04:19:13Z</time>
      </trkpt>
      <trkpt lat="46.72505" lon="-1.89518">
        <ele>4</ele>
        <time>2018-03-15T04:20:13Z</time>
      </trkpt>
      <trkpt lat="46.72523" lon="-1.89491">
        <ele>4</ele>
        <time>2018-03-15T04:21:13Z</time>
      </trkpt>
      <trkpt lat="46.72526" lon="-1.89486">
        <ele>4</ele>
        <time>2018-03-15T04:22:13Z</time>
      </trkpt>
      <trkpt lat="46.72545" lon="-1.89447">
        <ele>4</ele>
        <time>2018-03-15T04:23:13Z</time>
      </trkpt>
      <trkpt lat="46.72554" lon="-1.89428">
        <ele>4</ele>
        <time>2018-03-15T04:24:13Z</time>
      </trkpt>
      <trkpt lat="46.72555" lon="-1.89417">
        <ele>4</ele>
        <time>2018-03-15T04:25:13Z</time>
      </trkpt>
      <trkpt lat="46.72569" lon="-1.89371">
        <ele>5</ele>
        <time>2018-03-15T04:26:13Z</time>
      </trkpt>
      <trkpt lat="46.72573" lon="-1.89367">
        <ele>5</ele>
        <time>2018-03-15T04:27:13Z</time>
      </trkpt>
      <trkpt lat="46.72578" lon="-1.89344">
        <ele>5</ele>
        <time>2018-03-15T04:28:13Z</time>
      </trkpt>
      <trkpt lat="46.72586" lon="-1.89297">
        <ele>5</ele>
        <time>2018-03-15T04:29:13Z</time>
      </trkpt>
      <trkpt lat="46.72595" lon="-1.89253">
        <ele>5</ele>
        <time>2018-03-15T04:30:13Z</time>
      </trkpt>
      <trkpt lat="46.72603" lon="-1.89203">
        <ele>6</ele>
        <time>2018-03-15T04:31:13Z</time>
      </trkpt>
      <trkpt lat="46.72611" lon="-1.89151">
        <ele>6</ele>
        <time>2018-03-15T04:32:13Z</time>
      </trkpt>
      <trkpt lat="46.72615" lon="-1.89119">
        <ele>6</ele>
        <time>2018-03-15T04:33:13Z</time>
      </trkpt>
      <trkpt lat="46.72624" lon="-1.89045">
        <ele>6</ele>
        <time>2018-03-15T04:34:13Z</time>
      </trkpt>
      <trkpt lat="46.72634" lon="-1.88962">
        <ele>6</ele>
        <time>2018-03-15T04:35:13Z</time>
      </trkpt>
      <trkpt lat="46.72641" lon="-1.88904">
        <ele>6</ele>
        <time>2018-03-15T04:36:13Z</time>
      </trkpt>
      <trkpt lat="46.7265" lon="-1.88821">
        <ele>6</ele>
        <time>2018-03-15T04:37:13Z</time>
      </trkpt>
      <trkpt lat="46.72657" lon="-1.88762">
        <ele>6</ele>
        <time>2018-03-15T04:38:13Z</time>
      </trkpt>
      <trkpt lat="46.72667" lon="-1.88649">
        <ele>6</ele>
        <time>2018-03-15T04:39:13Z</time>
      </trkpt>
      <trkpt lat="46.72669" lon="-1.88627">
        <ele>5</ele>
        <time>2018-03-15T04:40:13Z</time>
      </trkpt>
      <trkpt lat="46.72673" lon="-1.88584">
        <ele>5</ele>
        <time>2018-03-15T04:41:13Z</time>
      </trkpt>
      <trkpt lat="46.72678" lon="-1.88523">
        <ele>4</ele>
        <time>2018-03-15T04:42:13Z</time>
      </trkpt>
      <trkpt lat="46.72682" lon="-1.88474">
        <ele>4</ele>
        <time>2018-03-15T04:43:13Z</time>
      </trkpt>
      <trkpt lat="46.72686" lon="-1.88428">
        <ele>5</ele>
        <time>2018-03-15T04:44:13Z</time>
      </trkpt>
      <trkpt lat="46.72687" lon="-1.88419">
        <ele>5</ele>
        <time>2018-03-15T04:45:13Z</time>
      </trkpt>
      <trkpt lat="46.72688" lon="-1.88414">
        <ele>5</ele>
        <time>2018-03-15T04:46:13Z</time>
      </trkpt>
      <trkpt lat="46.72689" lon="-1.88405">
        <ele>5</ele>
        <time>2018-03-15T04:47:13Z</time>
      </trkpt>
      <trkpt lat="46.72694" lon="-1.88384">
        <ele>5</ele>
        <time>2018-03-15T04:48:13Z</time>
      </trkpt>
      <trkpt lat="46.72701" lon="-1.88354">
        <ele>5</ele>
        <time>2018-03-15T04:49:13Z</time>
      </trkpt>
      <trkpt lat="46.72708" lon="-1.88329">
        <ele>5</ele>
        <time>2018-03-15T04:50:13Z</time>
      </trkpt>
      <trkpt lat="46.72718" lon="-1.88298">
        <ele>6</ele>
        <time>2018-03-15T04:51:13Z</time>
      </trkpt>
      <trkpt lat="46.72729" lon="-1.88265">
        <ele>7</ele>
        <time>2018-03-15T04:52:13Z</time>
      </trkpt>
      <trkpt lat="46.72743" lon="-1.88234">
        <ele>8</ele>
        <time>2018-03-15T04:53:13Z</time>
      </trkpt>
      <trkpt lat="46.72753" lon="-1.88214">
        <ele>8</ele>
        <time>2018-03-15T04:54:13Z</time>
      </trkpt>
      <trkpt lat="46.72758" lon="-1.88205">
        <ele>8</ele>
        <time>2018-03-15T04:55:13Z</time>
      </trkpt>
      <trkpt lat="46.72774" lon="-1.88175">
        <ele>9</ele>
        <time>2018-03-15T04:56:13Z</time>
      </trkpt>
      <trkpt lat="46.7278" lon="-1.88165">
        <ele>9</ele>
        <time>2018-03-15T04:57:13Z</time>
      </trkpt>
      <trkpt lat="46.72797" lon="-1.88139">
        <ele>10</ele>
        <time>2018-03-15T04:58:13Z</time>
      </trkpt>
      <trkpt lat="46.72822" lon="-1.88105">
        <ele>12</ele>
        <time>2018-03-15T04:59:13Z</time>
      </trkpt>
      <trkpt lat="46.72845" lon="-1.88074">
        <ele>12</ele>
        <time>2018-03-15T05:00:13Z</time>
      </trkpt>
      <trkpt lat="46.72857" lon="-1.88056">
        <ele>12</ele>
        <time>2018-03-15T05:01:13Z</time>
      </trkpt>
      <trkpt lat="46.72877" lon="-1.88029">
        <ele>12</ele>
        <time>2018-03-15T05:02:13Z</time>
      </trkpt>
      <trkpt lat="46.72901" lon="-1.87996">
        <ele>12</ele>
        <time>2018-03-15T05:03:13Z</time>
      </trkpt>
      <trkpt lat="46.72903" lon="-1.87993">
        <ele>12</ele>
        <time>2018-03-15T05:04:13Z</time>
      </trkpt>
      <trkpt lat="46.72915" lon="-1.87978">
        <ele>12</ele>
        <time>2018-03-15T05:05:13Z</time>
      </trkpt>
      <trkpt lat="46.72931" lon="-1.87954">
        <ele>12</ele>
        <time>2018-03-15T05:06:13Z</time>
      </trkpt>
      <trkpt lat="46.72942" lon="-1.87939">
        <ele>12</ele>
        <time>2018-03-15T05:07:13Z</time>
      </trkpt>
      <trkpt lat="46.72957" lon="-1.87915">
        <ele>12</ele>
        <time>2018-03-15T05:08:13Z</time>
      </trkpt>
      <trkpt lat="46.72971" lon="-1.8789">
        <ele>11</ele>
        <time>2018-03-15T05:09:13Z</time>
      </trkpt>
      <trkpt lat="46.72982" lon="-1.87863">
        <ele>11</ele>
        <time>2018-03-15T05:10:13Z</time>
      </trkpt>
      <trkpt lat="46.7299" lon="-1.87843">
        <ele>11</ele>
        <time>2018-03-15T05:11:13Z</time>
      </trkpt>
      <trkpt lat="46.73" lon="-1.87814">
        <ele>11</ele>
        <time>2018-03-15T05:12:13Z</time>
      </trkpt>
      <trkpt lat="46.73003" lon="-1.87797">
        <ele>11</ele>
        <time>2018-03-15T05:13:13Z</time>
      </trkpt>
      <trkpt lat="46.73005" lon="-1.87792">
        <ele>11</ele>
        <time>2018-03-15T05:14:13Z</time>
      </trkpt>
      <trkpt lat="46.7301" lon="-1.87775">
        <ele>11</ele>
        <time>2018-03-15T05:15:13Z</time>
      </trkpt>
      <trkpt lat="46.73032" lon="-1.87707">
        <ele>11</ele>
        <time>2018-03-15T05:16:13Z</time>
      </trkpt>
      <trkpt lat="46.73037" lon="-1.8769">
        <ele>11</ele>
        <time>2018-03-15T05:17:13Z</time>
      </trkpt>
      <trkpt lat="46.7305" lon="-1.87651">
        <ele>11</ele>
        <time>2018-03-15T05:18:13Z</time>
      </trkpt>
      <trkpt lat="46.73054" lon="-1.87646">
        <ele>11</ele>
        <time>2018-03-15T05:19:13Z</time>
      </trkpt>
      <trkpt lat="46.73065" lon="-1.87612">
        <ele>11</ele>
        <time>2018-03-15T05:20:13Z</time>
      </trkpt>
      <trkpt lat="46.73069" lon="-1.87597">
        <ele>11</ele>
        <time>2018-03-15T05:21:13Z</time>
      </trkpt>
      <trkpt lat="46.73071" lon="-1.87591">
        <ele>11</ele>
        <time>2018-03-15T05:22:13Z</time>
      </trkpt>
      <trkpt lat="46.73084" lon="-1.87547">
        <ele>11</ele>
        <time>2018-03-15T05:23:13Z</time>
      </trkpt>
      <trkpt lat="46.73092" lon="-1.87524">
        <ele>11</ele>
        <time>2018-03-15T05:24:13Z</time>
      </trkpt>
      <trkpt lat="46.73132" lon="-1.87393">
        <ele>12</ele>
        <time>2018-03-15T05:25:13Z</time>
      </trkpt>
      <trkpt lat="46.73159" lon="-1.87307">
        <ele>12</ele>
        <time>2018-03-15T05:26:13Z</time>
      </trkpt>
      <trkpt lat="46.73176" lon="-1.87254">
        <ele>12</ele>
        <time>2018-03-15T05:27:13Z</time>
      </trkpt>
      <trkpt lat="46.73179" lon="-1.87237">
        <ele>12</ele>
        <time>2018-03-15T05:28:13Z</time>
      </trkpt>
      <trkpt lat="46.7318" lon="-1.8723">
        <ele>12</ele>
        <time>2018-03-15T05:29:13Z</time>
      </trkpt>
      <trkpt lat="46.73181" lon="-1.87222">
        <ele>12</ele>
        <time>2018-03-15T05:30:13Z</time>
      </trkpt>
      <trkpt lat="46.73183" lon="-1.87214">
        <ele>12</ele>
        <time>2018-03-15T05:31:13Z</time>
      </trkpt>
      <trkpt lat="46.73183" lon="-1.87205">
        <ele>12</ele>
        <time>2018-03-15T05:32:13Z</time>
      </trkpt>
      <trkpt lat="46.73184" lon="-1.87191">
        <ele>12</ele>
        <time>2018-03-15T05:33:13Z</time>
      </trkpt>
      <trkpt lat="46.73184" lon="-1.87191">
        <ele>12</ele>
        <time>2018-03-15T05:34:13Z</time>
      </trkpt>
      <trkpt lat="46.73183" lon="-1.8719">
        <ele>12</ele>
        <time>2018-03-15T05:35:13Z</time>
      </trkpt>
      <trkpt lat="46.73182" lon="-1.87188">
        <ele>12</ele>
        <time>2018-03-15T05:36:13Z</time>
      </trkpt>
      <trkpt lat="46.73181" lon="-1.87186">
        <ele>12</ele>
        <time>2018-03-15T05:37:13Z</time>
      </trkpt>
      <trkpt lat="46.7318" lon="-1.87184">
        <ele>12</ele>
        <time>2018-03-15T05:38:13Z</time>
      </trkpt>
      <trkpt lat="46.7318" lon="-1.87182">
        <ele>12</ele>
        <time>2018-03-15T05:39:13Z</time>
      </trkpt>
      <trkpt lat="46.73179" lon="-1.8718">
        <ele>12</ele>
        <time>2018-03-15T05:40:13Z</time>
      </trkpt>
      <trkpt lat="46.73179" lon="-1.87178">
        <ele>12</ele>
        <time>2018-03-15T05:41:13Z</time>
      </trkpt>
      <trkpt lat="46.73178" lon="-1.87175">
        <ele>13</ele>
        <time>2018-03-15T05:42:13Z</time>
      </trkpt>
      <trkpt lat="46.73178" lon="-1.87172">
        <ele>13</ele>
        <time>2018-03-15T05:43:13Z</time>
      </trkpt>
      <trkpt lat="46.73178" lon="-1.87169">
        <ele>13</ele>
        <time>2018-03-15T05:44:13Z</time>
      </trkpt>
      <trkpt lat="46.73179" lon="-1.87166">
        <ele>13</ele>
        <time>2018-03-15T05:45:13Z</time>
      </trkpt>
      <trkpt lat="46.73179" lon="-1.87163">
        <ele>12</ele>
        <time>2018-03-15T05:46:13Z</time>
      </trkpt>
      <trkpt lat="46.7318" lon="-1.8716">
        <ele>12</ele>
        <time>2018-03-15T05:47:13Z</time>
      </trkpt>
      <trkpt lat="46.7318" lon="-1.87158">
        <ele>12</ele>
        <time>2018-03-15T05:48:13Z</time>
      </trkpt>
      <trkpt lat="46.73181" lon="-1.87155">
        <ele>12</ele>
        <time>2018-03-15T05:49:13Z</time>
      </trkpt>
      <trkpt lat="46.73182" lon="-1.87152">
        <ele>12</ele>
        <time>2018-03-15T05:50:13Z</time>
      </trkpt>
      <trkpt lat="46.73184" lon="-1.8715">
        <ele>12</ele>
        <time>2018-03-15T05:51:13Z</time>
      </trkpt>
      <trkpt lat="46.73186" lon="-1.87148">
        <ele>12</ele>
        <time>2018-03-15T05:52:13Z</time>
      </trkpt>
      <trkpt lat="46.73187" lon="-1.87148">
        <ele>12</ele>
        <time>2018-03-15T05:53:13Z</time>
      </trkpt>
      <trkpt lat="46.73188" lon="-1.87147">
        <ele>12</ele>
        <time>2018-03-15T05:54:13Z</time>
      </trkpt>
      <trkpt lat="46.73189" lon="-1.87146">
        <ele>12</ele>
        <time>2018-03-15T05:55:13Z</time>
      </trkpt>
      <trkpt lat="46.7319" lon="-1.87145">
        <ele>12</ele>
        <time>2018-03-15T05:56:13Z</time>
      </trkpt>
      <trkpt lat="46.73191" lon="-1.87145">
        <ele>12</ele>
        <time>2018-03-15T05:57:13Z</time>
      </trkpt>
      <trkpt lat="46.73192" lon="-1.87144">
        <ele>12</ele>
        <time>2018-03-15T05:58:13Z</time>
      </trkpt>
      <trkpt lat="46.73194" lon="-1.87144">
        <ele>12</ele>
        <time>2018-03-15T05:59:13Z</time>
      </trkpt>
      <trkpt lat="46.73195" lon="-1.87144">
        <ele>12</ele>
        <time>2018-03-15T06:00:13Z</time>
      </trkpt>
      <trkpt lat="46.73199" lon="-1.87141">
        <ele>11</ele>
        <time>2018-03-15T06:01:13Z</time>
      </trkpt>
      <trkpt lat="46.73203" lon="-1.87137">
        <ele>11</ele>
        <time>2018-03-15T06:02:13Z</time>
      </trkpt>
      <trkpt lat="46.73205" lon="-1.87132">
        <ele>11</ele>
        <time>2018-03-15T06:03:13Z</time>
      </trkpt>
      <trkpt lat="46.73208" lon="-1.87126">
        <ele>11</ele>
        <time>2018-03-15T06:04:13Z</time>
      </trkpt>
      <trkpt lat="46.73209" lon="-1.8712">
        <ele>11</ele>
        <time>2018-03-15T06:05:13Z</time>
      </trkpt>
      <trkpt lat="46.73211" lon="-1.87109">
        <ele>11</ele>
        <time>2018-03-15T06:06:13Z</time>
      </trkpt>
      <trkpt lat="46.7321" lon="-1.871">
        <ele>11</ele>
        <time>2018-03-15T06:07:13Z</time>
      </trkpt>
      <trkpt lat="46.73208" lon="-1.87069">
        <ele>10</ele>
        <time>2018-03-15T06:08:13Z</time>
      </trkpt>
      <trkpt lat="46.73206" lon="-1.87034">
        <ele>10</ele>
        <time>2018-03-15T06:09:13Z</time>
      </trkpt>
      <trkpt lat="46.73204" lon="-1.87006">
        <ele>10</ele>
        <time>2018-03-15T06:10:13Z</time>
      </trkpt>
      <trkpt lat="46.73203" lon="-1.86984">
        <ele>9</ele>
        <time>2018-03-15T06:11:13Z</time>
      </trkpt>
      <trkpt lat="46.73202" lon="-1.86972">
        <ele>9</ele>
        <time>2018-03-15T06:12:13Z</time>
      </trkpt>
      <trkpt lat="46.73198" lon="-1.86945">
        <ele>8</ele>
        <time>2018-03-15T06:13:13Z</time>
      </trkpt>
      <trkpt lat="46.73191" lon="-1.86902">
        <ele>8</ele>
        <time>2018-03-15T06:14:13Z</time>
      </trkpt>
      <trkpt lat="46.7318" lon="-1.86831">
        <ele>7</ele>
        <time>2018-03-15T06:15:13Z</time>
      </trkpt>
      <trkpt lat="46.73167" lon="-1.86748">
        <ele>6</ele>
        <time>2018-03-15T06:16:13Z</time>
      </trkpt>
      <trkpt lat="46.73162" lon="-1.86716">
        <ele>7</ele>
        <time>2018-03-15T06:17:13Z</time>
      </trkpt>
      <trkpt lat="46.73154" lon="-1.86672">
        <ele>8</ele>
        <time>2018-03-15T06:18:13Z</time>
      </trkpt>
      <trkpt lat="46.73145" lon="-1.86608">
        <ele>10</ele>
        <time>2018-03-15T06:19:13Z</time>
      </trkpt>
      <trkpt lat="46.73139" lon="-1.86573">
        <ele>11</ele>
        <time>2018-03-15T06:20:13Z</time>
      </trkpt>
      <trkpt lat="46.73136" lon="-1.86555">
        <ele>11</ele>
        <time>2018-03-15T06:21:13Z</time>
      </trkpt>
      <trkpt lat="46.73135" lon="-1.86543">
        <ele>11</ele>
        <time>2018-03-15T06:22:13Z</time>
      </trkpt>
      <trkpt lat="46.73133" lon="-1.86528">
        <ele>11</ele>
        <time>2018-03-15T06:23:13Z</time>
      </trkpt>
      <trkpt lat="46.73133" lon="-1.8651">
        <ele>10</ele>
        <time>2018-03-15T06:24:13Z</time>
      </trkpt>
      <trkpt lat="46.73133" lon="-1.86486">
        <ele>10</ele>
        <time>2018-03-15T06:25:13Z</time>
      </trkpt>
      <trkpt lat="46.73133" lon="-1.86467">
        <ele>10</ele>
        <time>2018-03-15T06:26:13Z</time>
      </trkpt>
      <trkpt lat="46.73134" lon="-1.86386">
        <ele>9</ele>
        <time>2018-03-15T06:27:13Z</time>
      </trkpt>
      <trkpt lat="46.73136" lon="-1.86309">
        <ele>10</ele>
        <time>2018-03-15T06:28:13Z</time>
      </trkpt>
      <trkpt lat="46.73137" lon="-1.86284">
        <ele>10</ele>
        <time>2018-03-15T06:29:13Z</time>
      </trkpt>
      <trkpt lat="46.7314" lon="-1.86155">
        <ele>11</ele>
        <time>2018-03-15T06:30:13Z</time>
      </trkpt>
      <trkpt lat="46.73141" lon="-1.86123">
        <ele>11</ele>
        <time>2018-03-15T06:31:13Z</time>
      </trkpt>
      <trkpt lat="46.73142" lon="-1.86101">
        <ele>11</ele>
        <time>2018-03-15T06:32:13Z</time>
      </trkpt>
      <trkpt lat="46.73142" lon="-1.86074">
        <ele>11</ele>
        <time>2018-03-15T06:33:13Z</time>
      </trkpt>
      <trkpt lat="46.73142" lon="-1.86052">
        <ele>11</ele>
        <time>2018-03-15T06:34:13Z</time>
      </trkpt>
      <trkpt lat="46.73141" lon="-1.8603">
        <ele>11</ele>
        <time>2018-03-15T06:35:13Z</time>
      </trkpt>
      <trkpt lat="46.73139" lon="-1.86009">
        <ele>11</ele>
        <time>2018-03-15T06:36:13Z</time>
      </trkpt>
      <trkpt lat="46.73136" lon="-1.85988">
        <ele>11</ele>
        <time>2018-03-15T06:37:13Z</time>
      </trkpt>
      <trkpt lat="46.73131" lon="-1.85958">
        <ele>10</ele>
        <time>2018-03-15T06:38:13Z</time>
      </trkpt>
      <trkpt lat="46.73119" lon="-1.85908">
        <ele>10</ele>
        <time>2018-03-15T06:39:13Z</time>
      </trkpt>
      <trkpt lat="46.73101" lon="-1.85837">
        <ele>10</ele>
        <time>2018-03-15T06:40:13Z</time>
      </trkpt>
      <trkpt lat="46.7309" lon="-1.85791">
        <ele>11</ele>
        <time>2018-03-15T06:41:13Z</time>
      </trkpt>
      <trkpt lat="46.73087" lon="-1.85769">
        <ele>12</ele>
        <time>2018-03-15T06:42:13Z</time>
      </trkpt>
      <trkpt lat="46.73084" lon="-1.85756">
        <ele>12</ele>
        <time>2018-03-15T06:43:13Z</time>
      </trkpt>
      <trkpt lat="46.73081" lon="-1.85738">
        <ele>12</ele>
        <time>2018-03-15T06:44:13Z</time>
      </trkpt>
      <trkpt lat="46.73079" lon="-1.85723">
        <ele>12</ele>
        <time>2018-03-15T06:45:13Z</time>
      </trkpt>
      <trkpt lat="46.73075" lon="-1.85694">
        <ele>12</ele>
        <time>2018-03-15T06:46:13Z</time>
      </trkpt>
      <trkpt lat="46.73071" lon="-1.85665">
        <ele>11</ele>
        <time>2018-03-15T06:47:13Z</time>
      </trkpt>
      <trkpt lat="46.73067" lon="-1.85628">
        <ele>12</ele>
        <time>2018-03-15T06:48:13Z</time>
      </trkpt>
      <trkpt lat="46.73061" lon="-1.85588">
        <ele>12</ele>
        <time>2018-03-15T06:49:13Z</time>
      </trkpt>
      <trkpt lat="46.7306" lon="-1.85579">
        <ele>12</ele>
        <time>2018-03-15T06:50:13Z</time>
      </trkpt>
      <trkpt lat="46.73056" lon="-1.85546">
        <ele>12</ele>
        <time>2018-03-15T06:51:13Z</time>
      </trkpt>
      <trkpt lat="46.73055" lon="-1.85538">
        <ele>12</ele>
        <time>2018-03-15T06:52:13Z</time>
      </trkpt>
      <trkpt lat="46.73053" lon="-1.85515">
        <ele>12</ele>
        <time>2018-03-15T06:53:13Z</time>
      </trkpt>
      <trkpt lat="46.73051" lon="-1.85501">
        <ele>12</ele>
        <time>2018-03-15T06:54:13Z</time>
      </trkpt>
      <trkpt lat="46.73051" lon="-1.85486">
        <ele>12</ele>
        <time>2018-03-15T06:55:13Z</time>
      </trkpt>
      <trkpt lat="46.7305" lon="-1.85471">
        <ele>12</ele>
        <time>2018-03-15T06:56:13Z</time>
      </trkpt>
      <trkpt lat="46.73051" lon="-1.85456">
        <ele>12</ele>
        <time>2018-03-15T06:57:13Z</time>
      </trkpt>
      <trkpt lat="46.73051" lon="-1.85439">
        <ele>11</ele>
        <time>2018-03-15T06:58:13Z</time>
      </trkpt>
      <trkpt lat="46.73053" lon="-1.85427">
        <ele>11</ele>
        <time>2018-03-15T06:59:13Z</time>
      </trkpt>
      <trkpt lat="46.73054" lon="-1.85413">
        <ele>11</ele>
        <time>2018-03-15T07:00:13Z</time>
      </trkpt>
      <trkpt lat="46.73056" lon="-1.85399">
        <ele>11</ele>
        <time>2018-03-15T07:01:13Z</time>
      </trkpt>
      <trkpt lat="46.73059" lon="-1.85384">
        <ele>11</ele>
        <time>2018-03-15T07:02:13Z</time>
      </trkpt>
      <trkpt lat="46.73066" lon="-1.85362">
        <ele>11</ele>
        <time>2018-03-15T07:03:13Z</time>
      </trkpt>
      <trkpt lat="46.73076" lon="-1.85329">
        <ele>11</ele>
        <time>2018-03-15T07:04:13Z</time>
      </trkpt>
      <trkpt lat="46.73094" lon="-1.8528">
        <ele>13</ele>
        <time>2018-03-15T07:05:13Z</time>
      </trkpt>
      <trkpt lat="46.73106" lon="-1.85246">
        <ele>14</ele>
        <time>2018-03-15T07:06:13Z</time>
      </trkpt>
      <trkpt lat="46.73125" lon="-1.85192">
        <ele>17</ele>
        <time>2018-03-15T07:07:13Z</time>
      </trkpt>
      <trkpt lat="46.73153" lon="-1.85112">
        <ele>18</ele>
        <time>2018-03-15T07:08:13Z</time>
      </trkpt>
      <trkpt lat="46.73165" lon="-1.85077">
        <ele>18</ele>
        <time>2018-03-15T07:09:13Z</time>
      </trkpt>
      <trkpt lat="46.73182" lon="-1.85028">
        <ele>19</ele>
        <time>2018-03-15T07:10:13Z</time>
      </trkpt>
      <trkpt lat="46.73206" lon="-1.8496">
        <ele>19</ele>
        <time>2018-03-15T07:11:13Z</time>
      </trkpt>
      <trkpt lat="46.73232" lon="-1.84885">
        <ele>20</ele>
        <time>2018-03-15T07:12:13Z</time>
      </trkpt>
      <trkpt lat="46.73257" lon="-1.84813">
        <ele>20</ele>
        <time>2018-03-15T07:13:13Z</time>
      </trkpt>
      <trkpt lat="46.73281" lon="-1.84742">
        <ele>19</ele>
        <time>2018-03-15T07:14:13Z</time>
      </trkpt>
      <trkpt lat="46.7329" lon="-1.84716">
        <ele>19</ele>
        <time>2018-03-15T07:15:13Z</time>
      </trkpt>
      <trkpt lat="46.73296" lon="-1.84697">
        <ele>20</ele>
        <time>2018-03-15T07:16:13Z</time>
      </trkpt>
      <trkpt lat="46.73301" lon="-1.84673">
        <ele>20</ele>
        <time>2018-03-15T07:17:13Z</time>
      </trkpt>
      <trkpt lat="46.73306" lon="-1.84653">
        <ele>20</ele>
        <time>2018-03-15T07:18:13Z</time>
      </trkpt>
      <trkpt lat="46.73311" lon="-1.84629">
        <ele>21</ele>
        <time>2018-03-15T07:19:13Z</time>
      </trkpt>
      <trkpt lat="46.73324" lon="-1.84555">
        <ele>21</ele>
        <time>2018-03-15T07:20:13Z</time>
      </trkpt>
      <trkpt lat="46.73337" lon="-1.84483">
        <ele>20</ele>
        <time>2018-03-15T07:21:13Z</time>
      </trkpt>
      <trkpt lat="46.73346" lon="-1.84431">
        <ele>19</ele>
        <time>2018-03-15T07:22:13Z</time>
      </trkpt>
      <trkpt lat="46.73351" lon="-1.84399">
        <ele>19</ele>
        <time>2018-03-15T07:23:13Z</time>
      </trkpt>
      <trkpt lat="46.73356" lon="-1.84369">
        <ele>20</ele>
        <time>2018-03-15T07:24:13Z</time>
      </trkpt>
      <trkpt lat="46.73358" lon="-1.84353">
        <ele>20</ele>
        <time>2018-03-15T07:25:13Z</time>
      </trkpt>
      <trkpt lat="46.7336" lon="-1.84337">
        <ele>20</ele>
        <time>2018-03-15T07:26:13Z</time>
      </trkpt>
      <trkpt lat="46.73362" lon="-1.84325">
        <ele>20</ele>
        <time>2018-03-15T07:27:13Z</time>
      </trkpt>
      <trkpt lat="46.73362" lon="-1.8431">
        <ele>20</ele>
        <time>2018-03-15T07:28:13Z</time>
      </trkpt>
      <trkpt lat="46.73363" lon="-1.84294">
        <ele>20</ele>
        <time>2018-03-15T07:29:13Z</time>
      </trkpt>
      <trkpt lat="46.73363" lon="-1.8428">
        <ele>21</ele>
        <time>2018-03-15T07:30:13Z</time>
      </trkpt>
      <trkpt lat="46.73363" lon="-1.84257">
        <ele>21</ele>
        <time>2018-03-15T07:31:13Z</time>
      </trkpt>
      <trkpt lat="46.73363" lon="-1.84237">
        <ele>21</ele>
        <time>2018-03-15T07:32:13Z</time>
      </trkpt>
      <trkpt lat="46.73363" lon="-1.84201">
        <ele>21</ele>
        <time>2018-03-15T07:33:13Z</time>
      </trkpt>
      <trkpt lat="46.73362" lon="-1.84127">
        <ele>21</ele>
        <time>2018-03-15T07:34:13Z</time>
      </trkpt>
      <trkpt lat="46.73361" lon="-1.84068">
        <ele>21</ele>
        <time>2018-03-15T07:35:13Z</time>
      </trkpt>
      <trkpt lat="46.7336" lon="-1.83992">
        <ele>20</ele>
        <time>2018-03-15T07:36:13Z</time>
      </trkpt>
      <trkpt lat="46.73359" lon="-1.83933">
        <ele>20</ele>
        <time>2018-03-15T07:37:13Z</time>
      </trkpt>
      <trkpt lat="46.73359" lon="-1.8389">
        <ele>20</ele>
        <time>2018-03-15T07:38:13Z</time>
      </trkpt>
      <trkpt lat="46.7336" lon="-1.83867">
        <ele>20</ele>
        <time>2018-03-15T07:39:13Z</time>
      </trkpt>
      <trkpt lat="46.73361" lon="-1.83842">
        <ele>20</ele>
        <time>2018-03-15T07:40:13Z</time>
      </trkpt>
      <trkpt lat="46.73364" lon="-1.83811">
        <ele>20</ele>
        <time>2018-03-15T07:41:13Z</time>
      </trkpt>
      <trkpt lat="46.73368" lon="-1.83778">
        <ele>20</ele>
        <time>2018-03-15T07:42:13Z</time>
      </trkpt>
      <trkpt lat="46.73374" lon="-1.83726">
        <ele>20</ele>
        <time>2018-03-15T07:43:13Z</time>
      </trkpt>
      <trkpt lat="46.73375" lon="-1.8372">
        <ele>20</ele>
        <time>2018-03-15T07:44:13Z</time>
      </trkpt>
      <trkpt lat="46.73382" lon="-1.83667">
        <ele>21</ele>
        <time>2018-03-15T07:45:13Z</time>
      </trkpt>
      <trkpt lat="46.73387" lon="-1.83626">
        <ele>21</ele>
        <time>2018-03-15T07:46:13Z</time>
      </trkpt>
      <trkpt lat="46.73388" lon="-1.83618">
        <ele>21</ele>
        <time>2018-03-15T07:47:13Z</time>
      </trkpt>
      <trkpt lat="46.73391" lon="-1.83596">
        <ele>21</ele>
        <time>2018-03-15T07:48:13Z</time>
      </trkpt>
      <trkpt lat="46.73391" lon="-1.83594">
        <ele>21</ele>
        <time>2018-03-15T07:49:13Z</time>
      </trkpt>
      <trkpt lat="46.73395" lon="-1.83571">
        <ele>21</ele>
        <time>2018-03-15T07:50:13Z</time>
      </trkpt>
      <trkpt lat="46.73398" lon="-1.83555">
        <ele>21</ele>
        <time>2018-03-15T07:51:13Z</time>
      </trkpt>
      <trkpt lat="46.73404" lon="-1.83535">
        <ele>22</ele>
        <time>2018-03-15T07:52:13Z</time>
      </trkpt>
      <trkpt lat="46.73408" lon="-1.83521">
        <ele>22</ele>
        <time>2018-03-15T07:53:13Z</time>
      </trkpt>
      <trkpt lat="46.73413" lon="-1.83508">
        <ele>22</ele>
        <time>2018-03-15T07:54:13Z</time>
      </trkpt>
      <trkpt lat="46.73419" lon="-1.83496">
        <ele>22</ele>
        <time>2018-03-15T07:55:13Z</time>
      </trkpt>
      <trkpt lat="46.73422" lon="-1.83491">
        <ele>22</ele>
        <time>2018-03-15T07:56:13Z</time>
      </trkpt>
      <trkpt lat="46.73428" lon="-1.83479">
        <ele>22</ele>
        <time>2018-03-15T07:57:13Z</time>
      </trkpt>
      <trkpt lat="46.73438" lon="-1.83464">
        <ele>22</ele>
        <time>2018-03-15T07:58:13Z</time>
      </trkpt>
      <trkpt lat="46.73451" lon="-1.83447">
        <ele>22</ele>
        <time>2018-03-15T07:59:13Z</time>
      </trkpt>
      <trkpt lat="46.73478" lon="-1.83413">
        <ele>22</ele>
        <time>2018-03-15T08:00:13Z</time>
      </trkpt>
      <trkpt lat="46.73522" lon="-1.83358">
        <ele>21</ele>
        <time>2018-03-15T08:01:13Z</time>
      </trkpt>
      <trkpt lat="46.73532" lon="-1.83342">
        <ele>21</ele>
        <time>2018-03-15T08:02:13Z</time>
      </trkpt>
      <trkpt lat="46.7354" lon="-1.83328">
        <ele>21</ele>
        <time>2018-03-15T08:03:13Z</time>
      </trkpt>
      <trkpt lat="46.73548" lon="-1.83311">
        <ele>21</ele>
        <time>2018-03-15T08:04:13Z</time>
      </trkpt>
      <trkpt lat="46.73554" lon="-1.83296">
        <ele>21</ele>
        <time>2018-03-15T08:05:13Z</time>
      </trkpt>
      <trkpt lat="46.73559" lon="-1.83282">
        <ele>21</ele>
        <time>2018-03-15T08:06:13Z</time>
      </trkpt>
      <trkpt lat="46.7356" lon="-1.83276">
        <ele>21</ele>
        <time>2018-03-15T08:07:13Z</time>
      </trkpt>
      <trkpt lat="46.73563" lon="-1.83266">
        <ele>21</ele>
        <time>2018-03-15T08:08:13Z</time>
      </trkpt>
      <trkpt lat="46.73568" lon="-1.83245">
        <ele>21</ele>
        <time>2018-03-15T08:09:13Z</time>
      </trkpt>
      <trkpt lat="46.73578" lon="-1.83204">
        <ele>20</ele>
        <time>2018-03-15T08:10:13Z</time>
      </trkpt>
      <trkpt lat="46.73579" lon="-1.83201">
        <ele>20</ele>
        <time>2018-03-15T08:11:13Z</time>
      </trkpt>
      <trkpt lat="46.73586" lon="-1.83173">
        <ele>20</ele>
        <time>2018-03-15T08:12:13Z</time>
      </trkpt>
      <trkpt lat="46.73591" lon="-1.83152">
        <ele>20</ele>
        <time>2018-03-15T08:13:13Z</time>
      </trkpt>
      <trkpt lat="46.73594" lon="-1.83142">
        <ele>20</ele>
        <time>2018-03-15T08:14:13Z</time>
      </trkpt>
      <trkpt lat="46.73597" lon="-1.8313">
        <ele>20</ele>
        <time>2018-03-15T08:15:13Z</time>
      </trkpt>
      <trkpt lat="46.73603" lon="-1.83115">
        <ele>20</ele>
        <time>2018-03-15T08:16:13Z</time>
      </trkpt>
      <trkpt lat="46.73608" lon="-1.83101">
        <ele>20</ele>
        <time>2018-03-15T08:17:13Z</time>
      </trkpt>
      <trkpt lat="46.7361" lon="-1.83097">
        <ele>20</ele>
        <time>2018-03-15T08:18:13Z</time>
      </trkpt>
      <trkpt lat="46.73615" lon="-1.83087">
        <ele>20</ele>
        <time>2018-03-15T08:19:13Z</time>
      </trkpt>
      <trkpt lat="46.73622" lon="-1.83077">
        <ele>21</ele>
        <time>2018-03-15T08:20:13Z</time>
      </trkpt>
      <trkpt lat="46.73629" lon="-1.83067">
        <ele>21</ele>
        <time>2018-03-15T08:21:13Z</time>
      </trkpt>
      <trkpt lat="46.73632" lon="-1.83063">
        <ele>21</ele>
        <time>2018-03-15T08:22:13Z</time>
      </trkpt>
      <trkpt lat="46.73637" lon="-1.83058">
        <ele>21</ele>
        <time>2018-03-15T08:23:13Z</time>
      </trkpt>
      <trkpt lat="46.73647" lon="-1.83048">
        <ele>21</ele>
        <time>2018-03-15T08:24:13Z</time>
      </trkpt>
      <trkpt lat="46.73658" lon="-1.8304">
        <ele>21</ele>
        <time>2018-03-15T08:25:13Z</time>
      </trkpt>
      <trkpt lat="46.73676" lon="-1.83028">
        <ele>21</ele>
        <time>2018-03-15T08:26:13Z</time>
      </trkpt>
      <trkpt lat="46.73715" lon="-1.83">
        <ele>20</ele>
        <time>2018-03-15T08:27:13Z</time>
      </trkpt>
      <trkpt lat="46.73751" lon="-1.82972">
        <ele>19</ele>
        <time>2018-03-15T08:28:13Z</time>
      </trkpt>
      <trkpt lat="46.73776" lon="-1.82951">
        <ele>18</ele>
        <time>2018-03-15T08:29:13Z</time>
      </trkpt>
      <trkpt lat="46.73788" lon="-1.82939">
        <ele>18</ele>
        <time>2018-03-15T08:30:13Z</time>
      </trkpt>
      <trkpt lat="46.73799" lon="-1.82926">
        <ele>17</ele>
        <time>2018-03-15T08:31:13Z</time>
      </trkpt>
      <trkpt lat="46.73807" lon="-1.82914">
        <ele>17</ele>
        <time>2018-03-15T08:32:13Z</time>
      </trkpt>
      <trkpt lat="46.73814" lon="-1.82901">
        <ele>17</ele>
        <time>2018-03-15T08:33:13Z</time>
      </trkpt>
      <trkpt lat="46.73818" lon="-1.82893">
        <ele>17</ele>
        <time>2018-03-15T08:34:13Z</time>
      </trkpt>
      <trkpt lat="46.73822" lon="-1.82882">
        <ele>17</ele>
        <time>2018-03-15T08:35:13Z</time>
      </trkpt>
      <trkpt lat="46.73826" lon="-1.82869">
        <ele>17</ele>
        <time>2018-03-15T08:36:13Z</time>
      </trkpt>
      <trkpt lat="46.7383" lon="-1.82855">
        <ele>16</ele>
        <time>2018-03-15T08:37:13Z</time>
      </trkpt>
      <trkpt lat="46.73835" lon="-1.82839">
        <ele>16</ele>
        <time>2018-03-15T08:38:13Z</time>
      </trkpt>
      <trkpt lat="46.73839" lon="-1.82823">
        <ele>16</ele>
        <time>2018-03-15T08:39:13Z</time>
      </trkpt>
      <trkpt lat="46.73847" lon="-1.82788">
        <ele>14</ele>
        <time>2018-03-15T08:40:13Z</time>
      </trkpt>
      <trkpt lat="46.73848" lon="-1.82786">
        <ele>14</ele>
        <time>2018-03-15T08:41:13Z</time>
      </trkpt>
      <trkpt lat="46.7386" lon="-1.82741">
        <ele>12</ele>
        <time>2018-03-15T08:42:13Z</time>
      </trkpt>
      <trkpt lat="46.73878" lon="-1.82674">
        <ele>11</ele>
        <time>2018-03-15T08:43:13Z</time>
      </trkpt>
      <trkpt lat="46.73889" lon="-1.82629">
        <ele>10</ele>
        <time>2018-03-15T08:44:13Z</time>
      </trkpt>
      <trkpt lat="46.73897" lon="-1.82601">
        <ele>9</ele>
        <time>2018-03-15T08:45:13Z</time>
      </trkpt>
      <trkpt lat="46.73903" lon="-1.82577">
        <ele>9</ele>
        <time>2018-03-15T08:46:13Z</time>
      </trkpt>
      <trkpt lat="46.73911" lon="-1.82546">
        <ele>10</ele>
        <time>2018-03-15T08:47:13Z</time>
      </trkpt>
      <trkpt lat="46.73926" lon="-1.82489">
        <ele>11</ele>
        <time>2018-03-15T08:48:13Z</time>
      </trkpt>
      <trkpt lat="46.73936" lon="-1.82451">
        <ele>12</ele>
        <time>2018-03-15T08:49:13Z</time>
      </trkpt>
      <trkpt lat="46.73945" lon="-1.82415">
        <ele>13</ele>
        <time>2018-03-15T08:50:13Z</time>
      </trkpt>
      <trkpt lat="46.73951" lon="-1.82393">
        <ele>13</ele>
        <time>2018-03-15T08:51:13Z</time>
      </trkpt>
      <trkpt lat="46.73955" lon="-1.82374">
        <ele>13</ele>
        <time>2018-03-15T08:52:13Z</time>
      </trkpt>
      <trkpt lat="46.73953" lon="-1.82361">
        <ele>14</ele>
        <time>2018-03-15T08:53:13Z</time>
      </trkpt>
      <trkpt lat="46.73952" lon="-1.82357">
        <ele>14</ele>
        <time>2018-03-15T08:54:13Z</time>
      </trkpt>
      <trkpt lat="46.73948" lon="-1.8234">
        <ele>14</ele>
        <time>2018-03-15T08:55:13Z</time>
      </trkpt>
      <trkpt lat="46.73948" lon="-1.8234">
        <ele>14</ele>
        <time>2018-03-15T08:56:13Z</time>
      </trkpt>
      <trkpt lat="46.73947" lon="-1.82339">
        <ele>14</ele>
        <time>2018-03-15T08:57:13Z</time>
      </trkpt>
      <trkpt lat="46.73946" lon="-1.82337">
        <ele>14</ele>
        <time>2018-03-15T08:58:13Z</time>
      </trkpt>
      <trkpt lat="46.73946" lon="-1.82336">
        <ele>14</ele>
        <time>2018-03-15T08:59:13Z</time>
      </trkpt>
      <trkpt lat="46.73945" lon="-1.82332">
        <ele>14</ele>
        <time>2018-03-15T09:00:13Z</time>
      </trkpt>
      <trkpt lat="46.73945" lon="-1.82329">
        <ele>14</ele>
        <time>2018-03-15T09:01:13Z</time>
      </trkpt>
      <trkpt lat="46.73945" lon="-1.82325">
        <ele>14</ele>
        <time>2018-03-15T09:02:13Z</time>
      </trkpt>
      <trkpt lat="46.73946" lon="-1.82322">
        <ele>14</ele>
        <time>2018-03-15T09:03:13Z</time>
      </trkpt>
      <trkpt lat="46.73946" lon="-1.8232">
        <ele>14</ele>
        <time>2018-03-15T09:04:13Z</time>
      </trkpt>
      <trkpt lat="46.73947" lon="-1.82319">
        <ele>14</ele>
        <time>2018-03-15T09:05:13Z</time>
      </trkpt>
      <trkpt lat="46.73949" lon="-1.82318">
        <ele>14</ele>
        <time>2018-03-15T09:06:13Z</time>
      </trkpt>
      <trkpt lat="46.73949" lon="-1.82317">
        <ele>14</ele>
        <time>2018-03-15T09:07:13Z</time>
      </trkpt>
      <trkpt lat="46.73952" lon="-1.82316">
        <ele>14</ele>
        <time>2018-03-15T09:08:13Z</time>
      </trkpt>
      <trkpt lat="46.73954" lon="-1.82315">
        <ele>14</ele>
        <time>2018-03-15T09:09:13Z</time>
      </trkpt>
      <trkpt lat="46.73955" lon="-1.82315">
        <ele>14</ele>
        <time>2018-03-15T09:10:13Z</time>
      </trkpt>
      <trkpt lat="46.73957" lon="-1.82316">
        <ele>14</ele>
        <time>2018-03-15T09:11:13Z</time>
      </trkpt>
      <trkpt lat="46.73959" lon="-1.82317">
        <ele>14</ele>
        <time>2018-03-15T09:12:13Z</time>
      </trkpt>
      <trkpt lat="46.73965" lon="-1.82311">
        <ele>15</ele>
        <time>2018-03-15T09:13:13Z</time>
      </trkpt>
      <trkpt lat="46.73969" lon="-1.82308">
        <ele>15</ele>
        <time>2018-03-15T09:14:13Z</time>
      </trkpt>
      <trkpt lat="46.73971" lon="-1.82307">
        <ele>15</ele>
        <time>2018-03-15T09:15:13Z</time>
      </trkpt>
      <trkpt lat="46.73972" lon="-1.82302">
        <ele>15</ele>
        <time>2018-03-15T09:16:13Z</time>
      </trkpt>
      <trkpt lat="46.73974" lon="-1.82298">
        <ele>15</ele>
        <time>2018-03-15T09:17:13Z</time>
      </trkpt>
      <trkpt lat="46.73978" lon="-1.82285">
        <ele>15</ele>
        <time>2018-03-15T09:18:13Z</time>
      </trkpt>
      <trkpt lat="46.73982" lon="-1.82273">
        <ele>15</ele>
        <time>2018-03-15T09:19:13Z</time>
      </trkpt>
      <trkpt lat="46.73986" lon="-1.82257">
        <ele>16</ele>
        <time>2018-03-15T09:20:13Z</time>
      </trkpt>
      <trkpt lat="46.73997" lon="-1.82214">
        <ele>16</ele>
        <time>2018-03-15T09:21:13Z</time>
      </trkpt>
      <trkpt lat="46.74007" lon="-1.82171">
        <ele>17</ele>
        <time>2018-03-15T09:22:13Z</time>
      </trkpt>
      <trkpt lat="46.74009" lon="-1.82164">
        <ele>17</ele>
        <time>2018-03-15T09:23:13Z</time>
      </trkpt>
      <trkpt lat="46.74012" lon="-1.8216">
        <ele>17</ele>
        <time>2018-03-15T09:24:13Z</time>
      </trkpt>
      <trkpt lat="46.74019" lon="-1.82154">
        <ele>17</ele>
        <time>2018-03-15T09:25:13Z</time>
      </trkpt>
      <trkpt lat="46.74029" lon="-1.82148">
        <ele>17</ele>
        <time>2018-03-15T09:26:13Z</time>
      </trkpt>
      <trkpt lat="46.74033" lon="-1.82145">
        <ele>17</ele>
        <time>2018-03-15T09:27:13Z</time>
      </trkpt>
      <trkpt lat="46.74057" lon="-1.8213">
        <ele>17</ele>
        <time>2018-03-15T09:28:13Z</time>
      </trkpt>
      <trkpt lat="46.74074" lon="-1.82121">
        <ele>17</ele>
        <time>2018-03-15T09:29:13Z</time>
      </trkpt>
      <trkpt lat="46.74078" lon="-1.82118">
        <ele>17</ele>
        <time>2018-03-15T09:30:13Z</time>
      </trkpt>
      <trkpt lat="46.74094" lon="-1.8211">
        <ele>17</ele>
        <time>2018-03-15T09:31:13Z</time>
      </trkpt>
      <trkpt lat="46.74099" lon="-1.82108">
        <ele>17</ele>
        <time>2018-03-15T09:32:13Z</time>
      </trkpt>
      <trkpt lat="46.74104" lon="-1.82105">
        <ele>17</ele>
        <time>2018-03-15T09:33:13Z</time>
      </trkpt>
      <trkpt lat="46.74107" lon="-1.82102">
        <ele>16</ele>
        <time>2018-03-15T09:34:13Z</time>
      </trkpt>
      <trkpt lat="46.74107" lon="-1.82102">
        <ele>16</ele>
        <time>2018-03-15T09:35:13Z</time>
      </trkpt>
      <trkpt lat="46.74107" lon="-1.82099">
        <ele>16</ele>
        <time>2018-03-15T09:36:13Z</time>
      </trkpt>
      <trkpt lat="46.74106" lon="-1.82097">
        <ele>17</ele>
        <time>2018-03-15T09:37:13Z</time>
      </trkpt>
      <trkpt lat="46.74107" lon="-1.82095">
        <ele>16</ele>
        <time>2018-03-15T09:38:13Z</time>
      </trkpt>
      <trkpt lat="46.74107" lon="-1.82093">
        <ele>16</ele>
        <time>2018-03-15T09:39:13Z</time>
      </trkpt>
      <trkpt lat="46.74108" lon="-1.82091">
        <ele>16</ele>
        <time>2018-03-15T09:40:13Z</time>
      </trkpt>
      <trkpt lat="46.74109" lon="-1.8209">
        <ele>16</ele>
        <time>2018-03-15T09:41:13Z</time>
      </trkpt>
      <trkpt lat="46.74111" lon="-1.82089">
        <ele>16</ele>
        <time>2018-03-15T09:42:13Z</time>
      </trkpt>
      <trkpt lat="46.74112" lon="-1.82089">
        <ele>16</ele>
        <time>2018-03-15T09:43:13Z</time>
      </trkpt>
      <trkpt lat="46.74113" lon="-1.82089">
        <ele>16</ele>
        <time>2018-03-15T09:44:13Z</time>
      </trkpt>
      <trkpt lat="46.74114" lon="-1.82089">
        <ele>16</ele>
        <time>2018-03-15T09:45:13Z</time>
      </trkpt>
      <trkpt lat="46.74115" lon="-1.82078">
        <ele>16</ele>
        <time>2018-03-15T09:46:13Z</time>
      </trkpt>
      <trkpt lat="46.74116" lon="-1.82065">
        <ele>16</ele>
        <time>2018-03-15T09:47:13Z</time>
      </trkpt>
      <trkpt lat="46.74115" lon="-1.82049">
        <ele>16</ele>
        <time>2018-03-15T09:48:13Z</time>
      </trkpt>
      <trkpt lat="46.74113" lon="-1.82032">
        <ele>16</ele>
        <time>2018-03-15T09:49:13Z</time>
      </trkpt>
      <trkpt lat="46.74109" lon="-1.8201">
        <ele>16</ele>
        <time>2018-03-15T09:50:13Z</time>
      </trkpt>
      <trkpt lat="46.74099" lon="-1.81956">
        <ele>16</ele>
        <time>2018-03-15T09:51:13Z</time>
      </trkpt>
      <trkpt lat="46.74096" lon="-1.81936">
        <ele>16</ele>
        <time>2018-03-15T09:52:13Z</time>
      </trkpt>
      <trkpt lat="46.74092" lon="-1.81917">
        <ele>16</ele>
        <time>2018-03-15T09:53:13Z</time>
      </trkpt>
      <trkpt lat="46.74089" lon="-1.81896">
        <ele>16</ele>
        <time>2018-03-15T09:54:13Z</time>
      </trkpt>
      <trkpt lat="46.74086" lon="-1.81876">
        <ele>17</ele>
        <time>2018-03-15T09:55:13Z</time>
      </trkpt>
      <trkpt lat="46.74085" lon="-1.81863">
        <ele>17</ele>
        <time>2018-03-15T09:56:13Z</time>
      </trkpt>
      <trkpt lat="46.74084" lon="-1.81849">
        <ele>18</ele>
        <time>2018-03-15T09:57:13Z</time>
      </trkpt>
      <trkpt lat="46.74083" lon="-1.81834">
        <ele>18</ele>
        <time>2018-03-15T09:58:13Z</time>
      </trkpt>
      <trkpt lat="46.74083" lon="-1.81811">
        <ele>18</ele>
        <time>2018-03-15T09:59:13Z</time>
      </trkpt>
      <trkpt lat="46.7408" lon="-1.81702">
        <ele>20</ele>
        <time>2018-03-15T10:00:13Z</time>
      </trkpt>
      <trkpt lat="46.74075" lon="-1.8158">
        <ele>21</ele>
        <time>2018-03-15T10:01:13Z</time>
      </trkpt>
      <trkpt lat="46.74069" lon="-1.81428">
        <ele>22</ele>
        <time>2018-03-15T10:02:13Z</time>
      </trkpt>
      <trkpt lat="46.74068" lon="-1.81396">
        <ele>22</ele>
        <time>2018-03-15T10:03:13Z</time>
      </trkpt>
      <trkpt lat="46.74068" lon="-1.81377">
        <ele>23</ele>
        <time>2018-03-15T10:04:13Z</time>
      </trkpt>
      <trkpt lat="46.74069" lon="-1.81362">
        <ele>23</ele>
        <time>2018-03-15T10:05:13Z</time>
      </trkpt>
      <trkpt lat="46.7407" lon="-1.81348">
        <ele>23</ele>
        <time>2018-03-15T10:06:13Z</time>
      </trkpt>
      <trkpt lat="46.74072" lon="-1.81333">
        <ele>23</ele>
        <time>2018-03-15T10:07:13Z</time>
      </trkpt>
      <trkpt lat="46.74074" lon="-1.8132">
        <ele>23</ele>
        <time>2018-03-15T10:08:13Z</time>
      </trkpt>
      <trkpt lat="46.74078" lon="-1.81305">
        <ele>23</ele>
        <time>2018-03-15T10:09:13Z</time>
      </trkpt>
      <trkpt lat="46.74084" lon="-1.8128">
        <ele>23</ele>
        <time>2018-03-15T10:10:13Z</time>
      </trkpt>
      <trkpt lat="46.7409" lon="-1.81255">
        <ele>23</ele>
        <time>2018-03-15T10:11:13Z</time>
      </trkpt>
      <trkpt lat="46.74099" lon="-1.81217">
        <ele>22</ele>
        <time>2018-03-15T10:12:13Z</time>
      </trkpt>
      <trkpt lat="46.74112" lon="-1.8116">
        <ele>22</ele>
        <time>2018-03-15T10:13:13Z</time>
      </trkpt>
      <trkpt lat="46.74123" lon="-1.8111">
        <ele>22</ele>
        <time>2018-03-15T10:14:13Z</time>
      </trkpt>
      <trkpt lat="46.74133" lon="-1.81068">
        <ele>22</ele>
        <time>2018-03-15T10:15:13Z</time>
      </trkpt>
      <trkpt lat="46.74145" lon="-1.81014">
        <ele>21</ele>
        <time>2018-03-15T10:16:13Z</time>
      </trkpt>
      <trkpt lat="46.74158" lon="-1.8096">
        <ele>21</ele>
        <time>2018-03-15T10:17:13Z</time>
      </trkpt>
      <trkpt lat="46.7417" lon="-1.80911">
        <ele>21</ele>
        <time>2018-03-15T10:18:13Z</time>
      </trkpt>
      <trkpt lat="46.74182" lon="-1.80866">
        <ele>21</ele>
        <time>2018-03-15T10:19:13Z</time>
      </trkpt>
      <trkpt lat="46.74183" lon="-1.8086">
        <ele>21</ele>
        <time>2018-03-15T10:20:13Z</time>
      </trkpt>
      <trkpt lat="46.74185" lon="-1.80851">
        <ele>21</ele>
        <time>2018-03-15T10:21:13Z</time>
      </trkpt>
      <trkpt lat="46.74191" lon="-1.80825">
        <ele>20</ele>
        <time>2018-03-15T10:22:13Z</time>
      </trkpt>
      <trkpt lat="46.74198" lon="-1.80806">
        <ele>20</ele>
        <time>2018-03-15T10:23:13Z</time>
      </trkpt>
      <trkpt lat="46.74204" lon="-1.80789">
        <ele>20</ele>
        <time>2018-03-15T10:24:13Z</time>
      </trkpt>
      <trkpt lat="46.7421" lon="-1.80775">
        <ele>20</ele>
        <time>2018-03-15T10:25:13Z</time>
      </trkpt>
      <trkpt lat="46.74215" lon="-1.80761">
        <ele>19</ele>
        <time>2018-03-15T10:26:13Z</time>
      </trkpt>
      <trkpt lat="46.7422" lon="-1.80751">
        <ele>19</ele>
        <time>2018-03-15T10:27:13Z</time>
      </trkpt>
      <trkpt lat="46.74226" lon="-1.8074">
        <ele>19</ele>
        <time>2018-03-15T10:28:13Z</time>
      </trkpt>
      <trkpt lat="46.74233" lon="-1.80727">
        <ele>19</ele>
        <time>2018-03-15T10:29:13Z</time>
      </trkpt>
      <trkpt lat="46.74254" lon="-1.80694">
        <ele>19</ele>
        <time>2018-03-15T10:30:13Z</time>
      </trkpt>
      <trkpt lat="46.74281" lon="-1.80656">
        <ele>19</ele>
        <time>2018-03-15T10:31:13Z</time>
      </trkpt>
      <trkpt lat="46.74295" lon="-1.80636">
        <ele>19</ele>
        <time>2018-03-15T10:32:13Z</time>
      </trkpt>
      <trkpt lat="46.74303" lon="-1.80624">
        <ele>19</ele>
        <time>2018-03-15T10:33:13Z</time>
      </trkpt>
      <trkpt lat="46.7435" lon="-1.80557">
        <ele>20</ele>
        <time>2018-03-15T10:34:13Z</time>
      </trkpt>
      <trkpt lat="46.74401" lon="-1.80483">
        <ele>20</ele>
        <time>2018-03-15T10:35:13Z</time>
      </trkpt>
      <trkpt lat="46.74446" lon="-1.80418">
        <ele>20</ele>
        <time>2018-03-15T10:36:13Z</time>
      </trkpt>
      <trkpt lat="46.7445" lon="-1.80413">
        <ele>20</ele>
        <time>2018-03-15T10:37:13Z</time>
      </trkpt>
      <trkpt lat="46.7448" lon="-1.80369">
        <ele>19</ele>
        <time>2018-03-15T10:38:13Z</time>
      </trkpt>
      <trkpt lat="46.74508" lon="-1.80327">
        <ele>18</ele>
        <time>2018-03-15T10:39:13Z</time>
      </trkpt>
      <trkpt lat="46.74516" lon="-1.80316">
        <ele>18</ele>
        <time>2018-03-15T10:40:13Z</time>
      </trkpt>
      <trkpt lat="46.7454" lon="-1.80281">
        <ele>18</ele>
        <time>2018-03-15T10:41:13Z</time>
      </trkpt>
      <trkpt lat="46.74557" lon="-1.80255">
        <ele>18</ele>
        <time>2018-03-15T10:42:13Z</time>
      </trkpt>
      <trkpt lat="46.74569" lon="-1.80237">
        <ele>18</ele>
        <time>2018-03-15T10:43:13Z</time>
      </trkpt>
      <trkpt lat="46.74576" lon="-1.80223">
        <ele>18</ele>
        <time>2018-03-15T10:44:13Z</time>
      </trkpt>
      <trkpt lat="46.74582" lon="-1.80208">
        <ele>18</ele>
        <time>2018-03-15T10:45:13Z</time>
      </trkpt>
      <trkpt lat="46.74587" lon="-1.80197">
        <ele>17</ele>
        <time>2018-03-15T10:46:13Z</time>
      </trkpt>
      <trkpt lat="46.74591" lon="-1.80184">
        <ele>17</ele>
        <time>2018-03-15T10:47:13Z</time>
      </trkpt>
      <trkpt lat="46.74594" lon="-1.8017">
        <ele>17</ele>
        <time>2018-03-15T10:48:13Z</time>
      </trkpt>
      <trkpt lat="46.74598" lon="-1.80155">
        <ele>17</ele>
        <time>2018-03-15T10:49:13Z</time>
      </trkpt>
      <trkpt lat="46.74599" lon="-1.80149">
        <ele>17</ele>
        <time>2018-03-15T10:50:13Z</time>
      </trkpt>
      <trkpt lat="46.74601" lon="-1.80134">
        <ele>17</ele>
        <time>2018-03-15T10:51:13Z</time>
      </trkpt>
      <trkpt lat="46.74603" lon="-1.80116">
        <ele>17</ele>
        <time>2018-03-15T10:52:13Z</time>
      </trkpt>
      <trkpt lat="46.74606" lon="-1.80097">
        <ele>17</ele>
        <time>2018-03-15T10:53:13Z</time>
      </trkpt>
      <trkpt lat="46.74608" lon="-1.80068">
        <ele>17</ele>
        <time>2018-03-15T10:54:13Z</time>
      </trkpt>
      <trkpt lat="46.74613" lon="-1.80001">
        <ele>16</ele>
        <time>2018-03-15T10:55:13Z</time>
      </trkpt>
      <trkpt lat="46.74618" lon="-1.79939">
        <ele>15</ele>
        <time>2018-03-15T10:56:13Z</time>
      </trkpt>
      <trkpt lat="46.74621" lon="-1.79889">
        <ele>15</ele>
        <time>2018-03-15T10:57:13Z</time>
      </trkpt>
      <trkpt lat="46.74621" lon="-1.79869">
        <ele>15</ele>
        <time>2018-03-15T10:58:13Z</time>
      </trkpt>
      <trkpt lat="46.74621" lon="-1.79856">
        <ele>15</ele>
        <time>2018-03-15T10:59:13Z</time>
      </trkpt>
      <trkpt lat="46.74621" lon="-1.79854">
        <ele>15</ele>
        <time>2018-03-15T11:00:13Z</time>
      </trkpt>
      <trkpt lat="46.74619" lon="-1.79836">
        <ele>15</ele>
        <time>2018-03-15T11:01:13Z</time>
      </trkpt>
      <trkpt lat="46.74612" lon="-1.79796">
        <ele>15</ele>
        <time>2018-03-15T11:02:13Z</time>
      </trkpt>
      <trkpt lat="46.74607" lon="-1.79767">
        <ele>15</ele>
        <time>2018-03-15T11:03:13Z</time>
      </trkpt>
      <trkpt lat="46.74603" lon="-1.79744">
        <ele>15</ele>
        <time>2018-03-15T11:04:13Z</time>
      </trkpt>
      <trkpt lat="46.74595" lon="-1.79697">
        <ele>16</ele>
        <time>2018-03-15T11:05:13Z</time>
      </trkpt>
      <trkpt lat="46.74587" lon="-1.79644">
        <ele>16</ele>
        <time>2018-03-15T11:06:13Z</time>
      </trkpt>
      <trkpt lat="46.74582" lon="-1.79617">
        <ele>15</ele>
        <time>2018-03-15T11:07:13Z</time>
      </trkpt>
      <trkpt lat="46.7458" lon="-1.79609">
        <ele>15</ele>
        <time>2018-03-15T11:08:13Z</time>
      </trkpt>
      <trkpt lat="46.74577" lon="-1.79599">
        <ele>15</ele>
        <time>2018-03-15T11:09:13Z</time>
      </trkpt>
      <trkpt lat="46.74574" lon="-1.79591">
        <ele>15</ele>
        <time>2018-03-15T11:10:13Z</time>
      </trkpt>
      <trkpt lat="46.74571" lon="-1.79584">
        <ele>15</ele>
        <time>2018-03-15T11:11:13Z</time>
      </trkpt>
      <trkpt lat="46.74566" lon="-1.79571">
        <ele>15</ele>
        <time>2018-03-15T11:12:13Z</time>
      </trkpt>
      <trkpt lat="46.74562" lon="-1.79564">
        <ele>15</ele>
        <time>2018-03-15T11:13:13Z</time>
      </trkpt>
      <trkpt lat="46.74561" lon="-1.7956">
        <ele>15</ele>
        <time>2018-03-15T11:14:13Z</time>
      </trkpt>
      <trkpt lat="46.74559" lon="-1.79553">
        <ele>15</ele>
        <time>2018-03-15T11:15:13Z</time>
      </trkpt>
      <trkpt lat="46.74558" lon="-1.79546">
        <ele>15</ele>
        <time>2018-03-15T11:16:13Z</time>
      </trkpt>
      <trkpt lat="46.74555" lon="-1.79536">
        <ele>15</ele>
        <time>2018-03-15T11:17:13Z</time>
      </trkpt>
      <trkpt lat="46.74553" lon="-1.79525">
        <ele>15</ele>
        <time>2018-03-15T11:18:13Z</time>
      </trkpt>
      <trkpt lat="46.74552" lon="-1.7951">
        <ele>15</ele>
        <time>2018-03-15T11:19:13Z</time>
      </trkpt>
      <trkpt lat="46.74552" lon="-1.7951">
        <ele>15</ele>
        <time>2018-03-15T11:20:13Z</time>
      </trkpt>
      <trkpt lat="46.74548" lon="-1.79503">
        <ele>15</ele>
        <time>2018-03-15T11:21:13Z</time>
      </trkpt>
      <trkpt lat="46.74528" lon="-1.79473">
        <ele>16</ele>
        <time>2018-03-15T11:22:13Z</time>
      </trkpt>
      <trkpt lat="46.7449" lon="-1.79409">
        <ele>17</ele>
        <time>2018-03-15T11:23:13Z</time>
      </trkpt>
      <trkpt lat="46.74469" lon="-1.79377">
        <ele>17</ele>
        <time>2018-03-15T11:24:13Z</time>
      </trkpt>
      <trkpt lat="46.74452" lon="-1.79353">
        <ele>18</ele>
        <time>2018-03-15T11:25:13Z</time>
      </trkpt>
      <trkpt lat="46.74439" lon="-1.79337">
        <ele>18</ele>
        <time>2018-03-15T11:26:13Z</time>
      </trkpt>
      <trkpt lat="46.74426" lon="-1.79323">
        <ele>18</ele>
        <time>2018-03-15T11:27:13Z</time>
      </trkpt>
      <trkpt lat="46.74423" lon="-1.7932">
        <ele>18</ele>
        <time>2018-03-15T11:28:13Z</time>
      </trkpt>
      <trkpt lat="46.7442" lon="-1.79317">
        <ele>19</ele>
        <time>2018-03-15T11:29:13Z</time>
      </trkpt>
      <trkpt lat="46.74416" lon="-1.79313">
        <ele>19</ele>
        <time>2018-03-15T11:30:13Z</time>
      </trkpt>
      <trkpt lat="46.74405" lon="-1.79304">
        <ele>19</ele>
        <time>2018-03-15T11:31:13Z</time>
      </trkpt>
      <trkpt lat="46.74396" lon="-1.79299">
        <ele>19</ele>
        <time>2018-03-15T11:32:13Z</time>
      </trkpt>
      <trkpt lat="46.74387" lon="-1.79294">
        <ele>19</ele>
        <time>2018-03-15T11:33:13Z</time>
      </trkpt>
      <trkpt lat="46.74378" lon="-1.79289">
        <ele>19</ele>
        <time>2018-03-15T11:34:13Z</time>
      </trkpt>
      <trkpt lat="46.74367" lon="-1.79285">
        <ele>20</ele>
        <time>2018-03-15T11:35:13Z</time>
      </trkpt>
      <trkpt lat="46.74356" lon="-1.79281">
        <ele>20</ele>
        <time>2018-03-15T11:36:13Z</time>
      </trkpt>
      <trkpt lat="46.7434" lon="-1.79276">
        <ele>21</ele>
        <time>2018-03-15T11:37:13Z</time>
      </trkpt>
      <trkpt lat="46.74283" lon="-1.79259">
        <ele>22</ele>
        <time>2018-03-15T11:38:13Z</time>
      </trkpt>
      <trkpt lat="46.74255" lon="-1.79251">
        <ele>23</ele>
        <time>2018-03-15T11:39:13Z</time>
      </trkpt>
      <trkpt lat="46.74221" lon="-1.79241">
        <ele>24</ele>
        <time>2018-03-15T11:40:13Z</time>
      </trkpt>
      <trkpt lat="46.74168" lon="-1.79223">
        <ele>24</ele>
        <time>2018-03-15T11:41:13Z</time>
      </trkpt>
      <trkpt lat="46.74136" lon="-1.79214">
        <ele>24</ele>
        <time>2018-03-15T11:42:13Z</time>
      </trkpt>
      <trkpt lat="46.74113" lon="-1.79206">
        <ele>24</ele>
        <time>2018-03-15T11:43:13Z</time>
      </trkpt>
      <trkpt lat="46.74063" lon="-1.7919">
        <ele>23</ele>
        <time>2018-03-15T11:44:13Z</time>
      </trkpt>
      <trkpt lat="46.74042" lon="-1.79183">
        <ele>23</ele>
        <time>2018-03-15T11:45:13Z</time>
      </trkpt>
      <trkpt lat="46.74035" lon="-1.79181">
        <ele>23</ele>
        <time>2018-03-15T11:46:13Z</time>
      </trkpt>
      <trkpt lat="46.74025" lon="-1.79178">
        <ele>23</ele>
        <time>2018-03-15T11:47:13Z</time>
      </trkpt>
      <trkpt lat="46.74023" lon="-1.79177">
        <ele>23</ele>
        <time>2018-03-15T11:48:13Z</time>
      </trkpt>
      <trkpt lat="46.74021" lon="-1.79176">
        <ele>23</ele>
        <time>2018-03-15T11:49:13Z</time>
      </trkpt>
      <trkpt lat="46.74021" lon="-1.79176">
        <ele>23</ele>
        <time>2018-03-15T11:50:13Z</time>
      </trkpt>
      <trkpt lat="46.74022" lon="-1.79166">
        <ele>23</ele>
        <time>2018-03-15T11:51:13Z</time>
      </trkpt>
      <trkpt lat="46.74023" lon="-1.79161">
        <ele>23</ele>
        <time>2018-03-15T11:52:13Z</time>
      </trkpt>
      <trkpt lat="46.74024" lon="-1.79156">
        <ele>23</ele>
        <time>2018-03-15T11:53:13Z</time>
      </trkpt>
      <trkpt lat="46.74026" lon="-1.79136">
        <ele>23</ele>
        <time>2018-03-15T11:54:13Z</time>
      </trkpt>
      <trkpt lat="46.74026" lon="-1.79105">
        <ele>23</ele>
        <time>2018-03-15T11:55:13Z</time>
      </trkpt>
      <trkpt lat="46.74029" lon="-1.7905">
        <ele>23</ele>
        <time>2018-03-15T11:56:13Z</time>
      </trkpt>
      <trkpt lat="46.74029" lon="-1.79017">
        <ele>22</ele>
        <time>2018-03-15T11:57:13Z</time>
      </trkpt>
      <trkpt lat="46.7403" lon="-1.78986">
        <ele>22</ele>
        <time>2018-03-15T11:58:13Z</time>
      </trkpt>
      <trkpt lat="46.74029" lon="-1.78974">
        <ele>22</ele>
        <time>2018-03-15T11:59:13Z</time>
      </trkpt>
      <trkpt lat="46.74029" lon="-1.78959">
        <ele>22</ele>
        <time>2018-03-15T12:00:13Z</time>
      </trkpt>
      <trkpt lat="46.74027" lon="-1.78946">
        <ele>21</ele>
        <time>2018-03-15T12:01:13Z</time>
      </trkpt>
      <trkpt lat="46.74022" lon="-1.78919">
        <ele>21</ele>
        <time>2018-03-15T12:02:13Z</time>
      </trkpt>
      <trkpt lat="46.7401" lon="-1.78872">
        <ele>19</ele>
        <time>2018-03-15T12:03:13Z</time>
      </trkpt>
      <trkpt lat="46.73998" lon="-1.78838">
        <ele>18</ele>
        <time>2018-03-15T12:04:13Z</time>
      </trkpt>
      <trkpt lat="46.73986" lon="-1.78812">
        <ele>17</ele>
        <time>2018-03-15T12:05:13Z</time>
      </trkpt>
      <trkpt lat="46.73985" lon="-1.78809">
        <ele>17</ele>
        <time>2018-03-15T12:06:13Z</time>
      </trkpt>
      <trkpt lat="46.7397" lon="-1.78781">
        <ele>16</ele>
        <time>2018-03-15T12:07:13Z</time>
      </trkpt>
      <trkpt lat="46.73965" lon="-1.7877">
        <ele>16</ele>
        <time>2018-03-15T12:08:13Z</time>
      </trkpt>
      <trkpt lat="46.73959" lon="-1.78761">
        <ele>16</ele>
        <time>2018-03-15T12:09:13Z</time>
      </trkpt>
      <trkpt lat="46.73955" lon="-1.78753">
        <ele>15</ele>
        <time>2018-03-15T12:10:13Z</time>
      </trkpt>
      <trkpt lat="46.73951" lon="-1.78746">
        <ele>15</ele>
        <time>2018-03-15T12:11:13Z</time>
      </trkpt>
      <trkpt lat="46.73949" lon="-1.78739">
        <ele>15</ele>
        <time>2018-03-15T12:12:13Z</time>
      </trkpt>
      <trkpt lat="46.73946" lon="-1.78733">
        <ele>15</ele>
        <time>2018-03-15T12:13:13Z</time>
      </trkpt>
      <trkpt lat="46.73944" lon="-1.78725">
        <ele>15</ele>
        <time>2018-03-15T12:14:13Z</time>
      </trkpt>
      <trkpt lat="46.73943" lon="-1.78717">
        <ele>15</ele>
        <time>2018-03-15T12:15:13Z</time>
      </trkpt>
      <trkpt lat="46.73942" lon="-1.78713">
        <ele>15</ele>
        <time>2018-03-15T12:16:13Z</time>
      </trkpt>
      <trkpt lat="46.73941" lon="-1.78708">
        <ele>15</ele>
        <time>2018-03-15T12:17:13Z</time>
      </trkpt>
      <trkpt lat="46.7394" lon="-1.787">
        <ele>15</ele>
        <time>2018-03-15T12:18:13Z</time>
      </trkpt>
      <trkpt lat="46.73937" lon="-1.7869">
        <ele>15</ele>
        <time>2018-03-15T12:19:13Z</time>
      </trkpt>
      <trkpt lat="46.73933" lon="-1.78681">
        <ele>15</ele>
        <time>2018-03-15T12:20:13Z</time>
      </trkpt>
      <trkpt lat="46.73922" lon="-1.78659">
        <ele>15</ele>
        <time>2018-03-15T12:21:13Z</time>
      </trkpt>
      <trkpt lat="46.73911" lon="-1.78638">
        <ele>15</ele>
        <time>2018-03-15T12:22:13Z</time>
      </trkpt>
      <trkpt lat="46.73901" lon="-1.78617">
        <ele>15</ele>
        <time>2018-03-15T12:23:13Z</time>
      </trkpt>
      <trkpt lat="46.73898" lon="-1.7861">
        <ele>15</ele>
        <time>2018-03-15T12:24:13Z</time>
      </trkpt>
      <trkpt lat="46.73895" lon="-1.78603">
        <ele>15</ele>
        <time>2018-03-15T12:25:13Z</time>
      </trkpt>
      <trkpt lat="46.7389" lon="-1.78591">
        <ele>15</ele>
        <time>2018-03-15T12:26:13Z</time>
      </trkpt>
      <trkpt lat="46.73886" lon="-1.78579">
        <ele>15</ele>
        <time>2018-03-15T12:27:13Z</time>
      </trkpt>
      <trkpt lat="46.73884" lon="-1.78572">
        <ele>15</ele>
        <time>2018-03-15T12:28:13Z</time>
      </trkpt>
      <trkpt lat="46.73879" lon="-1.78557">
        <ele>15</ele>
        <time>2018-03-15T12:29:13Z</time>
      </trkpt>
      <trkpt lat="46.73875" lon="-1.7854">
        <ele>15</ele>
        <time>2018-03-15T12:30:13Z</time>
      </trkpt>
      <trkpt lat="46.73872" lon="-1.78526">
        <ele>15</ele>
        <time>2018-03-15T12:31:13Z</time>
      </trkpt>
      <trkpt lat="46.7387" lon="-1.78512">
        <ele>14</ele>
        <time>2018-03-15T12:32:13Z</time>
      </trkpt>
      <trkpt lat="46.73868" lon="-1.78503">
        <ele>14</ele>
        <time>2018-03-15T12:33:13Z</time>
      </trkpt>
      <trkpt lat="46.73868" lon="-1.78495">
        <ele>14</ele>
        <time>2018-03-15T12:34:13Z</time>
      </trkpt>
      <trkpt lat="46.73866" lon="-1.78483">
        <ele>15</ele>
        <time>2018-03-15T12:35:13Z</time>
      </trkpt>
      <trkpt lat="46.73866" lon="-1.7848">
        <ele>15</ele>
        <time>2018-03-15T12:36:13Z</time>
      </trkpt>
      <trkpt lat="46.73866" lon="-1.78465">
        <ele>15</ele>
        <time>2018-03-15T12:37:13Z</time>
      </trkpt>
      <trkpt lat="46.73866" lon="-1.7845">
        <ele>16</ele>
        <time>2018-03-15T12:38:13Z</time>
      </trkpt>
      <trkpt lat="46.73867" lon="-1.78435">
        <ele>16</ele>
        <time>2018-03-15T12:39:13Z</time>
      </trkpt>
      <trkpt lat="46.73868" lon="-1.78423">
        <ele>16</ele>
        <time>2018-03-15T12:40:13Z</time>
      </trkpt>
      <trkpt lat="46.73869" lon="-1.78415">
        <ele>17</ele>
        <time>2018-03-15T12:41:13Z</time>
      </trkpt>
      <trkpt lat="46.73871" lon="-1.78402">
        <ele>17</ele>
        <time>2018-03-15T12:42:13Z</time>
      </trkpt>
      <trkpt lat="46.73877" lon="-1.78375">
        <ele>19</ele>
        <time>2018-03-15T12:43:13Z</time>
      </trkpt>
      <trkpt lat="46.73884" lon="-1.78341">
        <ele>20</ele>
        <time>2018-03-15T12:44:13Z</time>
      </trkpt>
      <trkpt lat="46.73892" lon="-1.78308">
        <ele>20</ele>
        <time>2018-03-15T12:45:13Z</time>
      </trkpt>
      <trkpt lat="46.73893" lon="-1.78302">
        <ele>20</ele>
        <time>2018-03-15T12:46:13Z</time>
      </trkpt>
      <trkpt lat="46.73895" lon="-1.78298">
        <ele>20</ele>
        <time>2018-03-15T12:47:13Z</time>
      </trkpt>
      <trkpt lat="46.73905" lon="-1.78253">
        <ele>20</ele>
        <time>2018-03-15T12:48:13Z</time>
      </trkpt>
      <trkpt lat="46.73921" lon="-1.78185">
        <ele>20</ele>
        <time>2018-03-15T12:49:13Z</time>
      </trkpt>
      <trkpt lat="46.73925" lon="-1.78164">
        <ele>20</ele>
        <time>2018-03-15T12:50:13Z</time>
      </trkpt>
      <trkpt lat="46.73928" lon="-1.78144">
        <ele>20</ele>
        <time>2018-03-15T12:51:13Z</time>
      </trkpt>
      <trkpt lat="46.73932" lon="-1.78123">
        <ele>20</ele>
        <time>2018-03-15T12:52:13Z</time>
      </trkpt>
      <trkpt lat="46.73933" lon="-1.78105">
        <ele>20</ele>
        <time>2018-03-15T12:53:13Z</time>
      </trkpt>
      <trkpt lat="46.73934" lon="-1.78092">
        <ele>20</ele>
        <time>2018-03-15T12:54:13Z</time>
      </trkpt>
      <trkpt lat="46.73938" lon="-1.78043">
        <ele>20</ele>
        <time>2018-03-15T12:55:13Z</time>
      </trkpt>
      <trkpt lat="46.73939" lon="-1.78038">
        <ele>20</ele>
        <time>2018-03-15T12:56:13Z</time>
      </trkpt>
      <trkpt lat="46.73944" lon="-1.77959">
        <ele>20</ele>
        <time>2018-03-15T12:57:13Z</time>
      </trkpt>
      <trkpt lat="46.7395" lon="-1.77883">
        <ele>19</ele>
        <time>2018-03-15T12:58:13Z</time>
      </trkpt>
      <trkpt lat="46.73954" lon="-1.77822">
        <ele>17</ele>
        <time>2018-03-15T12:59:13Z</time>
      </trkpt>
      <trkpt lat="46.73959" lon="-1.77764">
        <ele>16</ele>
        <time>2018-03-15T13:00:13Z</time>
      </trkpt>
      <trkpt lat="46.73961" lon="-1.77735">
        <ele>16</ele>
        <time>2018-03-15T13:01:13Z</time>
      </trkpt>
      <trkpt lat="46.73965" lon="-1.77681">
        <ele>16</ele>
        <time>2018-03-15T13:02:13Z</time>
      </trkpt>
      <trkpt lat="46.73967" lon="-1.77662">
        <ele>16</ele>
        <time>2018-03-15T13:03:13Z</time>
      </trkpt>
      <trkpt lat="46.73975" lon="-1.77559">
        <ele>16</ele>
        <time>2018-03-15T13:04:13Z</time>
      </trkpt>
      <trkpt lat="46.73977" lon="-1.77528">
        <ele>17</ele>
        <time>2018-03-15T13:05:13Z</time>
      </trkpt>
      <trkpt lat="46.7398" lon="-1.77497">
        <ele>17</ele>
        <time>2018-03-15T13:06:13Z</time>
      </trkpt>
      <trkpt lat="46.73982" lon="-1.7748">
        <ele>17</ele>
        <time>2018-03-15T13:07:13Z</time>
      </trkpt>
      <trkpt lat="46.73986" lon="-1.77462">
        <ele>16</ele>
        <time>2018-03-15T13:08:13Z</time>
      </trkpt>
      <trkpt lat="46.7399" lon="-1.77443">
        <ele>16</ele>
        <time>2018-03-15T13:09:13Z</time>
      </trkpt>
      <trkpt lat="46.73998" lon="-1.77414">
        <ele>16</ele>
        <time>2018-03-15T13:10:13Z</time>
      </trkpt>
      <trkpt lat="46.74017" lon="-1.77356">
        <ele>16</ele>
        <time>2018-03-15T13:11:13Z</time>
      </trkpt>
      <trkpt lat="46.74042" lon="-1.77279">
        <ele>16</ele>
        <time>2018-03-15T13:12:13Z</time>
      </trkpt>
      <trkpt lat="46.74058" lon="-1.77229">
        <ele>16</ele>
        <time>2018-03-15T13:13:13Z</time>
      </trkpt>
      <trkpt lat="46.74079" lon="-1.77166">
        <ele>15</ele>
        <time>2018-03-15T13:14:13Z</time>
      </trkpt>
      <trkpt lat="46.74097" lon="-1.77112">
        <ele>14</ele>
        <time>2018-03-15T13:15:13Z</time>
      </trkpt>
      <trkpt lat="46.74112" lon="-1.77067">
        <ele>12</ele>
        <time>2018-03-15T13:16:13Z</time>
      </trkpt>
      <trkpt lat="46.74122" lon="-1.77035">
        <ele>11</ele>
        <time>2018-03-15T13:17:13Z</time>
      </trkpt>
      <trkpt lat="46.74129" lon="-1.77007">
        <ele>10</ele>
        <time>2018-03-15T13:18:13Z</time>
      </trkpt>
      <trkpt lat="46.74132" lon="-1.76994">
        <ele>10</ele>
        <time>2018-03-15T13:19:13Z</time>
      </trkpt>
      <trkpt lat="46.74135" lon="-1.76981">
        <ele>10</ele>
        <time>2018-03-15T13:20:13Z</time>
      </trkpt>
      <trkpt lat="46.74136" lon="-1.76968">
        <ele>10</ele>
        <time>2018-03-15T13:21:13Z</time>
      </trkpt>
      <trkpt lat="46.74138" lon="-1.76955">
        <ele>10</ele>
        <time>2018-03-15T13:22:13Z</time>
      </trkpt>
      <trkpt lat="46.74139" lon="-1.76937">
        <ele>11</ele>
        <time>2018-03-15T13:23:13Z</time>
      </trkpt>
      <trkpt lat="46.7414" lon="-1.76915">
        <ele>11</ele>
        <time>2018-03-15T13:24:13Z</time>
      </trkpt>
      <trkpt lat="46.7414" lon="-1.76889">
        <ele>11</ele>
        <time>2018-03-15T13:25:13Z</time>
      </trkpt>
      <trkpt lat="46.74139" lon="-1.76781">
        <ele>11</ele>
        <time>2018-03-15T13:26:13Z</time>
      </trkpt>
      <trkpt lat="46.74139" lon="-1.76776">
        <ele>11</ele>
        <time>2018-03-15T13:27:13Z</time>
      </trkpt>
      <trkpt lat="46.74139" lon="-1.76768">
        <ele>10</ele>
        <time>2018-03-15T13:28:13Z</time>
      </trkpt>
      <trkpt lat="46.74139" lon="-1.76723">
        <ele>11</ele>
        <time>2018-03-15T13:29:13Z</time>
      </trkpt>
      <trkpt lat="46.74139" lon="-1.76638">
        <ele>14</ele>
        <time>2018-03-15T13:30:13Z</time>
      </trkpt>
      <trkpt lat="46.74138" lon="-1.76554">
        <ele>16</ele>
        <time>2018-03-15T13:31:13Z</time>
      </trkpt>
      <trkpt lat="46.74139" lon="-1.76446">
        <ele>19</ele>
        <time>2018-03-15T13:32:13Z</time>
      </trkpt>
      <trkpt lat="46.7414" lon="-1.76389">
        <ele>20</ele>
        <time>2018-03-15T13:33:13Z</time>
      </trkpt>
      <trkpt lat="46.74141" lon="-1.7637">
        <ele>21</ele>
        <time>2018-03-15T13:34:13Z</time>
      </trkpt>
      <trkpt lat="46.74141" lon="-1.76353">
        <ele>21</ele>
        <time>2018-03-15T13:35:13Z</time>
      </trkpt>
      <trkpt lat="46.74143" lon="-1.76338">
        <ele>21</ele>
        <time>2018-03-15T13:36:13Z</time>
      </trkpt>
      <trkpt lat="46.74145" lon="-1.76325">
        <ele>22</ele>
        <time>2018-03-15T13:37:13Z</time>
      </trkpt>
      <trkpt lat="46.74146" lon="-1.7631">
        <ele>22</ele>
        <time>2018-03-15T13:38:13Z</time>
      </trkpt>
      <trkpt lat="46.74149" lon="-1.76298">
        <ele>23</ele>
        <time>2018-03-15T13:39:13Z</time>
      </trkpt>
      <trkpt lat="46.74152" lon="-1.76284">
        <ele>23</ele>
        <time>2018-03-15T13:40:13Z</time>
      </trkpt>
      <trkpt lat="46.74156" lon="-1.76271">
        <ele>23</ele>
        <time>2018-03-15T13:41:13Z</time>
      </trkpt>
      <trkpt lat="46.7416" lon="-1.76258">
        <ele>24</ele>
        <time>2018-03-15T13:42:13Z</time>
      </trkpt>
      <trkpt lat="46.74165" lon="-1.76245">
        <ele>24</ele>
        <time>2018-03-15T13:43:13Z</time>
      </trkpt>
      <trkpt lat="46.74169" lon="-1.76234">
        <ele>24</ele>
        <time>2018-03-15T13:44:13Z</time>
      </trkpt>
      <trkpt lat="46.7418" lon="-1.76211">
        <ele>23</ele>
        <time>2018-03-15T13:45:13Z</time>
      </trkpt>
      <trkpt lat="46.74198" lon="-1.76178">
        <ele>22</ele>
        <time>2018-03-15T13:46:13Z</time>
      </trkpt>
      <trkpt lat="46.74218" lon="-1.76144">
        <ele>21</ele>
        <time>2018-03-15T13:47:13Z</time>
      </trkpt>
      <trkpt lat="46.74237" lon="-1.7611">
        <ele>21</ele>
        <time>2018-03-15T13:48:13Z</time>
      </trkpt>
      <trkpt lat="46.7425" lon="-1.76087">
        <ele>21</ele>
        <time>2018-03-15T13:49:13Z</time>
      </trkpt>
      <trkpt lat="46.74262" lon="-1.76064">
        <ele>21</ele>
        <time>2018-03-15T13:50:13Z</time>
      </trkpt>
      <trkpt lat="46.74273" lon="-1.7604">
        <ele>20</ele>
        <time>2018-03-15T13:51:13Z</time>
      </trkpt>
      <trkpt lat="46.74284" lon="-1.76017">
        <ele>20</ele>
        <time>2018-03-15T13:52:13Z</time>
      </trkpt>
      <trkpt lat="46.74294" lon="-1.75991">
        <ele>21</ele>
        <time>2018-03-15T13:53:13Z</time>
      </trkpt>
      <trkpt lat="46.74316" lon="-1.7594">
        <ele>20</ele>
        <time>2018-03-15T13:54:13Z</time>
      </trkpt>
      <trkpt lat="46.74359" lon="-1.75834">
        <ele>20</ele>
        <time>2018-03-15T13:55:13Z</time>
      </trkpt>
      <trkpt lat="46.74383" lon="-1.75777">
        <ele>20</ele>
        <time>2018-03-15T13:56:13Z</time>
      </trkpt>
      <trkpt lat="46.74404" lon="-1.75728">
        <ele>20</ele>
        <time>2018-03-15T13:57:13Z</time>
      </trkpt>
      <trkpt lat="46.74421" lon="-1.75687">
        <ele>20</ele>
        <time>2018-03-15T13:58:13Z</time>
      </trkpt>
      <trkpt lat="46.74438" lon="-1.75646">
        <ele>21</ele>
        <time>2018-03-15T13:59:13Z</time>
      </trkpt>
      <trkpt lat="46.74458" lon="-1.756">
        <ele>20</ele>
        <time>2018-03-15T14:00:13Z</time>
      </trkpt>
      <trkpt lat="46.74503" lon="-1.75493">
        <ele>23</ele>
        <time>2018-03-15T14:01:13Z</time>
      </trkpt>
      <trkpt lat="46.74531" lon="-1.75427">
        <ele>23</ele>
        <time>2018-03-15T14:02:13Z</time>
      </trkpt>
      <trkpt lat="46.74557" lon="-1.75364">
        <ele>24</ele>
        <time>2018-03-15T14:03:13Z</time>
      </trkpt>
      <trkpt lat="46.74569" lon="-1.75336">
        <ele>24</ele>
        <time>2018-03-15T14:04:13Z</time>
      </trkpt>
      <trkpt lat="46.74578" lon="-1.75313">
        <ele>24</ele>
        <time>2018-03-15T14:05:13Z</time>
      </trkpt>
      <trkpt lat="46.74585" lon="-1.75294">
        <ele>24</ele>
        <time>2018-03-15T14:06:13Z</time>
      </trkpt>
      <trkpt lat="46.7459" lon="-1.75279">
        <ele>24</ele>
        <time>2018-03-15T14:07:13Z</time>
      </trkpt>
      <trkpt lat="46.74594" lon="-1.75262">
        <ele>24</ele>
        <time>2018-03-15T14:08:13Z</time>
      </trkpt>
      <trkpt lat="46.74601" lon="-1.75236">
        <ele>24</ele>
        <time>2018-03-15T14:09:13Z</time>
      </trkpt>
      <trkpt lat="46.74608" lon="-1.75205">
        <ele>25</ele>
        <time>2018-03-15T14:10:13Z</time>
      </trkpt>
      <trkpt lat="46.74618" lon="-1.75155">
        <ele>26</ele>
        <time>2018-03-15T14:11:13Z</time>
      </trkpt>
      <trkpt lat="46.74628" lon="-1.751">
        <ele>26</ele>
        <time>2018-03-15T14:12:13Z</time>
      </trkpt>
      <trkpt lat="46.74635" lon="-1.75056">
        <ele>25</ele>
        <time>2018-03-15T14:13:13Z</time>
      </trkpt>
      <trkpt lat="46.7464" lon="-1.75028">
        <ele>24</ele>
        <time>2018-03-15T14:14:13Z</time>
      </trkpt>
      <trkpt lat="46.74643" lon="-1.75013">
        <ele>23</ele>
        <time>2018-03-15T14:15:13Z</time>
      </trkpt>
      <trkpt lat="46.74645" lon="-1.74999">
        <ele>23</ele>
        <time>2018-03-15T14:16:13Z</time>
      </trkpt>
      <trkpt lat="46.74647" lon="-1.74984">
        <ele>23</ele>
        <time>2018-03-15T14:17:13Z</time>
      </trkpt>
      <trkpt lat="46.74648" lon="-1.7497">
        <ele>23</ele>
        <time>2018-03-15T14:18:13Z</time>
      </trkpt>
      <trkpt lat="46.74649" lon="-1.74956">
        <ele>23</ele>
        <time>2018-03-15T14:19:13Z</time>
      </trkpt>
      <trkpt lat="46.7465" lon="-1.74942">
        <ele>22</ele>
        <time>2018-03-15T14:20:13Z</time>
      </trkpt>
      <trkpt lat="46.74651" lon="-1.74928">
        <ele>22</ele>
        <time>2018-03-15T14:21:13Z</time>
      </trkpt>
      <trkpt lat="46.74651" lon="-1.74914">
        <ele>22</ele>
        <time>2018-03-15T14:22:13Z</time>
      </trkpt>
      <trkpt lat="46.7465" lon="-1.749">
        <ele>23</ele>
        <time>2018-03-15T14:23:13Z</time>
      </trkpt>
      <trkpt lat="46.7465" lon="-1.74887">
        <ele>23</ele>
        <time>2018-03-15T14:24:13Z</time>
      </trkpt>
      <trkpt lat="46.74649" lon="-1.74874">
        <ele>23</ele>
        <time>2018-03-15T14:25:13Z</time>
      </trkpt>
      <trkpt lat="46.74647" lon="-1.74852">
        <ele>24</ele>
        <time>2018-03-15T14:26:13Z</time>
      </trkpt>
      <trkpt lat="46.74642" lon="-1.74826">
        <ele>25</ele>
        <time>2018-03-15T14:27:13Z</time>
      </trkpt>
      <trkpt lat="46.74637" lon="-1.74797">
        <ele>25</ele>
        <time>2018-03-15T14:28:13Z</time>
      </trkpt>
      <trkpt lat="46.74631" lon="-1.74766">
        <ele>25</ele>
        <time>2018-03-15T14:29:13Z</time>
      </trkpt>
      <trkpt lat="46.74622" lon="-1.74719">
        <ele>25</ele>
        <time>2018-03-15T14:30:13Z</time>
      </trkpt>
      <trkpt lat="46.74617" lon="-1.74692">
        <ele>25</ele>
        <time>2018-03-15T14:31:13Z</time>
      </trkpt>
      <trkpt lat="46.74611" lon="-1.74666">
        <ele>25</ele>
        <time>2018-03-15T14:32:13Z</time>
      </trkpt>
      <trkpt lat="46.74607" lon="-1.74642">
        <ele>25</ele>
        <time>2018-03-15T14:33:13Z</time>
      </trkpt>
      <trkpt lat="46.74603" lon="-1.74617">
        <ele>24</ele>
        <time>2018-03-15T14:34:13Z</time>
      </trkpt>
      <trkpt lat="46.746" lon="-1.74603">
        <ele>24</ele>
        <time>2018-03-15T14:35:13Z</time>
      </trkpt>
      <trkpt lat="46.74599" lon="-1.74596">
        <ele>24</ele>
        <time>2018-03-15T14:36:13Z</time>
      </trkpt>
      <trkpt lat="46.74597" lon="-1.74586">
        <ele>24</ele>
        <time>2018-03-15T14:37:13Z</time>
      </trkpt>
      <trkpt lat="46.74597" lon="-1.74586">
        <ele>24</ele>
        <time>2018-03-15T14:38:13Z</time>
      </trkpt>
      <trkpt lat="46.74603" lon="-1.74581">
        <ele>24</ele>
        <time>2018-03-15T14:39:13Z</time>
      </trkpt>
      <trkpt lat="46.74606" lon="-1.74576">
        <ele>23</ele>
        <time>2018-03-15T14:40:13Z</time>
      </trkpt>
      <trkpt lat="46.74617" lon="-1.74563">
        <ele>22</ele>
        <time>2018-03-15T14:41:13Z</time>
      </trkpt>
      <trkpt lat="46.74631" lon="-1.74544">
        <ele>21</ele>
        <time>2018-03-15T14:42:13Z</time>
      </trkpt>
      <trkpt lat="46.74667" lon="-1.74493">
        <ele>20</ele>
        <time>2018-03-15T14:43:13Z</time>
      </trkpt>
      <trkpt lat="46.74688" lon="-1.74462">
        <ele>19</ele>
        <time>2018-03-15T14:44:13Z</time>
      </trkpt>
      <trkpt lat="46.74699" lon="-1.74442">
        <ele>18</ele>
        <time>2018-03-15T14:45:13Z</time>
      </trkpt>
      <trkpt lat="46.74707" lon="-1.74428">
        <ele>18</ele>
        <time>2018-03-15T14:46:13Z</time>
      </trkpt>
      <trkpt lat="46.74715" lon="-1.74412">
        <ele>17</ele>
        <time>2018-03-15T14:47:13Z</time>
      </trkpt>
      <trkpt lat="46.74719" lon="-1.74402">
        <ele>17</ele>
        <time>2018-03-15T14:48:13Z</time>
      </trkpt>
      <trkpt lat="46.74724" lon="-1.74388">
        <ele>17</ele>
        <time>2018-03-15T14:49:13Z</time>
      </trkpt>
      <trkpt lat="46.74729" lon="-1.74372">
        <ele>16</ele>
        <time>2018-03-15T14:50:13Z</time>
      </trkpt>
      <trkpt lat="46.74732" lon="-1.74359">
        <ele>16</ele>
        <time>2018-03-15T14:51:13Z</time>
      </trkpt>
      <trkpt lat="46.74735" lon="-1.74347">
        <ele>15</ele>
        <time>2018-03-15T14:52:13Z</time>
      </trkpt>
      <trkpt lat="46.74738" lon="-1.74327">
        <ele>14</ele>
        <time>2018-03-15T14:53:13Z</time>
      </trkpt>
      <trkpt lat="46.74739" lon="-1.74314">
        <ele>14</ele>
        <time>2018-03-15T14:54:13Z</time>
      </trkpt>
      <trkpt lat="46.7474" lon="-1.743">
        <ele>14</ele>
        <time>2018-03-15T14:55:13Z</time>
      </trkpt>
      <trkpt lat="46.74741" lon="-1.74282">
        <ele>14</ele>
        <time>2018-03-15T14:56:13Z</time>
      </trkpt>
      <trkpt lat="46.74742" lon="-1.74239">
        <ele>14</ele>
        <time>2018-03-15T14:57:13Z</time>
      </trkpt>
      <trkpt lat="46.74741" lon="-1.74229">
        <ele>14</ele>
        <time>2018-03-15T14:58:13Z</time>
      </trkpt>
      <trkpt lat="46.7474" lon="-1.74216">
        <ele>13</ele>
        <time>2018-03-15T14:59:13Z</time>
      </trkpt>
      <trkpt lat="46.74738" lon="-1.74205">
        <ele>13</ele>
        <time>2018-03-15T15:00:13Z</time>
      </trkpt>
      <trkpt lat="46.74736" lon="-1.74196">
        <ele>13</ele>
        <time>2018-03-15T15:01:13Z</time>
      </trkpt>
      <trkpt lat="46.74734" lon="-1.74192">
        <ele>13</ele>
        <time>2018-03-15T15:02:13Z</time>
      </trkpt>
      <trkpt lat="46.74732" lon="-1.74188">
        <ele>13</ele>
        <time>2018-03-15T15:03:13Z</time>
      </trkpt>
      <trkpt lat="46.74729" lon="-1.74181">
        <ele>13</ele>
        <time>2018-03-15T15:04:13Z</time>
      </trkpt>
      <trkpt lat="46.74733" lon="-1.74169">
        <ele>13</ele>
        <time>2018-03-15T15:05:13Z</time>
      </trkpt>
      <trkpt lat="46.74735" lon="-1.74165">
        <ele>12</ele>
        <time>2018-03-15T15:06:13Z</time>
      </trkpt>
      <trkpt lat="46.74736" lon="-1.74163">
        <ele>12</ele>
        <time>2018-03-15T15:07:13Z</time>
      </trkpt>
      <trkpt lat="46.74756" lon="-1.74143">
        <ele>11</ele>
        <time>2018-03-15T15:08:13Z</time>
      </trkpt>
      <trkpt lat="46.74762" lon="-1.74138">
        <ele>12</ele>
        <time>2018-03-15T15:09:13Z</time>
      </trkpt>
      <trkpt lat="46.7477" lon="-1.74131">
        <ele>12</ele>
        <time>2018-03-15T15:10:13Z</time>
      </trkpt>
      <trkpt lat="46.74778" lon="-1.74124">
        <ele>13</ele>
        <time>2018-03-15T15:11:13Z</time>
      </trkpt>
      <trkpt lat="46.74787" lon="-1.74117">
        <ele>13</ele>
        <time>2018-03-15T15:12:13Z</time>
      </trkpt>
      <trkpt lat="46.748" lon="-1.74108">
        <ele>14</ele>
        <time>2018-03-15T15:13:13Z</time>
      </trkpt>
      <trkpt lat="46.74805" lon="-1.74105">
        <ele>14</ele>
        <time>2018-03-15T15:14:13Z</time>
      </trkpt>
      <trkpt lat="46.74807" lon="-1.74104">
        <ele>15</ele>
        <time>2018-03-15T15:15:13Z</time>
      </trkpt>
      <trkpt lat="46.7481" lon="-1.74103">
        <ele>15</ele>
        <time>2018-03-15T15:16:13Z</time>
      </trkpt>
      <trkpt lat="46.74816" lon="-1.741">
        <ele>15</ele>
        <time>2018-03-15T15:17:13Z</time>
      </trkpt>
      <trkpt lat="46.74838" lon="-1.7409">
        <ele>17</ele>
        <time>2018-03-15T15:18:13Z</time>
      </trkpt>
      <trkpt lat="46.74839" lon="-1.74089">
        <ele>17</ele>
        <time>2018-03-15T15:19:13Z</time>
      </trkpt>
      <trkpt lat="46.74841" lon="-1.74088">
        <ele>17</ele>
        <time>2018-03-15T15:20:13Z</time>
      </trkpt>
      <trkpt lat="46.74851" lon="-1.74084">
        <ele>18</ele>
        <time>2018-03-15T15:21:13Z</time>
      </trkpt>
      <trkpt lat="46.74855" lon="-1.74083">
        <ele>19</ele>
        <time>2018-03-15T15:22:13Z</time>
      </trkpt>
      <trkpt lat="46.74862" lon="-1.7408">
        <ele>19</ele>
        <time>2018-03-15T15:23:13Z</time>
      </trkpt>
      <trkpt lat="46.74934" lon="-1.74049">
        <ele>25</ele>
        <time>2018-03-15T15:24:13Z</time>
      </trkpt>
      <trkpt lat="46.74938" lon="-1.74047">
        <ele>25</ele>
        <time>2018-03-15T15:25:13Z</time>
      </trkpt>
      <trkpt lat="46.74942" lon="-1.74045">
        <ele>25</ele>
        <time>2018-03-15T15:26:13Z</time>
      </trkpt>
      <trkpt lat="46.74963" lon="-1.74029">
        <ele>27</ele>
        <time>2018-03-15T15:27:13Z</time>
      </trkpt>
      <trkpt lat="46.74966" lon="-1.74027">
        <ele>27</ele>
        <time>2018-03-15T15:28:13Z</time>
      </trkpt>
      <trkpt lat="46.74973" lon="-1.7402">
        <ele>27</ele>
        <time>2018-03-15T15:29:13Z</time>
      </trkpt>
      <trkpt lat="46.74973" lon="-1.7402">
        <ele>27</ele>
        <time>2018-03-15T15:30:13Z</time>
      </trkpt>
      <trkpt lat="46.74944" lon="-1.73979">
        <ele>28</ele>
        <time>2018-03-15T15:31:13Z</time>
      </trkpt>
      <trkpt lat="46.74941" lon="-1.73975">
        <ele>28</ele>
        <time>2018-03-15T15:32:13Z</time>
      </trkpt>
      <trkpt lat="46.74937" lon="-1.73972">
        <ele>28</ele>
        <time>2018-03-15T15:33:13Z</time>
      </trkpt>
      <trkpt lat="46.74933" lon="-1.7397">
        <ele>28</ele>
        <time>2018-03-15T15:34:13Z</time>
      </trkpt>
      <trkpt lat="46.7493" lon="-1.73969">
        <ele>27</ele>
        <time>2018-03-15T15:35:13Z</time>
      </trkpt>
      <trkpt lat="46.74925" lon="-1.73968">
        <ele>27</ele>
        <time>2018-03-15T15:36:13Z</time>
      </trkpt>
      <trkpt lat="46.74921" lon="-1.73967">
        <ele>27</ele>
        <time>2018-03-15T15:37:13Z</time>
      </trkpt>
      <trkpt lat="46.74917" lon="-1.73966">
        <ele>27</ele>
        <time>2018-03-15T15:38:13Z</time>
      </trkpt>
      <trkpt lat="46.74912" lon="-1.73965">
        <ele>27</ele>
        <time>2018-03-15T15:39:13Z</time>
      </trkpt>
      <trkpt lat="46.74908" lon="-1.73962">
        <ele>27</ele>
        <time>2018-03-15T15:40:13Z</time>
      </trkpt>
      <trkpt lat="46.74904" lon="-1.73959">
        <ele>27</ele>
        <time>2018-03-15T15:41:13Z</time>
      </trkpt>
      <trkpt lat="46.74897" lon="-1.73949">
        <ele>28</ele>
        <time>2018-03-15T15:42:13Z</time>
      </trkpt>
      <trkpt lat="46.7489" lon="-1.73938">
        <ele>28</ele>
        <time>2018-03-15T15:43:13Z</time>
      </trkpt>
      <trkpt lat="46.74885" lon="-1.73926">
        <ele>29</ele>
        <time>2018-03-15T15:44:13Z</time>
      </trkpt>
      <trkpt lat="46.74882" lon="-1.7392">
        <ele>29</ele>
        <time>2018-03-15T15:45:13Z</time>
      </trkpt>
      <trkpt lat="46.74876" lon="-1.73908">
        <ele>29</ele>
        <time>2018-03-15T15:46:13Z</time>
      </trkpt>
      <trkpt lat="46.74875" lon="-1.73905">
        <ele>29</ele>
        <time>2018-03-15T15:47:13Z</time>
      </trkpt>
      <trkpt lat="46.74872" lon="-1.73903">
        <ele>29</ele>
        <time>2018-03-15T15:48:13Z</time>
      </trkpt>
      <trkpt lat="46.74871" lon="-1.73902">
        <ele>29</ele>
        <time>2018-03-15T15:49:13Z</time>
      </trkpt>
      <trkpt lat="46.74864" lon="-1.73883">
        <ele>30</ele>
        <time>2018-03-15T15:50:13Z</time>
      </trkpt>
      <trkpt lat="46.74864" lon="-1.73883">
        <ele>30</ele>
        <time>2018-03-15T15:51:13Z</time>
      </trkpt>
      <trkpt lat="46.74863" lon="-1.73883">
        <ele>30</ele>
        <time>2018-03-15T15:52:13Z</time>
      </trkpt>
      <trkpt lat="46.74863" lon="-1.73882">
        <ele>30</ele>
        <time>2018-03-15T15:53:13Z</time>
      </trkpt>
      <trkpt lat="46.74862" lon="-1.73882">
        <ele>30</ele>
        <time>2018-03-15T15:54:13Z</time>
      </trkpt>
      <trkpt lat="46.74861" lon="-1.73881">
        <ele>30</ele>
        <time>2018-03-15T15:55:13Z</time>
      </trkpt>
      <trkpt lat="46.7486" lon="-1.73881">
        <ele>30</ele>
        <time>2018-03-15T15:56:13Z</time>
      </trkpt>
      <trkpt lat="46.7486" lon="-1.7388">
        <ele>30</ele>
        <time>2018-03-15T15:57:13Z</time>
      </trkpt>
      <trkpt lat="46.74859" lon="-1.73879">
        <ele>30</ele>
        <time>2018-03-15T15:58:13Z</time>
      </trkpt>
      <trkpt lat="46.74859" lon="-1.73878">
        <ele>30</ele>
        <time>2018-03-15T15:59:13Z</time>
      </trkpt>
      <trkpt lat="46.74858" lon="-1.73878">
        <ele>30</ele>
        <time>2018-03-15T16:00:13Z</time>
      </trkpt>
      <trkpt lat="46.74858" lon="-1.73877">
        <ele>30</ele>
        <time>2018-03-15T16:01:13Z</time>
      </trkpt>
      <trkpt lat="46.74858" lon="-1.73876">
        <ele>30</ele>
        <time>2018-03-15T16:02:13Z</time>
      </trkpt>
      <trkpt lat="46.74858" lon="-1.73875">
        <ele>30</ele>
        <time>2018-03-15T16:03:13Z</time>
      </trkpt>
      <trkpt lat="46.74857" lon="-1.73875">
        <ele>30</ele>
        <time>2018-03-15T16:04:13Z</time>
      </trkpt>
      <trkpt lat="46.74857" lon="-1.73874">
        <ele>30</ele>
        <time>2018-03-15T16:05:13Z</time>
      </trkpt>
      <trkpt lat="46.74857" lon="-1.73873">
        <ele>30</ele>
        <time>2018-03-15T16:06:13Z</time>
      </trkpt>
      <trkpt lat="46.74857" lon="-1.73872">
        <ele>30</ele>
        <time>2018-03-15T16:07:13Z</time>
      </trkpt>
      <trkpt lat="46.74857" lon="-1.73871">
        <ele>30</ele>
        <time>2018-03-15T16:08:13Z</time>
      </trkpt>
      <trkpt lat="46.74857" lon="-1.7387">
        <ele>30</ele>
        <time>2018-03-15T16:09:13Z</time>
      </trkpt>
      <trkpt lat="46.74858" lon="-1.7387">
        <ele>30</ele>
        <time>2018-03-15T16:10:13Z</time>
      </trkpt>
      <trkpt lat="46.74858" lon="-1.73869">
        <ele>30</ele>
        <time>2018-03-15T16:11:13Z</time>
      </trkpt>
      <trkpt lat="46.74858" lon="-1.73868">
        <ele>30</ele>
        <time>2018-03-15T16:12:13Z</time>
      </trkpt>
      <trkpt lat="46.74858" lon="-1.73867">
        <ele>30</ele>
        <time>2018-03-15T16:13:13Z</time>
      </trkpt>
      <trkpt lat="46.74859" lon="-1.73867">
        <ele>30</ele>
        <time>2018-03-15T16:14:13Z</time>
      </trkpt>
      <trkpt lat="46.74859" lon="-1.73866">
        <ele>30</ele>
        <time>2018-03-15T16:15:13Z</time>
      </trkpt>
      <trkpt lat="46.7486" lon="-1.73865">
        <ele>30</ele>
        <time>2018-03-15T16:16:13Z</time>
      </trkpt>
      <trkpt lat="46.74861" lon="-1.73864">
        <ele>30</ele>
        <time>2018-03-15T16:17:13Z</time>
      </trkpt>
      <trkpt lat="46.74862" lon="-1.73864">
        <ele>30</ele>
        <time>2018-03-15T16:18:13Z</time>
      </trkpt>
      <trkpt lat="46.74862" lon="-1.73863">
        <ele>30</ele>
        <time>2018-03-15T16:19:13Z</time>
      </trkpt>
      <trkpt lat="46.74863" lon="-1.73863">
        <ele>30</ele>
        <time>2018-03-15T16:20:13Z</time>
      </trkpt>
      <trkpt lat="46.74864" lon="-1.73863">
        <ele>30</ele>
        <time>2018-03-15T16:21:13Z</time>
      </trkpt>
      <trkpt lat="46.74865" lon="-1.73863">
        <ele>31</ele>
        <time>2018-03-15T16:22:13Z</time>
      </trkpt>
      <trkpt lat="46.74866" lon="-1.73863">
        <ele>31</ele>
        <time>2018-03-15T16:23:13Z</time>
      </trkpt>
      <trkpt lat="46.74867" lon="-1.73863">
        <ele>31</ele>
        <time>2018-03-15T16:24:13Z</time>
      </trkpt>
      <trkpt lat="46.74868" lon="-1.73863">
        <ele>31</ele>
        <time>2018-03-15T16:25:13Z</time>
      </trkpt>
      <trkpt lat="46.74873" lon="-1.7386">
        <ele>31</ele>
        <time>2018-03-15T16:26:13Z</time>
      </trkpt>
      <trkpt lat="46.74877" lon="-1.73856">
        <ele>31</ele>
        <time>2018-03-15T16:27:13Z</time>
      </trkpt>
      <trkpt lat="46.74883" lon="-1.73854">
        <ele>32</ele>
        <time>2018-03-15T16:28:13Z</time>
      </trkpt>
      <trkpt lat="46.74908" lon="-1.73846">
        <ele>33</ele>
        <time>2018-03-15T16:29:13Z</time>
      </trkpt>
      <trkpt lat="46.74991" lon="-1.73849">
        <ele>38</ele>
        <time>2018-03-15T16:30:13Z</time>
      </trkpt>
      <trkpt lat="46.75012" lon="-1.73852">
        <ele>38</ele>
        <time>2018-03-15T16:31:13Z</time>
      </trkpt>
      <trkpt lat="46.75026" lon="-1.73853">
        <ele>39</ele>
        <time>2018-03-15T16:32:13Z</time>
      </trkpt>
      <trkpt lat="46.75035" lon="-1.73853">
        <ele>39</ele>
        <time>2018-03-15T16:33:13Z</time>
      </trkpt>
      <trkpt lat="46.75041" lon="-1.73853">
        <ele>40</ele>
        <time>2018-03-15T16:34:13Z</time>
      </trkpt>
      <trkpt lat="46.75118" lon="-1.73846">
        <ele>43</ele>
        <time>2018-03-15T16:35:13Z</time>
      </trkpt>
      <trkpt lat="46.75133" lon="-1.73845">
        <ele>44</ele>
        <time>2018-03-15T16:36:13Z</time>
      </trkpt>
      <trkpt lat="46.75153" lon="-1.73848">
        <ele>45</ele>
        <time>2018-03-15T16:37:13Z</time>
      </trkpt>
      <trkpt lat="46.75169" lon="-1.73854">
        <ele>46</ele>
        <time>2018-03-15T16:38:13Z</time>
      </trkpt>
      <trkpt lat="46.75183" lon="-1.73862">
        <ele>46</ele>
        <time>2018-03-15T16:39:13Z</time>
      </trkpt>
      <trkpt lat="46.75201" lon="-1.73873">
        <ele>46</ele>
        <time>2018-03-15T16:40:13Z</time>
      </trkpt>
      <trkpt lat="46.75211" lon="-1.73882">
        <ele>46</ele>
        <time>2018-03-15T16:41:13Z</time>
      </trkpt>
      <trkpt lat="46.75211" lon="-1.73882">
        <ele>46</ele>
        <time>2018-03-15T16:42:13Z</time>
      </trkpt>
      <trkpt lat="46.75216" lon="-1.73867">
        <ele>47</ele>
        <time>2018-03-15T16:43:13Z</time>
      </trkpt>
      <trkpt lat="46.75226" lon="-1.73846">
        <ele>47</ele>
        <time>2018-03-15T16:44:13Z</time>
      </trkpt>
      <trkpt lat="46.75243" lon="-1.7381">
        <ele>48</ele>
        <time>2018-03-15T16:45:13Z</time>
      </trkpt>
      <trkpt lat="46.75247" lon="-1.738">
        <ele>49</ele>
        <time>2018-03-15T16:46:13Z</time>
      </trkpt>
      <trkpt lat="46.75259" lon="-1.73776">
        <ele>50</ele>
        <time>2018-03-15T16:47:13Z</time>
      </trkpt>
      <trkpt lat="46.75268" lon="-1.73759">
        <ele>50</ele>
        <time>2018-03-15T16:48:13Z</time>
      </trkpt>
      <trkpt lat="46.75271" lon="-1.73754">
        <ele>50</ele>
        <time>2018-03-15T16:49:13Z</time>
      </trkpt>
      <trkpt lat="46.75276" lon="-1.73746">
        <ele>50</ele>
        <time>2018-03-15T16:50:13Z</time>
      </trkpt>
      <trkpt lat="46.75285" lon="-1.73733">
        <ele>51</ele>
        <time>2018-03-15T16:51:13Z</time>
      </trkpt>
      <trkpt lat="46.75292" lon="-1.73721">
        <ele>51</ele>
        <time>2018-03-15T16:52:13Z</time>
      </trkpt>
      <trkpt lat="46.75301" lon="-1.73709">
        <ele>51</ele>
        <time>2018-03-15T16:53:13Z</time>
      </trkpt>
      <trkpt lat="46.75305" lon="-1.73703">
        <ele>51</ele>
        <time>2018-03-15T16:54:13Z</time>
      </trkpt>
      <trkpt lat="46.75309" lon="-1.73698">
        <ele>51</ele>
        <time>2018-03-15T16:55:13Z</time>
      </trkpt>
      <trkpt lat="46.75319" lon="-1.73686">
        <ele>52</ele>
        <time>2018-03-15T16:56:13Z</time>
      </trkpt>
      <trkpt lat="46.75329" lon="-1.73675">
        <ele>52</ele>
        <time>2018-03-15T16:57:13Z</time>
      </trkpt>
      <trkpt lat="46.75344" lon="-1.73658">
        <ele>52</ele>
        <time>2018-03-15T16:58:13Z</time>
      </trkpt>
      <trkpt lat="46.7539" lon="-1.73612">
        <ele>53</ele>
        <time>2018-03-15T16:59:13Z</time>
      </trkpt>
      <trkpt lat="46.7541" lon="-1.73592">
        <ele>53</ele>
        <time>2018-03-15T17:00:13Z</time>
      </trkpt>
      <trkpt lat="46.75442" lon="-1.73561">
        <ele>54</ele>
        <time>2018-03-15T17:01:13Z</time>
      </trkpt>
      <trkpt lat="46.75452" lon="-1.7355">
        <ele>54</ele>
        <time>2018-03-15T17:02:13Z</time>
      </trkpt>
      <trkpt lat="46.75488" lon="-1.73511">
        <ele>56</ele>
        <time>2018-03-15T17:03:13Z</time>
      </trkpt>
      <trkpt lat="46.75511" lon="-1.73485">
        <ele>56</ele>
        <time>2018-03-15T17:04:13Z</time>
      </trkpt>
      <trkpt lat="46.75518" lon="-1.73476">
        <ele>56</ele>
        <time>2018-03-15T17:05:13Z</time>
      </trkpt>
      <trkpt lat="46.75524" lon="-1.73468">
        <ele>56</ele>
        <time>2018-03-15T17:06:13Z</time>
      </trkpt>
      <trkpt lat="46.75529" lon="-1.73461">
        <ele>56</ele>
        <time>2018-03-15T17:07:13Z</time>
      </trkpt>
      <trkpt lat="46.75534" lon="-1.73455">
        <ele>56</ele>
        <time>2018-03-15T17:08:13Z</time>
      </trkpt>
      <trkpt lat="46.75538" lon="-1.73448">
        <ele>56</ele>
        <time>2018-03-15T17:09:13Z</time>
      </trkpt>
      <trkpt lat="46.75541" lon="-1.73445">
        <ele>56</ele>
        <time>2018-03-15T17:10:13Z</time>
      </trkpt>
      <trkpt lat="46.75544" lon="-1.73439">
        <ele>56</ele>
        <time>2018-03-15T17:11:13Z</time>
      </trkpt>
      <trkpt lat="46.75553" lon="-1.73423">
        <ele>56</ele>
        <time>2018-03-15T17:12:13Z</time>
      </trkpt>
      <trkpt lat="46.75555" lon="-1.73418">
        <ele>56</ele>
        <time>2018-03-15T17:13:13Z</time>
      </trkpt>
      <trkpt lat="46.75557" lon="-1.73412">
        <ele>56</ele>
        <time>2018-03-15T17:14:13Z</time>
      </trkpt>
      <trkpt lat="46.7556" lon="-1.73403">
        <ele>56</ele>
        <time>2018-03-15T17:15:13Z</time>
      </trkpt>
      <trkpt lat="46.75564" lon="-1.7339">
        <ele>56</ele>
        <time>2018-03-15T17:16:13Z</time>
      </trkpt>
      <trkpt lat="46.75567" lon="-1.73377">
        <ele>56</ele>
        <time>2018-03-15T17:17:13Z</time>
      </trkpt>
      <trkpt lat="46.75575" lon="-1.73341">
        <ele>57</ele>
        <time>2018-03-15T17:18:13Z</time>
      </trkpt>
      <trkpt lat="46.75589" lon="-1.73274">
        <ele>56</ele>
        <time>2018-03-15T17:19:13Z</time>
      </trkpt>
      <trkpt lat="46.75598" lon="-1.73226">
        <ele>55</ele>
        <time>2018-03-15T17:20:13Z</time>
      </trkpt>
      <trkpt lat="46.75608" lon="-1.73181">
        <ele>54</ele>
        <time>2018-03-15T17:21:13Z</time>
      </trkpt>
      <trkpt lat="46.75612" lon="-1.73156">
        <ele>54</ele>
        <time>2018-03-15T17:22:13Z</time>
      </trkpt>
      <trkpt lat="46.75617" lon="-1.73128">
        <ele>54</ele>
        <time>2018-03-15T17:23:13Z</time>
      </trkpt>
      <trkpt lat="46.75616" lon="-1.7312">
        <ele>54</ele>
        <time>2018-03-15T17:24:13Z</time>
      </trkpt>
      <trkpt lat="46.75618" lon="-1.73089">
        <ele>53</ele>
        <time>2018-03-15T17:25:13Z</time>
      </trkpt>
      <trkpt lat="46.75616" lon="-1.73087">
        <ele>53</ele>
        <time>2018-03-15T17:26:13Z</time>
      </trkpt>
      <trkpt lat="46.75615" lon="-1.73085">
        <ele>53</ele>
        <time>2018-03-15T17:27:13Z</time>
      </trkpt>
      <trkpt lat="46.75614" lon="-1.73083">
        <ele>53</ele>
        <time>2018-03-15T17:28:13Z</time>
      </trkpt>
      <trkpt lat="46.75614" lon="-1.73082">
        <ele>53</ele>
        <time>2018-03-15T17:29:13Z</time>
      </trkpt>
      <trkpt lat="46.75614" lon="-1.73081">
        <ele>53</ele>
        <time>2018-03-15T17:30:13Z</time>
      </trkpt>
      <trkpt lat="46.75613" lon="-1.73078">
        <ele>53</ele>
        <time>2018-03-15T17:31:13Z</time>
      </trkpt>
      <trkpt lat="46.75613" lon="-1.73075">
        <ele>53</ele>
        <time>2018-03-15T17:32:13Z</time>
      </trkpt>
      <trkpt lat="46.75614" lon="-1.73071">
        <ele>53</ele>
        <time>2018-03-15T17:33:13Z</time>
      </trkpt>
      <trkpt lat="46.75615" lon="-1.73066">
        <ele>53</ele>
        <time>2018-03-15T17:34:13Z</time>
      </trkpt>
      <trkpt lat="46.75619" lon="-1.73049">
        <ele>54</ele>
        <time>2018-03-15T17:35:13Z</time>
      </trkpt>
      <trkpt lat="46.75623" lon="-1.73038">
        <ele>54</ele>
        <time>2018-03-15T17:36:13Z</time>
      </trkpt>
      <trkpt lat="46.75623" lon="-1.72992">
        <ele>55</ele>
        <time>2018-03-15T17:37:13Z</time>
      </trkpt>
      <trkpt lat="46.75623" lon="-1.72916">
        <ele>55</ele>
        <time>2018-03-15T17:38:13Z</time>
      </trkpt>
      <trkpt lat="46.75623" lon="-1.72887">
        <ele>55</ele>
        <time>2018-03-15T17:39:13Z</time>
      </trkpt>
      <trkpt lat="46.75624" lon="-1.7287">
        <ele>56</ele>
        <time>2018-03-15T17:40:13Z</time>
      </trkpt>
      <trkpt lat="46.75624" lon="-1.72845">
        <ele>56</ele>
        <time>2018-03-15T17:41:13Z</time>
      </trkpt>
      <trkpt lat="46.75625" lon="-1.72834">
        <ele>56</ele>
        <time>2018-03-15T17:42:13Z</time>
      </trkpt>
      <trkpt lat="46.75626" lon="-1.7282">
        <ele>57</ele>
        <time>2018-03-15T17:43:13Z</time>
      </trkpt>
      <trkpt lat="46.75626" lon="-1.72809">
        <ele>57</ele>
        <time>2018-03-15T17:44:13Z</time>
      </trkpt>
      <trkpt lat="46.75627" lon="-1.72797">
        <ele>57</ele>
        <time>2018-03-15T17:45:13Z</time>
      </trkpt>
      <trkpt lat="46.75628" lon="-1.72787">
        <ele>57</ele>
        <time>2018-03-15T17:46:13Z</time>
      </trkpt>
      <trkpt lat="46.75633" lon="-1.72721">
        <ele>58</ele>
        <time>2018-03-15T17:47:13Z</time>
      </trkpt>
      <trkpt lat="46.75638" lon="-1.72663">
        <ele>57</ele>
        <time>2018-03-15T17:48:13Z</time>
      </trkpt>
      <trkpt lat="46.75643" lon="-1.72615">
        <ele>56</ele>
        <time>2018-03-15T17:49:13Z</time>
      </trkpt>
      <trkpt lat="46.7565" lon="-1.72542">
        <ele>56</ele>
        <time>2018-03-15T17:50:13Z</time>
      </trkpt>
      <trkpt lat="46.75656" lon="-1.72493">
        <ele>56</ele>
        <time>2018-03-15T17:51:13Z</time>
      </trkpt>
      <trkpt lat="46.75657" lon="-1.72476">
        <ele>56</ele>
        <time>2018-03-15T17:52:13Z</time>
      </trkpt>
      <trkpt lat="46.75662" lon="-1.72434">
        <ele>56</ele>
        <time>2018-03-15T17:53:13Z</time>
      </trkpt>
      <trkpt lat="46.75661" lon="-1.72416">
        <ele>56</ele>
        <time>2018-03-15T17:54:13Z</time>
      </trkpt>
      <trkpt lat="46.75662" lon="-1.72342">
        <ele>56</ele>
        <time>2018-03-15T17:55:13Z</time>
      </trkpt>
      <trkpt lat="46.7566" lon="-1.72271">
        <ele>56</ele>
        <time>2018-03-15T17:56:13Z</time>
      </trkpt>
      <trkpt lat="46.7566" lon="-1.72244">
        <ele>56</ele>
        <time>2018-03-15T17:57:13Z</time>
      </trkpt>
      <trkpt lat="46.75657" lon="-1.72178">
        <ele>58</ele>
        <time>2018-03-15T17:58:13Z</time>
      </trkpt>
      <trkpt lat="46.75657" lon="-1.72169">
        <ele>58</ele>
        <time>2018-03-15T17:59:13Z</time>
      </trkpt>
      <trkpt lat="46.75651" lon="-1.72101">
        <ele>57</ele>
        <time>2018-03-15T18:00:13Z</time>
      </trkpt>
      <trkpt lat="46.75645" lon="-1.7204">
        <ele>57</ele>
        <time>2018-03-15T18:01:13Z</time>
      </trkpt>
      <trkpt lat="46.75646" lon="-1.72036">
        <ele>57</ele>
        <time>2018-03-15T18:02:13Z</time>
      </trkpt>
      <trkpt lat="46.75633" lon="-1.71906">
        <ele>56</ele>
        <time>2018-03-15T18:03:13Z</time>
      </trkpt>
      <trkpt lat="46.75633" lon="-1.71883">
        <ele>56</ele>
        <time>2018-03-15T18:04:13Z</time>
      </trkpt>
      <trkpt lat="46.75632" lon="-1.71874">
        <ele>56</ele>
        <time>2018-03-15T18:05:13Z</time>
      </trkpt>
      <trkpt lat="46.75632" lon="-1.71858">
        <ele>56</ele>
        <time>2018-03-15T18:06:13Z</time>
      </trkpt>
      <trkpt lat="46.75631" lon="-1.71831">
        <ele>56</ele>
        <time>2018-03-15T18:07:13Z</time>
      </trkpt>
      <trkpt lat="46.75631" lon="-1.71802">
        <ele>56</ele>
        <time>2018-03-15T18:08:13Z</time>
      </trkpt>
      <trkpt lat="46.75631" lon="-1.71789">
        <ele>57</ele>
        <time>2018-03-15T18:09:13Z</time>
      </trkpt>
      <trkpt lat="46.75631" lon="-1.7178">
        <ele>57</ele>
        <time>2018-03-15T18:10:13Z</time>
      </trkpt>
      <trkpt lat="46.75631" lon="-1.71767">
        <ele>57</ele>
        <time>2018-03-15T18:11:13Z</time>
      </trkpt>
      <trkpt lat="46.75632" lon="-1.71751">
        <ele>57</ele>
        <time>2018-03-15T18:12:13Z</time>
      </trkpt>
      <trkpt lat="46.75632" lon="-1.71736">
        <ele>57</ele>
        <time>2018-03-15T18:13:13Z</time>
      </trkpt>
      <trkpt lat="46.75632" lon="-1.71721">
        <ele>57</ele>
        <time>2018-03-15T18:14:13Z</time>
      </trkpt>
      <trkpt lat="46.75633" lon="-1.71706">
        <ele>57</ele>
        <time>2018-03-15T18:15:13Z</time>
      </trkpt>
      <trkpt lat="46.75633" lon="-1.71695">
        <ele>57</ele>
        <time>2018-03-15T18:16:13Z</time>
      </trkpt>
      <trkpt lat="46.75634" lon="-1.7168">
        <ele>57</ele>
        <time>2018-03-15T18:17:13Z</time>
      </trkpt>
      <trkpt lat="46.75635" lon="-1.71651">
        <ele>57</ele>
        <time>2018-03-15T18:18:13Z</time>
      </trkpt>
      <trkpt lat="46.75637" lon="-1.71635">
        <ele>57</ele>
        <time>2018-03-15T18:19:13Z</time>
      </trkpt>
      <trkpt lat="46.75639" lon="-1.71584">
        <ele>57</ele>
        <time>2018-03-15T18:20:13Z</time>
      </trkpt>
      <trkpt lat="46.75645" lon="-1.71506">
        <ele>58</ele>
        <time>2018-03-15T18:21:13Z</time>
      </trkpt>
      <trkpt lat="46.75645" lon="-1.71503">
        <ele>58</ele>
        <time>2018-03-15T18:22:13Z</time>
      </trkpt>
      <trkpt lat="46.75649" lon="-1.71449">
        <ele>59</ele>
        <time>2018-03-15T18:23:13Z</time>
      </trkpt>
      <trkpt lat="46.75656" lon="-1.71346">
        <ele>60</ele>
        <time>2018-03-15T18:24:13Z</time>
      </trkpt>
      <trkpt lat="46.75658" lon="-1.71296">
        <ele>60</ele>
        <time>2018-03-15T18:25:13Z</time>
      </trkpt>
      <trkpt lat="46.75659" lon="-1.7126">
        <ele>60</ele>
        <time>2018-03-15T18:26:13Z</time>
      </trkpt>
      <trkpt lat="46.75659" lon="-1.71235">
        <ele>60</ele>
        <time>2018-03-15T18:27:13Z</time>
      </trkpt>
      <trkpt lat="46.7566" lon="-1.71217">
        <ele>60</ele>
        <time>2018-03-15T18:28:13Z</time>
      </trkpt>
      <trkpt lat="46.7566" lon="-1.71199">
        <ele>60</ele>
        <time>2018-03-15T18:29:13Z</time>
      </trkpt>
      <trkpt lat="46.75661" lon="-1.7118">
        <ele>60</ele>
        <time>2018-03-15T18:30:13Z</time>
      </trkpt>
      <trkpt lat="46.75662" lon="-1.71157">
        <ele>60</ele>
        <time>2018-03-15T18:31:13Z</time>
      </trkpt>
      <trkpt lat="46.75662" lon="-1.71132">
        <ele>60</ele>
        <time>2018-03-15T18:32:13Z</time>
      </trkpt>
      <trkpt lat="46.75662" lon="-1.71111">
        <ele>59</ele>
        <time>2018-03-15T18:33:13Z</time>
      </trkpt>
      <trkpt lat="46.75662" lon="-1.71091">
        <ele>59</ele>
        <time>2018-03-15T18:34:13Z</time>
      </trkpt>
      <trkpt lat="46.75662" lon="-1.71047">
        <ele>59</ele>
        <time>2018-03-15T18:35:13Z</time>
      </trkpt>
      <trkpt lat="46.75661" lon="-1.71002">
        <ele>59</ele>
        <time>2018-03-15T18:36:13Z</time>
      </trkpt>
      <trkpt lat="46.7566" lon="-1.7096">
        <ele>60</ele>
        <time>2018-03-15T18:37:13Z</time>
      </trkpt>
      <trkpt lat="46.7566" lon="-1.70953">
        <ele>60</ele>
        <time>2018-03-15T18:38:13Z</time>
      </trkpt>
      <trkpt lat="46.75657" lon="-1.70877">
        <ele>61</ele>
        <time>2018-03-15T18:39:13Z</time>
      </trkpt>
      <trkpt lat="46.75655" lon="-1.70823">
        <ele>62</ele>
        <time>2018-03-15T18:40:13Z</time>
      </trkpt>
      <trkpt lat="46.75655" lon="-1.70806">
        <ele>62</ele>
        <time>2018-03-15T18:41:13Z</time>
      </trkpt>
      <trkpt lat="46.75654" lon="-1.7079">
        <ele>61</ele>
        <time>2018-03-15T18:42:13Z</time>
      </trkpt>
      <trkpt lat="46.75654" lon="-1.70772">
        <ele>61</ele>
        <time>2018-03-15T18:43:13Z</time>
      </trkpt>
      <trkpt lat="46.75654" lon="-1.70751">
        <ele>61</ele>
        <time>2018-03-15T18:44:13Z</time>
      </trkpt>
      <trkpt lat="46.75655" lon="-1.70726">
        <ele>60</ele>
        <time>2018-03-15T18:45:13Z</time>
      </trkpt>
      <trkpt lat="46.75656" lon="-1.70671">
        <ele>59</ele>
        <time>2018-03-15T18:46:13Z</time>
      </trkpt>
      <trkpt lat="46.7566" lon="-1.70572">
        <ele>59</ele>
        <time>2018-03-15T18:47:13Z</time>
      </trkpt>
      <trkpt lat="46.75662" lon="-1.70498">
        <ele>60</ele>
        <time>2018-03-15T18:48:13Z</time>
      </trkpt>
      <trkpt lat="46.75666" lon="-1.70422">
        <ele>61</ele>
        <time>2018-03-15T18:49:13Z</time>
      </trkpt>
      <trkpt lat="46.7567" lon="-1.70352">
        <ele>61</ele>
        <time>2018-03-15T18:50:13Z</time>
      </trkpt>
      <trkpt lat="46.75672" lon="-1.70323">
        <ele>61</ele>
        <time>2018-03-15T18:51:13Z</time>
      </trkpt>
      <trkpt lat="46.75673" lon="-1.70304">
        <ele>61</ele>
        <time>2018-03-15T18:52:13Z</time>
      </trkpt>
      <trkpt lat="46.75673" lon="-1.70286">
        <ele>61</ele>
        <time>2018-03-15T18:53:13Z</time>
      </trkpt>
      <trkpt lat="46.75673" lon="-1.70266">
        <ele>61</ele>
        <time>2018-03-15T18:54:13Z</time>
      </trkpt>
      <trkpt lat="46.75672" lon="-1.70246">
        <ele>61</ele>
        <time>2018-03-15T18:55:13Z</time>
      </trkpt>
      <trkpt lat="46.75671" lon="-1.70227">
        <ele>61</ele>
        <time>2018-03-15T18:56:13Z</time>
      </trkpt>
      <trkpt lat="46.7567" lon="-1.70205">
        <ele>61</ele>
        <time>2018-03-15T18:57:13Z</time>
      </trkpt>
      <trkpt lat="46.75666" lon="-1.70153">
        <ele>62</ele>
        <time>2018-03-15T18:58:13Z</time>
      </trkpt>
      <trkpt lat="46.7566" lon="-1.70095">
        <ele>61</ele>
        <time>2018-03-15T18:59:13Z</time>
      </trkpt>
      <trkpt lat="46.75656" lon="-1.70046">
        <ele>61</ele>
        <time>2018-03-15T19:00:13Z</time>
      </trkpt>
      <trkpt lat="46.75654" lon="-1.70015">
        <ele>62</ele>
        <time>2018-03-15T19:01:13Z</time>
      </trkpt>
      <trkpt lat="46.75653" lon="-1.70008">
        <ele>62</ele>
        <time>2018-03-15T19:02:13Z</time>
      </trkpt>
      <trkpt lat="46.75651" lon="-1.69993">
        <ele>62</ele>
        <time>2018-03-15T19:03:13Z</time>
      </trkpt>
      <trkpt lat="46.75648" lon="-1.69979">
        <ele>61</ele>
        <time>2018-03-15T19:04:13Z</time>
      </trkpt>
      <trkpt lat="46.75645" lon="-1.69967">
        <ele>61</ele>
        <time>2018-03-15T19:05:13Z</time>
      </trkpt>
      <trkpt lat="46.75641" lon="-1.69956">
        <ele>61</ele>
        <time>2018-03-15T19:06:13Z</time>
      </trkpt>
      <trkpt lat="46.75632" lon="-1.69934">
        <ele>61</ele>
        <time>2018-03-15T19:07:13Z</time>
      </trkpt>
      <trkpt lat="46.75627" lon="-1.6992">
        <ele>61</ele>
        <time>2018-03-15T19:08:13Z</time>
      </trkpt>
      <trkpt lat="46.75622" lon="-1.69903">
        <ele>60</ele>
        <time>2018-03-15T19:09:13Z</time>
      </trkpt>
      <trkpt lat="46.75618" lon="-1.69878">
        <ele>60</ele>
        <time>2018-03-15T19:10:13Z</time>
      </trkpt>
      <trkpt lat="46.75611" lon="-1.69841">
        <ele>59</ele>
        <time>2018-03-15T19:11:13Z</time>
      </trkpt>
      <trkpt lat="46.75607" lon="-1.69819">
        <ele>59</ele>
        <time>2018-03-15T19:12:13Z</time>
      </trkpt>
      <trkpt lat="46.75602" lon="-1.69782">
        <ele>59</ele>
        <time>2018-03-15T19:13:13Z</time>
      </trkpt>
      <trkpt lat="46.75596" lon="-1.69746">
        <ele>59</ele>
        <time>2018-03-15T19:14:13Z</time>
      </trkpt>
      <trkpt lat="46.75596" lon="-1.69742">
        <ele>59</ele>
        <time>2018-03-15T19:15:13Z</time>
      </trkpt>
      <trkpt lat="46.7559" lon="-1.69707">
        <ele>59</ele>
        <time>2018-03-15T19:16:13Z</time>
      </trkpt>
      <trkpt lat="46.75579" lon="-1.69642">
        <ele>58</ele>
        <time>2018-03-15T19:17:13Z</time>
      </trkpt>
      <trkpt lat="46.75575" lon="-1.69614">
        <ele>58</ele>
        <time>2018-03-15T19:18:13Z</time>
      </trkpt>
      <trkpt lat="46.75572" lon="-1.69595">
        <ele>58</ele>
        <time>2018-03-15T19:19:13Z</time>
      </trkpt>
      <trkpt lat="46.75568" lon="-1.69577">
        <ele>58</ele>
        <time>2018-03-15T19:20:13Z</time>
      </trkpt>
      <trkpt lat="46.75565" lon="-1.69562">
        <ele>58</ele>
        <time>2018-03-15T19:21:13Z</time>
      </trkpt>
      <trkpt lat="46.7556" lon="-1.69542">
        <ele>57</ele>
        <time>2018-03-15T19:22:13Z</time>
      </trkpt>
      <trkpt lat="46.75556" lon="-1.69526">
        <ele>57</ele>
        <time>2018-03-15T19:23:13Z</time>
      </trkpt>
      <trkpt lat="46.75552" lon="-1.69509">
        <ele>57</ele>
        <time>2018-03-15T19:24:13Z</time>
      </trkpt>
      <trkpt lat="46.75542" lon="-1.69475">
        <ele>56</ele>
        <time>2018-03-15T19:25:13Z</time>
      </trkpt>
      <trkpt lat="46.7553" lon="-1.6944">
        <ele>55</ele>
        <time>2018-03-15T19:26:13Z</time>
      </trkpt>
      <trkpt lat="46.7552" lon="-1.69411">
        <ele>55</ele>
        <time>2018-03-15T19:27:13Z</time>
      </trkpt>
      <trkpt lat="46.75502" lon="-1.69354">
        <ele>56</ele>
        <time>2018-03-15T19:28:13Z</time>
      </trkpt>
      <trkpt lat="46.75486" lon="-1.69306">
        <ele>56</ele>
        <time>2018-03-15T19:29:13Z</time>
      </trkpt>
      <trkpt lat="46.75472" lon="-1.69263">
        <ele>55</ele>
        <time>2018-03-15T19:30:13Z</time>
      </trkpt>
      <trkpt lat="46.75455" lon="-1.69214">
        <ele>54</ele>
        <time>2018-03-15T19:31:13Z</time>
      </trkpt>
      <trkpt lat="46.75439" lon="-1.69172">
        <ele>53</ele>
        <time>2018-03-15T19:32:13Z</time>
      </trkpt>
      <trkpt lat="46.75435" lon="-1.69163">
        <ele>53</ele>
        <time>2018-03-15T19:33:13Z</time>
      </trkpt>
      <trkpt lat="46.75421" lon="-1.69127">
        <ele>52</ele>
        <time>2018-03-15T19:34:13Z</time>
      </trkpt>
      <trkpt lat="46.75408" lon="-1.69097">
        <ele>50</ele>
        <time>2018-03-15T19:35:13Z</time>
      </trkpt>
      <trkpt lat="46.75394" lon="-1.69063">
        <ele>49</ele>
        <time>2018-03-15T19:36:13Z</time>
      </trkpt>
      <trkpt lat="46.75388" lon="-1.69045">
        <ele>49</ele>
        <time>2018-03-15T19:37:13Z</time>
      </trkpt>
      <trkpt lat="46.75385" lon="-1.6903">
        <ele>49</ele>
        <time>2018-03-15T19:38:13Z</time>
      </trkpt>
      <trkpt lat="46.75382" lon="-1.69009">
        <ele>48</ele>
        <time>2018-03-15T19:39:13Z</time>
      </trkpt>
      <trkpt lat="46.75382" lon="-1.6898">
        <ele>48</ele>
        <time>2018-03-15T19:40:13Z</time>
      </trkpt>
      <trkpt lat="46.75382" lon="-1.68964">
        <ele>47</ele>
        <time>2018-03-15T19:41:13Z</time>
      </trkpt>
      <trkpt lat="46.75381" lon="-1.68964">
        <ele>47</ele>
        <time>2018-03-15T19:42:13Z</time>
      </trkpt>
      <trkpt lat="46.7538" lon="-1.68963">
        <ele>47</ele>
        <time>2018-03-15T19:43:13Z</time>
      </trkpt>
      <trkpt lat="46.75379" lon="-1.68961">
        <ele>47</ele>
        <time>2018-03-15T19:44:13Z</time>
      </trkpt>
      <trkpt lat="46.75378" lon="-1.68959">
        <ele>47</ele>
        <time>2018-03-15T19:45:13Z</time>
      </trkpt>
      <trkpt lat="46.75378" lon="-1.68957">
        <ele>47</ele>
        <time>2018-03-15T19:46:13Z</time>
      </trkpt>
      <trkpt lat="46.75378" lon="-1.68955">
        <ele>47</ele>
        <time>2018-03-15T19:47:13Z</time>
      </trkpt>
      <trkpt lat="46.75379" lon="-1.68954">
        <ele>47</ele>
        <time>2018-03-15T19:48:13Z</time>
      </trkpt>
      <trkpt lat="46.7538" lon="-1.68953">
        <ele>47</ele>
        <time>2018-03-15T19:49:13Z</time>
      </trkpt>
      <trkpt lat="46.75382" lon="-1.68952">
        <ele>47</ele>
        <time>2018-03-15T19:50:13Z</time>
      </trkpt>
      <trkpt lat="46.75383" lon="-1.68952">
        <ele>47</ele>
        <time>2018-03-15T19:51:13Z</time>
      </trkpt>
      <trkpt lat="46.75385" lon="-1.68932">
        <ele>47</ele>
        <time>2018-03-15T19:52:13Z</time>
      </trkpt>
      <trkpt lat="46.75387" lon="-1.68906">
        <ele>46</ele>
        <time>2018-03-15T19:53:13Z</time>
      </trkpt>
      <trkpt lat="46.7539" lon="-1.68863">
        <ele>46</ele>
        <time>2018-03-15T19:54:13Z</time>
      </trkpt>
      <trkpt lat="46.75392" lon="-1.68828">
        <ele>46</ele>
        <time>2018-03-15T19:55:13Z</time>
      </trkpt>
      <trkpt lat="46.75394" lon="-1.68801">
        <ele>45</ele>
        <time>2018-03-15T19:56:13Z</time>
      </trkpt>
      <trkpt lat="46.75395" lon="-1.68778">
        <ele>44</ele>
        <time>2018-03-15T19:57:13Z</time>
      </trkpt>
      <trkpt lat="46.75397" lon="-1.68756">
        <ele>43</ele>
        <time>2018-03-15T19:58:13Z</time>
      </trkpt>
      <trkpt lat="46.75398" lon="-1.68739">
        <ele>43</ele>
        <time>2018-03-15T19:59:13Z</time>
      </trkpt>
      <trkpt lat="46.75399" lon="-1.68725">
        <ele>43</ele>
        <time>2018-03-15T20:00:13Z</time>
      </trkpt>
      <trkpt lat="46.75402" lon="-1.68688">
        <ele>42</ele>
        <time>2018-03-15T20:01:13Z</time>
      </trkpt>
      <trkpt lat="46.75404" lon="-1.68657">
        <ele>41</ele>
        <time>2018-03-15T20:02:13Z</time>
      </trkpt>
      <trkpt lat="46.75405" lon="-1.68643">
        <ele>41</ele>
        <time>2018-03-15T20:03:13Z</time>
      </trkpt>
      <trkpt lat="46.75407" lon="-1.68634">
        <ele>41</ele>
        <time>2018-03-15T20:04:13Z</time>
      </trkpt>
      <trkpt lat="46.75409" lon="-1.68625">
        <ele>41</ele>
        <time>2018-03-15T20:05:13Z</time>
      </trkpt>
      <trkpt lat="46.75411" lon="-1.6862">
        <ele>41</ele>
        <time>2018-03-15T20:06:13Z</time>
      </trkpt>
      <trkpt lat="46.75416" lon="-1.68608">
        <ele>41</ele>
        <time>2018-03-15T20:07:13Z</time>
      </trkpt>
      <trkpt lat="46.75419" lon="-1.68601">
        <ele>40</ele>
        <time>2018-03-15T20:08:13Z</time>
      </trkpt>
      <trkpt lat="46.75429" lon="-1.68591">
        <ele>40</ele>
        <time>2018-03-15T20:09:13Z</time>
      </trkpt>
      <trkpt lat="46.75441" lon="-1.6858">
        <ele>41</ele>
        <time>2018-03-15T20:10:13Z</time>
      </trkpt>
      <trkpt lat="46.75453" lon="-1.68573">
        <ele>41</ele>
        <time>2018-03-15T20:11:13Z</time>
      </trkpt>
      <trkpt lat="46.75454" lon="-1.68573">
        <ele>41</ele>
        <time>2018-03-15T20:12:13Z</time>
      </trkpt>
      <trkpt lat="46.75459" lon="-1.6857">
        <ele>41</ele>
        <time>2018-03-15T20:13:13Z</time>
      </trkpt>
      <trkpt lat="46.75462" lon="-1.68569">
        <ele>41</ele>
        <time>2018-03-15T20:14:13Z</time>
      </trkpt>
      <trkpt lat="46.75466" lon="-1.68569">
        <ele>41</ele>
        <time>2018-03-15T20:15:13Z</time>
      </trkpt>
      <trkpt lat="46.75472" lon="-1.6857">
        <ele>41</ele>
        <time>2018-03-15T20:16:13Z</time>
      </trkpt>
      <trkpt lat="46.75479" lon="-1.6857">
        <ele>41</ele>
        <time>2018-03-15T20:17:13Z</time>
      </trkpt>
      <trkpt lat="46.75482" lon="-1.6857">
        <ele>42</ele>
        <time>2018-03-15T20:18:13Z</time>
      </trkpt>
      <trkpt lat="46.75501" lon="-1.68572">
        <ele>42</ele>
        <time>2018-03-15T20:19:13Z</time>
      </trkpt>
      <trkpt lat="46.75501" lon="-1.68572">
        <ele>42</ele>
        <time>2018-03-15T20:20:13Z</time>
      </trkpt>
      <trkpt lat="46.75496" lon="-1.68539">
        <ele>42</ele>
        <time>2018-03-15T20:21:13Z</time>
      </trkpt>
      <trkpt lat="46.75489" lon="-1.68483">
        <ele>41</ele>
        <time>2018-03-15T20:22:13Z</time>
      </trkpt>
      <trkpt lat="46.75481" lon="-1.6842">
        <ele>39</ele>
        <time>2018-03-15T20:23:13Z</time>
      </trkpt>
      <trkpt lat="46.75476" lon="-1.68381">
        <ele>38</ele>
        <time>2018-03-15T20:24:13Z</time>
      </trkpt>
      <trkpt lat="46.75468" lon="-1.68322">
        <ele>37</ele>
        <time>2018-03-15T20:25:13Z</time>
      </trkpt>
      <trkpt lat="46.7546" lon="-1.68262">
        <ele>36</ele>
        <time>2018-03-15T20:26:13Z</time>
      </trkpt>
      <trkpt lat="46.75459" lon="-1.6825">
        <ele>36</ele>
        <time>2018-03-15T20:27:13Z</time>
      </trkpt>
      <trkpt lat="46.7545" lon="-1.68188">
        <ele>33</ele>
        <time>2018-03-15T20:28:13Z</time>
      </trkpt>
      <trkpt lat="46.75444" lon="-1.68144">
        <ele>31</ele>
        <time>2018-03-15T20:29:13Z</time>
      </trkpt>
      <trkpt lat="46.7544" lon="-1.68116">
        <ele>30</ele>
        <time>2018-03-15T20:30:13Z</time>
      </trkpt>
      <trkpt lat="46.75436" lon="-1.68087">
        <ele>30</ele>
        <time>2018-03-15T20:31:13Z</time>
      </trkpt>
      <trkpt lat="46.75433" lon="-1.68059">
        <ele>29</ele>
        <time>2018-03-15T20:32:13Z</time>
      </trkpt>
      <trkpt lat="46.7542" lon="-1.67975">
        <ele>28</ele>
        <time>2018-03-15T20:33:13Z</time>
      </trkpt>
      <trkpt lat="46.75411" lon="-1.67909">
        <ele>26</ele>
        <time>2018-03-15T20:34:13Z</time>
      </trkpt>
      <trkpt lat="46.75404" lon="-1.67846">
        <ele>23</ele>
        <time>2018-03-15T20:35:13Z</time>
      </trkpt>
      <trkpt lat="46.75398" lon="-1.67808">
        <ele>21</ele>
        <time>2018-03-15T20:36:13Z</time>
      </trkpt>
      <trkpt lat="46.75396" lon="-1.67797">
        <ele>21</ele>
        <time>2018-03-15T20:37:13Z</time>
      </trkpt>
      <trkpt lat="46.75391" lon="-1.67772">
        <ele>19</ele>
        <time>2018-03-15T20:38:13Z</time>
      </trkpt>
      <trkpt lat="46.75384" lon="-1.67745">
        <ele>18</ele>
        <time>2018-03-15T20:39:13Z</time>
      </trkpt>
      <trkpt lat="46.75374" lon="-1.67717">
        <ele>16</ele>
        <time>2018-03-15T20:40:13Z</time>
      </trkpt>
      <trkpt lat="46.75365" lon="-1.67695">
        <ele>14</ele>
        <time>2018-03-15T20:41:13Z</time>
      </trkpt>
      <trkpt lat="46.75364" lon="-1.67692">
        <ele>14</ele>
        <time>2018-03-15T20:42:13Z</time>
      </trkpt>
      <trkpt lat="46.75358" lon="-1.67678">
        <ele>13</ele>
        <time>2018-03-15T20:43:13Z</time>
      </trkpt>
      <trkpt lat="46.75346" lon="-1.67654">
        <ele>11</ele>
        <time>2018-03-15T20:44:13Z</time>
      </trkpt>
      <trkpt lat="46.75326" lon="-1.67619">
        <ele>10</ele>
        <time>2018-03-15T20:45:13Z</time>
      </trkpt>
      <trkpt lat="46.7531" lon="-1.67589">
        <ele>10</ele>
        <time>2018-03-15T20:46:13Z</time>
      </trkpt>
      <trkpt lat="46.75308" lon="-1.67585">
        <ele>10</ele>
        <time>2018-03-15T20:47:13Z</time>
      </trkpt>
      <trkpt lat="46.75302" lon="-1.67575">
        <ele>10</ele>
        <time>2018-03-15T20:48:13Z</time>
      </trkpt>
      <trkpt lat="46.75297" lon="-1.67566">
        <ele>11</ele>
        <time>2018-03-15T20:49:13Z</time>
      </trkpt>
      <trkpt lat="46.75295" lon="-1.67562">
        <ele>11</ele>
        <time>2018-03-15T20:50:13Z</time>
      </trkpt>
      <trkpt lat="46.75288" lon="-1.6755">
        <ele>11</ele>
        <time>2018-03-15T20:51:13Z</time>
      </trkpt>
      <trkpt lat="46.7528" lon="-1.67536">
        <ele>12</ele>
        <time>2018-03-15T20:52:13Z</time>
      </trkpt>
      <trkpt lat="46.75277" lon="-1.6753">
        <ele>12</ele>
        <time>2018-03-15T20:53:13Z</time>
      </trkpt>
      <trkpt lat="46.75265" lon="-1.67509">
        <ele>14</ele>
        <time>2018-03-15T20:54:13Z</time>
      </trkpt>
      <trkpt lat="46.75261" lon="-1.67501">
        <ele>14</ele>
        <time>2018-03-15T20:55:13Z</time>
      </trkpt>
      <trkpt lat="46.75254" lon="-1.67489">
        <ele>16</ele>
        <time>2018-03-15T20:56:13Z</time>
      </trkpt>
      <trkpt lat="46.75237" lon="-1.67456">
        <ele>19</ele>
        <time>2018-03-15T20:57:13Z</time>
      </trkpt>
      <trkpt lat="46.75228" lon="-1.67441">
        <ele>20</ele>
        <time>2018-03-15T20:58:13Z</time>
      </trkpt>
      <trkpt lat="46.75215" lon="-1.6742">
        <ele>22</ele>
        <time>2018-03-15T20:59:13Z</time>
      </trkpt>
      <trkpt lat="46.75202" lon="-1.67403">
        <ele>22</ele>
        <time>2018-03-15T21:00:13Z</time>
      </trkpt>
      <trkpt lat="46.75192" lon="-1.67393">
        <ele>23</ele>
        <time>2018-03-15T21:01:13Z</time>
      </trkpt>
      <trkpt lat="46.75185" lon="-1.67387">
        <ele>23</ele>
        <time>2018-03-15T21:02:13Z</time>
      </trkpt>
      <trkpt lat="46.75173" lon="-1.6738">
        <ele>23</ele>
        <time>2018-03-15T21:03:13Z</time>
      </trkpt>
      <trkpt lat="46.75163" lon="-1.67374">
        <ele>24</ele>
        <time>2018-03-15T21:04:13Z</time>
      </trkpt>
      <trkpt lat="46.75152" lon="-1.6737">
        <ele>24</ele>
        <time>2018-03-15T21:05:13Z</time>
      </trkpt>
      <trkpt lat="46.75142" lon="-1.67368">
        <ele>24</ele>
        <time>2018-03-15T21:06:13Z</time>
      </trkpt>
      <trkpt lat="46.75132" lon="-1.67367">
        <ele>24</ele>
        <time>2018-03-15T21:07:13Z</time>
      </trkpt>
      <trkpt lat="46.75122" lon="-1.67368">
        <ele>24</ele>
        <time>2018-03-15T21:08:13Z</time>
      </trkpt>
      <trkpt lat="46.75114" lon="-1.67369">
        <ele>24</ele>
        <time>2018-03-15T21:09:13Z</time>
      </trkpt>
      <trkpt lat="46.75106" lon="-1.6737">
        <ele>24</ele>
        <time>2018-03-15T21:10:13Z</time>
      </trkpt>
      <trkpt lat="46.751" lon="-1.67373">
        <ele>24</ele>
        <time>2018-03-15T21:11:13Z</time>
      </trkpt>
      <trkpt lat="46.75094" lon="-1.67376">
        <ele>23</ele>
        <time>2018-03-15T21:12:13Z</time>
      </trkpt>
      <trkpt lat="46.75086" lon="-1.6738">
        <ele>23</ele>
        <time>2018-03-15T21:13:13Z</time>
      </trkpt>
      <trkpt lat="46.75041" lon="-1.6741">
        <ele>23</ele>
        <time>2018-03-15T21:14:13Z</time>
      </trkpt>
      <trkpt lat="46.74987" lon="-1.67446">
        <ele>21</ele>
        <time>2018-03-15T21:15:13Z</time>
      </trkpt>
      <trkpt lat="46.74936" lon="-1.6748">
        <ele>20</ele>
        <time>2018-03-15T21:16:13Z</time>
      </trkpt>
      <trkpt lat="46.7489" lon="-1.67511">
        <ele>19</ele>
        <time>2018-03-15T21:17:13Z</time>
      </trkpt>
      <trkpt lat="46.7487" lon="-1.67524">
        <ele>18</ele>
        <time>2018-03-15T21:18:13Z</time>
      </trkpt>
      <trkpt lat="46.74868" lon="-1.67525">
        <ele>18</ele>
        <time>2018-03-15T21:19:13Z</time>
      </trkpt>
      <trkpt lat="46.74866" lon="-1.67527">
        <ele>18</ele>
        <time>2018-03-15T21:20:13Z</time>
      </trkpt>
      <trkpt lat="46.74832" lon="-1.67548">
        <ele>16</ele>
        <time>2018-03-15T21:21:13Z</time>
      </trkpt>
      <trkpt lat="46.74809" lon="-1.67564">
        <ele>17</ele>
        <time>2018-03-15T21:22:13Z</time>
      </trkpt>
      <trkpt lat="46.74789" lon="-1.67577">
        <ele>18</ele>
        <time>2018-03-15T21:23:13Z</time>
      </trkpt>
      <trkpt lat="46.7476" lon="-1.67596">
        <ele>19</ele>
        <time>2018-03-15T21:24:13Z</time>
      </trkpt>
      <trkpt lat="46.74734" lon="-1.67614">
        <ele>20</ele>
        <time>2018-03-15T21:25:13Z</time>
      </trkpt>
      <trkpt lat="46.74695" lon="-1.6764">
        <ele>21</ele>
        <time>2018-03-15T21:26:13Z</time>
      </trkpt>
      <trkpt lat="46.74679" lon="-1.6765">
        <ele>22</ele>
        <time>2018-03-15T21:27:13Z</time>
      </trkpt>
      <trkpt lat="46.74655" lon="-1.67665">
        <ele>22</ele>
        <time>2018-03-15T21:28:13Z</time>
      </trkpt>
      <trkpt lat="46.74628" lon="-1.67685">
        <ele>22</ele>
        <time>2018-03-15T21:29:13Z</time>
      </trkpt>
      <trkpt lat="46.74606" lon="-1.67702">
        <ele>21</ele>
        <time>2018-03-15T21:30:13Z</time>
      </trkpt>
      <trkpt lat="46.74597" lon="-1.67709">
        <ele>21</ele>
        <time>2018-03-15T21:31:13Z</time>
      </trkpt>
      <trkpt lat="46.74591" lon="-1.67716">
        <ele>21</ele>
        <time>2018-03-15T21:32:13Z</time>
      </trkpt>
      <trkpt lat="46.74584" lon="-1.67724">
        <ele>20</ele>
        <time>2018-03-15T21:33:13Z</time>
      </trkpt>
      <trkpt lat="46.74576" lon="-1.67732">
        <ele>20</ele>
        <time>2018-03-15T21:34:13Z</time>
      </trkpt>
      <trkpt lat="46.74569" lon="-1.67742">
        <ele>20</ele>
        <time>2018-03-15T21:35:13Z</time>
      </trkpt>
      <trkpt lat="46.74562" lon="-1.67752">
        <ele>21</ele>
        <time>2018-03-15T21:36:13Z</time>
      </trkpt>
      <trkpt lat="46.74554" lon="-1.67763">
        <ele>21</ele>
        <time>2018-03-15T21:37:13Z</time>
      </trkpt>
      <trkpt lat="46.74521" lon="-1.67814">
        <ele>24</ele>
        <time>2018-03-15T21:38:13Z</time>
      </trkpt>
      <trkpt lat="46.74487" lon="-1.67865">
        <ele>26</ele>
        <time>2018-03-15T21:39:13Z</time>
      </trkpt>
      <trkpt lat="46.74454" lon="-1.67917">
        <ele>29</ele>
        <time>2018-03-15T21:40:13Z</time>
      </trkpt>
      <trkpt lat="46.74429" lon="-1.67954">
        <ele>29</ele>
        <time>2018-03-15T21:41:13Z</time>
      </trkpt>
      <trkpt lat="46.74403" lon="-1.67996">
        <ele>30</ele>
        <time>2018-03-15T21:42:13Z</time>
      </trkpt>
      <trkpt lat="46.74394" lon="-1.68011">
        <ele>30</ele>
        <time>2018-03-15T21:43:13Z</time>
      </trkpt>
      <trkpt lat="46.74387" lon="-1.68026">
        <ele>31</ele>
        <time>2018-03-15T21:44:13Z</time>
      </trkpt>
      <trkpt lat="46.7438" lon="-1.68043">
        <ele>31</ele>
        <time>2018-03-15T21:45:13Z</time>
      </trkpt>
      <trkpt lat="46.74366" lon="-1.68079">
        <ele>31</ele>
        <time>2018-03-15T21:46:13Z</time>
      </trkpt>
      <trkpt lat="46.74352" lon="-1.68119">
        <ele>32</ele>
        <time>2018-03-15T21:47:13Z</time>
      </trkpt>
      <trkpt lat="46.74346" lon="-1.68135">
        <ele>32</ele>
        <time>2018-03-15T21:48:13Z</time>
      </trkpt>
      <trkpt lat="46.7434" lon="-1.68147">
        <ele>32</ele>
        <time>2018-03-15T21:49:13Z</time>
      </trkpt>
      <trkpt lat="46.74325" lon="-1.68168">
        <ele>32</ele>
        <time>2018-03-15T21:50:13Z</time>
      </trkpt>
      <trkpt lat="46.74321" lon="-1.68171">
        <ele>32</ele>
        <time>2018-03-15T21:51:13Z</time>
      </trkpt>
      <trkpt lat="46.74315" lon="-1.68175">
        <ele>32</ele>
        <time>2018-03-15T21:52:13Z</time>
      </trkpt>
      <trkpt lat="46.74307" lon="-1.68179">
        <ele>32</ele>
        <time>2018-03-15T21:53:13Z</time>
      </trkpt>
      <trkpt lat="46.74297" lon="-1.68183">
        <ele>32</ele>
        <time>2018-03-15T21:54:13Z</time>
      </trkpt>
      <trkpt lat="46.74288" lon="-1.68185">
        <ele>32</ele>
        <time>2018-03-15T21:55:13Z</time>
      </trkpt>
      <trkpt lat="46.74263" lon="-1.6819">
        <ele>32</ele>
        <time>2018-03-15T21:56:13Z</time>
      </trkpt>
      <trkpt lat="46.74214" lon="-1.682">
        <ele>32</ele>
        <time>2018-03-15T21:57:13Z</time>
      </trkpt>
      <trkpt lat="46.74138" lon="-1.68215">
        <ele>33</ele>
        <time>2018-03-15T21:58:13Z</time>
      </trkpt>
      <trkpt lat="46.74121" lon="-1.68218">
        <ele>33</ele>
        <time>2018-03-15T21:59:13Z</time>
      </trkpt>
      <trkpt lat="46.74091" lon="-1.6822">
        <ele>34</ele>
        <time>2018-03-15T22:00:13Z</time>
      </trkpt>
      <trkpt lat="46.74068" lon="-1.68219">
        <ele>34</ele>
        <time>2018-03-15T22:01:13Z</time>
      </trkpt>
      <trkpt lat="46.7404" lon="-1.68214">
        <ele>35</ele>
        <time>2018-03-15T22:02:13Z</time>
      </trkpt>
      <trkpt lat="46.74024" lon="-1.68209">
        <ele>35</ele>
        <time>2018-03-15T22:03:13Z</time>
      </trkpt>
      <trkpt lat="46.73949" lon="-1.68185">
        <ele>36</ele>
        <time>2018-03-15T22:04:13Z</time>
      </trkpt>
      <trkpt lat="46.73919" lon="-1.68176">
        <ele>36</ele>
        <time>2018-03-15T22:05:13Z</time>
      </trkpt>
      <trkpt lat="46.73896" lon="-1.68172">
        <ele>36</ele>
        <time>2018-03-15T22:06:13Z</time>
      </trkpt>
      <trkpt lat="46.73885" lon="-1.6817">
        <ele>36</ele>
        <time>2018-03-15T22:07:13Z</time>
      </trkpt>
      <trkpt lat="46.73876" lon="-1.68171">
        <ele>37</ele>
        <time>2018-03-15T22:08:13Z</time>
      </trkpt>
      <trkpt lat="46.73866" lon="-1.68171">
        <ele>37</ele>
        <time>2018-03-15T22:09:13Z</time>
      </trkpt>
      <trkpt lat="46.73857" lon="-1.68173">
        <ele>37</ele>
        <time>2018-03-15T22:10:13Z</time>
      </trkpt>
      <trkpt lat="46.73847" lon="-1.68176">
        <ele>37</ele>
        <time>2018-03-15T22:11:13Z</time>
      </trkpt>
      <trkpt lat="46.73829" lon="-1.68183">
        <ele>37</ele>
        <time>2018-03-15T22:12:13Z</time>
      </trkpt>
      <trkpt lat="46.73786" lon="-1.682">
        <ele>38</ele>
        <time>2018-03-15T22:13:13Z</time>
      </trkpt>
      <trkpt lat="46.73765" lon="-1.68211">
        <ele>38</ele>
        <time>2018-03-15T22:14:13Z</time>
      </trkpt>
      <trkpt lat="46.73698" lon="-1.68238">
        <ele>38</ele>
        <time>2018-03-15T22:15:13Z</time>
      </trkpt>
      <trkpt lat="46.73637" lon="-1.68263">
        <ele>39</ele>
        <time>2018-03-15T22:16:13Z</time>
      </trkpt>
      <trkpt lat="46.73591" lon="-1.68281">
        <ele>40</ele>
        <time>2018-03-15T22:17:13Z</time>
      </trkpt>
      <trkpt lat="46.73557" lon="-1.68288">
        <ele>40</ele>
        <time>2018-03-15T22:18:13Z</time>
      </trkpt>
      <trkpt lat="46.73534" lon="-1.6829">
        <ele>39</ele>
        <time>2018-03-15T22:19:13Z</time>
      </trkpt>
      <trkpt lat="46.73482" lon="-1.68291">
        <ele>39</ele>
        <time>2018-03-15T22:20:13Z</time>
      </trkpt>
      <trkpt lat="46.73464" lon="-1.6829">
        <ele>39</ele>
        <time>2018-03-15T22:21:13Z</time>
      </trkpt>
      <trkpt lat="46.73418" lon="-1.68289">
        <ele>40</ele>
        <time>2018-03-15T22:22:13Z</time>
      </trkpt>
      <trkpt lat="46.73383" lon="-1.68288">
        <ele>42</ele>
        <time>2018-03-15T22:23:13Z</time>
      </trkpt>
      <trkpt lat="46.73336" lon="-1.68287">
        <ele>43</ele>
        <time>2018-03-15T22:24:13Z</time>
      </trkpt>
      <trkpt lat="46.73313" lon="-1.68287">
        <ele>43</ele>
        <time>2018-03-15T22:25:13Z</time>
      </trkpt>
      <trkpt lat="46.73266" lon="-1.68286">
        <ele>44</ele>
        <time>2018-03-15T22:26:13Z</time>
      </trkpt>
      <trkpt lat="46.7322" lon="-1.68286">
        <ele>45</ele>
        <time>2018-03-15T22:27:13Z</time>
      </trkpt>
      <trkpt lat="46.73197" lon="-1.68285">
        <ele>45</ele>
        <time>2018-03-15T22:28:13Z</time>
      </trkpt>
      <trkpt lat="46.73162" lon="-1.68286">
        <ele>46</ele>
        <time>2018-03-15T22:29:13Z</time>
      </trkpt>
      <trkpt lat="46.73151" lon="-1.68286">
        <ele>46</ele>
        <time>2018-03-15T22:30:13Z</time>
      </trkpt>
      <trkpt lat="46.73138" lon="-1.68287">
        <ele>47</ele>
        <time>2018-03-15T22:31:13Z</time>
      </trkpt>
      <trkpt lat="46.73129" lon="-1.68288">
        <ele>47</ele>
        <time>2018-03-15T22:32:13Z</time>
      </trkpt>
      <trkpt lat="46.73117" lon="-1.68289">
        <ele>47</ele>
        <time>2018-03-15T22:33:13Z</time>
      </trkpt>
      <trkpt lat="46.73095" lon="-1.68293">
        <ele>47</ele>
        <time>2018-03-15T22:34:13Z</time>
      </trkpt>
      <trkpt lat="46.73084" lon="-1.68295">
        <ele>47</ele>
        <time>2018-03-15T22:35:13Z</time>
      </trkpt>
      <trkpt lat="46.73074" lon="-1.68298">
        <ele>47</ele>
        <time>2018-03-15T22:36:13Z</time>
      </trkpt>
      <trkpt lat="46.73051" lon="-1.68303">
        <ele>47</ele>
        <time>2018-03-15T22:37:13Z</time>
      </trkpt>
      <trkpt lat="46.73029" lon="-1.68308">
        <ele>47</ele>
        <time>2018-03-15T22:38:13Z</time>
      </trkpt>
      <trkpt lat="46.73012" lon="-1.68311">
        <ele>47</ele>
        <time>2018-03-15T22:39:13Z</time>
      </trkpt>
      <trkpt lat="46.72979" lon="-1.68318">
        <ele>47</ele>
        <time>2018-03-15T22:40:13Z</time>
      </trkpt>
      <trkpt lat="46.72962" lon="-1.68322">
        <ele>47</ele>
        <time>2018-03-15T22:41:13Z</time>
      </trkpt>
      <trkpt lat="46.7294" lon="-1.68326">
        <ele>48</ele>
        <time>2018-03-15T22:42:13Z</time>
      </trkpt>
      <trkpt lat="46.72918" lon="-1.6833">
        <ele>48</ele>
        <time>2018-03-15T22:43:13Z</time>
      </trkpt>
      <trkpt lat="46.72897" lon="-1.68334">
        <ele>48</ele>
        <time>2018-03-15T22:44:13Z</time>
      </trkpt>
      <trkpt lat="46.72886" lon="-1.68335">
        <ele>48</ele>
        <time>2018-03-15T22:45:13Z</time>
      </trkpt>
      <trkpt lat="46.72875" lon="-1.68336">
        <ele>48</ele>
        <time>2018-03-15T22:46:13Z</time>
      </trkpt>
      <trkpt lat="46.72865" lon="-1.68337">
        <ele>48</ele>
        <time>2018-03-15T22:47:13Z</time>
      </trkpt>
      <trkpt lat="46.72839" lon="-1.68336">
        <ele>48</ele>
        <time>2018-03-15T22:48:13Z</time>
      </trkpt>
      <trkpt lat="46.72832" lon="-1.68335">
        <ele>48</ele>
        <time>2018-03-15T22:49:13Z</time>
      </trkpt>
      <trkpt lat="46.7282" lon="-1.68333">
        <ele>48</ele>
        <time>2018-03-15T22:50:13Z</time>
      </trkpt>
      <trkpt lat="46.72809" lon="-1.6833">
        <ele>48</ele>
        <time>2018-03-15T22:51:13Z</time>
      </trkpt>
      <trkpt lat="46.72787" lon="-1.68323">
        <ele>48</ele>
        <time>2018-03-15T22:52:13Z</time>
      </trkpt>
      <trkpt lat="46.72773" lon="-1.68318">
        <ele>48</ele>
        <time>2018-03-15T22:53:13Z</time>
      </trkpt>
      <trkpt lat="46.72755" lon="-1.68311">
        <ele>47</ele>
        <time>2018-03-15T22:54:13Z</time>
      </trkpt>
      <trkpt lat="46.72722" lon="-1.68299">
        <ele>47</ele>
        <time>2018-03-15T22:55:13Z</time>
      </trkpt>
      <trkpt lat="46.7269" lon="-1.68287">
        <ele>47</ele>
        <time>2018-03-15T22:56:13Z</time>
      </trkpt>
      <trkpt lat="46.72658" lon="-1.68275">
        <ele>48</ele>
        <time>2018-03-15T22:57:13Z</time>
      </trkpt>
      <trkpt lat="46.72626" lon="-1.68263">
        <ele>48</ele>
        <time>2018-03-15T22:58:13Z</time>
      </trkpt>
      <trkpt lat="46.72594" lon="-1.68252">
        <ele>49</ele>
        <time>2018-03-15T22:59:13Z</time>
      </trkpt>
      <trkpt lat="46.72562" lon="-1.68242">
        <ele>49</ele>
        <time>2018-03-15T23:00:13Z</time>
      </trkpt>
      <trkpt lat="46.72532" lon="-1.68236">
        <ele>50</ele>
        <time>2018-03-15T23:01:13Z</time>
      </trkpt>
      <trkpt lat="46.72481" lon="-1.68234">
        <ele>50</ele>
        <time>2018-03-15T23:02:13Z</time>
      </trkpt>
      <trkpt lat="46.72452" lon="-1.68234">
        <ele>51</ele>
        <time>2018-03-15T23:03:13Z</time>
      </trkpt>
      <trkpt lat="46.72413" lon="-1.68234">
        <ele>52</ele>
        <time>2018-03-15T23:04:13Z</time>
      </trkpt>
      <trkpt lat="46.72403" lon="-1.68234">
        <ele>52</ele>
        <time>2018-03-15T23:05:13Z</time>
      </trkpt>
      <trkpt lat="46.72395" lon="-1.68233">
        <ele>51</ele>
        <time>2018-03-15T23:06:13Z</time>
      </trkpt>
      <trkpt lat="46.72386" lon="-1.68231">
        <ele>51</ele>
        <time>2018-03-15T23:07:13Z</time>
      </trkpt>
      <trkpt lat="46.72377" lon="-1.68227">
        <ele>51</ele>
        <time>2018-03-15T23:08:13Z</time>
      </trkpt>
      <trkpt lat="46.72369" lon="-1.68222">
        <ele>51</ele>
        <time>2018-03-15T23:09:13Z</time>
      </trkpt>
      <trkpt lat="46.7236" lon="-1.68216">
        <ele>51</ele>
        <time>2018-03-15T23:10:13Z</time>
      </trkpt>
      <trkpt lat="46.72341" lon="-1.68197">
        <ele>50</ele>
        <time>2018-03-15T23:11:13Z</time>
      </trkpt>
      <trkpt lat="46.72336" lon="-1.68189">
        <ele>50</ele>
        <time>2018-03-15T23:12:13Z</time>
      </trkpt>
      <trkpt lat="46.72329" lon="-1.6818">
        <ele>49</ele>
        <time>2018-03-15T23:13:13Z</time>
      </trkpt>
      <trkpt lat="46.72303" lon="-1.68134">
        <ele>49</ele>
        <time>2018-03-15T23:14:13Z</time>
      </trkpt>
      <trkpt lat="46.72246" lon="-1.68033">
        <ele>49</ele>
        <time>2018-03-15T23:15:13Z</time>
      </trkpt>
      <trkpt lat="46.72226" lon="-1.67998">
        <ele>49</ele>
        <time>2018-03-15T23:16:13Z</time>
      </trkpt>
      <trkpt lat="46.722" lon="-1.67951">
        <ele>49</ele>
        <time>2018-03-15T23:17:13Z</time>
      </trkpt>
      <trkpt lat="46.72154" lon="-1.67871">
        <ele>49</ele>
        <time>2018-03-15T23:18:13Z</time>
      </trkpt>
      <trkpt lat="46.7214" lon="-1.67846">
        <ele>49</ele>
        <time>2018-03-15T23:19:13Z</time>
      </trkpt>
      <trkpt lat="46.72122" lon="-1.67813">
        <ele>50</ele>
        <time>2018-03-15T23:20:13Z</time>
      </trkpt>
      <trkpt lat="46.72089" lon="-1.67756">
        <ele>50</ele>
        <time>2018-03-15T23:21:13Z</time>
      </trkpt>
      <trkpt lat="46.72058" lon="-1.67702">
        <ele>50</ele>
        <time>2018-03-15T23:22:13Z</time>
      </trkpt>
      <trkpt lat="46.71981" lon="-1.67568">
        <ele>50</ele>
        <time>2018-03-15T23:23:13Z</time>
      </trkpt>
      <trkpt lat="46.71966" lon="-1.67541">
        <ele>51</ele>
        <time>2018-03-15T23:24:13Z</time>
      </trkpt>
      <trkpt lat="46.71938" lon="-1.67492">
        <ele>51</ele>
        <time>2018-03-15T23:25:13Z</time>
      </trkpt>
      <trkpt lat="46.71922" lon="-1.67463">
        <ele>52</ele>
        <time>2018-03-15T23:26:13Z</time>
      </trkpt>
      <trkpt lat="46.71909" lon="-1.6744">
        <ele>52</ele>
        <time>2018-03-15T23:27:13Z</time>
      </trkpt>
      <trkpt lat="46.71891" lon="-1.6742">
        <ele>52</ele>
        <time>2018-03-15T23:28:13Z</time>
      </trkpt>
      <trkpt lat="46.71893" lon="-1.67412">
        <ele>52</ele>
        <time>2018-03-15T23:29:13Z</time>
      </trkpt>
      <trkpt lat="46.71887" lon="-1.67407">
        <ele>52</ele>
        <time>2018-03-15T23:30:13Z</time>
      </trkpt>
      <trkpt lat="46.71866" lon="-1.67389">
        <ele>53</ele>
        <time>2018-03-15T23:31:13Z</time>
      </trkpt>
      <trkpt lat="46.71834" lon="-1.6736">
        <ele>54</ele>
        <time>2018-03-15T23:32:13Z</time>
      </trkpt>
      <trkpt lat="46.71806" lon="-1.67335">
        <ele>53</ele>
        <time>2018-03-15T23:33:13Z</time>
      </trkpt>
      <trkpt lat="46.71774" lon="-1.67307">
        <ele>51</ele>
        <time>2018-03-15T23:34:13Z</time>
      </trkpt>
      <trkpt lat="46.7173" lon="-1.67268">
        <ele>49</ele>
        <time>2018-03-15T23:35:13Z</time>
      </trkpt>
      <trkpt lat="46.71693" lon="-1.67236">
        <ele>47</ele>
        <time>2018-03-15T23:36:13Z</time>
      </trkpt>
      <trkpt lat="46.71655" lon="-1.67203">
        <ele>47</ele>
        <time>2018-03-15T23:37:13Z</time>
      </trkpt>
      <trkpt lat="46.71636" lon="-1.67187">
        <ele>47</ele>
        <time>2018-03-15T23:38:13Z</time>
      </trkpt>
      <trkpt lat="46.71607" lon="-1.67162">
        <ele>48</ele>
        <time>2018-03-15T23:39:13Z</time>
      </trkpt>
      <trkpt lat="46.71571" lon="-1.67129">
        <ele>49</ele>
        <time>2018-03-15T23:40:13Z</time>
      </trkpt>
      <trkpt lat="46.71535" lon="-1.67099">
        <ele>50</ele>
        <time>2018-03-15T23:41:13Z</time>
      </trkpt>
      <trkpt lat="46.715" lon="-1.67068">
        <ele>50</ele>
        <time>2018-03-15T23:42:13Z</time>
      </trkpt>
      <trkpt lat="46.71475" lon="-1.67048">
        <ele>51</ele>
        <time>2018-03-15T23:43:13Z</time>
      </trkpt>
      <trkpt lat="46.71455" lon="-1.67031">
        <ele>51</ele>
        <time>2018-03-15T23:44:13Z</time>
      </trkpt>
      <trkpt lat="46.71373" lon="-1.66964">
        <ele>49</ele>
        <time>2018-03-15T23:45:13Z</time>
      </trkpt>
      <trkpt lat="46.71314" lon="-1.66917">
        <ele>46</ele>
        <time>2018-03-15T23:46:13Z</time>
      </trkpt>
      <trkpt lat="46.71233" lon="-1.66852">
        <ele>42</ele>
        <time>2018-03-15T23:47:13Z</time>
      </trkpt>
      <trkpt lat="46.71204" lon="-1.66829">
        <ele>41</ele>
        <time>2018-03-15T23:48:13Z</time>
      </trkpt>
      <trkpt lat="46.7118" lon="-1.6681">
        <ele>40</ele>
        <time>2018-03-15T23:49:13Z</time>
      </trkpt>
      <trkpt lat="46.71163" lon="-1.66796">
        <ele>40</ele>
        <time>2018-03-15T23:50:13Z</time>
      </trkpt>
      <trkpt lat="46.71149" lon="-1.66785">
        <ele>40</ele>
        <time>2018-03-15T23:51:13Z</time>
      </trkpt>
      <trkpt lat="46.71007" lon="-1.6667">
        <ele>39</ele>
        <time>2018-03-15T23:52:13Z</time>
      </trkpt>
      <trkpt lat="46.70957" lon="-1.6663">
        <ele>39</ele>
        <time>2018-03-15T23:53:13Z</time>
      </trkpt>
      <trkpt lat="46.70928" lon="-1.66607">
        <ele>39</ele>
        <time>2018-03-15T23:54:13Z</time>
      </trkpt>
      <trkpt lat="46.70898" lon="-1.66583">
        <ele>40</ele>
        <time>2018-03-15T23:55:13Z</time>
      </trkpt>
      <trkpt lat="46.70886" lon="-1.66574">
        <ele>40</ele>
        <time>2018-03-15T23:56:13Z</time>
      </trkpt>
      <trkpt lat="46.70868" lon="-1.6656">
        <ele>40</ele>
        <time>2018-03-15T23:57:13Z</time>
      </trkpt>
      <trkpt lat="46.70635" lon="-1.66383">
        <ele>42</ele>
        <time>2018-03-15T23:58:13Z</time>
      </trkpt>
      <trkpt lat="46.70625" lon="-1.66376">
        <ele>42</ele>
        <time>2018-03-15T23:59:13Z</time>
      </trkpt>
      <trkpt lat="46.70596" lon="-1.66354">
        <ele>42</ele>
        <time>2018-03-16T00:00:13Z</time>
      </trkpt>
      <trkpt lat="46.70567" lon="-1.66333">
        <ele>43</ele>
        <time>2018-03-16T00:01:13Z</time>
      </trkpt>
      <trkpt lat="46.70549" lon="-1.6632">
        <ele>43</ele>
        <time>2018-03-16T00:02:13Z</time>
      </trkpt>
      <trkpt lat="46.70523" lon="-1.66298">
        <ele>42</ele>
        <time>2018-03-16T00:03:13Z</time>
      </trkpt>
      <trkpt lat="46.70514" lon="-1.66287">
        <ele>42</ele>
        <time>2018-03-16T00:04:13Z</time>
      </trkpt>
      <trkpt lat="46.70498" lon="-1.66268">
        <ele>41</ele>
        <time>2018-03-16T00:05:13Z</time>
      </trkpt>
      <trkpt lat="46.70474" lon="-1.66237">
        <ele>41</ele>
        <time>2018-03-16T00:06:13Z</time>
      </trkpt>
      <trkpt lat="46.70459" lon="-1.66216">
        <ele>40</ele>
        <time>2018-03-16T00:07:13Z</time>
      </trkpt>
      <trkpt lat="46.70444" lon="-1.66194">
        <ele>40</ele>
        <time>2018-03-16T00:08:13Z</time>
      </trkpt>
      <trkpt lat="46.70436" lon="-1.66182">
        <ele>39</ele>
        <time>2018-03-16T00:09:13Z</time>
      </trkpt>
      <trkpt lat="46.70413" lon="-1.66146">
        <ele>39</ele>
        <time>2018-03-16T00:10:13Z</time>
      </trkpt>
      <trkpt lat="46.7039" lon="-1.66107">
        <ele>38</ele>
        <time>2018-03-16T00:11:13Z</time>
      </trkpt>
      <trkpt lat="46.70343" lon="-1.66031">
        <ele>38</ele>
        <time>2018-03-16T00:12:13Z</time>
      </trkpt>
      <trkpt lat="46.70319" lon="-1.65993">
        <ele>38</ele>
        <time>2018-03-16T00:13:13Z</time>
      </trkpt>
      <trkpt lat="46.70296" lon="-1.65955">
        <ele>38</ele>
        <time>2018-03-16T00:14:13Z</time>
      </trkpt>
      <trkpt lat="46.7028" lon="-1.65929">
        <ele>39</ele>
        <time>2018-03-16T00:15:13Z</time>
      </trkpt>
      <trkpt lat="46.70256" lon="-1.65892">
        <ele>40</ele>
        <time>2018-03-16T00:16:13Z</time>
      </trkpt>
      <trkpt lat="46.70241" lon="-1.65868">
        <ele>41</ele>
        <time>2018-03-16T00:17:13Z</time>
      </trkpt>
      <trkpt lat="46.70226" lon="-1.65845">
        <ele>41</ele>
        <time>2018-03-16T00:18:13Z</time>
      </trkpt>
      <trkpt lat="46.70218" lon="-1.65832">
        <ele>42</ele>
        <time>2018-03-16T00:19:13Z</time>
      </trkpt>
      <trkpt lat="46.7021" lon="-1.6582">
        <ele>42</ele>
        <time>2018-03-16T00:20:13Z</time>
      </trkpt>
      <trkpt lat="46.70188" lon="-1.65785">
        <ele>43</ele>
        <time>2018-03-16T00:21:13Z</time>
      </trkpt>
      <trkpt lat="46.70167" lon="-1.65751">
        <ele>43</ele>
        <time>2018-03-16T00:22:13Z</time>
      </trkpt>
      <trkpt lat="46.70157" lon="-1.65738">
        <ele>43</ele>
        <time>2018-03-16T00:23:13Z</time>
      </trkpt>
      <trkpt lat="46.70146" lon="-1.65719">
        <ele>43</ele>
        <time>2018-03-16T00:24:13Z</time>
      </trkpt>
      <trkpt lat="46.70126" lon="-1.65687">
        <ele>42</ele>
        <time>2018-03-16T00:25:13Z</time>
      </trkpt>
      <trkpt lat="46.70112" lon="-1.65666">
        <ele>42</ele>
        <time>2018-03-16T00:26:13Z</time>
      </trkpt>
      <trkpt lat="46.70099" lon="-1.65645">
        <ele>42</ele>
        <time>2018-03-16T00:27:13Z</time>
      </trkpt>
      <trkpt lat="46.70085" lon="-1.65624">
        <ele>42</ele>
        <time>2018-03-16T00:28:13Z</time>
      </trkpt>
      <trkpt lat="46.70072" lon="-1.65602">
        <ele>41</ele>
        <time>2018-03-16T00:29:13Z</time>
      </trkpt>
      <trkpt lat="46.70058" lon="-1.65581">
        <ele>40</ele>
        <time>2018-03-16T00:30:13Z</time>
      </trkpt>
      <trkpt lat="46.70045" lon="-1.6556">
        <ele>38</ele>
        <time>2018-03-16T00:31:13Z</time>
      </trkpt>
      <trkpt lat="46.70035" lon="-1.65545">
        <ele>37</ele>
        <time>2018-03-16T00:32:13Z</time>
      </trkpt>
      <trkpt lat="46.70031" lon="-1.65538">
        <ele>36</ele>
        <time>2018-03-16T00:33:13Z</time>
      </trkpt>
      <trkpt lat="46.70025" lon="-1.6553">
        <ele>36</ele>
        <time>2018-03-16T00:34:13Z</time>
      </trkpt>
      <trkpt lat="46.7001" lon="-1.65503">
        <ele>34</ele>
        <time>2018-03-16T00:35:13Z</time>
      </trkpt>
      <trkpt lat="46.69997" lon="-1.6548">
        <ele>34</ele>
        <time>2018-03-16T00:36:13Z</time>
      </trkpt>
      <trkpt lat="46.69985" lon="-1.65454">
        <ele>34</ele>
        <time>2018-03-16T00:37:13Z</time>
      </trkpt>
      <trkpt lat="46.69973" lon="-1.65429">
        <ele>33</ele>
        <time>2018-03-16T00:38:13Z</time>
      </trkpt>
      <trkpt lat="46.69962" lon="-1.65403">
        <ele>32</ele>
        <time>2018-03-16T00:39:13Z</time>
      </trkpt>
      <trkpt lat="46.69948" lon="-1.65361">
        <ele>31</ele>
        <time>2018-03-16T00:40:13Z</time>
      </trkpt>
      <trkpt lat="46.69938" lon="-1.65332">
        <ele>30</ele>
        <time>2018-03-16T00:41:13Z</time>
      </trkpt>
      <trkpt lat="46.69929" lon="-1.65304">
        <ele>29</ele>
        <time>2018-03-16T00:42:13Z</time>
      </trkpt>
      <trkpt lat="46.69924" lon="-1.6529">
        <ele>29</ele>
        <time>2018-03-16T00:43:13Z</time>
      </trkpt>
      <trkpt lat="46.69918" lon="-1.65275">
        <ele>28</ele>
        <time>2018-03-16T00:44:13Z</time>
      </trkpt>
      <trkpt lat="46.69915" lon="-1.65265">
        <ele>28</ele>
        <time>2018-03-16T00:45:13Z</time>
      </trkpt>
      <trkpt lat="46.69913" lon="-1.65259">
        <ele>28</ele>
        <time>2018-03-16T00:46:13Z</time>
      </trkpt>
      <trkpt lat="46.69911" lon="-1.65254">
        <ele>28</ele>
        <time>2018-03-16T00:47:13Z</time>
      </trkpt>
      <trkpt lat="46.69903" lon="-1.65232">
        <ele>28</ele>
        <time>2018-03-16T00:48:13Z</time>
      </trkpt>
      <trkpt lat="46.69892" lon="-1.65203">
        <ele>29</ele>
        <time>2018-03-16T00:49:13Z</time>
      </trkpt>
      <trkpt lat="46.69882" lon="-1.65173">
        <ele>30</ele>
        <time>2018-03-16T00:50:13Z</time>
      </trkpt>
      <trkpt lat="46.69872" lon="-1.65144">
        <ele>31</ele>
        <time>2018-03-16T00:51:13Z</time>
      </trkpt>
      <trkpt lat="46.69862" lon="-1.65114">
        <ele>32</ele>
        <time>2018-03-16T00:52:13Z</time>
      </trkpt>
      <trkpt lat="46.69853" lon="-1.65085">
        <ele>32</ele>
        <time>2018-03-16T00:53:13Z</time>
      </trkpt>
      <trkpt lat="46.69851" lon="-1.65075">
        <ele>32</ele>
        <time>2018-03-16T00:54:13Z</time>
      </trkpt>
      <trkpt lat="46.69845" lon="-1.65055">
        <ele>33</ele>
        <time>2018-03-16T00:55:13Z</time>
      </trkpt>
      <trkpt lat="46.69837" lon="-1.65028">
        <ele>34</ele>
        <time>2018-03-16T00:56:13Z</time>
      </trkpt>
      <trkpt lat="46.69833" lon="-1.65015">
        <ele>34</ele>
        <time>2018-03-16T00:57:13Z</time>
      </trkpt>
      <trkpt lat="46.69825" lon="-1.64985">
        <ele>35</ele>
        <time>2018-03-16T00:58:13Z</time>
      </trkpt>
      <trkpt lat="46.69812" lon="-1.64942">
        <ele>36</ele>
        <time>2018-03-16T00:59:13Z</time>
      </trkpt>
      <trkpt lat="46.69804" lon="-1.64915">
        <ele>36</ele>
        <time>2018-03-16T01:00:13Z</time>
      </trkpt>
      <trkpt lat="46.698" lon="-1.64902">
        <ele>36</ele>
        <time>2018-03-16T01:01:13Z</time>
      </trkpt>
      <trkpt lat="46.69796" lon="-1.64888">
        <ele>36</ele>
        <time>2018-03-16T01:02:13Z</time>
      </trkpt>
      <trkpt lat="46.69789" lon="-1.64862">
        <ele>36</ele>
        <time>2018-03-16T01:03:13Z</time>
      </trkpt>
      <trkpt lat="46.69781" lon="-1.64836">
        <ele>36</ele>
        <time>2018-03-16T01:04:13Z</time>
      </trkpt>
      <trkpt lat="46.69775" lon="-1.64815">
        <ele>36</ele>
        <time>2018-03-16T01:05:13Z</time>
      </trkpt>
      <trkpt lat="46.6977" lon="-1.64799">
        <ele>36</ele>
        <time>2018-03-16T01:06:13Z</time>
      </trkpt>
      <trkpt lat="46.69763" lon="-1.64777">
        <ele>35</ele>
        <time>2018-03-16T01:07:13Z</time>
      </trkpt>
      <trkpt lat="46.69758" lon="-1.64762">
        <ele>35</ele>
        <time>2018-03-16T01:08:13Z</time>
      </trkpt>
      <trkpt lat="46.69746" lon="-1.64724">
        <ele>34</ele>
        <time>2018-03-16T01:09:13Z</time>
      </trkpt>
      <trkpt lat="46.69733" lon="-1.64688">
        <ele>33</ele>
        <time>2018-03-16T01:10:13Z</time>
      </trkpt>
      <trkpt lat="46.69723" lon="-1.64664">
        <ele>33</ele>
        <time>2018-03-16T01:11:13Z</time>
      </trkpt>
      <trkpt lat="46.69712" lon="-1.64641">
        <ele>32</ele>
        <time>2018-03-16T01:12:13Z</time>
      </trkpt>
      <trkpt lat="46.69698" lon="-1.64622">
        <ele>32</ele>
        <time>2018-03-16T01:13:13Z</time>
      </trkpt>
      <trkpt lat="46.69691" lon="-1.64613">
        <ele>31</ele>
        <time>2018-03-16T01:14:13Z</time>
      </trkpt>
      <trkpt lat="46.69685" lon="-1.64607">
        <ele>31</ele>
        <time>2018-03-16T01:15:13Z</time>
      </trkpt>
      <trkpt lat="46.69682" lon="-1.64604">
        <ele>31</ele>
        <time>2018-03-16T01:16:13Z</time>
      </trkpt>
      <trkpt lat="46.69676" lon="-1.64598">
        <ele>31</ele>
        <time>2018-03-16T01:17:13Z</time>
      </trkpt>
      <trkpt lat="46.6967" lon="-1.64593">
        <ele>30</ele>
        <time>2018-03-16T01:18:13Z</time>
      </trkpt>
      <trkpt lat="46.69664" lon="-1.64588">
        <ele>30</ele>
        <time>2018-03-16T01:19:13Z</time>
      </trkpt>
      <trkpt lat="46.69541" lon="-1.64498">
        <ele>33</ele>
        <time>2018-03-16T01:20:13Z</time>
      </trkpt>
      <trkpt lat="46.695" lon="-1.64468">
        <ele>35</ele>
        <time>2018-03-16T01:21:13Z</time>
      </trkpt>
      <trkpt lat="46.6946" lon="-1.64437">
        <ele>36</ele>
        <time>2018-03-16T01:22:13Z</time>
      </trkpt>
      <trkpt lat="46.6945" lon="-1.64431">
        <ele>36</ele>
        <time>2018-03-16T01:23:13Z</time>
      </trkpt>
      <trkpt lat="46.69386" lon="-1.64383">
        <ele>37</ele>
        <time>2018-03-16T01:24:13Z</time>
      </trkpt>
      <trkpt lat="46.69354" lon="-1.64359">
        <ele>39</ele>
        <time>2018-03-16T01:25:13Z</time>
      </trkpt>
      <trkpt lat="46.69301" lon="-1.6432">
        <ele>40</ele>
        <time>2018-03-16T01:26:13Z</time>
      </trkpt>
      <trkpt lat="46.69281" lon="-1.64305">
        <ele>40</ele>
        <time>2018-03-16T01:27:13Z</time>
      </trkpt>
      <trkpt lat="46.69246" lon="-1.64279">
        <ele>40</ele>
        <time>2018-03-16T01:28:13Z</time>
      </trkpt>
      <trkpt lat="46.69221" lon="-1.64259">
        <ele>39</ele>
        <time>2018-03-16T01:29:13Z</time>
      </trkpt>
      <trkpt lat="46.69207" lon="-1.64246">
        <ele>39</ele>
        <time>2018-03-16T01:30:13Z</time>
      </trkpt>
      <trkpt lat="46.69202" lon="-1.64241">
        <ele>39</ele>
        <time>2018-03-16T01:31:13Z</time>
      </trkpt>
      <trkpt lat="46.69194" lon="-1.64233">
        <ele>39</ele>
        <time>2018-03-16T01:32:13Z</time>
      </trkpt>
      <trkpt lat="46.69167" lon="-1.64203">
        <ele>39</ele>
        <time>2018-03-16T01:33:13Z</time>
      </trkpt>
      <trkpt lat="46.69148" lon="-1.64183">
        <ele>38</ele>
        <time>2018-03-16T01:34:13Z</time>
      </trkpt>
      <trkpt lat="46.69136" lon="-1.64169">
        <ele>38</ele>
        <time>2018-03-16T01:35:13Z</time>
      </trkpt>
      <trkpt lat="46.69111" lon="-1.64142">
        <ele>37</ele>
        <time>2018-03-16T01:36:13Z</time>
      </trkpt>
      <trkpt lat="46.69081" lon="-1.64107">
        <ele>36</ele>
        <time>2018-03-16T01:37:13Z</time>
      </trkpt>
      <trkpt lat="46.6906" lon="-1.64084">
        <ele>36</ele>
        <time>2018-03-16T01:38:13Z</time>
      </trkpt>
      <trkpt lat="46.69053" lon="-1.64078">
        <ele>36</ele>
        <time>2018-03-16T01:39:13Z</time>
      </trkpt>
      <trkpt lat="46.6904" lon="-1.64064">
        <ele>36</ele>
        <time>2018-03-16T01:40:13Z</time>
      </trkpt>
      <trkpt lat="46.69032" lon="-1.64056">
        <ele>35</ele>
        <time>2018-03-16T01:41:13Z</time>
      </trkpt>
      <trkpt lat="46.69018" lon="-1.64042">
        <ele>34</ele>
        <time>2018-03-16T01:42:13Z</time>
      </trkpt>
      <trkpt lat="46.69004" lon="-1.64027">
        <ele>33</ele>
        <time>2018-03-16T01:43:13Z</time>
      </trkpt>
      <trkpt lat="46.6899" lon="-1.64013">
        <ele>32</ele>
        <time>2018-03-16T01:44:13Z</time>
      </trkpt>
      <trkpt lat="46.68983" lon="-1.64006">
        <ele>32</ele>
        <time>2018-03-16T01:45:13Z</time>
      </trkpt>
      <trkpt lat="46.68975" lon="-1.63999">
        <ele>32</ele>
        <time>2018-03-16T01:46:13Z</time>
      </trkpt>
      <trkpt lat="46.68968" lon="-1.63992">
        <ele>32</ele>
        <time>2018-03-16T01:47:13Z</time>
      </trkpt>
      <trkpt lat="46.68962" lon="-1.63985">
        <ele>32</ele>
        <time>2018-03-16T01:48:13Z</time>
      </trkpt>
      <trkpt lat="46.68954" lon="-1.63977">
        <ele>33</ele>
        <time>2018-03-16T01:49:13Z</time>
      </trkpt>
      <trkpt lat="46.68948" lon="-1.63972">
        <ele>33</ele>
        <time>2018-03-16T01:50:13Z</time>
      </trkpt>
      <trkpt lat="46.68941" lon="-1.63965">
        <ele>33</ele>
        <time>2018-03-16T01:51:13Z</time>
      </trkpt>
      <trkpt lat="46.68935" lon="-1.63957">
        <ele>33</ele>
        <time>2018-03-16T01:52:13Z</time>
      </trkpt>
      <trkpt lat="46.68929" lon="-1.6395">
        <ele>32</ele>
        <time>2018-03-16T01:53:13Z</time>
      </trkpt>
      <trkpt lat="46.68924" lon="-1.63943">
        <ele>32</ele>
        <time>2018-03-16T01:54:13Z</time>
      </trkpt>
      <trkpt lat="46.68919" lon="-1.63934">
        <ele>32</ele>
        <time>2018-03-16T01:55:13Z</time>
      </trkpt>
      <trkpt lat="46.68915" lon="-1.63925">
        <ele>31</ele>
        <time>2018-03-16T01:56:13Z</time>
      </trkpt>
      <trkpt lat="46.68912" lon="-1.63916">
        <ele>31</ele>
        <time>2018-03-16T01:57:13Z</time>
      </trkpt>
      <trkpt lat="46.6891" lon="-1.63906">
        <ele>31</ele>
        <time>2018-03-16T01:58:13Z</time>
      </trkpt>
      <trkpt lat="46.68909" lon="-1.63896">
        <ele>32</ele>
        <time>2018-03-16T01:59:13Z</time>
      </trkpt>
      <trkpt lat="46.68907" lon="-1.63885">
        <ele>32</ele>
        <time>2018-03-16T02:00:13Z</time>
      </trkpt>
      <trkpt lat="46.68905" lon="-1.63847">
        <ele>33</ele>
        <time>2018-03-16T02:01:13Z</time>
      </trkpt>
      <trkpt lat="46.68903" lon="-1.63836">
        <ele>33</ele>
        <time>2018-03-16T02:02:13Z</time>
      </trkpt>
      <trkpt lat="46.68901" lon="-1.63822">
        <ele>34</ele>
        <time>2018-03-16T02:03:13Z</time>
      </trkpt>
      <trkpt lat="46.68899" lon="-1.63809">
        <ele>34</ele>
        <time>2018-03-16T02:04:13Z</time>
      </trkpt>
      <trkpt lat="46.68896" lon="-1.63796">
        <ele>35</ele>
        <time>2018-03-16T02:05:13Z</time>
      </trkpt>
      <trkpt lat="46.68888" lon="-1.6377">
        <ele>36</ele>
        <time>2018-03-16T02:06:13Z</time>
      </trkpt>
      <trkpt lat="46.68879" lon="-1.63743">
        <ele>38</ele>
        <time>2018-03-16T02:07:13Z</time>
      </trkpt>
      <trkpt lat="46.6887" lon="-1.63716">
        <ele>38</ele>
        <time>2018-03-16T02:08:13Z</time>
      </trkpt>
      <trkpt lat="46.68866" lon="-1.63702">
        <ele>39</ele>
        <time>2018-03-16T02:09:13Z</time>
      </trkpt>
      <trkpt lat="46.68857" lon="-1.63675">
        <ele>40</ele>
        <time>2018-03-16T02:10:13Z</time>
      </trkpt>
      <trkpt lat="46.68837" lon="-1.63618">
        <ele>41</ele>
        <time>2018-03-16T02:11:13Z</time>
      </trkpt>
      <trkpt lat="46.68828" lon="-1.63595">
        <ele>42</ele>
        <time>2018-03-16T02:12:13Z</time>
      </trkpt>
      <trkpt lat="46.68817" lon="-1.63568">
        <ele>43</ele>
        <time>2018-03-16T02:13:13Z</time>
      </trkpt>
      <trkpt lat="46.688" lon="-1.63529">
        <ele>44</ele>
        <time>2018-03-16T02:14:13Z</time>
      </trkpt>
      <trkpt lat="46.68795" lon="-1.63517">
        <ele>44</ele>
        <time>2018-03-16T02:15:13Z</time>
      </trkpt>
      <trkpt lat="46.6879" lon="-1.63503">
        <ele>44</ele>
        <time>2018-03-16T02:16:13Z</time>
      </trkpt>
      <trkpt lat="46.68779" lon="-1.63477">
        <ele>45</ele>
        <time>2018-03-16T02:17:13Z</time>
      </trkpt>
      <trkpt lat="46.68768" lon="-1.63451">
        <ele>46</ele>
        <time>2018-03-16T02:18:13Z</time>
      </trkpt>
      <trkpt lat="46.68757" lon="-1.63425">
        <ele>47</ele>
        <time>2018-03-16T02:19:13Z</time>
      </trkpt>
      <trkpt lat="46.68752" lon="-1.63412">
        <ele>47</ele>
        <time>2018-03-16T02:20:13Z</time>
      </trkpt>
      <trkpt lat="46.68748" lon="-1.634">
        <ele>47</ele>
        <time>2018-03-16T02:21:13Z</time>
      </trkpt>
      <trkpt lat="46.68743" lon="-1.63385">
        <ele>47</ele>
        <time>2018-03-16T02:22:13Z</time>
      </trkpt>
      <trkpt lat="46.68739" lon="-1.63371">
        <ele>48</ele>
        <time>2018-03-16T02:23:13Z</time>
      </trkpt>
      <trkpt lat="46.68735" lon="-1.63357">
        <ele>48</ele>
        <time>2018-03-16T02:24:13Z</time>
      </trkpt>
      <trkpt lat="46.68732" lon="-1.63343">
        <ele>48</ele>
        <time>2018-03-16T02:25:13Z</time>
      </trkpt>
      <trkpt lat="46.6873" lon="-1.63329">
        <ele>48</ele>
        <time>2018-03-16T02:26:13Z</time>
      </trkpt>
      <trkpt lat="46.68728" lon="-1.63314">
        <ele>48</ele>
        <time>2018-03-16T02:27:13Z</time>
      </trkpt>
      <trkpt lat="46.68727" lon="-1.63299">
        <ele>48</ele>
        <time>2018-03-16T02:28:13Z</time>
      </trkpt>
      <trkpt lat="46.68726" lon="-1.63284">
        <ele>48</ele>
        <time>2018-03-16T02:29:13Z</time>
      </trkpt>
      <trkpt lat="46.68726" lon="-1.63272">
        <ele>48</ele>
        <time>2018-03-16T02:30:13Z</time>
      </trkpt>
      <trkpt lat="46.68725" lon="-1.63254">
        <ele>48</ele>
        <time>2018-03-16T02:31:13Z</time>
      </trkpt>
      <trkpt lat="46.68725" lon="-1.63238">
        <ele>49</ele>
        <time>2018-03-16T02:32:13Z</time>
      </trkpt>
      <trkpt lat="46.68724" lon="-1.63208">
        <ele>49</ele>
        <time>2018-03-16T02:33:13Z</time>
      </trkpt>
      <trkpt lat="46.68724" lon="-1.63192">
        <ele>50</ele>
        <time>2018-03-16T02:34:13Z</time>
      </trkpt>
      <trkpt lat="46.68723" lon="-1.63161">
        <ele>51</ele>
        <time>2018-03-16T02:35:13Z</time>
      </trkpt>
      <trkpt lat="46.68721" lon="-1.63114">
        <ele>50</ele>
        <time>2018-03-16T02:36:13Z</time>
      </trkpt>
      <trkpt lat="46.6872" lon="-1.63084">
        <ele>50</ele>
        <time>2018-03-16T02:37:13Z</time>
      </trkpt>
      <trkpt lat="46.68719" lon="-1.63051">
        <ele>50</ele>
        <time>2018-03-16T02:38:13Z</time>
      </trkpt>
      <trkpt lat="46.68717" lon="-1.6302">
        <ele>51</ele>
        <time>2018-03-16T02:39:13Z</time>
      </trkpt>
      <trkpt lat="46.68716" lon="-1.62988">
        <ele>51</ele>
        <time>2018-03-16T02:40:13Z</time>
      </trkpt>
      <trkpt lat="46.68716" lon="-1.62972">
        <ele>52</ele>
        <time>2018-03-16T02:41:13Z</time>
      </trkpt>
      <trkpt lat="46.68715" lon="-1.62956">
        <ele>52</ele>
        <time>2018-03-16T02:42:13Z</time>
      </trkpt>
      <trkpt lat="46.68714" lon="-1.62923">
        <ele>52</ele>
        <time>2018-03-16T02:43:13Z</time>
      </trkpt>
      <trkpt lat="46.68713" lon="-1.62891">
        <ele>52</ele>
        <time>2018-03-16T02:44:13Z</time>
      </trkpt>
      <trkpt lat="46.68712" lon="-1.62874">
        <ele>53</ele>
        <time>2018-03-16T02:45:13Z</time>
      </trkpt>
      <trkpt lat="46.68711" lon="-1.62858">
        <ele>53</ele>
        <time>2018-03-16T02:46:13Z</time>
      </trkpt>
      <trkpt lat="46.6871" lon="-1.62826">
        <ele>54</ele>
        <time>2018-03-16T02:47:13Z</time>
      </trkpt>
      <trkpt lat="46.68709" lon="-1.6281">
        <ele>54</ele>
        <time>2018-03-16T02:48:13Z</time>
      </trkpt>
      <trkpt lat="46.68708" lon="-1.62779">
        <ele>55</ele>
        <time>2018-03-16T02:49:13Z</time>
      </trkpt>
      <trkpt lat="46.68707" lon="-1.62762">
        <ele>55</ele>
        <time>2018-03-16T02:50:13Z</time>
      </trkpt>
      <trkpt lat="46.68706" lon="-1.62746">
        <ele>56</ele>
        <time>2018-03-16T02:51:13Z</time>
      </trkpt>
      <trkpt lat="46.68705" lon="-1.62732">
        <ele>55</ele>
        <time>2018-03-16T02:52:13Z</time>
      </trkpt>
      <trkpt lat="46.68705" lon="-1.62716">
        <ele>55</ele>
        <time>2018-03-16T02:53:13Z</time>
      </trkpt>
      <trkpt lat="46.68704" lon="-1.62701">
        <ele>55</ele>
        <time>2018-03-16T02:54:13Z</time>
      </trkpt>
      <trkpt lat="46.68703" lon="-1.62686">
        <ele>55</ele>
        <time>2018-03-16T02:55:13Z</time>
      </trkpt>
      <trkpt lat="46.68701" lon="-1.62655">
        <ele>55</ele>
        <time>2018-03-16T02:56:13Z</time>
      </trkpt>
      <trkpt lat="46.68699" lon="-1.62641">
        <ele>55</ele>
        <time>2018-03-16T02:57:13Z</time>
      </trkpt>
      <trkpt lat="46.68698" lon="-1.62626">
        <ele>55</ele>
        <time>2018-03-16T02:58:13Z</time>
      </trkpt>
      <trkpt lat="46.68695" lon="-1.62612">
        <ele>55</ele>
        <time>2018-03-16T02:59:13Z</time>
      </trkpt>
      <trkpt lat="46.68692" lon="-1.62598">
        <ele>55</ele>
        <time>2018-03-16T03:00:13Z</time>
      </trkpt>
      <trkpt lat="46.68689" lon="-1.62584">
        <ele>55</ele>
        <time>2018-03-16T03:01:13Z</time>
      </trkpt>
      <trkpt lat="46.68685" lon="-1.62571">
        <ele>55</ele>
        <time>2018-03-16T03:02:13Z</time>
      </trkpt>
      <trkpt lat="46.68681" lon="-1.62557">
        <ele>56</ele>
        <time>2018-03-16T03:03:13Z</time>
      </trkpt>
      <trkpt lat="46.68676" lon="-1.62544">
        <ele>56</ele>
        <time>2018-03-16T03:04:13Z</time>
      </trkpt>
      <trkpt lat="46.68672" lon="-1.62531">
        <ele>56</ele>
        <time>2018-03-16T03:05:13Z</time>
      </trkpt>
      <trkpt lat="46.68666" lon="-1.62518">
        <ele>57</ele>
        <time>2018-03-16T03:06:13Z</time>
      </trkpt>
      <trkpt lat="46.68661" lon="-1.62505">
        <ele>57</ele>
        <time>2018-03-16T03:07:13Z</time>
      </trkpt>
      <trkpt lat="46.68656" lon="-1.62492">
        <ele>57</ele>
        <time>2018-03-16T03:08:13Z</time>
      </trkpt>
      <trkpt lat="46.6865" lon="-1.62479">
        <ele>56</ele>
        <time>2018-03-16T03:09:13Z</time>
      </trkpt>
      <trkpt lat="46.68644" lon="-1.62466">
        <ele>56</ele>
        <time>2018-03-16T03:10:13Z</time>
      </trkpt>
      <trkpt lat="46.68639" lon="-1.62454">
        <ele>56</ele>
        <time>2018-03-16T03:11:13Z</time>
      </trkpt>
      <trkpt lat="46.68633" lon="-1.62441">
        <ele>56</ele>
        <time>2018-03-16T03:12:13Z</time>
      </trkpt>
      <trkpt lat="46.68626" lon="-1.62429">
        <ele>56</ele>
        <time>2018-03-16T03:13:13Z</time>
      </trkpt>
      <trkpt lat="46.6862" lon="-1.62417">
        <ele>56</ele>
        <time>2018-03-16T03:14:13Z</time>
      </trkpt>
      <trkpt lat="46.68613" lon="-1.62405">
        <ele>56</ele>
        <time>2018-03-16T03:15:13Z</time>
      </trkpt>
      <trkpt lat="46.68606" lon="-1.62394">
        <ele>56</ele>
        <time>2018-03-16T03:16:13Z</time>
      </trkpt>
      <trkpt lat="46.68599" lon="-1.62383">
        <ele>56</ele>
        <time>2018-03-16T03:17:13Z</time>
      </trkpt>
      <trkpt lat="46.68591" lon="-1.62373">
        <ele>56</ele>
        <time>2018-03-16T03:18:13Z</time>
      </trkpt>
      <trkpt lat="46.68584" lon="-1.62363">
        <ele>56</ele>
        <time>2018-03-16T03:19:13Z</time>
      </trkpt>
      <trkpt lat="46.68576" lon="-1.62353">
        <ele>56</ele>
        <time>2018-03-16T03:20:13Z</time>
      </trkpt>
      <trkpt lat="46.68551" lon="-1.62325">
        <ele>56</ele>
        <time>2018-03-16T03:21:13Z</time>
      </trkpt>
      <trkpt lat="46.68504" lon="-1.62267">
        <ele>57</ele>
        <time>2018-03-16T03:22:13Z</time>
      </trkpt>
      <trkpt lat="46.68496" lon="-1.62257">
        <ele>57</ele>
        <time>2018-03-16T03:23:13Z</time>
      </trkpt>
      <trkpt lat="46.68488" lon="-1.62248">
        <ele>57</ele>
        <time>2018-03-16T03:24:13Z</time>
      </trkpt>
      <trkpt lat="46.68473" lon="-1.62228">
        <ele>57</ele>
        <time>2018-03-16T03:25:13Z</time>
      </trkpt>
      <trkpt lat="46.68458" lon="-1.62209">
        <ele>57</ele>
        <time>2018-03-16T03:26:13Z</time>
      </trkpt>
      <trkpt lat="46.68443" lon="-1.6219">
        <ele>57</ele>
        <time>2018-03-16T03:27:13Z</time>
      </trkpt>
      <trkpt lat="46.68436" lon="-1.62182">
        <ele>57</ele>
        <time>2018-03-16T03:28:13Z</time>
      </trkpt>
      <trkpt lat="46.68428" lon="-1.62171">
        <ele>57</ele>
        <time>2018-03-16T03:29:13Z</time>
      </trkpt>
      <trkpt lat="46.68419" lon="-1.62162">
        <ele>57</ele>
        <time>2018-03-16T03:30:13Z</time>
      </trkpt>
      <trkpt lat="46.68411" lon="-1.62153">
        <ele>57</ele>
        <time>2018-03-16T03:31:13Z</time>
      </trkpt>
      <trkpt lat="46.68396" lon="-1.62134">
        <ele>57</ele>
        <time>2018-03-16T03:32:13Z</time>
      </trkpt>
      <trkpt lat="46.68338" lon="-1.62064">
        <ele>56</ele>
        <time>2018-03-16T03:33:13Z</time>
      </trkpt>
      <trkpt lat="46.6833" lon="-1.62053">
        <ele>56</ele>
        <time>2018-03-16T03:34:13Z</time>
      </trkpt>
      <trkpt lat="46.68328" lon="-1.62051">
        <ele>56</ele>
        <time>2018-03-16T03:35:13Z</time>
      </trkpt>
      <trkpt lat="46.68308" lon="-1.62026">
        <ele>56</ele>
        <time>2018-03-16T03:36:13Z</time>
      </trkpt>
      <trkpt lat="46.68306" lon="-1.62023">
        <ele>56</ele>
        <time>2018-03-16T03:37:13Z</time>
      </trkpt>
      <trkpt lat="46.68288" lon="-1.61998">
        <ele>55</ele>
        <time>2018-03-16T03:38:13Z</time>
      </trkpt>
      <trkpt lat="46.6827" lon="-1.61971">
        <ele>54</ele>
        <time>2018-03-16T03:39:13Z</time>
      </trkpt>
      <trkpt lat="46.68247" lon="-1.61944">
        <ele>53</ele>
        <time>2018-03-16T03:40:13Z</time>
      </trkpt>
      <trkpt lat="46.68223" lon="-1.61918">
        <ele>52</ele>
        <time>2018-03-16T03:41:13Z</time>
      </trkpt>
      <trkpt lat="46.6819" lon="-1.61882">
        <ele>49</ele>
        <time>2018-03-16T03:42:13Z</time>
      </trkpt>
      <trkpt lat="46.68167" lon="-1.61854">
        <ele>48</ele>
        <time>2018-03-16T03:43:13Z</time>
      </trkpt>
      <trkpt lat="46.68139" lon="-1.61815">
        <ele>47</ele>
        <time>2018-03-16T03:44:13Z</time>
      </trkpt>
      <trkpt lat="46.68132" lon="-1.61806">
        <ele>47</ele>
        <time>2018-03-16T03:45:13Z</time>
      </trkpt>
      <trkpt lat="46.68125" lon="-1.61798">
        <ele>47</ele>
        <time>2018-03-16T03:46:13Z</time>
      </trkpt>
      <trkpt lat="46.68109" lon="-1.61781">
        <ele>46</ele>
        <time>2018-03-16T03:47:13Z</time>
      </trkpt>
      <trkpt lat="46.68094" lon="-1.61767">
        <ele>46</ele>
        <time>2018-03-16T03:48:13Z</time>
      </trkpt>
      <trkpt lat="46.68069" lon="-1.61749">
        <ele>46</ele>
        <time>2018-03-16T03:49:13Z</time>
      </trkpt>
      <trkpt lat="46.68045" lon="-1.61735">
        <ele>46</ele>
        <time>2018-03-16T03:50:13Z</time>
      </trkpt>
      <trkpt lat="46.68012" lon="-1.61719">
        <ele>45</ele>
        <time>2018-03-16T03:51:13Z</time>
      </trkpt>
      <trkpt lat="46.6798" lon="-1.61703">
        <ele>44</ele>
        <time>2018-03-16T03:52:13Z</time>
      </trkpt>
      <trkpt lat="46.67961" lon="-1.61695">
        <ele>43</ele>
        <time>2018-03-16T03:53:13Z</time>
      </trkpt>
      <trkpt lat="46.67951" lon="-1.61689">
        <ele>43</ele>
        <time>2018-03-16T03:54:13Z</time>
      </trkpt>
      <trkpt lat="46.67938" lon="-1.61676">
        <ele>42</ele>
        <time>2018-03-16T03:55:13Z</time>
      </trkpt>
      <trkpt lat="46.67933" lon="-1.61669">
        <ele>42</ele>
        <time>2018-03-16T03:56:13Z</time>
      </trkpt>
      <trkpt lat="46.67926" lon="-1.61656">
        <ele>42</ele>
        <time>2018-03-16T03:57:13Z</time>
      </trkpt>
      <trkpt lat="46.67921" lon="-1.61642">
        <ele>42</ele>
        <time>2018-03-16T03:58:13Z</time>
      </trkpt>
      <trkpt lat="46.67916" lon="-1.61622">
        <ele>42</ele>
        <time>2018-03-16T03:59:13Z</time>
      </trkpt>
      <trkpt lat="46.67909" lon="-1.6159">
        <ele>43</ele>
        <time>2018-03-16T04:00:13Z</time>
      </trkpt>
      <trkpt lat="46.67905" lon="-1.61573">
        <ele>43</ele>
        <time>2018-03-16T04:01:13Z</time>
      </trkpt>
      <trkpt lat="46.67904" lon="-1.61566">
        <ele>43</ele>
        <time>2018-03-16T04:02:13Z</time>
      </trkpt>
      <trkpt lat="46.67899" lon="-1.61543">
        <ele>44</ele>
        <time>2018-03-16T04:03:13Z</time>
      </trkpt>
      <trkpt lat="46.67892" lon="-1.61508">
        <ele>44</ele>
        <time>2018-03-16T04:04:13Z</time>
      </trkpt>
      <trkpt lat="46.67884" lon="-1.61474">
        <ele>45</ele>
        <time>2018-03-16T04:05:13Z</time>
      </trkpt>
      <trkpt lat="46.6788" lon="-1.61451">
        <ele>46</ele>
        <time>2018-03-16T04:06:13Z</time>
      </trkpt>
      <trkpt lat="46.67875" lon="-1.61428">
        <ele>46</ele>
        <time>2018-03-16T04:07:13Z</time>
      </trkpt>
      <trkpt lat="46.67871" lon="-1.61407">
        <ele>47</ele>
        <time>2018-03-16T04:08:13Z</time>
      </trkpt>
      <trkpt lat="46.67867" lon="-1.61387">
        <ele>47</ele>
        <time>2018-03-16T04:09:13Z</time>
      </trkpt>
      <trkpt lat="46.67864" lon="-1.61372">
        <ele>48</ele>
        <time>2018-03-16T04:10:13Z</time>
      </trkpt>
      <trkpt lat="46.67862" lon="-1.6136">
        <ele>48</ele>
        <time>2018-03-16T04:11:13Z</time>
      </trkpt>
      <trkpt lat="46.67859" lon="-1.61352">
        <ele>48</ele>
        <time>2018-03-16T04:12:13Z</time>
      </trkpt>
      <trkpt lat="46.67856" lon="-1.61344">
        <ele>48</ele>
        <time>2018-03-16T04:13:13Z</time>
      </trkpt>
      <trkpt lat="46.67856" lon="-1.61343">
        <ele>48</ele>
        <time>2018-03-16T04:14:13Z</time>
      </trkpt>
      <trkpt lat="46.67852" lon="-1.61335">
        <ele>48</ele>
        <time>2018-03-16T04:15:13Z</time>
      </trkpt>
      <trkpt lat="46.67849" lon="-1.61329">
        <ele>48</ele>
        <time>2018-03-16T04:16:13Z</time>
      </trkpt>
      <trkpt lat="46.67842" lon="-1.6132">
        <ele>49</ele>
        <time>2018-03-16T04:17:13Z</time>
      </trkpt>
      <trkpt lat="46.67826" lon="-1.61297">
        <ele>49</ele>
        <time>2018-03-16T04:18:13Z</time>
      </trkpt>
      <trkpt lat="46.67806" lon="-1.61264">
        <ele>49</ele>
        <time>2018-03-16T04:19:13Z</time>
      </trkpt>
      <trkpt lat="46.67787" lon="-1.61232">
        <ele>49</ele>
        <time>2018-03-16T04:20:13Z</time>
      </trkpt>
      <trkpt lat="46.67764" lon="-1.61193">
        <ele>49</ele>
        <time>2018-03-16T04:21:13Z</time>
      </trkpt>
      <trkpt lat="46.6775" lon="-1.61168">
        <ele>49</ele>
        <time>2018-03-16T04:22:13Z</time>
      </trkpt>
      <trkpt lat="46.67735" lon="-1.61143">
        <ele>49</ele>
        <time>2018-03-16T04:23:13Z</time>
      </trkpt>
      <trkpt lat="46.67726" lon="-1.6113">
        <ele>49</ele>
        <time>2018-03-16T04:24:13Z</time>
      </trkpt>
      <trkpt lat="46.67722" lon="-1.61125">
        <ele>49</ele>
        <time>2018-03-16T04:25:13Z</time>
      </trkpt>
      <trkpt lat="46.67718" lon="-1.61121">
        <ele>49</ele>
        <time>2018-03-16T04:26:13Z</time>
      </trkpt>
      <trkpt lat="46.67708" lon="-1.61111">
        <ele>49</ele>
        <time>2018-03-16T04:27:13Z</time>
      </trkpt>
      <trkpt lat="46.67698" lon="-1.61104">
        <ele>49</ele>
        <time>2018-03-16T04:28:13Z</time>
      </trkpt>
      <trkpt lat="46.67675" lon="-1.61093">
        <ele>49</ele>
        <time>2018-03-16T04:29:13Z</time>
      </trkpt>
      <trkpt lat="46.67667" lon="-1.6109">
        <ele>49</ele>
        <time>2018-03-16T04:30:13Z</time>
      </trkpt>
      <trkpt lat="46.67662" lon="-1.61087">
        <ele>49</ele>
        <time>2018-03-16T04:31:13Z</time>
      </trkpt>
      <trkpt lat="46.67656" lon="-1.61083">
        <ele>49</ele>
        <time>2018-03-16T04:32:13Z</time>
      </trkpt>
      <trkpt lat="46.67651" lon="-1.61077">
        <ele>48</ele>
        <time>2018-03-16T04:33:13Z</time>
      </trkpt>
      <trkpt lat="46.67644" lon="-1.61069">
        <ele>48</ele>
        <time>2018-03-16T04:34:13Z</time>
      </trkpt>
      <trkpt lat="46.67641" lon="-1.61066">
        <ele>48</ele>
        <time>2018-03-16T04:35:13Z</time>
      </trkpt>
      <trkpt lat="46.67639" lon="-1.61065">
        <ele>48</ele>
        <time>2018-03-16T04:36:13Z</time>
      </trkpt>
      <trkpt lat="46.67617" lon="-1.61049">
        <ele>47</ele>
        <time>2018-03-16T04:37:13Z</time>
      </trkpt>
      <trkpt lat="46.67617" lon="-1.61049">
        <ele>47</ele>
        <time>2018-03-16T04:38:13Z</time>
      </trkpt>
      <trkpt lat="46.67619" lon="-1.61044">
        <ele>47</ele>
        <time>2018-03-16T04:39:13Z</time>
      </trkpt>
      <trkpt lat="46.6762" lon="-1.61037">
        <ele>46</ele>
        <time>2018-03-16T04:40:13Z</time>
      </trkpt>
      <trkpt lat="46.67622" lon="-1.61026">
        <ele>46</ele>
        <time>2018-03-16T04:41:13Z</time>
      </trkpt>
      <trkpt lat="46.67623" lon="-1.6102">
        <ele>46</ele>
        <time>2018-03-16T04:42:13Z</time>
      </trkpt>
      <trkpt lat="46.67625" lon="-1.61015">
        <ele>46</ele>
        <time>2018-03-16T04:43:13Z</time>
      </trkpt>
      <trkpt lat="46.67625" lon="-1.61015">
        <ele>46</ele>
        <time>2018-03-16T04:44:13Z</time>
      </trkpt>
      <trkpt lat="46.6762" lon="-1.61002">
        <ele>46</ele>
        <time>2018-03-16T04:45:13Z</time>
      </trkpt>
      <trkpt lat="46.67615" lon="-1.60983">
        <ele>45</ele>
        <time>2018-03-16T04:46:13Z</time>
      </trkpt>
      <trkpt lat="46.67613" lon="-1.60967">
        <ele>44</ele>
        <time>2018-03-16T04:47:13Z</time>
      </trkpt>
      <trkpt lat="46.67612" lon="-1.60942">
        <ele>43</ele>
        <time>2018-03-16T04:48:13Z</time>
      </trkpt>
      <trkpt lat="46.67612" lon="-1.60935">
        <ele>43</ele>
        <time>2018-03-16T04:49:13Z</time>
      </trkpt>
      <trkpt lat="46.67611" lon="-1.60924">
        <ele>42</ele>
        <time>2018-03-16T04:50:13Z</time>
      </trkpt>
      <trkpt lat="46.676" lon="-1.60872">
        <ele>40</ele>
        <time>2018-03-16T04:51:13Z</time>
      </trkpt>
      <trkpt lat="46.67596" lon="-1.60853">
        <ele>40</ele>
        <time>2018-03-16T04:52:13Z</time>
      </trkpt>
      <trkpt lat="46.67589" lon="-1.60821">
        <ele>39</ele>
        <time>2018-03-16T04:53:13Z</time>
      </trkpt>
      <trkpt lat="46.67582" lon="-1.60794">
        <ele>38</ele>
        <time>2018-03-16T04:54:13Z</time>
      </trkpt>
      <trkpt lat="46.6758" lon="-1.6079">
        <ele>38</ele>
        <time>2018-03-16T04:55:13Z</time>
      </trkpt>
      <trkpt lat="46.67576" lon="-1.60781">
        <ele>38</ele>
        <time>2018-03-16T04:56:13Z</time>
      </trkpt>
      <trkpt lat="46.67573" lon="-1.60772">
        <ele>38</ele>
        <time>2018-03-16T04:57:13Z</time>
      </trkpt>
      <trkpt lat="46.67566" lon="-1.60758">
        <ele>38</ele>
        <time>2018-03-16T04:58:13Z</time>
      </trkpt>
      <trkpt lat="46.67562" lon="-1.60749">
        <ele>38</ele>
        <time>2018-03-16T04:59:13Z</time>
      </trkpt>
      <trkpt lat="46.67544" lon="-1.60717">
        <ele>40</ele>
        <time>2018-03-16T05:00:13Z</time>
      </trkpt>
      <trkpt lat="46.67515" lon="-1.60661">
        <ele>42</ele>
        <time>2018-03-16T05:01:13Z</time>
      </trkpt>
      <trkpt lat="46.67504" lon="-1.60636">
        <ele>42</ele>
        <time>2018-03-16T05:02:13Z</time>
      </trkpt>
      <trkpt lat="46.67496" lon="-1.60616">
        <ele>42</ele>
        <time>2018-03-16T05:03:13Z</time>
      </trkpt>
      <trkpt lat="46.6749" lon="-1.60597">
        <ele>42</ele>
        <time>2018-03-16T05:04:13Z</time>
      </trkpt>
      <trkpt lat="46.67486" lon="-1.60578">
        <ele>42</ele>
        <time>2018-03-16T05:05:13Z</time>
      </trkpt>
      <trkpt lat="46.67482" lon="-1.60558">
        <ele>42</ele>
        <time>2018-03-16T05:06:13Z</time>
      </trkpt>
      <trkpt lat="46.6748" lon="-1.60537">
        <ele>41</ele>
        <time>2018-03-16T05:07:13Z</time>
      </trkpt>
      <trkpt lat="46.6748" lon="-1.60513">
        <ele>41</ele>
        <time>2018-03-16T05:08:13Z</time>
      </trkpt>
      <trkpt lat="46.67482" lon="-1.60492">
        <ele>41</ele>
        <time>2018-03-16T05:09:13Z</time>
      </trkpt>
      <trkpt lat="46.67488" lon="-1.60472">
        <ele>40</ele>
        <time>2018-03-16T05:10:13Z</time>
      </trkpt>
      <trkpt lat="46.67498" lon="-1.60456">
        <ele>40</ele>
        <time>2018-03-16T05:11:13Z</time>
      </trkpt>
      <trkpt lat="46.67511" lon="-1.60441">
        <ele>40</ele>
        <time>2018-03-16T05:12:13Z</time>
      </trkpt>
      <trkpt lat="46.67529" lon="-1.60419">
        <ele>39</ele>
        <time>2018-03-16T05:13:13Z</time>
      </trkpt>
      <trkpt lat="46.6754" lon="-1.60401">
        <ele>40</ele>
        <time>2018-03-16T05:14:13Z</time>
      </trkpt>
      <trkpt lat="46.67543" lon="-1.60393">
        <ele>40</ele>
        <time>2018-03-16T05:15:13Z</time>
      </trkpt>
      <trkpt lat="46.67546" lon="-1.60385">
        <ele>40</ele>
        <time>2018-03-16T05:16:13Z</time>
      </trkpt>
      <trkpt lat="46.67551" lon="-1.60375">
        <ele>40</ele>
        <time>2018-03-16T05:17:13Z</time>
      </trkpt>
      <trkpt lat="46.67559" lon="-1.60346">
        <ele>40</ele>
        <time>2018-03-16T05:18:13Z</time>
      </trkpt>
      <trkpt lat="46.67565" lon="-1.60328">
        <ele>40</ele>
        <time>2018-03-16T05:19:13Z</time>
      </trkpt>
      <trkpt lat="46.6757" lon="-1.60304">
        <ele>41</ele>
        <time>2018-03-16T05:20:13Z</time>
      </trkpt>
      <trkpt lat="46.67572" lon="-1.60279">
        <ele>41</ele>
        <time>2018-03-16T05:21:13Z</time>
      </trkpt>
      <trkpt lat="46.67574" lon="-1.60207">
        <ele>42</ele>
        <time>2018-03-16T05:22:13Z</time>
      </trkpt>
      <trkpt lat="46.67574" lon="-1.60176">
        <ele>42</ele>
        <time>2018-03-16T05:23:13Z</time>
      </trkpt>
      <trkpt lat="46.67573" lon="-1.60151">
        <ele>42</ele>
        <time>2018-03-16T05:24:13Z</time>
      </trkpt>
      <trkpt lat="46.67569" lon="-1.60134">
        <ele>42</ele>
        <time>2018-03-16T05:25:13Z</time>
      </trkpt>
      <trkpt lat="46.67563" lon="-1.60119">
        <ele>42</ele>
        <time>2018-03-16T05:26:13Z</time>
      </trkpt>
      <trkpt lat="46.67549" lon="-1.60101">
        <ele>42</ele>
        <time>2018-03-16T05:27:13Z</time>
      </trkpt>
      <trkpt lat="46.67543" lon="-1.60095">
        <ele>42</ele>
        <time>2018-03-16T05:28:13Z</time>
      </trkpt>
      <trkpt lat="46.67537" lon="-1.60092">
        <ele>43</ele>
        <time>2018-03-16T05:29:13Z</time>
      </trkpt>
      <trkpt lat="46.6753" lon="-1.6009">
        <ele>43</ele>
        <time>2018-03-16T05:30:13Z</time>
      </trkpt>
      <trkpt lat="46.6752" lon="-1.60088">
        <ele>43</ele>
        <time>2018-03-16T05:31:13Z</time>
      </trkpt>
      <trkpt lat="46.67513" lon="-1.60087">
        <ele>44</ele>
        <time>2018-03-16T05:32:13Z</time>
      </trkpt>
      <trkpt lat="46.67498" lon="-1.60087">
        <ele>44</ele>
        <time>2018-03-16T05:33:13Z</time>
      </trkpt>
      <trkpt lat="46.67477" lon="-1.60088">
        <ele>45</ele>
        <time>2018-03-16T05:34:13Z</time>
      </trkpt>
      <trkpt lat="46.67472" lon="-1.60087">
        <ele>45</ele>
        <time>2018-03-16T05:35:13Z</time>
      </trkpt>
      <trkpt lat="46.67449" lon="-1.60086">
        <ele>46</ele>
        <time>2018-03-16T05:36:13Z</time>
      </trkpt>
      <trkpt lat="46.67428" lon="-1.60085">
        <ele>47</ele>
        <time>2018-03-16T05:37:13Z</time>
      </trkpt>
      <trkpt lat="46.67399" lon="-1.60084">
        <ele>48</ele>
        <time>2018-03-16T05:38:13Z</time>
      </trkpt>
      <trkpt lat="46.67369" lon="-1.60082">
        <ele>49</ele>
        <time>2018-03-16T05:39:13Z</time>
      </trkpt>
      <trkpt lat="46.67222" lon="-1.60079">
        <ele>47</ele>
        <time>2018-03-16T05:40:13Z</time>
      </trkpt>
      <trkpt lat="46.67197" lon="-1.60078">
        <ele>46</ele>
        <time>2018-03-16T05:41:13Z</time>
      </trkpt>
      <trkpt lat="46.6718" lon="-1.60076">
        <ele>46</ele>
        <time>2018-03-16T05:42:13Z</time>
      </trkpt>
      <trkpt lat="46.67172" lon="-1.60074">
        <ele>45</ele>
        <time>2018-03-16T05:43:13Z</time>
      </trkpt>
      <trkpt lat="46.67165" lon="-1.6007">
        <ele>45</ele>
        <time>2018-03-16T05:44:13Z</time>
      </trkpt>
      <trkpt lat="46.67151" lon="-1.60056">
        <ele>46</ele>
        <time>2018-03-16T05:45:13Z</time>
      </trkpt>
      <trkpt lat="46.67143" lon="-1.60041">
        <ele>46</ele>
        <time>2018-03-16T05:46:13Z</time>
      </trkpt>
      <trkpt lat="46.67141" lon="-1.60038">
        <ele>46</ele>
        <time>2018-03-16T05:47:13Z</time>
      </trkpt>
      <trkpt lat="46.67139" lon="-1.60033">
        <ele>46</ele>
        <time>2018-03-16T05:48:13Z</time>
      </trkpt>
      <trkpt lat="46.67132" lon="-1.60018">
        <ele>46</ele>
        <time>2018-03-16T05:49:13Z</time>
      </trkpt>
      <trkpt lat="46.6713" lon="-1.6001">
        <ele>47</ele>
        <time>2018-03-16T05:50:13Z</time>
      </trkpt>
      <trkpt lat="46.67125" lon="-1.59996">
        <ele>47</ele>
        <time>2018-03-16T05:51:13Z</time>
      </trkpt>
      <trkpt lat="46.67118" lon="-1.59973">
        <ele>47</ele>
        <time>2018-03-16T05:52:13Z</time>
      </trkpt>
      <trkpt lat="46.67109" lon="-1.59939">
        <ele>48</ele>
        <time>2018-03-16T05:53:13Z</time>
      </trkpt>
      <trkpt lat="46.67104" lon="-1.59907">
        <ele>48</ele>
        <time>2018-03-16T05:54:13Z</time>
      </trkpt>
      <trkpt lat="46.67102" lon="-1.59881">
        <ele>49</ele>
        <time>2018-03-16T05:55:13Z</time>
      </trkpt>
      <trkpt lat="46.67101" lon="-1.59869">
        <ele>49</ele>
        <time>2018-03-16T05:56:13Z</time>
      </trkpt>
      <trkpt lat="46.67099" lon="-1.59851">
        <ele>49</ele>
        <time>2018-03-16T05:57:13Z</time>
      </trkpt>
      <trkpt lat="46.67098" lon="-1.59845">
        <ele>49</ele>
        <time>2018-03-16T05:58:13Z</time>
      </trkpt>
      <trkpt lat="46.67097" lon="-1.59841">
        <ele>49</ele>
        <time>2018-03-16T05:59:13Z</time>
      </trkpt>
      <trkpt lat="46.67096" lon="-1.59838">
        <ele>49</ele>
        <time>2018-03-16T06:00:13Z</time>
      </trkpt>
      <trkpt lat="46.67095" lon="-1.59832">
        <ele>49</ele>
        <time>2018-03-16T06:01:13Z</time>
      </trkpt>
      <trkpt lat="46.67092" lon="-1.59823">
        <ele>49</ele>
        <time>2018-03-16T06:02:13Z</time>
      </trkpt>
      <trkpt lat="46.67089" lon="-1.59814">
        <ele>49</ele>
        <time>2018-03-16T06:03:13Z</time>
      </trkpt>
      <trkpt lat="46.6708" lon="-1.59794">
        <ele>49</ele>
        <time>2018-03-16T06:04:13Z</time>
      </trkpt>
      <trkpt lat="46.67066" lon="-1.59762">
        <ele>49</ele>
        <time>2018-03-16T06:05:13Z</time>
      </trkpt>
      <trkpt lat="46.67049" lon="-1.5972">
        <ele>48</ele>
        <time>2018-03-16T06:06:13Z</time>
      </trkpt>
      <trkpt lat="46.67035" lon="-1.59686">
        <ele>47</ele>
        <time>2018-03-16T06:07:13Z</time>
      </trkpt>
      <trkpt lat="46.6703" lon="-1.59671">
        <ele>47</ele>
        <time>2018-03-16T06:08:13Z</time>
      </trkpt>
      <trkpt lat="46.67027" lon="-1.59665">
        <ele>47</ele>
        <time>2018-03-16T06:09:13Z</time>
      </trkpt>
      <trkpt lat="46.67007" lon="-1.59623">
        <ele>47</ele>
        <time>2018-03-16T06:10:13Z</time>
      </trkpt>
      <trkpt lat="46.66981" lon="-1.59577">
        <ele>47</ele>
        <time>2018-03-16T06:11:13Z</time>
      </trkpt>
      <trkpt lat="46.66948" lon="-1.59534">
        <ele>48</ele>
        <time>2018-03-16T06:12:13Z</time>
      </trkpt>
      <trkpt lat="46.66918" lon="-1.59502">
        <ele>48</ele>
        <time>2018-03-16T06:13:13Z</time>
      </trkpt>
      <trkpt lat="46.66884" lon="-1.59471">
        <ele>47</ele>
        <time>2018-03-16T06:14:13Z</time>
      </trkpt>
      <trkpt lat="46.66853" lon="-1.59443">
        <ele>47</ele>
        <time>2018-03-16T06:15:13Z</time>
      </trkpt>
      <trkpt lat="46.66811" lon="-1.59403">
        <ele>47</ele>
        <time>2018-03-16T06:16:13Z</time>
      </trkpt>
      <trkpt lat="46.66779" lon="-1.59371">
        <ele>47</ele>
        <time>2018-03-16T06:17:13Z</time>
      </trkpt>
      <trkpt lat="46.6675" lon="-1.59336">
        <ele>48</ele>
        <time>2018-03-16T06:18:13Z</time>
      </trkpt>
      <trkpt lat="46.66714" lon="-1.59286">
        <ele>49</ele>
        <time>2018-03-16T06:19:13Z</time>
      </trkpt>
      <trkpt lat="46.66681" lon="-1.59244">
        <ele>49</ele>
        <time>2018-03-16T06:20:13Z</time>
      </trkpt>
      <trkpt lat="46.66657" lon="-1.59217">
        <ele>48</ele>
        <time>2018-03-16T06:21:13Z</time>
      </trkpt>
      <trkpt lat="46.66635" lon="-1.59195">
        <ele>48</ele>
        <time>2018-03-16T06:22:13Z</time>
      </trkpt>
      <trkpt lat="46.66624" lon="-1.59182">
        <ele>48</ele>
        <time>2018-03-16T06:23:13Z</time>
      </trkpt>
      <trkpt lat="46.66601" lon="-1.59155">
        <ele>48</ele>
        <time>2018-03-16T06:24:13Z</time>
      </trkpt>
      <trkpt lat="46.66586" lon="-1.59136">
        <ele>48</ele>
        <time>2018-03-16T06:25:13Z</time>
      </trkpt>
      <trkpt lat="46.66578" lon="-1.59124">
        <ele>49</ele>
        <time>2018-03-16T06:26:13Z</time>
      </trkpt>
      <trkpt lat="46.66558" lon="-1.59094">
        <ele>49</ele>
        <time>2018-03-16T06:27:13Z</time>
      </trkpt>
      <trkpt lat="46.66533" lon="-1.59053">
        <ele>50</ele>
        <time>2018-03-16T06:28:13Z</time>
      </trkpt>
      <trkpt lat="46.66519" lon="-1.59031">
        <ele>51</ele>
        <time>2018-03-16T06:29:13Z</time>
      </trkpt>
      <trkpt lat="46.66503" lon="-1.59011">
        <ele>51</ele>
        <time>2018-03-16T06:30:13Z</time>
      </trkpt>
      <trkpt lat="46.66482" lon="-1.58988">
        <ele>51</ele>
        <time>2018-03-16T06:31:13Z</time>
      </trkpt>
      <trkpt lat="46.66458" lon="-1.58957">
        <ele>51</ele>
        <time>2018-03-16T06:32:13Z</time>
      </trkpt>
      <trkpt lat="46.66442" lon="-1.58931">
        <ele>51</ele>
        <time>2018-03-16T06:33:13Z</time>
      </trkpt>
      <trkpt lat="46.66426" lon="-1.58902">
        <ele>50</ele>
        <time>2018-03-16T06:34:13Z</time>
      </trkpt>
      <trkpt lat="46.66416" lon="-1.58881">
        <ele>50</ele>
        <time>2018-03-16T06:35:13Z</time>
      </trkpt>
      <trkpt lat="46.6641" lon="-1.58857">
        <ele>49</ele>
        <time>2018-03-16T06:36:13Z</time>
      </trkpt>
      <trkpt lat="46.66404" lon="-1.58824">
        <ele>47</ele>
        <time>2018-03-16T06:37:13Z</time>
      </trkpt>
      <trkpt lat="46.66401" lon="-1.58789">
        <ele>46</ele>
        <time>2018-03-16T06:38:13Z</time>
      </trkpt>
      <trkpt lat="46.66398" lon="-1.58771">
        <ele>45</ele>
        <time>2018-03-16T06:39:13Z</time>
      </trkpt>
      <trkpt lat="46.66394" lon="-1.58752">
        <ele>44</ele>
        <time>2018-03-16T06:40:13Z</time>
      </trkpt>
      <trkpt lat="46.6639" lon="-1.58734">
        <ele>43</ele>
        <time>2018-03-16T06:41:13Z</time>
      </trkpt>
      <trkpt lat="46.66384" lon="-1.58714">
        <ele>42</ele>
        <time>2018-03-16T06:42:13Z</time>
      </trkpt>
      <trkpt lat="46.66375" lon="-1.58688">
        <ele>42</ele>
        <time>2018-03-16T06:43:13Z</time>
      </trkpt>
      <trkpt lat="46.66368" lon="-1.58675">
        <ele>41</ele>
        <time>2018-03-16T06:44:13Z</time>
      </trkpt>
      <trkpt lat="46.66364" lon="-1.58663">
        <ele>41</ele>
        <time>2018-03-16T06:45:13Z</time>
      </trkpt>
      <trkpt lat="46.66359" lon="-1.58651">
        <ele>41</ele>
        <time>2018-03-16T06:46:13Z</time>
      </trkpt>
      <trkpt lat="46.6635" lon="-1.58637">
        <ele>40</ele>
        <time>2018-03-16T06:47:13Z</time>
      </trkpt>
      <trkpt lat="46.66333" lon="-1.58611">
        <ele>40</ele>
        <time>2018-03-16T06:48:13Z</time>
      </trkpt>
      <trkpt lat="46.66319" lon="-1.58594">
        <ele>40</ele>
        <time>2018-03-16T06:49:13Z</time>
      </trkpt>
      <trkpt lat="46.66305" lon="-1.58578">
        <ele>40</ele>
        <time>2018-03-16T06:50:13Z</time>
      </trkpt>
      <trkpt lat="46.66287" lon="-1.58556">
        <ele>41</ele>
        <time>2018-03-16T06:51:13Z</time>
      </trkpt>
      <trkpt lat="46.66265" lon="-1.58528">
        <ele>43</ele>
        <time>2018-03-16T06:52:13Z</time>
      </trkpt>
      <trkpt lat="46.6625" lon="-1.58507">
        <ele>45</ele>
        <time>2018-03-16T06:53:13Z</time>
      </trkpt>
      <trkpt lat="46.66237" lon="-1.58479">
        <ele>45</ele>
        <time>2018-03-16T06:54:13Z</time>
      </trkpt>
      <trkpt lat="46.66223" lon="-1.58443">
        <ele>44</ele>
        <time>2018-03-16T06:55:13Z</time>
      </trkpt>
      <trkpt lat="46.6621" lon="-1.58396">
        <ele>43</ele>
        <time>2018-03-16T06:56:13Z</time>
      </trkpt>
      <trkpt lat="46.66195" lon="-1.58337">
        <ele>44</ele>
        <time>2018-03-16T06:57:13Z</time>
      </trkpt>
      <trkpt lat="46.66186" lon="-1.58298">
        <ele>44</ele>
        <time>2018-03-16T06:58:13Z</time>
      </trkpt>
      <trkpt lat="46.66182" lon="-1.5828">
        <ele>44</ele>
        <time>2018-03-16T06:59:13Z</time>
      </trkpt>
      <trkpt lat="46.66176" lon="-1.58258">
        <ele>44</ele>
        <time>2018-03-16T07:00:13Z</time>
      </trkpt>
      <trkpt lat="46.66168" lon="-1.58226">
        <ele>45</ele>
        <time>2018-03-16T07:01:13Z</time>
      </trkpt>
      <trkpt lat="46.66157" lon="-1.58204">
        <ele>46</ele>
        <time>2018-03-16T07:02:13Z</time>
      </trkpt>
      <trkpt lat="46.66142" lon="-1.58177">
        <ele>47</ele>
        <time>2018-03-16T07:03:13Z</time>
      </trkpt>
      <trkpt lat="46.66126" lon="-1.58151">
        <ele>48</ele>
        <time>2018-03-16T07:04:13Z</time>
      </trkpt>
      <trkpt lat="46.6611" lon="-1.58121">
        <ele>48</ele>
        <time>2018-03-16T07:05:13Z</time>
      </trkpt>
      <trkpt lat="46.66098" lon="-1.58095">
        <ele>48</ele>
        <time>2018-03-16T07:06:13Z</time>
      </trkpt>
      <trkpt lat="46.66088" lon="-1.58073">
        <ele>48</ele>
        <time>2018-03-16T07:07:13Z</time>
      </trkpt>
      <trkpt lat="46.66073" lon="-1.5803">
        <ele>46</ele>
        <time>2018-03-16T07:08:13Z</time>
      </trkpt>
      <trkpt lat="46.66065" lon="-1.5801">
        <ele>45</ele>
        <time>2018-03-16T07:09:13Z</time>
      </trkpt>
      <trkpt lat="46.6605" lon="-1.5797">
        <ele>44</ele>
        <time>2018-03-16T07:10:13Z</time>
      </trkpt>
      <trkpt lat="46.66041" lon="-1.57941">
        <ele>44</ele>
        <time>2018-03-16T07:11:13Z</time>
      </trkpt>
      <trkpt lat="46.66034" lon="-1.57909">
        <ele>44</ele>
        <time>2018-03-16T07:12:13Z</time>
      </trkpt>
      <trkpt lat="46.66026" lon="-1.57878">
        <ele>43</ele>
        <time>2018-03-16T07:13:13Z</time>
      </trkpt>
      <trkpt lat="46.66018" lon="-1.57846">
        <ele>42</ele>
        <time>2018-03-16T07:14:13Z</time>
      </trkpt>
      <trkpt lat="46.66008" lon="-1.57815">
        <ele>41</ele>
        <time>2018-03-16T07:15:13Z</time>
      </trkpt>
      <trkpt lat="46.65994" lon="-1.57771">
        <ele>40</ele>
        <time>2018-03-16T07:16:13Z</time>
      </trkpt>
      <trkpt lat="46.65987" lon="-1.57748">
        <ele>40</ele>
        <time>2018-03-16T07:17:13Z</time>
      </trkpt>
      <trkpt lat="46.65982" lon="-1.57729">
        <ele>40</ele>
        <time>2018-03-16T07:18:13Z</time>
      </trkpt>
      <trkpt lat="46.6598" lon="-1.57715">
        <ele>40</ele>
        <time>2018-03-16T07:19:13Z</time>
      </trkpt>
      <trkpt lat="46.65979" lon="-1.57708">
        <ele>40</ele>
        <time>2018-03-16T07:20:13Z</time>
      </trkpt>
      <trkpt lat="46.65978" lon="-1.57701">
        <ele>40</ele>
        <time>2018-03-16T07:21:13Z</time>
      </trkpt>
      <trkpt lat="46.65977" lon="-1.57677">
        <ele>40</ele>
        <time>2018-03-16T07:22:13Z</time>
      </trkpt>
      <trkpt lat="46.65976" lon="-1.57669">
        <ele>40</ele>
        <time>2018-03-16T07:23:13Z</time>
      </trkpt>
      <trkpt lat="46.65971" lon="-1.57609">
        <ele>40</ele>
        <time>2018-03-16T07:24:13Z</time>
      </trkpt>
      <trkpt lat="46.65965" lon="-1.5757">
        <ele>40</ele>
        <time>2018-03-16T07:25:13Z</time>
      </trkpt>
      <trkpt lat="46.65958" lon="-1.57543">
        <ele>41</ele>
        <time>2018-03-16T07:26:13Z</time>
      </trkpt>
      <trkpt lat="46.65942" lon="-1.57492">
        <ele>42</ele>
        <time>2018-03-16T07:27:13Z</time>
      </trkpt>
      <trkpt lat="46.6593" lon="-1.57451">
        <ele>43</ele>
        <time>2018-03-16T07:28:13Z</time>
      </trkpt>
      <trkpt lat="46.65919" lon="-1.57414">
        <ele>43</ele>
        <time>2018-03-16T07:29:13Z</time>
      </trkpt>
      <trkpt lat="46.65919" lon="-1.57414">
        <ele>43</ele>
        <time>2018-03-16T07:30:13Z</time>
      </trkpt>
      <trkpt lat="46.65897" lon="-1.57341">
        <ele>46</ele>
        <time>2018-03-16T07:31:13Z</time>
      </trkpt>
      <trkpt lat="46.65891" lon="-1.57315">
        <ele>47</ele>
        <time>2018-03-16T07:32:13Z</time>
      </trkpt>
      <trkpt lat="46.65884" lon="-1.57291">
        <ele>47</ele>
        <time>2018-03-16T07:33:13Z</time>
      </trkpt>
      <trkpt lat="46.65881" lon="-1.57275">
        <ele>48</ele>
        <time>2018-03-16T07:34:13Z</time>
      </trkpt>
      <trkpt lat="46.65879" lon="-1.57268">
        <ele>48</ele>
        <time>2018-03-16T07:35:13Z</time>
      </trkpt>
      <trkpt lat="46.65878" lon="-1.57263">
        <ele>48</ele>
        <time>2018-03-16T07:36:13Z</time>
      </trkpt>
      <trkpt lat="46.65873" lon="-1.57236">
        <ele>49</ele>
        <time>2018-03-16T07:37:13Z</time>
      </trkpt>
      <trkpt lat="46.65872" lon="-1.57231">
        <ele>49</ele>
        <time>2018-03-16T07:38:13Z</time>
      </trkpt>
      <trkpt lat="46.65868" lon="-1.57215">
        <ele>49</ele>
        <time>2018-03-16T07:39:13Z</time>
      </trkpt>
      <trkpt lat="46.65868" lon="-1.57215">
        <ele>49</ele>
        <time>2018-03-16T07:40:13Z</time>
      </trkpt>
      <trkpt lat="46.65858" lon="-1.57219">
        <ele>49</ele>
        <time>2018-03-16T07:41:13Z</time>
      </trkpt>
      <trkpt lat="46.65841" lon="-1.57227">
        <ele>49</ele>
        <time>2018-03-16T07:42:13Z</time>
      </trkpt>
      <trkpt lat="46.65839" lon="-1.57228">
        <ele>49</ele>
        <time>2018-03-16T07:43:13Z</time>
      </trkpt>
      <trkpt lat="46.65827" lon="-1.57233">
        <ele>49</ele>
        <time>2018-03-16T07:44:13Z</time>
      </trkpt>
      <trkpt lat="46.6582" lon="-1.57234">
        <ele>48</ele>
        <time>2018-03-16T07:45:13Z</time>
      </trkpt>
      <trkpt lat="46.65814" lon="-1.57234">
        <ele>48</ele>
        <time>2018-03-16T07:46:13Z</time>
      </trkpt>
      <trkpt lat="46.65801" lon="-1.57232">
        <ele>48</ele>
        <time>2018-03-16T07:47:13Z</time>
      </trkpt>
      <trkpt lat="46.65782" lon="-1.57226">
        <ele>48</ele>
        <time>2018-03-16T07:48:13Z</time>
      </trkpt>
      <trkpt lat="46.65771" lon="-1.57223">
        <ele>48</ele>
        <time>2018-03-16T07:49:13Z</time>
      </trkpt>
      <trkpt lat="46.65762" lon="-1.5722">
        <ele>48</ele>
        <time>2018-03-16T07:50:13Z</time>
      </trkpt>
      <trkpt lat="46.65746" lon="-1.57217">
        <ele>48</ele>
        <time>2018-03-16T07:51:13Z</time>
      </trkpt>
      <trkpt lat="46.65739" lon="-1.57216">
        <ele>48</ele>
        <time>2018-03-16T07:52:13Z</time>
      </trkpt>
      <trkpt lat="46.65726" lon="-1.57218">
        <ele>48</ele>
        <time>2018-03-16T07:53:13Z</time>
      </trkpt>
      <trkpt lat="46.65721" lon="-1.57221">
        <ele>48</ele>
        <time>2018-03-16T07:54:13Z</time>
      </trkpt>
      <trkpt lat="46.65716" lon="-1.57225">
        <ele>48</ele>
        <time>2018-03-16T07:55:13Z</time>
      </trkpt>
      <trkpt lat="46.65707" lon="-1.57234">
        <ele>47</ele>
        <time>2018-03-16T07:56:13Z</time>
      </trkpt>
      <trkpt lat="46.65693" lon="-1.5725">
        <ele>46</ele>
        <time>2018-03-16T07:57:13Z</time>
      </trkpt>
      <trkpt lat="46.65681" lon="-1.57264">
        <ele>46</ele>
        <time>2018-03-16T07:58:13Z</time>
      </trkpt>
      <trkpt lat="46.65669" lon="-1.57279">
        <ele>45</ele>
        <time>2018-03-16T07:59:13Z</time>
      </trkpt>
      <trkpt lat="46.65654" lon="-1.57295">
        <ele>44</ele>
        <time>2018-03-16T08:00:13Z</time>
      </trkpt>
      <trkpt lat="46.65642" lon="-1.57306">
        <ele>44</ele>
        <time>2018-03-16T08:01:13Z</time>
      </trkpt>
      <trkpt lat="46.65632" lon="-1.57314">
        <ele>44</ele>
        <time>2018-03-16T08:02:13Z</time>
      </trkpt>
      <trkpt lat="46.65619" lon="-1.57319">
        <ele>44</ele>
        <time>2018-03-16T08:03:13Z</time>
      </trkpt>
      <trkpt lat="46.65605" lon="-1.57323">
        <ele>44</ele>
        <time>2018-03-16T08:04:13Z</time>
      </trkpt>
      <trkpt lat="46.65595" lon="-1.57324">
        <ele>44</ele>
        <time>2018-03-16T08:05:13Z</time>
      </trkpt>
      <trkpt lat="46.6559" lon="-1.57325">
        <ele>44</ele>
        <time>2018-03-16T08:06:13Z</time>
      </trkpt>
      <trkpt lat="46.6558" lon="-1.57324">
        <ele>44</ele>
        <time>2018-03-16T08:07:13Z</time>
      </trkpt>
      <trkpt lat="46.65568" lon="-1.57321">
        <ele>44</ele>
        <time>2018-03-16T08:08:13Z</time>
      </trkpt>
      <trkpt lat="46.65557" lon="-1.57317">
        <ele>44</ele>
        <time>2018-03-16T08:09:13Z</time>
      </trkpt>
      <trkpt lat="46.65543" lon="-1.5731">
        <ele>44</ele>
        <time>2018-03-16T08:10:13Z</time>
      </trkpt>
      <trkpt lat="46.65528" lon="-1.57303">
        <ele>44</ele>
        <time>2018-03-16T08:11:13Z</time>
      </trkpt>
      <trkpt lat="46.6552" lon="-1.57298">
        <ele>44</ele>
        <time>2018-03-16T08:12:13Z</time>
      </trkpt>
      <trkpt lat="46.65509" lon="-1.57291">
        <ele>45</ele>
        <time>2018-03-16T08:13:13Z</time>
      </trkpt>
      <trkpt lat="46.65498" lon="-1.57286">
        <ele>45</ele>
        <time>2018-03-16T08:14:13Z</time>
      </trkpt>
      <trkpt lat="46.65487" lon="-1.5728">
        <ele>45</ele>
        <time>2018-03-16T08:15:13Z</time>
      </trkpt>
      <trkpt lat="46.65475" lon="-1.57276">
        <ele>46</ele>
        <time>2018-03-16T08:16:13Z</time>
      </trkpt>
      <trkpt lat="46.65465" lon="-1.57274">
        <ele>46</ele>
        <time>2018-03-16T08:17:13Z</time>
      </trkpt>
      <trkpt lat="46.65446" lon="-1.57273">
        <ele>47</ele>
        <time>2018-03-16T08:18:13Z</time>
      </trkpt>
      <trkpt lat="46.65435" lon="-1.57272">
        <ele>48</ele>
        <time>2018-03-16T08:19:13Z</time>
      </trkpt>
      <trkpt lat="46.65414" lon="-1.5727">
        <ele>49</ele>
        <time>2018-03-16T08:20:13Z</time>
      </trkpt>
      <trkpt lat="46.65397" lon="-1.57269">
        <ele>50</ele>
        <time>2018-03-16T08:21:13Z</time>
      </trkpt>
      <trkpt lat="46.65374" lon="-1.57267">
        <ele>51</ele>
        <time>2018-03-16T08:22:13Z</time>
      </trkpt>
      <trkpt lat="46.65356" lon="-1.57262">
        <ele>51</ele>
        <time>2018-03-16T08:23:13Z</time>
      </trkpt>
      <trkpt lat="46.6534" lon="-1.57258">
        <ele>52</ele>
        <time>2018-03-16T08:24:13Z</time>
      </trkpt>
      <trkpt lat="46.65317" lon="-1.57252">
        <ele>52</ele>
        <time>2018-03-16T08:25:13Z</time>
      </trkpt>
      <trkpt lat="46.65303" lon="-1.57249">
        <ele>53</ele>
        <time>2018-03-16T08:26:13Z</time>
      </trkpt>
      <trkpt lat="46.65288" lon="-1.57246">
        <ele>53</ele>
        <time>2018-03-16T08:27:13Z</time>
      </trkpt>
      <trkpt lat="46.6527" lon="-1.57243">
        <ele>53</ele>
        <time>2018-03-16T08:28:13Z</time>
      </trkpt>
      <trkpt lat="46.65255" lon="-1.57243">
        <ele>54</ele>
        <time>2018-03-16T08:29:13Z</time>
      </trkpt>
      <trkpt lat="46.65241" lon="-1.57244">
        <ele>54</ele>
        <time>2018-03-16T08:30:13Z</time>
      </trkpt>
      <trkpt lat="46.65226" lon="-1.57243">
        <ele>55</ele>
        <time>2018-03-16T08:31:13Z</time>
      </trkpt>
      <trkpt lat="46.65208" lon="-1.5724">
        <ele>56</ele>
        <time>2018-03-16T08:32:13Z</time>
      </trkpt>
      <trkpt lat="46.6519" lon="-1.57235">
        <ele>57</ele>
        <time>2018-03-16T08:33:13Z</time>
      </trkpt>
      <trkpt lat="46.6517" lon="-1.5723">
        <ele>58</ele>
        <time>2018-03-16T08:34:13Z</time>
      </trkpt>
      <trkpt lat="46.65158" lon="-1.57224">
        <ele>58</ele>
        <time>2018-03-16T08:35:13Z</time>
      </trkpt>
      <trkpt lat="46.65149" lon="-1.57219">
        <ele>59</ele>
        <time>2018-03-16T08:36:13Z</time>
      </trkpt>
      <trkpt lat="46.65136" lon="-1.57213">
        <ele>59</ele>
        <time>2018-03-16T08:37:13Z</time>
      </trkpt>
      <trkpt lat="46.65125" lon="-1.57207">
        <ele>59</ele>
        <time>2018-03-16T08:38:13Z</time>
      </trkpt>
      <trkpt lat="46.65115" lon="-1.57203">
        <ele>60</ele>
        <time>2018-03-16T08:39:13Z</time>
      </trkpt>
      <trkpt lat="46.65105" lon="-1.572">
        <ele>60</ele>
        <time>2018-03-16T08:40:13Z</time>
      </trkpt>
      <trkpt lat="46.65098" lon="-1.572">
        <ele>60</ele>
        <time>2018-03-16T08:41:13Z</time>
      </trkpt>
      <trkpt lat="46.65084" lon="-1.57202">
        <ele>61</ele>
        <time>2018-03-16T08:42:13Z</time>
      </trkpt>
      <trkpt lat="46.65068" lon="-1.57206">
        <ele>61</ele>
        <time>2018-03-16T08:43:13Z</time>
      </trkpt>
      <trkpt lat="46.65037" lon="-1.57215">
        <ele>60</ele>
        <time>2018-03-16T08:44:13Z</time>
      </trkpt>
      <trkpt lat="46.65015" lon="-1.5722">
        <ele>60</ele>
        <time>2018-03-16T08:45:13Z</time>
      </trkpt>
      <trkpt lat="46.64989" lon="-1.57228">
        <ele>61</ele>
        <time>2018-03-16T08:46:13Z</time>
      </trkpt>
      <trkpt lat="46.64973" lon="-1.57232">
        <ele>61</ele>
        <time>2018-03-16T08:47:13Z</time>
      </trkpt>
      <trkpt lat="46.64962" lon="-1.57236">
        <ele>61</ele>
        <time>2018-03-16T08:48:13Z</time>
      </trkpt>
      <trkpt lat="46.64955" lon="-1.57239">
        <ele>62</ele>
        <time>2018-03-16T08:49:13Z</time>
      </trkpt>
      <trkpt lat="46.64948" lon="-1.57242">
        <ele>62</ele>
        <time>2018-03-16T08:50:13Z</time>
      </trkpt>
      <trkpt lat="46.64943" lon="-1.57244">
        <ele>62</ele>
        <time>2018-03-16T08:51:13Z</time>
      </trkpt>
      <trkpt lat="46.64921" lon="-1.57257">
        <ele>63</ele>
        <time>2018-03-16T08:52:13Z</time>
      </trkpt>
      <trkpt lat="46.64892" lon="-1.57273">
        <ele>63</ele>
        <time>2018-03-16T08:53:13Z</time>
      </trkpt>
      <trkpt lat="46.64868" lon="-1.57285">
        <ele>63</ele>
        <time>2018-03-16T08:54:13Z</time>
      </trkpt>
      <trkpt lat="46.64838" lon="-1.57301">
        <ele>63</ele>
        <time>2018-03-16T08:55:13Z</time>
      </trkpt>
      <trkpt lat="46.64809" lon="-1.57316">
        <ele>63</ele>
        <time>2018-03-16T08:56:13Z</time>
      </trkpt>
      <trkpt lat="46.64782" lon="-1.5733">
        <ele>64</ele>
        <time>2018-03-16T08:57:13Z</time>
      </trkpt>
      <trkpt lat="46.64764" lon="-1.57343">
        <ele>64</ele>
        <time>2018-03-16T08:58:13Z</time>
      </trkpt>
      <trkpt lat="46.6475" lon="-1.57354">
        <ele>64</ele>
        <time>2018-03-16T08:59:13Z</time>
      </trkpt>
      <trkpt lat="46.64733" lon="-1.57369">
        <ele>64</ele>
        <time>2018-03-16T09:00:13Z</time>
      </trkpt>
      <trkpt lat="46.64712" lon="-1.57386">
        <ele>64</ele>
        <time>2018-03-16T09:01:13Z</time>
      </trkpt>
      <trkpt lat="46.64693" lon="-1.57401">
        <ele>65</ele>
        <time>2018-03-16T09:02:13Z</time>
      </trkpt>
      <trkpt lat="46.64674" lon="-1.57418">
        <ele>65</ele>
        <time>2018-03-16T09:03:13Z</time>
      </trkpt>
      <trkpt lat="46.64658" lon="-1.57434">
        <ele>65</ele>
        <time>2018-03-16T09:04:13Z</time>
      </trkpt>
      <trkpt lat="46.64638" lon="-1.57461">
        <ele>66</ele>
        <time>2018-03-16T09:05:13Z</time>
      </trkpt>
      <trkpt lat="46.64611" lon="-1.57488">
        <ele>65</ele>
        <time>2018-03-16T09:06:13Z</time>
      </trkpt>
      <trkpt lat="46.64582" lon="-1.57514">
        <ele>65</ele>
        <time>2018-03-16T09:07:13Z</time>
      </trkpt>
      <trkpt lat="46.64551" lon="-1.57534">
        <ele>66</ele>
        <time>2018-03-16T09:08:13Z</time>
      </trkpt>
      <trkpt lat="46.64501" lon="-1.57568">
        <ele>66</ele>
        <time>2018-03-16T09:09:13Z</time>
      </trkpt>
      <trkpt lat="46.64465" lon="-1.57592">
        <ele>66</ele>
        <time>2018-03-16T09:10:13Z</time>
      </trkpt>
      <trkpt lat="46.64427" lon="-1.57614">
        <ele>66</ele>
        <time>2018-03-16T09:11:13Z</time>
      </trkpt>
      <trkpt lat="46.64397" lon="-1.57625">
        <ele>66</ele>
        <time>2018-03-16T09:12:13Z</time>
      </trkpt>
      <trkpt lat="46.6436" lon="-1.57641">
        <ele>66</ele>
        <time>2018-03-16T09:13:13Z</time>
      </trkpt>
      <trkpt lat="46.6433" lon="-1.57657">
        <ele>66</ele>
        <time>2018-03-16T09:14:13Z</time>
      </trkpt>
      <trkpt lat="46.64311" lon="-1.57673">
        <ele>66</ele>
        <time>2018-03-16T09:15:13Z</time>
      </trkpt>
      <trkpt lat="46.643" lon="-1.57685">
        <ele>66</ele>
        <time>2018-03-16T09:16:13Z</time>
      </trkpt>
      <trkpt lat="46.64291" lon="-1.57694">
        <ele>66</ele>
        <time>2018-03-16T09:17:13Z</time>
      </trkpt>
      <trkpt lat="46.64291" lon="-1.57694">
        <ele>66</ele>
        <time>2018-03-16T09:18:13Z</time>
      </trkpt>
      <trkpt lat="46.64263" lon="-1.57739">
        <ele>66</ele>
        <time>2018-03-16T09:19:13Z</time>
      </trkpt>
      <trkpt lat="46.64244" lon="-1.57768">
        <ele>66</ele>
        <time>2018-03-16T09:20:13Z</time>
      </trkpt>
      <trkpt lat="46.64219" lon="-1.5781">
        <ele>65</ele>
        <time>2018-03-16T09:21:13Z</time>
      </trkpt>
      <trkpt lat="46.64189" lon="-1.5786">
        <ele>64</ele>
        <time>2018-03-16T09:22:13Z</time>
      </trkpt>
      <trkpt lat="46.6418" lon="-1.57873">
        <ele>64</ele>
        <time>2018-03-16T09:23:13Z</time>
      </trkpt>
      <trkpt lat="46.64175" lon="-1.57879">
        <ele>64</ele>
        <time>2018-03-16T09:24:13Z</time>
      </trkpt>
      <trkpt lat="46.64147" lon="-1.57922">
        <ele>63</ele>
        <time>2018-03-16T09:25:13Z</time>
      </trkpt>
      <trkpt lat="46.64137" lon="-1.57936">
        <ele>62</ele>
        <time>2018-03-16T09:26:13Z</time>
      </trkpt>
      <trkpt lat="46.64125" lon="-1.57951">
        <ele>62</ele>
        <time>2018-03-16T09:27:13Z</time>
      </trkpt>
      <trkpt lat="46.64115" lon="-1.57958">
        <ele>61</ele>
        <time>2018-03-16T09:28:13Z</time>
      </trkpt>
      <trkpt lat="46.64094" lon="-1.57976">
        <ele>61</ele>
        <time>2018-03-16T09:29:13Z</time>
      </trkpt>
      <trkpt lat="46.64092" lon="-1.57977">
        <ele>61</ele>
        <time>2018-03-16T09:30:13Z</time>
      </trkpt>
      <trkpt lat="46.64062" lon="-1.58002">
        <ele>61</ele>
        <time>2018-03-16T09:31:13Z</time>
      </trkpt>
      <trkpt lat="46.64036" lon="-1.58025">
        <ele>61</ele>
        <time>2018-03-16T09:32:13Z</time>
      </trkpt>
      <trkpt lat="46.6403" lon="-1.5803">
        <ele>61</ele>
        <time>2018-03-16T09:33:13Z</time>
      </trkpt>
      <trkpt lat="46.64011" lon="-1.58039">
        <ele>62</ele>
        <time>2018-03-16T09:34:13Z</time>
      </trkpt>
      <trkpt lat="46.63997" lon="-1.58044">
        <ele>62</ele>
        <time>2018-03-16T09:35:13Z</time>
      </trkpt>
      <trkpt lat="46.63985" lon="-1.58048">
        <ele>62</ele>
        <time>2018-03-16T09:36:13Z</time>
      </trkpt>
      <trkpt lat="46.63974" lon="-1.58049">
        <ele>63</ele>
        <time>2018-03-16T09:37:13Z</time>
      </trkpt>
      <trkpt lat="46.63959" lon="-1.58046">
        <ele>63</ele>
        <time>2018-03-16T09:38:13Z</time>
      </trkpt>
      <trkpt lat="46.6395" lon="-1.58043">
        <ele>63</ele>
        <time>2018-03-16T09:39:13Z</time>
      </trkpt>
      <trkpt lat="46.63871" lon="-1.58004">
        <ele>64</ele>
        <time>2018-03-16T09:40:13Z</time>
      </trkpt>
      <trkpt lat="46.63841" lon="-1.57989">
        <ele>63</ele>
        <time>2018-03-16T09:41:13Z</time>
      </trkpt>
      <trkpt lat="46.6383" lon="-1.57985">
        <ele>63</ele>
        <time>2018-03-16T09:42:13Z</time>
      </trkpt>
      <trkpt lat="46.6382" lon="-1.57983">
        <ele>63</ele>
        <time>2018-03-16T09:43:13Z</time>
      </trkpt>
      <trkpt lat="46.63808" lon="-1.57981">
        <ele>64</ele>
        <time>2018-03-16T09:44:13Z</time>
      </trkpt>
      <trkpt lat="46.63729" lon="-1.57979">
        <ele>65</ele>
        <time>2018-03-16T09:45:13Z</time>
      </trkpt>
      <trkpt lat="46.63729" lon="-1.57979">
        <ele>65</ele>
        <time>2018-03-16T09:46:13Z</time>
      </trkpt>
      <trkpt lat="46.63682" lon="-1.58325">
        <ele>59</ele>
        <time>2018-03-16T09:47:13Z</time>
      </trkpt>
      <trkpt lat="46.63681" lon="-1.58334">
        <ele>58</ele>
        <time>2018-03-16T09:48:13Z</time>
      </trkpt>
      <trkpt lat="46.63674" lon="-1.58383">
        <ele>56</ele>
        <time>2018-03-16T09:49:13Z</time>
      </trkpt>
      <trkpt lat="46.63667" lon="-1.58437">
        <ele>54</ele>
        <time>2018-03-16T09:50:13Z</time>
      </trkpt>
      <trkpt lat="46.6366" lon="-1.58486">
        <ele>53</ele>
        <time>2018-03-16T09:51:13Z</time>
      </trkpt>
      <trkpt lat="46.63657" lon="-1.58507">
        <ele>52</ele>
        <time>2018-03-16T09:52:13Z</time>
      </trkpt>
      <trkpt lat="46.63652" lon="-1.5855">
        <ele>53</ele>
        <time>2018-03-16T09:53:13Z</time>
      </trkpt>
      <trkpt lat="46.63644" lon="-1.58604">
        <ele>53</ele>
        <time>2018-03-16T09:54:13Z</time>
      </trkpt>
      <trkpt lat="46.63638" lon="-1.5865">
        <ele>54</ele>
        <time>2018-03-16T09:55:13Z</time>
      </trkpt>
      <trkpt lat="46.63632" lon="-1.58696">
        <ele>55</ele>
        <time>2018-03-16T09:56:13Z</time>
      </trkpt>
      <trkpt lat="46.63624" lon="-1.58751">
        <ele>57</ele>
        <time>2018-03-16T09:57:13Z</time>
      </trkpt>
      <trkpt lat="46.63614" lon="-1.58819">
        <ele>58</ele>
        <time>2018-03-16T09:58:13Z</time>
      </trkpt>
      <trkpt lat="46.63604" lon="-1.58888">
        <ele>59</ele>
        <time>2018-03-16T09:59:13Z</time>
      </trkpt>
      <trkpt lat="46.63595" lon="-1.58941">
        <ele>60</ele>
        <time>2018-03-16T10:00:13Z</time>
      </trkpt>
      <trkpt lat="46.63589" lon="-1.58969">
        <ele>60</ele>
        <time>2018-03-16T10:01:13Z</time>
      </trkpt>
      <trkpt lat="46.63577" lon="-1.59019">
        <ele>61</ele>
        <time>2018-03-16T10:02:13Z</time>
      </trkpt>
      <trkpt lat="46.63561" lon="-1.59079">
        <ele>62</ele>
        <time>2018-03-16T10:03:13Z</time>
      </trkpt>
      <trkpt lat="46.63542" lon="-1.59144">
        <ele>60</ele>
        <time>2018-03-16T10:04:13Z</time>
      </trkpt>
      <trkpt lat="46.63525" lon="-1.59195">
        <ele>60</ele>
        <time>2018-03-16T10:05:13Z</time>
      </trkpt>
      <trkpt lat="46.63503" lon="-1.59254">
        <ele>61</ele>
        <time>2018-03-16T10:06:13Z</time>
      </trkpt>
      <trkpt lat="46.63484" lon="-1.59304">
        <ele>62</ele>
        <time>2018-03-16T10:07:13Z</time>
      </trkpt>
      <trkpt lat="46.63457" lon="-1.59377">
        <ele>63</ele>
        <time>2018-03-16T10:08:13Z</time>
      </trkpt>
      <trkpt lat="46.63453" lon="-1.59389">
        <ele>63</ele>
        <time>2018-03-16T10:09:13Z</time>
      </trkpt>
      <trkpt lat="46.63439" lon="-1.59427">
        <ele>63</ele>
        <time>2018-03-16T10:10:13Z</time>
      </trkpt>
      <trkpt lat="46.63425" lon="-1.59465">
        <ele>64</ele>
        <time>2018-03-16T10:11:13Z</time>
      </trkpt>
      <trkpt lat="46.63408" lon="-1.59509">
        <ele>64</ele>
        <time>2018-03-16T10:12:13Z</time>
      </trkpt>
      <trkpt lat="46.63398" lon="-1.59536">
        <ele>64</ele>
        <time>2018-03-16T10:13:13Z</time>
      </trkpt>
      <trkpt lat="46.63397" lon="-1.59543">
        <ele>65</ele>
        <time>2018-03-16T10:14:13Z</time>
      </trkpt>
      <trkpt lat="46.63388" lon="-1.59567">
        <ele>65</ele>
        <time>2018-03-16T10:15:13Z</time>
      </trkpt>
      <trkpt lat="46.63373" lon="-1.5961">
        <ele>65</ele>
        <time>2018-03-16T10:16:13Z</time>
      </trkpt>
      <trkpt lat="46.63363" lon="-1.59641">
        <ele>65</ele>
        <time>2018-03-16T10:17:13Z</time>
      </trkpt>
      <trkpt lat="46.63355" lon="-1.59666">
        <ele>66</ele>
        <time>2018-03-16T10:18:13Z</time>
      </trkpt>
      <trkpt lat="46.63348" lon="-1.59689">
        <ele>66</ele>
        <time>2018-03-16T10:19:13Z</time>
      </trkpt>
      <trkpt lat="46.6334" lon="-1.59723">
        <ele>65</ele>
        <time>2018-03-16T10:20:13Z</time>
      </trkpt>
      <trkpt lat="46.63336" lon="-1.59746">
        <ele>65</ele>
        <time>2018-03-16T10:21:13Z</time>
      </trkpt>
      <trkpt lat="46.63336" lon="-1.59747">
        <ele>65</ele>
        <time>2018-03-16T10:22:13Z</time>
      </trkpt>
      <trkpt lat="46.63337" lon="-1.59748">
        <ele>65</ele>
        <time>2018-03-16T10:23:13Z</time>
      </trkpt>
      <trkpt lat="46.63337" lon="-1.59749">
        <ele>65</ele>
        <time>2018-03-16T10:24:13Z</time>
      </trkpt>
      <trkpt lat="46.63338" lon="-1.5975">
        <ele>65</ele>
        <time>2018-03-16T10:25:13Z</time>
      </trkpt>
      <trkpt lat="46.63338" lon="-1.59751">
        <ele>65</ele>
        <time>2018-03-16T10:26:13Z</time>
      </trkpt>
      <trkpt lat="46.63338" lon="-1.59752">
        <ele>65</ele>
        <time>2018-03-16T10:27:13Z</time>
      </trkpt>
      <trkpt lat="46.63338" lon="-1.59753">
        <ele>65</ele>
        <time>2018-03-16T10:28:13Z</time>
      </trkpt>
      <trkpt lat="46.63339" lon="-1.59754">
        <ele>65</ele>
        <time>2018-03-16T10:29:13Z</time>
      </trkpt>
      <trkpt lat="46.63339" lon="-1.59755">
        <ele>65</ele>
        <time>2018-03-16T10:30:13Z</time>
      </trkpt>
      <trkpt lat="46.63339" lon="-1.59756">
        <ele>65</ele>
        <time>2018-03-16T10:31:13Z</time>
      </trkpt>
      <trkpt lat="46.63339" lon="-1.59757">
        <ele>65</ele>
        <time>2018-03-16T10:32:13Z</time>
      </trkpt>
      <trkpt lat="46.63339" lon="-1.59758">
        <ele>65</ele>
        <time>2018-03-16T10:33:13Z</time>
      </trkpt>
      <trkpt lat="46.63339" lon="-1.59759">
        <ele>65</ele>
        <time>2018-03-16T10:34:13Z</time>
      </trkpt>
      <trkpt lat="46.63339" lon="-1.5976">
        <ele>65</ele>
        <time>2018-03-16T10:35:13Z</time>
      </trkpt>
      <trkpt lat="46.63339" lon="-1.59761">
        <ele>65</ele>
        <time>2018-03-16T10:36:13Z</time>
      </trkpt>
      <trkpt lat="46.63339" lon="-1.59762">
        <ele>65</ele>
        <time>2018-03-16T10:37:13Z</time>
      </trkpt>
      <trkpt lat="46.63339" lon="-1.59763">
        <ele>65</ele>
        <time>2018-03-16T10:38:13Z</time>
      </trkpt>
      <trkpt lat="46.63339" lon="-1.59764">
        <ele>65</ele>
        <time>2018-03-16T10:39:13Z</time>
      </trkpt>
      <trkpt lat="46.63339" lon="-1.59765">
        <ele>65</ele>
        <time>2018-03-16T10:40:13Z</time>
      </trkpt>
      <trkpt lat="46.63338" lon="-1.59765">
        <ele>65</ele>
        <time>2018-03-16T10:41:13Z</time>
      </trkpt>
      <trkpt lat="46.63338" lon="-1.59766">
        <ele>65</ele>
        <time>2018-03-16T10:42:13Z</time>
      </trkpt>
      <trkpt lat="46.63338" lon="-1.59767">
        <ele>65</ele>
        <time>2018-03-16T10:43:13Z</time>
      </trkpt>
      <trkpt lat="46.63337" lon="-1.59768">
        <ele>65</ele>
        <time>2018-03-16T10:44:13Z</time>
      </trkpt>
      <trkpt lat="46.63337" lon="-1.59769">
        <ele>65</ele>
        <time>2018-03-16T10:45:13Z</time>
      </trkpt>
      <trkpt lat="46.63336" lon="-1.59769">
        <ele>65</ele>
        <time>2018-03-16T10:46:13Z</time>
      </trkpt>
      <trkpt lat="46.63336" lon="-1.5977">
        <ele>66</ele>
        <time>2018-03-16T10:47:13Z</time>
      </trkpt>
      <trkpt lat="46.63335" lon="-1.59771">
        <ele>66</ele>
        <time>2018-03-16T10:48:13Z</time>
      </trkpt>
      <trkpt lat="46.63334" lon="-1.59771">
        <ele>66</ele>
        <time>2018-03-16T10:49:13Z</time>
      </trkpt>
      <trkpt lat="46.63334" lon="-1.59772">
        <ele>66</ele>
        <time>2018-03-16T10:50:13Z</time>
      </trkpt>
      <trkpt lat="46.63333" lon="-1.59772">
        <ele>66</ele>
        <time>2018-03-16T10:51:13Z</time>
      </trkpt>
      <trkpt lat="46.63333" lon="-1.59773">
        <ele>66</ele>
        <time>2018-03-16T10:52:13Z</time>
      </trkpt>
      <trkpt lat="46.63332" lon="-1.59773">
        <ele>66</ele>
        <time>2018-03-16T10:53:13Z</time>
      </trkpt>
      <trkpt lat="46.63331" lon="-1.59773">
        <ele>66</ele>
        <time>2018-03-16T10:54:13Z</time>
      </trkpt>
      <trkpt lat="46.6333" lon="-1.59773">
        <ele>66</ele>
        <time>2018-03-16T10:55:13Z</time>
      </trkpt>
      <trkpt lat="46.6332" lon="-1.59812">
        <ele>66</ele>
        <time>2018-03-16T10:56:13Z</time>
      </trkpt>
      <trkpt lat="46.63309" lon="-1.59868">
        <ele>66</ele>
        <time>2018-03-16T10:57:13Z</time>
      </trkpt>
      <trkpt lat="46.63301" lon="-1.59905">
        <ele>66</ele>
        <time>2018-03-16T10:58:13Z</time>
      </trkpt>
      <trkpt lat="46.63291" lon="-1.59946">
        <ele>64</ele>
        <time>2018-03-16T10:59:13Z</time>
      </trkpt>
      <trkpt lat="46.63286" lon="-1.59967">
        <ele>64</ele>
        <time>2018-03-16T11:00:13Z</time>
      </trkpt>
      <trkpt lat="46.63281" lon="-1.59978">
        <ele>64</ele>
        <time>2018-03-16T11:01:13Z</time>
      </trkpt>
      <trkpt lat="46.63274" lon="-1.6001">
        <ele>63</ele>
        <time>2018-03-16T11:02:13Z</time>
      </trkpt>
      <trkpt lat="46.63262" lon="-1.60067">
        <ele>62</ele>
        <time>2018-03-16T11:03:13Z</time>
      </trkpt>
      <trkpt lat="46.63253" lon="-1.60113">
        <ele>61</ele>
        <time>2018-03-16T11:04:13Z</time>
      </trkpt>
      <trkpt lat="46.63243" lon="-1.60155">
        <ele>60</ele>
        <time>2018-03-16T11:05:13Z</time>
      </trkpt>
      <trkpt lat="46.63239" lon="-1.60172">
        <ele>60</ele>
        <time>2018-03-16T11:06:13Z</time>
      </trkpt>
      <trkpt lat="46.63233" lon="-1.60203">
        <ele>59</ele>
        <time>2018-03-16T11:07:13Z</time>
      </trkpt>
      <trkpt lat="46.63224" lon="-1.60246">
        <ele>59</ele>
        <time>2018-03-16T11:08:13Z</time>
      </trkpt>
      <trkpt lat="46.63211" lon="-1.60302">
        <ele>58</ele>
        <time>2018-03-16T11:09:13Z</time>
      </trkpt>
      <trkpt lat="46.63203" lon="-1.60341">
        <ele>59</ele>
        <time>2018-03-16T11:10:13Z</time>
      </trkpt>
      <trkpt lat="46.63189" lon="-1.60405">
        <ele>60</ele>
        <time>2018-03-16T11:11:13Z</time>
      </trkpt>
      <trkpt lat="46.63179" lon="-1.60448">
        <ele>60</ele>
        <time>2018-03-16T11:12:13Z</time>
      </trkpt>
      <trkpt lat="46.6317" lon="-1.60494">
        <ele>60</ele>
        <time>2018-03-16T11:13:13Z</time>
      </trkpt>
      <trkpt lat="46.63169" lon="-1.60501">
        <ele>60</ele>
        <time>2018-03-16T11:14:13Z</time>
      </trkpt>
      <trkpt lat="46.63157" lon="-1.60554">
        <ele>59</ele>
        <time>2018-03-16T11:15:13Z</time>
      </trkpt>
      <trkpt lat="46.63145" lon="-1.60612">
        <ele>59</ele>
        <time>2018-03-16T11:16:13Z</time>
      </trkpt>
      <trkpt lat="46.63134" lon="-1.60662">
        <ele>59</ele>
        <time>2018-03-16T11:17:13Z</time>
      </trkpt>
      <trkpt lat="46.6312" lon="-1.60726">
        <ele>59</ele>
        <time>2018-03-16T11:18:13Z</time>
      </trkpt>
      <trkpt lat="46.63106" lon="-1.6079">
        <ele>59</ele>
        <time>2018-03-16T11:19:13Z</time>
      </trkpt>
      <trkpt lat="46.63094" lon="-1.60848">
        <ele>59</ele>
        <time>2018-03-16T11:20:13Z</time>
      </trkpt>
      <trkpt lat="46.63079" lon="-1.60914">
        <ele>57</ele>
        <time>2018-03-16T11:21:13Z</time>
      </trkpt>
      <trkpt lat="46.6307" lon="-1.60958">
        <ele>56</ele>
        <time>2018-03-16T11:22:13Z</time>
      </trkpt>
      <trkpt lat="46.6306" lon="-1.61006">
        <ele>55</ele>
        <time>2018-03-16T11:23:13Z</time>
      </trkpt>
      <trkpt lat="46.63054" lon="-1.6103">
        <ele>55</ele>
        <time>2018-03-16T11:24:13Z</time>
      </trkpt>
      <trkpt lat="46.63049" lon="-1.61054">
        <ele>55</ele>
        <time>2018-03-16T11:25:13Z</time>
      </trkpt>
      <trkpt lat="46.63043" lon="-1.61081">
        <ele>55</ele>
        <time>2018-03-16T11:26:13Z</time>
      </trkpt>
      <trkpt lat="46.63035" lon="-1.61117">
        <ele>56</ele>
        <time>2018-03-16T11:27:13Z</time>
      </trkpt>
      <trkpt lat="46.63022" lon="-1.61178">
        <ele>56</ele>
        <time>2018-03-16T11:28:13Z</time>
      </trkpt>
      <trkpt lat="46.63014" lon="-1.6121">
        <ele>56</ele>
        <time>2018-03-16T11:29:13Z</time>
      </trkpt>
      <trkpt lat="46.63012" lon="-1.61218">
        <ele>56</ele>
        <time>2018-03-16T11:30:13Z</time>
      </trkpt>
      <trkpt lat="46.63009" lon="-1.61237">
        <ele>56</ele>
        <time>2018-03-16T11:31:13Z</time>
      </trkpt>
      <trkpt lat="46.63004" lon="-1.61261">
        <ele>56</ele>
        <time>2018-03-16T11:32:13Z</time>
      </trkpt>
      <trkpt lat="46.62993" lon="-1.61314">
        <ele>56</ele>
        <time>2018-03-16T11:33:13Z</time>
      </trkpt>
      <trkpt lat="46.62983" lon="-1.61359">
        <ele>58</ele>
        <time>2018-03-16T11:34:13Z</time>
      </trkpt>
      <trkpt lat="46.62973" lon="-1.61408">
        <ele>60</ele>
        <time>2018-03-16T11:35:13Z</time>
      </trkpt>
      <trkpt lat="46.62961" lon="-1.6146">
        <ele>61</ele>
        <time>2018-03-16T11:36:13Z</time>
      </trkpt>
      <trkpt lat="46.62959" lon="-1.61472">
        <ele>61</ele>
        <time>2018-03-16T11:37:13Z</time>
      </trkpt>
      <trkpt lat="46.62951" lon="-1.61506">
        <ele>62</ele>
        <time>2018-03-16T11:38:13Z</time>
      </trkpt>
      <trkpt lat="46.62939" lon="-1.6156">
        <ele>62</ele>
        <time>2018-03-16T11:39:13Z</time>
      </trkpt>
      <trkpt lat="46.62926" lon="-1.61621">
        <ele>62</ele>
        <time>2018-03-16T11:40:13Z</time>
      </trkpt>
      <trkpt lat="46.62913" lon="-1.61679">
        <ele>63</ele>
        <time>2018-03-16T11:41:13Z</time>
      </trkpt>
      <trkpt lat="46.62898" lon="-1.61747">
        <ele>62</ele>
        <time>2018-03-16T11:42:13Z</time>
      </trkpt>
      <trkpt lat="46.62882" lon="-1.61824">
        <ele>62</ele>
        <time>2018-03-16T11:43:13Z</time>
      </trkpt>
      <trkpt lat="46.62871" lon="-1.61869">
        <ele>61</ele>
        <time>2018-03-16T11:44:13Z</time>
      </trkpt>
      <trkpt lat="46.62857" lon="-1.61933">
        <ele>61</ele>
        <time>2018-03-16T11:45:13Z</time>
      </trkpt>
      <trkpt lat="46.62856" lon="-1.6194">
        <ele>60</ele>
        <time>2018-03-16T11:46:13Z</time>
      </trkpt>
      <trkpt lat="46.62853" lon="-1.61958">
        <ele>60</ele>
        <time>2018-03-16T11:47:13Z</time>
      </trkpt>
      <trkpt lat="46.6285" lon="-1.61971">
        <ele>60</ele>
        <time>2018-03-16T11:48:13Z</time>
      </trkpt>
      <trkpt lat="46.62834" lon="-1.62045">
        <ele>59</ele>
        <time>2018-03-16T11:49:13Z</time>
      </trkpt>
      <trkpt lat="46.62811" lon="-1.62156">
        <ele>59</ele>
        <time>2018-03-16T11:50:13Z</time>
      </trkpt>
      <trkpt lat="46.62788" lon="-1.62259">
        <ele>59</ele>
        <time>2018-03-16T11:51:13Z</time>
      </trkpt>
      <trkpt lat="46.62764" lon="-1.62371">
        <ele>59</ele>
        <time>2018-03-16T11:52:13Z</time>
      </trkpt>
      <trkpt lat="46.62752" lon="-1.62427">
        <ele>59</ele>
        <time>2018-03-16T11:53:13Z</time>
      </trkpt>
      <trkpt lat="46.62737" lon="-1.62499">
        <ele>58</ele>
        <time>2018-03-16T11:54:13Z</time>
      </trkpt>
      <trkpt lat="46.62733" lon="-1.62516">
        <ele>58</ele>
        <time>2018-03-16T11:55:13Z</time>
      </trkpt>
      <trkpt lat="46.62731" lon="-1.62525">
        <ele>58</ele>
        <time>2018-03-16T11:56:13Z</time>
      </trkpt>
      <trkpt lat="46.62711" lon="-1.62617">
        <ele>57</ele>
        <time>2018-03-16T11:57:13Z</time>
      </trkpt>
      <trkpt lat="46.62693" lon="-1.62703">
        <ele>57</ele>
        <time>2018-03-16T11:58:13Z</time>
      </trkpt>
      <trkpt lat="46.62672" lon="-1.62803">
        <ele>56</ele>
        <time>2018-03-16T11:59:13Z</time>
      </trkpt>
      <trkpt lat="46.62654" lon="-1.62887">
        <ele>56</ele>
        <time>2018-03-16T12:00:13Z</time>
      </trkpt>
      <trkpt lat="46.62639" lon="-1.62958">
        <ele>55</ele>
        <time>2018-03-16T12:01:13Z</time>
      </trkpt>
      <trkpt lat="46.62628" lon="-1.63008">
        <ele>54</ele>
        <time>2018-03-16T12:02:13Z</time>
      </trkpt>
      <trkpt lat="46.62618" lon="-1.63055">
        <ele>55</ele>
        <time>2018-03-16T12:03:13Z</time>
      </trkpt>
      <trkpt lat="46.62608" lon="-1.631">
        <ele>55</ele>
        <time>2018-03-16T12:04:13Z</time>
      </trkpt>
      <trkpt lat="46.62593" lon="-1.63171">
        <ele>55</ele>
        <time>2018-03-16T12:05:13Z</time>
      </trkpt>
      <trkpt lat="46.62581" lon="-1.63222">
        <ele>54</ele>
        <time>2018-03-16T12:06:13Z</time>
      </trkpt>
      <trkpt lat="46.62554" lon="-1.63347">
        <ele>51</ele>
        <time>2018-03-16T12:07:13Z</time>
      </trkpt>
      <trkpt lat="46.62541" lon="-1.6341">
        <ele>50</ele>
        <time>2018-03-16T12:08:13Z</time>
      </trkpt>
      <trkpt lat="46.62519" lon="-1.63508">
        <ele>46</ele>
        <time>2018-03-16T12:09:13Z</time>
      </trkpt>
      <trkpt lat="46.62502" lon="-1.63587">
        <ele>46</ele>
        <time>2018-03-16T12:10:13Z</time>
      </trkpt>
      <trkpt lat="46.62487" lon="-1.63659">
        <ele>44</ele>
        <time>2018-03-16T12:11:13Z</time>
      </trkpt>
      <trkpt lat="46.62484" lon="-1.6367">
        <ele>44</ele>
        <time>2018-03-16T12:12:13Z</time>
      </trkpt>
      <trkpt lat="46.6248" lon="-1.63691">
        <ele>43</ele>
        <time>2018-03-16T12:13:13Z</time>
      </trkpt>
      <trkpt lat="46.62467" lon="-1.63752">
        <ele>41</ele>
        <time>2018-03-16T12:14:13Z</time>
      </trkpt>
      <trkpt lat="46.62453" lon="-1.63816">
        <ele>40</ele>
        <time>2018-03-16T12:15:13Z</time>
      </trkpt>
      <trkpt lat="46.62438" lon="-1.63887">
        <ele>40</ele>
        <time>2018-03-16T12:16:13Z</time>
      </trkpt>
      <trkpt lat="46.62421" lon="-1.6396">
        <ele>39</ele>
        <time>2018-03-16T12:17:13Z</time>
      </trkpt>
      <trkpt lat="46.62408" lon="-1.64024">
        <ele>38</ele>
        <time>2018-03-16T12:18:13Z</time>
      </trkpt>
      <trkpt lat="46.62398" lon="-1.64065">
        <ele>39</ele>
        <time>2018-03-16T12:19:13Z</time>
      </trkpt>
      <trkpt lat="46.62388" lon="-1.64115">
        <ele>40</ele>
        <time>2018-03-16T12:20:13Z</time>
      </trkpt>
      <trkpt lat="46.62377" lon="-1.64162">
        <ele>40</ele>
        <time>2018-03-16T12:21:13Z</time>
      </trkpt>
      <trkpt lat="46.62365" lon="-1.64217">
        <ele>42</ele>
        <time>2018-03-16T12:22:13Z</time>
      </trkpt>
      <trkpt lat="46.62349" lon="-1.64297">
        <ele>44</ele>
        <time>2018-03-16T12:23:13Z</time>
      </trkpt>
      <trkpt lat="46.62329" lon="-1.64388">
        <ele>44</ele>
        <time>2018-03-16T12:24:13Z</time>
      </trkpt>
      <trkpt lat="46.62313" lon="-1.64464">
        <ele>43</ele>
        <time>2018-03-16T12:25:13Z</time>
      </trkpt>
      <trkpt lat="46.623" lon="-1.64523">
        <ele>42</ele>
        <time>2018-03-16T12:26:13Z</time>
      </trkpt>
      <trkpt lat="46.62272" lon="-1.64651">
        <ele>41</ele>
        <time>2018-03-16T12:27:13Z</time>
      </trkpt>
      <trkpt lat="46.62258" lon="-1.64717">
        <ele>40</ele>
        <time>2018-03-16T12:28:13Z</time>
      </trkpt>
      <trkpt lat="46.62247" lon="-1.64765">
        <ele>39</ele>
        <time>2018-03-16T12:29:13Z</time>
      </trkpt>
      <trkpt lat="46.62247" lon="-1.64767">
        <ele>39</ele>
        <time>2018-03-16T12:30:13Z</time>
      </trkpt>
      <trkpt lat="46.62245" lon="-1.64801">
        <ele>38</ele>
        <time>2018-03-16T12:31:13Z</time>
      </trkpt>
      <trkpt lat="46.62245" lon="-1.64802">
        <ele>38</ele>
        <time>2018-03-16T12:32:13Z</time>
      </trkpt>
      <trkpt lat="46.62246" lon="-1.64803">
        <ele>38</ele>
        <time>2018-03-16T12:33:13Z</time>
      </trkpt>
      <trkpt lat="46.62247" lon="-1.64804">
        <ele>38</ele>
        <time>2018-03-16T12:34:13Z</time>
      </trkpt>
      <trkpt lat="46.62247" lon="-1.64805">
        <ele>38</ele>
        <time>2018-03-16T12:35:13Z</time>
      </trkpt>
      <trkpt lat="46.62248" lon="-1.64806">
        <ele>38</ele>
        <time>2018-03-16T12:36:13Z</time>
      </trkpt>
      <trkpt lat="46.62248" lon="-1.64807">
        <ele>38</ele>
        <time>2018-03-16T12:37:13Z</time>
      </trkpt>
      <trkpt lat="46.62248" lon="-1.64808">
        <ele>38</ele>
        <time>2018-03-16T12:38:13Z</time>
      </trkpt>
      <trkpt lat="46.62249" lon="-1.64809">
        <ele>38</ele>
        <time>2018-03-16T12:39:13Z</time>
      </trkpt>
      <trkpt lat="46.62249" lon="-1.6481">
        <ele>38</ele>
        <time>2018-03-16T12:40:13Z</time>
      </trkpt>
      <trkpt lat="46.6225" lon="-1.64812">
        <ele>38</ele>
        <time>2018-03-16T12:41:13Z</time>
      </trkpt>
      <trkpt lat="46.6225" lon="-1.64813">
        <ele>38</ele>
        <time>2018-03-16T12:42:13Z</time>
      </trkpt>
      <trkpt lat="46.6225" lon="-1.64814">
        <ele>38</ele>
        <time>2018-03-16T12:43:13Z</time>
      </trkpt>
      <trkpt lat="46.6225" lon="-1.64816">
        <ele>38</ele>
        <time>2018-03-16T12:44:13Z</time>
      </trkpt>
      <trkpt lat="46.6225" lon="-1.64817">
        <ele>38</ele>
        <time>2018-03-16T12:45:13Z</time>
      </trkpt>
      <trkpt lat="46.6225" lon="-1.64818">
        <ele>38</ele>
        <time>2018-03-16T12:46:13Z</time>
      </trkpt>
      <trkpt lat="46.6225" lon="-1.6482">
        <ele>37</ele>
        <time>2018-03-16T12:47:13Z</time>
      </trkpt>
      <trkpt lat="46.6225" lon="-1.64822">
        <ele>37</ele>
        <time>2018-03-16T12:48:13Z</time>
      </trkpt>
      <trkpt lat="46.6225" lon="-1.64823">
        <ele>37</ele>
        <time>2018-03-16T12:49:13Z</time>
      </trkpt>
      <trkpt lat="46.62249" lon="-1.64824">
        <ele>37</ele>
        <time>2018-03-16T12:50:13Z</time>
      </trkpt>
      <trkpt lat="46.62249" lon="-1.64826">
        <ele>37</ele>
        <time>2018-03-16T12:51:13Z</time>
      </trkpt>
      <trkpt lat="46.62249" lon="-1.64827">
        <ele>37</ele>
        <time>2018-03-16T12:52:13Z</time>
      </trkpt>
      <trkpt lat="46.62248" lon="-1.64828">
        <ele>37</ele>
        <time>2018-03-16T12:53:13Z</time>
      </trkpt>
      <trkpt lat="46.62248" lon="-1.64829">
        <ele>37</ele>
        <time>2018-03-16T12:54:13Z</time>
      </trkpt>
      <trkpt lat="46.62247" lon="-1.64831">
        <ele>37</ele>
        <time>2018-03-16T12:55:13Z</time>
      </trkpt>
      <trkpt lat="46.62247" lon="-1.64832">
        <ele>37</ele>
        <time>2018-03-16T12:56:13Z</time>
      </trkpt>
      <trkpt lat="46.62246" lon="-1.64833">
        <ele>37</ele>
        <time>2018-03-16T12:57:13Z</time>
      </trkpt>
      <trkpt lat="46.62245" lon="-1.64834">
        <ele>37</ele>
        <time>2018-03-16T12:58:13Z</time>
      </trkpt>
      <trkpt lat="46.62244" lon="-1.64834">
        <ele>37</ele>
        <time>2018-03-16T12:59:13Z</time>
      </trkpt>
      <trkpt lat="46.62244" lon="-1.64835">
        <ele>37</ele>
        <time>2018-03-16T13:00:13Z</time>
      </trkpt>
      <trkpt lat="46.62243" lon="-1.64836">
        <ele>37</ele>
        <time>2018-03-16T13:01:13Z</time>
      </trkpt>
      <trkpt lat="46.62242" lon="-1.64837">
        <ele>37</ele>
        <time>2018-03-16T13:02:13Z</time>
      </trkpt>
      <trkpt lat="46.62241" lon="-1.64837">
        <ele>37</ele>
        <time>2018-03-16T13:03:13Z</time>
      </trkpt>
      <trkpt lat="46.6224" lon="-1.64838">
        <ele>37</ele>
        <time>2018-03-16T13:04:13Z</time>
      </trkpt>
      <trkpt lat="46.62239" lon="-1.64838">
        <ele>37</ele>
        <time>2018-03-16T13:05:13Z</time>
      </trkpt>
      <trkpt lat="46.62238" lon="-1.64839">
        <ele>37</ele>
        <time>2018-03-16T13:06:13Z</time>
      </trkpt>
      <trkpt lat="46.62237" lon="-1.64839">
        <ele>37</ele>
        <time>2018-03-16T13:07:13Z</time>
      </trkpt>
      <trkpt lat="46.62236" lon="-1.64839">
        <ele>37</ele>
        <time>2018-03-16T13:08:13Z</time>
      </trkpt>
      <trkpt lat="46.62232" lon="-1.64848">
        <ele>37</ele>
        <time>2018-03-16T13:09:13Z</time>
      </trkpt>
      <trkpt lat="46.62224" lon="-1.64866">
        <ele>37</ele>
        <time>2018-03-16T13:10:13Z</time>
      </trkpt>
      <trkpt lat="46.62217" lon="-1.64899">
        <ele>36</ele>
        <time>2018-03-16T13:11:13Z</time>
      </trkpt>
      <trkpt lat="46.62207" lon="-1.64943">
        <ele>35</ele>
        <time>2018-03-16T13:12:13Z</time>
      </trkpt>
      <trkpt lat="46.62198" lon="-1.64987">
        <ele>34</ele>
        <time>2018-03-16T13:13:13Z</time>
      </trkpt>
      <trkpt lat="46.62142" lon="-1.6524">
        <ele>33</ele>
        <time>2018-03-16T13:14:13Z</time>
      </trkpt>
      <trkpt lat="46.62142" lon="-1.65245">
        <ele>33</ele>
        <time>2018-03-16T13:15:13Z</time>
      </trkpt>
      <trkpt lat="46.62137" lon="-1.65267">
        <ele>32</ele>
        <time>2018-03-16T13:16:13Z</time>
      </trkpt>
      <trkpt lat="46.62128" lon="-1.65308">
        <ele>31</ele>
        <time>2018-03-16T13:17:13Z</time>
      </trkpt>
      <trkpt lat="46.62115" lon="-1.6537">
        <ele>30</ele>
        <time>2018-03-16T13:18:13Z</time>
      </trkpt>
      <trkpt lat="46.62114" lon="-1.65378">
        <ele>29</ele>
        <time>2018-03-16T13:19:13Z</time>
      </trkpt>
      <trkpt lat="46.6211" lon="-1.65396">
        <ele>29</ele>
        <time>2018-03-16T13:20:13Z</time>
      </trkpt>
      <trkpt lat="46.62098" lon="-1.65448">
        <ele>27</ele>
        <time>2018-03-16T13:21:13Z</time>
      </trkpt>
      <trkpt lat="46.62089" lon="-1.65488">
        <ele>25</ele>
        <time>2018-03-16T13:22:13Z</time>
      </trkpt>
      <trkpt lat="46.62085" lon="-1.65505">
        <ele>25</ele>
        <time>2018-03-16T13:23:13Z</time>
      </trkpt>
      <trkpt lat="46.6208" lon="-1.65529">
        <ele>25</ele>
        <time>2018-03-16T13:24:13Z</time>
      </trkpt>
      <trkpt lat="46.62078" lon="-1.65536">
        <ele>25</ele>
        <time>2018-03-16T13:25:13Z</time>
      </trkpt>
      <trkpt lat="46.62076" lon="-1.65547">
        <ele>26</ele>
        <time>2018-03-16T13:26:13Z</time>
      </trkpt>
      <trkpt lat="46.62075" lon="-1.65549">
        <ele>26</ele>
        <time>2018-03-16T13:27:13Z</time>
      </trkpt>
      <trkpt lat="46.62068" lon="-1.65584">
        <ele>26</ele>
        <time>2018-03-16T13:28:13Z</time>
      </trkpt>
      <trkpt lat="46.62061" lon="-1.65613">
        <ele>27</ele>
        <time>2018-03-16T13:29:13Z</time>
      </trkpt>
      <trkpt lat="46.6205" lon="-1.65663">
        <ele>29</ele>
        <time>2018-03-16T13:30:13Z</time>
      </trkpt>
      <trkpt lat="46.62038" lon="-1.6572">
        <ele>30</ele>
        <time>2018-03-16T13:31:13Z</time>
      </trkpt>
      <trkpt lat="46.62028" lon="-1.65768">
        <ele>31</ele>
        <time>2018-03-16T13:32:13Z</time>
      </trkpt>
      <trkpt lat="46.62028" lon="-1.65768">
        <ele>31</ele>
        <time>2018-03-16T13:33:13Z</time>
      </trkpt>
      <trkpt lat="46.62029" lon="-1.65768">
        <ele>31</ele>
        <time>2018-03-16T13:34:13Z</time>
      </trkpt>
      <trkpt lat="46.6203" lon="-1.65768">
        <ele>31</ele>
        <time>2018-03-16T13:35:13Z</time>
      </trkpt>
      <trkpt lat="46.6203" lon="-1.65769">
        <ele>31</ele>
        <time>2018-03-16T13:36:13Z</time>
      </trkpt>
      <trkpt lat="46.62031" lon="-1.65769">
        <ele>31</ele>
        <time>2018-03-16T13:37:13Z</time>
      </trkpt>
      <trkpt lat="46.62031" lon="-1.6577">
        <ele>31</ele>
        <time>2018-03-16T13:38:13Z</time>
      </trkpt>
      <trkpt lat="46.62031" lon="-1.65771">
        <ele>31</ele>
        <time>2018-03-16T13:39:13Z</time>
      </trkpt>
      <trkpt lat="46.62032" lon="-1.65771">
        <ele>31</ele>
        <time>2018-03-16T13:40:13Z</time>
      </trkpt>
      <trkpt lat="46.62032" lon="-1.65772">
        <ele>31</ele>
        <time>2018-03-16T13:41:13Z</time>
      </trkpt>
      <trkpt lat="46.62032" lon="-1.65773">
        <ele>31</ele>
        <time>2018-03-16T13:42:13Z</time>
      </trkpt>
      <trkpt lat="46.62032" lon="-1.65774">
        <ele>31</ele>
        <time>2018-03-16T13:43:13Z</time>
      </trkpt>
      <trkpt lat="46.62032" lon="-1.65775">
        <ele>31</ele>
        <time>2018-03-16T13:44:13Z</time>
      </trkpt>
      <trkpt lat="46.62032" lon="-1.65776">
        <ele>31</ele>
        <time>2018-03-16T13:45:13Z</time>
      </trkpt>
      <trkpt lat="46.62032" lon="-1.65777">
        <ele>31</ele>
        <time>2018-03-16T13:46:13Z</time>
      </trkpt>
      <trkpt lat="46.62055" lon="-1.65789">
        <ele>30</ele>
        <time>2018-03-16T13:47:13Z</time>
      </trkpt>
      <trkpt lat="46.62063" lon="-1.65793">
        <ele>30</ele>
        <time>2018-03-16T13:48:13Z</time>
      </trkpt>
      <trkpt lat="46.62068" lon="-1.65797">
        <ele>30</ele>
        <time>2018-03-16T13:49:13Z</time>
      </trkpt>
      <trkpt lat="46.62072" lon="-1.65801">
        <ele>30</ele>
        <time>2018-03-16T13:50:13Z</time>
      </trkpt>
      <trkpt lat="46.62076" lon="-1.65807">
        <ele>30</ele>
        <time>2018-03-16T13:51:13Z</time>
      </trkpt>
      <trkpt lat="46.62078" lon="-1.65812">
        <ele>30</ele>
        <time>2018-03-16T13:52:13Z</time>
      </trkpt>
      <trkpt lat="46.6208" lon="-1.65817">
        <ele>30</ele>
        <time>2018-03-16T13:53:13Z</time>
      </trkpt>
      <trkpt lat="46.62081" lon="-1.65824">
        <ele>30</ele>
        <time>2018-03-16T13:54:13Z</time>
      </trkpt>
      <trkpt lat="46.62081" lon="-1.65825">
        <ele>30</ele>
        <time>2018-03-16T13:55:13Z</time>
      </trkpt>
      <trkpt lat="46.62082" lon="-1.65838">
        <ele>30</ele>
        <time>2018-03-16T13:56:13Z</time>
      </trkpt>
      <trkpt lat="46.62082" lon="-1.65847">
        <ele>30</ele>
        <time>2018-03-16T13:57:13Z</time>
      </trkpt>
      <trkpt lat="46.62084" lon="-1.65852">
        <ele>30</ele>
        <time>2018-03-16T13:58:13Z</time>
      </trkpt>
      <trkpt lat="46.62085" lon="-1.65854">
        <ele>30</ele>
        <time>2018-03-16T13:59:13Z</time>
      </trkpt>
      <trkpt lat="46.62087" lon="-1.6586">
        <ele>29</ele>
        <time>2018-03-16T14:00:13Z</time>
      </trkpt>
      <trkpt lat="46.62098" lon="-1.65865">
        <ele>29</ele>
        <time>2018-03-16T14:01:13Z</time>
      </trkpt>
      <trkpt lat="46.62103" lon="-1.65867">
        <ele>28</ele>
        <time>2018-03-16T14:02:13Z</time>
      </trkpt>
      <trkpt lat="46.62106" lon="-1.65868">
        <ele>28</ele>
        <time>2018-03-16T14:03:13Z</time>
      </trkpt>
      <trkpt lat="46.62109" lon="-1.65869">
        <ele>28</ele>
        <time>2018-03-16T14:04:13Z</time>
      </trkpt>
      <trkpt lat="46.62113" lon="-1.65869">
        <ele>28</ele>
        <time>2018-03-16T14:05:13Z</time>
      </trkpt>
      <trkpt lat="46.62119" lon="-1.65869">
        <ele>27</ele>
        <time>2018-03-16T14:06:13Z</time>
      </trkpt>
      <trkpt lat="46.62127" lon="-1.65868">
        <ele>27</ele>
        <time>2018-03-16T14:07:13Z</time>
      </trkpt>
      <trkpt lat="46.62137" lon="-1.65866">
        <ele>26</ele>
        <time>2018-03-16T14:08:13Z</time>
      </trkpt>
      <trkpt lat="46.62137" lon="-1.65866">
        <ele>26</ele>
        <time>2018-03-16T14:09:13Z</time>
      </trkpt>
      <trkpt lat="46.62137" lon="-1.65876">
        <ele>26</ele>
        <time>2018-03-16T14:10:13Z</time>
      </trkpt>
      <trkpt lat="46.62135" lon="-1.6589">
        <ele>26</ele>
        <time>2018-03-16T14:11:13Z</time>
      </trkpt>
      <trkpt lat="46.62134" lon="-1.659">
        <ele>26</ele>
        <time>2018-03-16T14:12:13Z</time>
      </trkpt>
      <trkpt lat="46.62132" lon="-1.65908">
        <ele>26</ele>
        <time>2018-03-16T14:13:13Z</time>
      </trkpt>
      <trkpt lat="46.62129" lon="-1.65929">
        <ele>26</ele>
        <time>2018-03-16T14:14:13Z</time>
      </trkpt>
      <trkpt lat="46.62126" lon="-1.65943">
        <ele>26</ele>
        <time>2018-03-16T14:15:13Z</time>
      </trkpt>
      <trkpt lat="46.62121" lon="-1.65972">
        <ele>27</ele>
        <time>2018-03-16T14:16:13Z</time>
      </trkpt>
      <trkpt lat="46.62116" lon="-1.65996">
        <ele>27</ele>
        <time>2018-03-16T14:17:13Z</time>
      </trkpt>
      <trkpt lat="46.62114" lon="-1.6601">
        <ele>26</ele>
        <time>2018-03-16T14:18:13Z</time>
      </trkpt>
      <trkpt lat="46.62113" lon="-1.66017">
        <ele>26</ele>
        <time>2018-03-16T14:19:13Z</time>
      </trkpt>
      <trkpt lat="46.62112" lon="-1.66022">
        <ele>26</ele>
        <time>2018-03-16T14:20:13Z</time>
      </trkpt>
      <trkpt lat="46.6211" lon="-1.66028">
        <ele>26</ele>
        <time>2018-03-16T14:21:13Z</time>
      </trkpt>
      <trkpt lat="46.62108" lon="-1.66035">
        <ele>26</ele>
        <time>2018-03-16T14:22:13Z</time>
      </trkpt>
      <trkpt lat="46.62101" lon="-1.66051">
        <ele>26</ele>
        <time>2018-03-16T14:23:13Z</time>
      </trkpt>
      <trkpt lat="46.62097" lon="-1.66059">
        <ele>26</ele>
        <time>2018-03-16T14:24:13Z</time>
      </trkpt>
      <trkpt lat="46.6209" lon="-1.66068">
        <ele>25</ele>
        <time>2018-03-16T14:25:13Z</time>
      </trkpt>
      <trkpt lat="46.62081" lon="-1.6608">
        <ele>25</ele>
        <time>2018-03-16T14:26:13Z</time>
      </trkpt>
      <trkpt lat="46.62081" lon="-1.6608">
        <ele>25</ele>
        <time>2018-03-16T14:27:13Z</time>
      </trkpt>
      <trkpt lat="46.62085" lon="-1.66086">
        <ele>25</ele>
        <time>2018-03-16T14:28:13Z</time>
      </trkpt>
      <trkpt lat="46.62089" lon="-1.66097">
        <ele>25</ele>
        <time>2018-03-16T14:29:13Z</time>
      </trkpt>
      <trkpt lat="46.62093" lon="-1.6611">
        <ele>25</ele>
        <time>2018-03-16T14:30:13Z</time>
      </trkpt>
      <trkpt lat="46.62097" lon="-1.66124">
        <ele>24</ele>
        <time>2018-03-16T14:31:13Z</time>
      </trkpt>
      <trkpt lat="46.621" lon="-1.6614">
        <ele>24</ele>
        <time>2018-03-16T14:32:13Z</time>
      </trkpt>
      <trkpt lat="46.62103" lon="-1.66156">
        <ele>24</ele>
        <time>2018-03-16T14:33:13Z</time>
      </trkpt>
      <trkpt lat="46.62105" lon="-1.66176">
        <ele>24</ele>
        <time>2018-03-16T14:34:13Z</time>
      </trkpt>
      <trkpt lat="46.62106" lon="-1.66205">
        <ele>24</ele>
        <time>2018-03-16T14:35:13Z</time>
      </trkpt>
      <trkpt lat="46.62105" lon="-1.66222">
        <ele>24</ele>
        <time>2018-03-16T14:36:13Z</time>
      </trkpt>
      <trkpt lat="46.62105" lon="-1.6623">
        <ele>24</ele>
        <time>2018-03-16T14:37:13Z</time>
      </trkpt>
      <trkpt lat="46.62103" lon="-1.66257">
        <ele>24</ele>
        <time>2018-03-16T14:38:13Z</time>
      </trkpt>
      <trkpt lat="46.62098" lon="-1.66291">
        <ele>24</ele>
        <time>2018-03-16T14:39:13Z</time>
      </trkpt>
      <trkpt lat="46.62098" lon="-1.66293">
        <ele>24</ele>
        <time>2018-03-16T14:40:13Z</time>
      </trkpt>
      <trkpt lat="46.62098" lon="-1.66294">
        <ele>24</ele>
        <time>2018-03-16T14:41:13Z</time>
      </trkpt>
      <trkpt lat="46.62097" lon="-1.66297">
        <ele>24</ele>
        <time>2018-03-16T14:42:13Z</time>
      </trkpt>
      <trkpt lat="46.62097" lon="-1.663">
        <ele>24</ele>
        <time>2018-03-16T14:43:13Z</time>
      </trkpt>
      <trkpt lat="46.62095" lon="-1.66328">
        <ele>25</ele>
        <time>2018-03-16T14:44:13Z</time>
      </trkpt>
      <trkpt lat="46.62094" lon="-1.66348">
        <ele>24</ele>
        <time>2018-03-16T14:45:13Z</time>
      </trkpt>
      <trkpt lat="46.62091" lon="-1.66387">
        <ele>24</ele>
        <time>2018-03-16T14:46:13Z</time>
      </trkpt>
      <trkpt lat="46.6209" lon="-1.664">
        <ele>23</ele>
        <time>2018-03-16T14:47:13Z</time>
      </trkpt>
      <trkpt lat="46.62089" lon="-1.66409">
        <ele>23</ele>
        <time>2018-03-16T14:48:13Z</time>
      </trkpt>
      <trkpt lat="46.62089" lon="-1.66419">
        <ele>23</ele>
        <time>2018-03-16T14:49:13Z</time>
      </trkpt>
      <trkpt lat="46.62089" lon="-1.66427">
        <ele>23</ele>
        <time>2018-03-16T14:50:13Z</time>
      </trkpt>
      <trkpt lat="46.62089" lon="-1.66439">
        <ele>22</ele>
        <time>2018-03-16T14:51:13Z</time>
      </trkpt>
      <trkpt lat="46.62089" lon="-1.66449">
        <ele>22</ele>
        <time>2018-03-16T14:52:13Z</time>
      </trkpt>
      <trkpt lat="46.6209" lon="-1.66457">
        <ele>22</ele>
        <time>2018-03-16T14:53:13Z</time>
      </trkpt>
      <trkpt lat="46.62092" lon="-1.66479">
        <ele>22</ele>
        <time>2018-03-16T14:54:13Z</time>
      </trkpt>
      <trkpt lat="46.62101" lon="-1.66544">
        <ele>21</ele>
        <time>2018-03-16T14:55:13Z</time>
      </trkpt>
      <trkpt lat="46.62113" lon="-1.66632">
        <ele>20</ele>
        <time>2018-03-16T14:56:13Z</time>
      </trkpt>
      <trkpt lat="46.62113" lon="-1.66638">
        <ele>20</ele>
        <time>2018-03-16T14:57:13Z</time>
      </trkpt>
      <trkpt lat="46.62113" lon="-1.66644">
        <ele>20</ele>
        <time>2018-03-16T14:58:13Z</time>
      </trkpt>
      <trkpt lat="46.62114" lon="-1.6666">
        <ele>19</ele>
        <time>2018-03-16T14:59:13Z</time>
      </trkpt>
      <trkpt lat="46.62113" lon="-1.66678">
        <ele>19</ele>
        <time>2018-03-16T15:00:13Z</time>
      </trkpt>
      <trkpt lat="46.62112" lon="-1.66701">
        <ele>19</ele>
        <time>2018-03-16T15:01:13Z</time>
      </trkpt>
      <trkpt lat="46.62112" lon="-1.6672">
        <ele>19</ele>
        <time>2018-03-16T15:02:13Z</time>
      </trkpt>
      <trkpt lat="46.62111" lon="-1.66735">
        <ele>19</ele>
        <time>2018-03-16T15:03:13Z</time>
      </trkpt>
      <trkpt lat="46.62111" lon="-1.66737">
        <ele>19</ele>
        <time>2018-03-16T15:04:13Z</time>
      </trkpt>
      <trkpt lat="46.62111" lon="-1.66742">
        <ele>19</ele>
        <time>2018-03-16T15:05:13Z</time>
      </trkpt>
      <trkpt lat="46.6211" lon="-1.66749">
        <ele>19</ele>
        <time>2018-03-16T15:06:13Z</time>
      </trkpt>
      <trkpt lat="46.6211" lon="-1.66756">
        <ele>19</ele>
        <time>2018-03-16T15:07:13Z</time>
      </trkpt>
      <trkpt lat="46.6211" lon="-1.66772">
        <ele>19</ele>
        <time>2018-03-16T15:08:13Z</time>
      </trkpt>
      <trkpt lat="46.6211" lon="-1.66798">
        <ele>20</ele>
        <time>2018-03-16T15:09:13Z</time>
      </trkpt>
      <trkpt lat="46.62111" lon="-1.66837">
        <ele>20</ele>
        <time>2018-03-16T15:10:13Z</time>
      </trkpt>
      <trkpt lat="46.62113" lon="-1.66905">
        <ele>23</ele>
        <time>2018-03-16T15:11:13Z</time>
      </trkpt>
      <trkpt lat="46.62115" lon="-1.67004">
        <ele>27</ele>
        <time>2018-03-16T15:12:13Z</time>
      </trkpt>
      <trkpt lat="46.62116" lon="-1.6701">
        <ele>27</ele>
        <time>2018-03-16T15:13:13Z</time>
      </trkpt>
      <trkpt lat="46.62117" lon="-1.67052">
        <ele>28</ele>
        <time>2018-03-16T15:14:13Z</time>
      </trkpt>
      <trkpt lat="46.6212" lon="-1.67164">
        <ele>33</ele>
        <time>2018-03-16T15:15:13Z</time>
      </trkpt>
      <trkpt lat="46.6212" lon="-1.6717">
        <ele>33</ele>
        <time>2018-03-16T15:16:13Z</time>
      </trkpt>
      <trkpt lat="46.6212" lon="-1.67184">
        <ele>34</ele>
        <time>2018-03-16T15:17:13Z</time>
      </trkpt>
      <trkpt lat="46.62124" lon="-1.67269">
        <ele>36</ele>
        <time>2018-03-16T15:18:13Z</time>
      </trkpt>
      <trkpt lat="46.62125" lon="-1.67278">
        <ele>37</ele>
        <time>2018-03-16T15:19:13Z</time>
      </trkpt>
      <trkpt lat="46.62126" lon="-1.6729">
        <ele>37</ele>
        <time>2018-03-16T15:20:13Z</time>
      </trkpt>
      <trkpt lat="46.62127" lon="-1.673">
        <ele>37</ele>
        <time>2018-03-16T15:21:13Z</time>
      </trkpt>
      <trkpt lat="46.62129" lon="-1.67311">
        <ele>37</ele>
        <time>2018-03-16T15:22:13Z</time>
      </trkpt>
      <trkpt lat="46.62131" lon="-1.67322">
        <ele>38</ele>
        <time>2018-03-16T15:23:13Z</time>
      </trkpt>
      <trkpt lat="46.62133" lon="-1.6733">
        <ele>38</ele>
        <time>2018-03-16T15:24:13Z</time>
      </trkpt>
      <trkpt lat="46.62136" lon="-1.67341">
        <ele>38</ele>
        <time>2018-03-16T15:25:13Z</time>
      </trkpt>
      <trkpt lat="46.62143" lon="-1.67359">
        <ele>38</ele>
        <time>2018-03-16T15:26:13Z</time>
      </trkpt>
      <trkpt lat="46.62171" lon="-1.67424">
        <ele>39</ele>
        <time>2018-03-16T15:27:13Z</time>
      </trkpt>
      <trkpt lat="46.62172" lon="-1.67427">
        <ele>39</ele>
        <time>2018-03-16T15:28:13Z</time>
      </trkpt>
      <trkpt lat="46.6222" lon="-1.6754">
        <ele>40</ele>
        <time>2018-03-16T15:29:13Z</time>
      </trkpt>
      <trkpt lat="46.62227" lon="-1.67554">
        <ele>41</ele>
        <time>2018-03-16T15:30:13Z</time>
      </trkpt>
      <trkpt lat="46.62237" lon="-1.6758">
        <ele>42</ele>
        <time>2018-03-16T15:31:13Z</time>
      </trkpt>
      <trkpt lat="46.62248" lon="-1.67604">
        <ele>43</ele>
        <time>2018-03-16T15:32:13Z</time>
      </trkpt>
      <trkpt lat="46.62276" lon="-1.67668">
        <ele>41</ele>
        <time>2018-03-16T15:33:13Z</time>
      </trkpt>
      <trkpt lat="46.62278" lon="-1.67674">
        <ele>41</ele>
        <time>2018-03-16T15:34:13Z</time>
      </trkpt>
      <trkpt lat="46.6229" lon="-1.67698">
        <ele>40</ele>
        <time>2018-03-16T15:35:13Z</time>
      </trkpt>
      <trkpt lat="46.62301" lon="-1.67722">
        <ele>40</ele>
        <time>2018-03-16T15:36:13Z</time>
      </trkpt>
      <trkpt lat="46.62344" lon="-1.67808">
        <ele>38</ele>
        <time>2018-03-16T15:37:13Z</time>
      </trkpt>
      <trkpt lat="46.62362" lon="-1.67844">
        <ele>36</ele>
        <time>2018-03-16T15:38:13Z</time>
      </trkpt>
      <trkpt lat="46.62363" lon="-1.67846">
        <ele>36</ele>
        <time>2018-03-16T15:39:13Z</time>
      </trkpt>
      <trkpt lat="46.62393" lon="-1.67907">
        <ele>34</ele>
        <time>2018-03-16T15:40:13Z</time>
      </trkpt>
      <trkpt lat="46.62443" lon="-1.68008">
        <ele>35</ele>
        <time>2018-03-16T15:41:13Z</time>
      </trkpt>
      <trkpt lat="46.62484" lon="-1.6809">
        <ele>36</ele>
        <time>2018-03-16T15:42:13Z</time>
      </trkpt>
      <trkpt lat="46.62486" lon="-1.68095">
        <ele>36</ele>
        <time>2018-03-16T15:43:13Z</time>
      </trkpt>
      <trkpt lat="46.62545" lon="-1.68212">
        <ele>36</ele>
        <time>2018-03-16T15:44:13Z</time>
      </trkpt>
      <trkpt lat="46.62573" lon="-1.68267">
        <ele>37</ele>
        <time>2018-03-16T15:45:13Z</time>
      </trkpt>
      <trkpt lat="46.62604" lon="-1.68328">
        <ele>40</ele>
        <time>2018-03-16T15:46:13Z</time>
      </trkpt>
      <trkpt lat="46.62671" lon="-1.68461">
        <ele>41</ele>
        <time>2018-03-16T15:47:13Z</time>
      </trkpt>
      <trkpt lat="46.62682" lon="-1.68484">
        <ele>42</ele>
        <time>2018-03-16T15:48:13Z</time>
      </trkpt>
      <trkpt lat="46.62713" lon="-1.68545">
        <ele>45</ele>
        <time>2018-03-16T15:49:13Z</time>
      </trkpt>
      <trkpt lat="46.62758" lon="-1.68633">
        <ele>49</ele>
        <time>2018-03-16T15:50:13Z</time>
      </trkpt>
      <trkpt lat="46.62808" lon="-1.68732">
        <ele>54</ele>
        <time>2018-03-16T15:51:13Z</time>
      </trkpt>
      <trkpt lat="46.62841" lon="-1.688">
        <ele>54</ele>
        <time>2018-03-16T15:52:13Z</time>
      </trkpt>
      <trkpt lat="46.62905" lon="-1.6893">
        <ele>55</ele>
        <time>2018-03-16T15:53:13Z</time>
      </trkpt>
      <trkpt lat="46.62913" lon="-1.68944">
        <ele>55</ele>
        <time>2018-03-16T15:54:13Z</time>
      </trkpt>
      <trkpt lat="46.62919" lon="-1.68956">
        <ele>55</ele>
        <time>2018-03-16T15:55:13Z</time>
      </trkpt>
      <trkpt lat="46.62923" lon="-1.68964">
        <ele>55</ele>
        <time>2018-03-16T15:56:13Z</time>
      </trkpt>
      <trkpt lat="46.62965" lon="-1.6905">
        <ele>57</ele>
        <time>2018-03-16T15:57:13Z</time>
      </trkpt>
      <trkpt lat="46.63023" lon="-1.69167">
        <ele>60</ele>
        <time>2018-03-16T15:58:13Z</time>
      </trkpt>
      <trkpt lat="46.63067" lon="-1.69255">
        <ele>62</ele>
        <time>2018-03-16T15:59:13Z</time>
      </trkpt>
      <trkpt lat="46.63108" lon="-1.69336">
        <ele>61</ele>
        <time>2018-03-16T16:00:13Z</time>
      </trkpt>
      <trkpt lat="46.63127" lon="-1.69375">
        <ele>60</ele>
        <time>2018-03-16T16:01:13Z</time>
      </trkpt>
      <trkpt lat="46.63142" lon="-1.69406">
        <ele>60</ele>
        <time>2018-03-16T16:02:13Z</time>
      </trkpt>
      <trkpt lat="46.63148" lon="-1.69418">
        <ele>60</ele>
        <time>2018-03-16T16:03:13Z</time>
      </trkpt>
      <trkpt lat="46.63154" lon="-1.6943">
        <ele>60</ele>
        <time>2018-03-16T16:04:13Z</time>
      </trkpt>
      <trkpt lat="46.63179" lon="-1.69479">
        <ele>60</ele>
        <time>2018-03-16T16:05:13Z</time>
      </trkpt>
      <trkpt lat="46.63205" lon="-1.69534">
        <ele>61</ele>
        <time>2018-03-16T16:06:13Z</time>
      </trkpt>
      <trkpt lat="46.63215" lon="-1.69553">
        <ele>61</ele>
        <time>2018-03-16T16:07:13Z</time>
      </trkpt>
      <trkpt lat="46.63225" lon="-1.69574">
        <ele>61</ele>
        <time>2018-03-16T16:08:13Z</time>
      </trkpt>
      <trkpt lat="46.63232" lon="-1.69587">
        <ele>61</ele>
        <time>2018-03-16T16:09:13Z</time>
      </trkpt>
      <trkpt lat="46.63239" lon="-1.69602">
        <ele>61</ele>
        <time>2018-03-16T16:10:13Z</time>
      </trkpt>
      <trkpt lat="46.63243" lon="-1.69609">
        <ele>61</ele>
        <time>2018-03-16T16:11:13Z</time>
      </trkpt>
      <trkpt lat="46.63265" lon="-1.69653">
        <ele>60</ele>
        <time>2018-03-16T16:12:13Z</time>
      </trkpt>
      <trkpt lat="46.63287" lon="-1.69698">
        <ele>60</ele>
        <time>2018-03-16T16:13:13Z</time>
      </trkpt>
      <trkpt lat="46.63297" lon="-1.69718">
        <ele>60</ele>
        <time>2018-03-16T16:14:13Z</time>
      </trkpt>
      <trkpt lat="46.6331" lon="-1.69743">
        <ele>60</ele>
        <time>2018-03-16T16:15:13Z</time>
      </trkpt>
      <trkpt lat="46.63351" lon="-1.69824">
        <ele>60</ele>
        <time>2018-03-16T16:16:13Z</time>
      </trkpt>
      <trkpt lat="46.63379" lon="-1.69881">
        <ele>60</ele>
        <time>2018-03-16T16:17:13Z</time>
      </trkpt>
      <trkpt lat="46.63399" lon="-1.69921">
        <ele>61</ele>
        <time>2018-03-16T16:18:13Z</time>
      </trkpt>
      <trkpt lat="46.63403" lon="-1.6993">
        <ele>61</ele>
        <time>2018-03-16T16:19:13Z</time>
      </trkpt>
      <trkpt lat="46.63417" lon="-1.69958">
        <ele>61</ele>
        <time>2018-03-16T16:20:13Z</time>
      </trkpt>
      <trkpt lat="46.63437" lon="-1.69997">
        <ele>61</ele>
        <time>2018-03-16T16:21:13Z</time>
      </trkpt>
      <trkpt lat="46.63455" lon="-1.70034">
        <ele>62</ele>
        <time>2018-03-16T16:22:13Z</time>
      </trkpt>
      <trkpt lat="46.63459" lon="-1.70042">
        <ele>62</ele>
        <time>2018-03-16T16:23:13Z</time>
      </trkpt>
      <trkpt lat="46.63477" lon="-1.70077">
        <ele>62</ele>
        <time>2018-03-16T16:24:13Z</time>
      </trkpt>
      <trkpt lat="46.63501" lon="-1.70125">
        <ele>63</ele>
        <time>2018-03-16T16:25:13Z</time>
      </trkpt>
      <trkpt lat="46.6352" lon="-1.70163">
        <ele>63</ele>
        <time>2018-03-16T16:26:13Z</time>
      </trkpt>
      <trkpt lat="46.63523" lon="-1.70169">
        <ele>62</ele>
        <time>2018-03-16T16:27:13Z</time>
      </trkpt>
      <trkpt lat="46.63543" lon="-1.70208">
        <ele>62</ele>
        <time>2018-03-16T16:28:13Z</time>
      </trkpt>
      <trkpt lat="46.63551" lon="-1.70223">
        <ele>62</ele>
        <time>2018-03-16T16:29:13Z</time>
      </trkpt>
      <trkpt lat="46.63569" lon="-1.7026">
        <ele>62</ele>
        <time>2018-03-16T16:30:13Z</time>
      </trkpt>
      <trkpt lat="46.63589" lon="-1.70299">
        <ele>61</ele>
        <time>2018-03-16T16:31:13Z</time>
      </trkpt>
      <trkpt lat="46.63591" lon="-1.70304">
        <ele>61</ele>
        <time>2018-03-16T16:32:13Z</time>
      </trkpt>
      <trkpt lat="46.6361" lon="-1.70342">
        <ele>61</ele>
        <time>2018-03-16T16:33:13Z</time>
      </trkpt>
      <trkpt lat="46.63622" lon="-1.70366">
        <ele>61</ele>
        <time>2018-03-16T16:34:13Z</time>
      </trkpt>
      <trkpt lat="46.63623" lon="-1.70368">
        <ele>61</ele>
        <time>2018-03-16T16:35:13Z</time>
      </trkpt>
      <trkpt lat="46.63644" lon="-1.70409">
        <ele>61</ele>
        <time>2018-03-16T16:36:13Z</time>
      </trkpt>
      <trkpt lat="46.63645" lon="-1.70411">
        <ele>61</ele>
        <time>2018-03-16T16:37:13Z</time>
      </trkpt>
      <trkpt lat="46.63659" lon="-1.70438">
        <ele>60</ele>
        <time>2018-03-16T16:38:13Z</time>
      </trkpt>
      <trkpt lat="46.63669" lon="-1.70459">
        <ele>59</ele>
        <time>2018-03-16T16:39:13Z</time>
      </trkpt>
      <trkpt lat="46.6369" lon="-1.70499">
        <ele>59</ele>
        <time>2018-03-16T16:40:13Z</time>
      </trkpt>
      <trkpt lat="46.63694" lon="-1.70508">
        <ele>59</ele>
        <time>2018-03-16T16:41:13Z</time>
      </trkpt>
      <trkpt lat="46.63696" lon="-1.70512">
        <ele>59</ele>
        <time>2018-03-16T16:42:13Z</time>
      </trkpt>
      <trkpt lat="46.63701" lon="-1.70522">
        <ele>59</ele>
        <time>2018-03-16T16:43:13Z</time>
      </trkpt>
      <trkpt lat="46.63715" lon="-1.70549">
        <ele>59</ele>
        <time>2018-03-16T16:44:13Z</time>
      </trkpt>
      <trkpt lat="46.63719" lon="-1.70557">
        <ele>59</ele>
        <time>2018-03-16T16:45:13Z</time>
      </trkpt>
      <trkpt lat="46.63729" lon="-1.70578">
        <ele>60</ele>
        <time>2018-03-16T16:46:13Z</time>
      </trkpt>
      <trkpt lat="46.63731" lon="-1.70582">
        <ele>60</ele>
        <time>2018-03-16T16:47:13Z</time>
      </trkpt>
      <trkpt lat="46.6375" lon="-1.70619">
        <ele>60</ele>
        <time>2018-03-16T16:48:13Z</time>
      </trkpt>
      <trkpt lat="46.63782" lon="-1.70683">
        <ele>59</ele>
        <time>2018-03-16T16:49:13Z</time>
      </trkpt>
      <trkpt lat="46.63802" lon="-1.70723">
        <ele>58</ele>
        <time>2018-03-16T16:50:13Z</time>
      </trkpt>
      <trkpt lat="46.63838" lon="-1.70796">
        <ele>57</ele>
        <time>2018-03-16T16:51:13Z</time>
      </trkpt>
      <trkpt lat="46.63839" lon="-1.70799">
        <ele>57</ele>
        <time>2018-03-16T16:52:13Z</time>
      </trkpt>
      <trkpt lat="46.63865" lon="-1.70847">
        <ele>57</ele>
        <time>2018-03-16T16:53:13Z</time>
      </trkpt>
      <trkpt lat="46.63874" lon="-1.70866">
        <ele>58</ele>
        <time>2018-03-16T16:54:13Z</time>
      </trkpt>
      <trkpt lat="46.63883" lon="-1.70884">
        <ele>58</ele>
        <time>2018-03-16T16:55:13Z</time>
      </trkpt>
      <trkpt lat="46.63903" lon="-1.70924">
        <ele>58</ele>
        <time>2018-03-16T16:56:13Z</time>
      </trkpt>
      <trkpt lat="46.63919" lon="-1.70953">
        <ele>58</ele>
        <time>2018-03-16T16:57:13Z</time>
      </trkpt>
      <trkpt lat="46.63936" lon="-1.70987">
        <ele>57</ele>
        <time>2018-03-16T16:58:13Z</time>
      </trkpt>
      <trkpt lat="46.6394" lon="-1.70994">
        <ele>57</ele>
        <time>2018-03-16T16:59:13Z</time>
      </trkpt>
      <trkpt lat="46.63953" lon="-1.71018">
        <ele>57</ele>
        <time>2018-03-16T17:00:13Z</time>
      </trkpt>
      <trkpt lat="46.6396" lon="-1.71029">
        <ele>57</ele>
        <time>2018-03-16T17:01:13Z</time>
      </trkpt>
      <trkpt lat="46.63975" lon="-1.71057">
        <ele>58</ele>
        <time>2018-03-16T17:02:13Z</time>
      </trkpt>
      <trkpt lat="46.63989" lon="-1.71086">
        <ele>58</ele>
        <time>2018-03-16T17:03:13Z</time>
      </trkpt>
      <trkpt lat="46.63991" lon="-1.71089">
        <ele>58</ele>
        <time>2018-03-16T17:04:13Z</time>
      </trkpt>
      <trkpt lat="46.63993" lon="-1.71093">
        <ele>58</ele>
        <time>2018-03-16T17:05:13Z</time>
      </trkpt>
      <trkpt lat="46.64003" lon="-1.71111">
        <ele>58</ele>
        <time>2018-03-16T17:06:13Z</time>
      </trkpt>
      <trkpt lat="46.64023" lon="-1.7115">
        <ele>57</ele>
        <time>2018-03-16T17:07:13Z</time>
      </trkpt>
      <trkpt lat="46.64024" lon="-1.71152">
        <ele>57</ele>
        <time>2018-03-16T17:08:13Z</time>
      </trkpt>
      <trkpt lat="46.64043" lon="-1.71189">
        <ele>57</ele>
        <time>2018-03-16T17:09:13Z</time>
      </trkpt>
      <trkpt lat="46.64056" lon="-1.71214">
        <ele>57</ele>
        <time>2018-03-16T17:10:13Z</time>
      </trkpt>
      <trkpt lat="46.64059" lon="-1.71221">
        <ele>57</ele>
        <time>2018-03-16T17:11:13Z</time>
      </trkpt>
      <trkpt lat="46.64062" lon="-1.71228">
        <ele>57</ele>
        <time>2018-03-16T17:12:13Z</time>
      </trkpt>
      <trkpt lat="46.64064" lon="-1.71233">
        <ele>57</ele>
        <time>2018-03-16T17:13:13Z</time>
      </trkpt>
      <trkpt lat="46.64064" lon="-1.71239">
        <ele>57</ele>
        <time>2018-03-16T17:14:13Z</time>
      </trkpt>
      <trkpt lat="46.64064" lon="-1.71254">
        <ele>57</ele>
        <time>2018-03-16T17:15:13Z</time>
      </trkpt>
      <trkpt lat="46.64061" lon="-1.71278">
        <ele>58</ele>
        <time>2018-03-16T17:16:13Z</time>
      </trkpt>
      <trkpt lat="46.64059" lon="-1.71295">
        <ele>58</ele>
        <time>2018-03-16T17:17:13Z</time>
      </trkpt>
      <trkpt lat="46.64057" lon="-1.71319">
        <ele>59</ele>
        <time>2018-03-16T17:18:13Z</time>
      </trkpt>
      <trkpt lat="46.64055" lon="-1.71334">
        <ele>59</ele>
        <time>2018-03-16T17:19:13Z</time>
      </trkpt>
      <trkpt lat="46.64053" lon="-1.71355">
        <ele>59</ele>
        <time>2018-03-16T17:20:13Z</time>
      </trkpt>
      <trkpt lat="46.64052" lon="-1.71356">
        <ele>59</ele>
        <time>2018-03-16T17:21:13Z</time>
      </trkpt>
      <trkpt lat="46.64052" lon="-1.7136">
        <ele>59</ele>
        <time>2018-03-16T17:22:13Z</time>
      </trkpt>
      <trkpt lat="46.64052" lon="-1.71362">
        <ele>59</ele>
        <time>2018-03-16T17:23:13Z</time>
      </trkpt>
      <trkpt lat="46.64049" lon="-1.71392">
        <ele>59</ele>
        <time>2018-03-16T17:24:13Z</time>
      </trkpt>
      <trkpt lat="46.64048" lon="-1.71403">
        <ele>59</ele>
        <time>2018-03-16T17:25:13Z</time>
      </trkpt>
      <trkpt lat="46.64048" lon="-1.71407">
        <ele>59</ele>
        <time>2018-03-16T17:26:13Z</time>
      </trkpt>
      <trkpt lat="46.6405" lon="-1.7142">
        <ele>59</ele>
        <time>2018-03-16T17:27:13Z</time>
      </trkpt>
      <trkpt lat="46.64051" lon="-1.71425">
        <ele>59</ele>
        <time>2018-03-16T17:28:13Z</time>
      </trkpt>
      <trkpt lat="46.64054" lon="-1.71435">
        <ele>59</ele>
        <time>2018-03-16T17:29:13Z</time>
      </trkpt>
      <trkpt lat="46.64057" lon="-1.71443">
        <ele>58</ele>
        <time>2018-03-16T17:30:13Z</time>
      </trkpt>
      <trkpt lat="46.64064" lon="-1.71458">
        <ele>58</ele>
        <time>2018-03-16T17:31:13Z</time>
      </trkpt>
      <trkpt lat="46.64068" lon="-1.71467">
        <ele>58</ele>
        <time>2018-03-16T17:32:13Z</time>
      </trkpt>
      <trkpt lat="46.64081" lon="-1.71491">
        <ele>57</ele>
        <time>2018-03-16T17:33:13Z</time>
      </trkpt>
      <trkpt lat="46.64089" lon="-1.7151">
        <ele>57</ele>
        <time>2018-03-16T17:34:13Z</time>
      </trkpt>
      <trkpt lat="46.64092" lon="-1.71525">
        <ele>57</ele>
        <time>2018-03-16T17:35:13Z</time>
      </trkpt>
      <trkpt lat="46.64092" lon="-1.71525">
        <ele>57</ele>
        <time>2018-03-16T17:36:13Z</time>
      </trkpt>
      <trkpt lat="46.641" lon="-1.71521">
        <ele>57</ele>
        <time>2018-03-16T17:37:13Z</time>
      </trkpt>
      <trkpt lat="46.64116" lon="-1.71515">
        <ele>57</ele>
        <time>2018-03-16T17:38:13Z</time>
      </trkpt>
      <trkpt lat="46.64124" lon="-1.71513">
        <ele>57</ele>
        <time>2018-03-16T17:39:13Z</time>
      </trkpt>
      <trkpt lat="46.64129" lon="-1.71512">
        <ele>57</ele>
        <time>2018-03-16T17:40:13Z</time>
      </trkpt>
      <trkpt lat="46.64135" lon="-1.71511">
        <ele>57</ele>
        <time>2018-03-16T17:41:13Z</time>
      </trkpt>
      <trkpt lat="46.64145" lon="-1.71512">
        <ele>57</ele>
        <time>2018-03-16T17:42:13Z</time>
      </trkpt>
      <trkpt lat="46.64182" lon="-1.71514">
        <ele>56</ele>
        <time>2018-03-16T17:43:13Z</time>
      </trkpt>
      <trkpt lat="46.64202" lon="-1.71514">
        <ele>56</ele>
        <time>2018-03-16T17:44:13Z</time>
      </trkpt>
      <trkpt lat="46.64204" lon="-1.71514">
        <ele>56</ele>
        <time>2018-03-16T17:45:13Z</time>
      </trkpt>
      <trkpt lat="46.64224" lon="-1.71514">
        <ele>55</ele>
        <time>2018-03-16T17:46:13Z</time>
      </trkpt>
      <trkpt lat="46.64262" lon="-1.71516">
        <ele>54</ele>
        <time>2018-03-16T17:47:13Z</time>
      </trkpt>
      <trkpt lat="46.64305" lon="-1.71518">
        <ele>52</ele>
        <time>2018-03-16T17:48:13Z</time>
      </trkpt>
      <trkpt lat="46.64315" lon="-1.71518">
        <ele>52</ele>
        <time>2018-03-16T17:49:13Z</time>
      </trkpt>
      <trkpt lat="46.64334" lon="-1.71519">
        <ele>51</ele>
        <time>2018-03-16T17:50:13Z</time>
      </trkpt>
      <trkpt lat="46.64362" lon="-1.7152">
        <ele>52</ele>
        <time>2018-03-16T17:51:13Z</time>
      </trkpt>
      <trkpt lat="46.64387" lon="-1.71521">
        <ele>52</ele>
        <time>2018-03-16T17:52:13Z</time>
      </trkpt>
      <trkpt lat="46.64397" lon="-1.71522">
        <ele>52</ele>
        <time>2018-03-16T17:53:13Z</time>
      </trkpt>
      <trkpt lat="46.64397" lon="-1.71522">
        <ele>52</ele>
        <time>2018-03-16T17:54:13Z</time>
      </trkpt>
      <trkpt lat="46.64404" lon="-1.71589">
        <ele>53</ele>
        <time>2018-03-16T17:55:13Z</time>
      </trkpt>
      <trkpt lat="46.64405" lon="-1.71606">
        <ele>53</ele>
        <time>2018-03-16T17:56:13Z</time>
      </trkpt>
      <trkpt lat="46.6441" lon="-1.71649">
        <ele>55</ele>
        <time>2018-03-16T17:57:13Z</time>
      </trkpt>
      <trkpt lat="46.64413" lon="-1.71677">
        <ele>55</ele>
        <time>2018-03-16T17:58:13Z</time>
      </trkpt>
      <trkpt lat="46.64418" lon="-1.71712">
        <ele>56</ele>
        <time>2018-03-16T17:59:13Z</time>
      </trkpt>
      <trkpt lat="46.6442" lon="-1.71724">
        <ele>56</ele>
        <time>2018-03-16T18:00:13Z</time>
      </trkpt>
      <trkpt lat="46.64422" lon="-1.71734">
        <ele>56</ele>
        <time>2018-03-16T18:01:13Z</time>
      </trkpt>
      <trkpt lat="46.64424" lon="-1.71742">
        <ele>56</ele>
        <time>2018-03-16T18:02:13Z</time>
      </trkpt>
      <trkpt lat="46.64428" lon="-1.71755">
        <ele>56</ele>
        <time>2018-03-16T18:03:13Z</time>
      </trkpt>
      <trkpt lat="46.64431" lon="-1.71761">
        <ele>56</ele>
        <time>2018-03-16T18:04:13Z</time>
      </trkpt>
      <trkpt lat="46.64435" lon="-1.7177">
        <ele>56</ele>
        <time>2018-03-16T18:05:13Z</time>
      </trkpt>
      <trkpt lat="46.64441" lon="-1.71783">
        <ele>56</ele>
        <time>2018-03-16T18:06:13Z</time>
      </trkpt>
      <trkpt lat="46.64449" lon="-1.71799">
        <ele>56</ele>
        <time>2018-03-16T18:07:13Z</time>
      </trkpt>
      <trkpt lat="46.64456" lon="-1.71815">
        <ele>56</ele>
        <time>2018-03-16T18:08:13Z</time>
      </trkpt>
      <trkpt lat="46.64457" lon="-1.71818">
        <ele>56</ele>
        <time>2018-03-16T18:09:13Z</time>
      </trkpt>
      <trkpt lat="46.64463" lon="-1.71834">
        <ele>56</ele>
        <time>2018-03-16T18:10:13Z</time>
      </trkpt>
      <trkpt lat="46.64467" lon="-1.71846">
        <ele>57</ele>
        <time>2018-03-16T18:11:13Z</time>
      </trkpt>
      <trkpt lat="46.64471" lon="-1.71863">
        <ele>57</ele>
        <time>2018-03-16T18:12:13Z</time>
      </trkpt>
      <trkpt lat="46.64478" lon="-1.71891">
        <ele>57</ele>
        <time>2018-03-16T18:13:13Z</time>
      </trkpt>
      <trkpt lat="46.64484" lon="-1.71921">
        <ele>57</ele>
        <time>2018-03-16T18:14:13Z</time>
      </trkpt>
      <trkpt lat="46.64484" lon="-1.71923">
        <ele>57</ele>
        <time>2018-03-16T18:15:13Z</time>
      </trkpt>
      <trkpt lat="46.6449" lon="-1.71955">
        <ele>57</ele>
        <time>2018-03-16T18:16:13Z</time>
      </trkpt>
      <trkpt lat="46.64493" lon="-1.71979">
        <ele>57</ele>
        <time>2018-03-16T18:17:13Z</time>
      </trkpt>
      <trkpt lat="46.64498" lon="-1.72014">
        <ele>57</ele>
        <time>2018-03-16T18:18:13Z</time>
      </trkpt>
      <trkpt lat="46.64502" lon="-1.7205">
        <ele>57</ele>
        <time>2018-03-16T18:19:13Z</time>
      </trkpt>
      <trkpt lat="46.64504" lon="-1.72083">
        <ele>57</ele>
        <time>2018-03-16T18:20:13Z</time>
      </trkpt>
      <trkpt lat="46.64507" lon="-1.72123">
        <ele>57</ele>
        <time>2018-03-16T18:21:13Z</time>
      </trkpt>
      <trkpt lat="46.6451" lon="-1.7216">
        <ele>58</ele>
        <time>2018-03-16T18:22:13Z</time>
      </trkpt>
      <trkpt lat="46.64511" lon="-1.72163">
        <ele>58</ele>
        <time>2018-03-16T18:23:13Z</time>
      </trkpt>
      <trkpt lat="46.64512" lon="-1.72175">
        <ele>58</ele>
        <time>2018-03-16T18:24:13Z</time>
      </trkpt>
      <trkpt lat="46.64514" lon="-1.72199">
        <ele>58</ele>
        <time>2018-03-16T18:25:13Z</time>
      </trkpt>
      <trkpt lat="46.64518" lon="-1.72235">
        <ele>59</ele>
        <time>2018-03-16T18:26:13Z</time>
      </trkpt>
      <trkpt lat="46.64523" lon="-1.72277">
        <ele>59</ele>
        <time>2018-03-16T18:27:13Z</time>
      </trkpt>
      <trkpt lat="46.64523" lon="-1.72279">
        <ele>59</ele>
        <time>2018-03-16T18:28:13Z</time>
      </trkpt>
      <trkpt lat="46.64529" lon="-1.72327">
        <ele>59</ele>
        <time>2018-03-16T18:29:13Z</time>
      </trkpt>
      <trkpt lat="46.64529" lon="-1.72327">
        <ele>59</ele>
        <time>2018-03-16T18:30:13Z</time>
      </trkpt>
      <trkpt lat="46.64534" lon="-1.72366">
        <ele>59</ele>
        <time>2018-03-16T18:31:13Z</time>
      </trkpt>
      <trkpt lat="46.64539" lon="-1.72405">
        <ele>58</ele>
        <time>2018-03-16T18:32:13Z</time>
      </trkpt>
      <trkpt lat="46.64544" lon="-1.72437">
        <ele>58</ele>
        <time>2018-03-16T18:33:13Z</time>
      </trkpt>
      <trkpt lat="46.64547" lon="-1.72462">
        <ele>58</ele>
        <time>2018-03-16T18:34:13Z</time>
      </trkpt>
      <trkpt lat="46.64548" lon="-1.72463">
        <ele>58</ele>
        <time>2018-03-16T18:35:13Z</time>
      </trkpt>
      <trkpt lat="46.64553" lon="-1.72488">
        <ele>58</ele>
        <time>2018-03-16T18:36:13Z</time>
      </trkpt>
      <trkpt lat="46.64561" lon="-1.72518">
        <ele>59</ele>
        <time>2018-03-16T18:37:13Z</time>
      </trkpt>
      <trkpt lat="46.64572" lon="-1.72555">
        <ele>59</ele>
        <time>2018-03-16T18:38:13Z</time>
      </trkpt>
      <trkpt lat="46.64581" lon="-1.72583">
        <ele>59</ele>
        <time>2018-03-16T18:39:13Z</time>
      </trkpt>
      <trkpt lat="46.64593" lon="-1.72615">
        <ele>59</ele>
        <time>2018-03-16T18:40:13Z</time>
      </trkpt>
      <trkpt lat="46.64599" lon="-1.7263">
        <ele>59</ele>
        <time>2018-03-16T18:41:13Z</time>
      </trkpt>
      <trkpt lat="46.64602" lon="-1.72637">
        <ele>59</ele>
        <time>2018-03-16T18:42:13Z</time>
      </trkpt>
      <trkpt lat="46.64611" lon="-1.72664">
        <ele>59</ele>
        <time>2018-03-16T18:43:13Z</time>
      </trkpt>
      <trkpt lat="46.64613" lon="-1.72671">
        <ele>59</ele>
        <time>2018-03-16T18:44:13Z</time>
      </trkpt>
      <trkpt lat="46.64614" lon="-1.72678">
        <ele>59</ele>
        <time>2018-03-16T18:45:13Z</time>
      </trkpt>
      <trkpt lat="46.64616" lon="-1.72687">
        <ele>58</ele>
        <time>2018-03-16T18:46:13Z</time>
      </trkpt>
      <trkpt lat="46.64617" lon="-1.72696">
        <ele>58</ele>
        <time>2018-03-16T18:47:13Z</time>
      </trkpt>
      <trkpt lat="46.64619" lon="-1.72709">
        <ele>58</ele>
        <time>2018-03-16T18:48:13Z</time>
      </trkpt>
      <trkpt lat="46.64622" lon="-1.72744">
        <ele>58</ele>
        <time>2018-03-16T18:49:13Z</time>
      </trkpt>
      <trkpt lat="46.64626" lon="-1.72794">
        <ele>58</ele>
        <time>2018-03-16T18:50:13Z</time>
      </trkpt>
      <trkpt lat="46.64629" lon="-1.72836">
        <ele>58</ele>
        <time>2018-03-16T18:51:13Z</time>
      </trkpt>
      <trkpt lat="46.64631" lon="-1.7287">
        <ele>58</ele>
        <time>2018-03-16T18:52:13Z</time>
      </trkpt>
      <trkpt lat="46.64633" lon="-1.72894">
        <ele>58</ele>
        <time>2018-03-16T18:53:13Z</time>
      </trkpt>
      <trkpt lat="46.64635" lon="-1.7291">
        <ele>58</ele>
        <time>2018-03-16T18:54:13Z</time>
      </trkpt>
      <trkpt lat="46.64637" lon="-1.7292">
        <ele>58</ele>
        <time>2018-03-16T18:55:13Z</time>
      </trkpt>
      <trkpt lat="46.64639" lon="-1.72927">
        <ele>58</ele>
        <time>2018-03-16T18:56:13Z</time>
      </trkpt>
      <trkpt lat="46.64642" lon="-1.72936">
        <ele>58</ele>
        <time>2018-03-16T18:57:13Z</time>
      </trkpt>
      <trkpt lat="46.64646" lon="-1.72948">
        <ele>58</ele>
        <time>2018-03-16T18:58:13Z</time>
      </trkpt>
      <trkpt lat="46.64651" lon="-1.72959">
        <ele>58</ele>
        <time>2018-03-16T18:59:13Z</time>
      </trkpt>
      <trkpt lat="46.64661" lon="-1.72982">
        <ele>58</ele>
        <time>2018-03-16T19:00:13Z</time>
      </trkpt>
      <trkpt lat="46.64676" lon="-1.73011">
        <ele>58</ele>
        <time>2018-03-16T19:01:13Z</time>
      </trkpt>
      <trkpt lat="46.64681" lon="-1.73022">
        <ele>57</ele>
        <time>2018-03-16T19:02:13Z</time>
      </trkpt>
      <trkpt lat="46.64691" lon="-1.73042">
        <ele>57</ele>
        <time>2018-03-16T19:03:13Z</time>
      </trkpt>
      <trkpt lat="46.64704" lon="-1.73071">
        <ele>57</ele>
        <time>2018-03-16T19:04:13Z</time>
      </trkpt>
      <trkpt lat="46.64718" lon="-1.73098">
        <ele>57</ele>
        <time>2018-03-16T19:05:13Z</time>
      </trkpt>
      <trkpt lat="46.64723" lon="-1.73109">
        <ele>57</ele>
        <time>2018-03-16T19:06:13Z</time>
      </trkpt>
      <trkpt lat="46.64731" lon="-1.73126">
        <ele>58</ele>
        <time>2018-03-16T19:07:13Z</time>
      </trkpt>
      <trkpt lat="46.6475" lon="-1.73169">
        <ele>58</ele>
        <time>2018-03-16T19:08:13Z</time>
      </trkpt>
      <trkpt lat="46.64773" lon="-1.73221">
        <ele>57</ele>
        <time>2018-03-16T19:09:13Z</time>
      </trkpt>
      <trkpt lat="46.64776" lon="-1.73225">
        <ele>57</ele>
        <time>2018-03-16T19:10:13Z</time>
      </trkpt>
      <trkpt lat="46.648" lon="-1.73275">
        <ele>56</ele>
        <time>2018-03-16T19:11:13Z</time>
      </trkpt>
      <trkpt lat="46.64816" lon="-1.73307">
        <ele>55</ele>
        <time>2018-03-16T19:12:13Z</time>
      </trkpt>
      <trkpt lat="46.64826" lon="-1.73327">
        <ele>55</ele>
        <time>2018-03-16T19:13:13Z</time>
      </trkpt>
      <trkpt lat="46.64835" lon="-1.73343">
        <ele>55</ele>
        <time>2018-03-16T19:14:13Z</time>
      </trkpt>
      <trkpt lat="46.64857" lon="-1.73384">
        <ele>56</ele>
        <time>2018-03-16T19:15:13Z</time>
      </trkpt>
      <trkpt lat="46.64878" lon="-1.73422">
        <ele>56</ele>
        <time>2018-03-16T19:16:13Z</time>
      </trkpt>
      <trkpt lat="46.64879" lon="-1.73423">
        <ele>56</ele>
        <time>2018-03-16T19:17:13Z</time>
      </trkpt>
      <trkpt lat="46.64879" lon="-1.73423">
        <ele>56</ele>
        <time>2018-03-16T19:18:13Z</time>
      </trkpt>
      <trkpt lat="46.64891" lon="-1.73442">
        <ele>56</ele>
        <time>2018-03-16T19:19:13Z</time>
      </trkpt>
      <trkpt lat="46.64908" lon="-1.73471">
        <ele>55</ele>
        <time>2018-03-16T19:20:13Z</time>
      </trkpt>
      <trkpt lat="46.64935" lon="-1.73517">
        <ele>55</ele>
        <time>2018-03-16T19:21:13Z</time>
      </trkpt>
      <trkpt lat="46.64946" lon="-1.73536">
        <ele>55</ele>
        <time>2018-03-16T19:22:13Z</time>
      </trkpt>
      <trkpt lat="46.64959" lon="-1.73555">
        <ele>55</ele>
        <time>2018-03-16T19:23:13Z</time>
      </trkpt>
      <trkpt lat="46.64967" lon="-1.73565">
        <ele>55</ele>
        <time>2018-03-16T19:24:13Z</time>
      </trkpt>
      <trkpt lat="46.64997" lon="-1.73597">
        <ele>55</ele>
        <time>2018-03-16T19:25:13Z</time>
      </trkpt>
      <trkpt lat="46.65016" lon="-1.73618">
        <ele>55</ele>
        <time>2018-03-16T19:26:13Z</time>
      </trkpt>
      <trkpt lat="46.65028" lon="-1.73632">
        <ele>55</ele>
        <time>2018-03-16T19:27:13Z</time>
      </trkpt>
      <trkpt lat="46.6504" lon="-1.73647">
        <ele>55</ele>
        <time>2018-03-16T19:28:13Z</time>
      </trkpt>
      <trkpt lat="46.65049" lon="-1.7366">
        <ele>54</ele>
        <time>2018-03-16T19:29:13Z</time>
      </trkpt>
      <trkpt lat="46.65062" lon="-1.73677">
        <ele>54</ele>
        <time>2018-03-16T19:30:13Z</time>
      </trkpt>
      <trkpt lat="46.65083" lon="-1.73705">
        <ele>54</ele>
        <time>2018-03-16T19:31:13Z</time>
      </trkpt>
      <trkpt lat="46.651" lon="-1.73728">
        <ele>55</ele>
        <time>2018-03-16T19:32:13Z</time>
      </trkpt>
      <trkpt lat="46.65106" lon="-1.73734">
        <ele>55</ele>
        <time>2018-03-16T19:33:13Z</time>
      </trkpt>
      <trkpt lat="46.65134" lon="-1.73765">
        <ele>55</ele>
        <time>2018-03-16T19:34:13Z</time>
      </trkpt>
      <trkpt lat="46.65146" lon="-1.73777">
        <ele>55</ele>
        <time>2018-03-16T19:35:13Z</time>
      </trkpt>
      <trkpt lat="46.6516" lon="-1.73793">
        <ele>55</ele>
        <time>2018-03-16T19:36:13Z</time>
      </trkpt>
      <trkpt lat="46.65188" lon="-1.73827">
        <ele>55</ele>
        <time>2018-03-16T19:37:13Z</time>
      </trkpt>
      <trkpt lat="46.65221" lon="-1.73866">
        <ele>54</ele>
        <time>2018-03-16T19:38:13Z</time>
      </trkpt>
      <trkpt lat="46.65225" lon="-1.7387">
        <ele>54</ele>
        <time>2018-03-16T19:39:13Z</time>
      </trkpt>
      <trkpt lat="46.65254" lon="-1.73903">
        <ele>53</ele>
        <time>2018-03-16T19:40:13Z</time>
      </trkpt>
      <trkpt lat="46.65256" lon="-1.73904">
        <ele>53</ele>
        <time>2018-03-16T19:41:13Z</time>
      </trkpt>
      <trkpt lat="46.65273" lon="-1.73923">
        <ele>53</ele>
        <time>2018-03-16T19:42:13Z</time>
      </trkpt>
      <trkpt lat="46.65283" lon="-1.73934">
        <ele>53</ele>
        <time>2018-03-16T19:43:13Z</time>
      </trkpt>
      <trkpt lat="46.65295" lon="-1.73949">
        <ele>53</ele>
        <time>2018-03-16T19:44:13Z</time>
      </trkpt>
      <trkpt lat="46.65306" lon="-1.73963">
        <ele>54</ele>
        <time>2018-03-16T19:45:13Z</time>
      </trkpt>
      <trkpt lat="46.65321" lon="-1.73986">
        <ele>54</ele>
        <time>2018-03-16T19:46:13Z</time>
      </trkpt>
      <trkpt lat="46.65331" lon="-1.74002">
        <ele>54</ele>
        <time>2018-03-16T19:47:13Z</time>
      </trkpt>
      <trkpt lat="46.65343" lon="-1.74021">
        <ele>54</ele>
        <time>2018-03-16T19:48:13Z</time>
      </trkpt>
      <trkpt lat="46.65348" lon="-1.74029">
        <ele>54</ele>
        <time>2018-03-16T19:49:13Z</time>
      </trkpt>
      <trkpt lat="46.65368" lon="-1.74059">
        <ele>54</ele>
        <time>2018-03-16T19:50:13Z</time>
      </trkpt>
      <trkpt lat="46.65381" lon="-1.74079">
        <ele>54</ele>
        <time>2018-03-16T19:51:13Z</time>
      </trkpt>
      <trkpt lat="46.65395" lon="-1.741">
        <ele>54</ele>
        <time>2018-03-16T19:52:13Z</time>
      </trkpt>
      <trkpt lat="46.65402" lon="-1.74111">
        <ele>55</ele>
        <time>2018-03-16T19:53:13Z</time>
      </trkpt>
      <trkpt lat="46.65405" lon="-1.74116">
        <ele>55</ele>
        <time>2018-03-16T19:54:13Z</time>
      </trkpt>
      <trkpt lat="46.65419" lon="-1.74142">
        <ele>55</ele>
        <time>2018-03-16T19:55:13Z</time>
      </trkpt>
      <trkpt lat="46.65443" lon="-1.74187">
        <ele>54</ele>
        <time>2018-03-16T19:56:13Z</time>
      </trkpt>
      <trkpt lat="46.65464" lon="-1.74227">
        <ele>54</ele>
        <time>2018-03-16T19:57:13Z</time>
      </trkpt>
      <trkpt lat="46.65484" lon="-1.74266">
        <ele>53</ele>
        <time>2018-03-16T19:58:13Z</time>
      </trkpt>
      <trkpt lat="46.65488" lon="-1.74273">
        <ele>53</ele>
        <time>2018-03-16T19:59:13Z</time>
      </trkpt>
      <trkpt lat="46.65494" lon="-1.74282">
        <ele>53</ele>
        <time>2018-03-16T20:00:13Z</time>
      </trkpt>
      <trkpt lat="46.655" lon="-1.74292">
        <ele>53</ele>
        <time>2018-03-16T20:01:13Z</time>
      </trkpt>
      <trkpt lat="46.65512" lon="-1.7431">
        <ele>53</ele>
        <time>2018-03-16T20:02:13Z</time>
      </trkpt>
      <trkpt lat="46.65517" lon="-1.74319">
        <ele>53</ele>
        <time>2018-03-16T20:03:13Z</time>
      </trkpt>
      <trkpt lat="46.65522" lon="-1.74324">
        <ele>53</ele>
        <time>2018-03-16T20:04:13Z</time>
      </trkpt>
      <trkpt lat="46.65524" lon="-1.74328">
        <ele>53</ele>
        <time>2018-03-16T20:05:13Z</time>
      </trkpt>
      <trkpt lat="46.65528" lon="-1.74332">
        <ele>53</ele>
        <time>2018-03-16T20:06:13Z</time>
      </trkpt>
      <trkpt lat="46.65539" lon="-1.74342">
        <ele>53</ele>
        <time>2018-03-16T20:07:13Z</time>
      </trkpt>
      <trkpt lat="46.65542" lon="-1.74345">
        <ele>53</ele>
        <time>2018-03-16T20:08:13Z</time>
      </trkpt>
      <trkpt lat="46.65544" lon="-1.74347">
        <ele>53</ele>
        <time>2018-03-16T20:09:13Z</time>
      </trkpt>
      <trkpt lat="46.65574" lon="-1.74368">
        <ele>53</ele>
        <time>2018-03-16T20:10:13Z</time>
      </trkpt>
      <trkpt lat="46.65576" lon="-1.74369">
        <ele>53</ele>
        <time>2018-03-16T20:11:13Z</time>
      </trkpt>
      <trkpt lat="46.65608" lon="-1.7439">
        <ele>51</ele>
        <time>2018-03-16T20:12:13Z</time>
      </trkpt>
      <trkpt lat="46.65608" lon="-1.7439">
        <ele>51</ele>
        <time>2018-03-16T20:13:13Z</time>
      </trkpt>
      <trkpt lat="46.65646" lon="-1.74417">
        <ele>50</ele>
        <time>2018-03-16T20:14:13Z</time>
      </trkpt>
      <trkpt lat="46.65679" lon="-1.7444">
        <ele>48</ele>
        <time>2018-03-16T20:15:13Z</time>
      </trkpt>
      <trkpt lat="46.65683" lon="-1.74443">
        <ele>48</ele>
        <time>2018-03-16T20:16:13Z</time>
      </trkpt>
      <trkpt lat="46.65712" lon="-1.74463">
        <ele>47</ele>
        <time>2018-03-16T20:17:13Z</time>
      </trkpt>
      <trkpt lat="46.65731" lon="-1.74478">
        <ele>47</ele>
        <time>2018-03-16T20:18:13Z</time>
      </trkpt>
      <trkpt lat="46.65735" lon="-1.74481">
        <ele>47</ele>
        <time>2018-03-16T20:19:13Z</time>
      </trkpt>
      <trkpt lat="46.65741" lon="-1.74484">
        <ele>47</ele>
        <time>2018-03-16T20:20:13Z</time>
      </trkpt>
      <trkpt lat="46.65748" lon="-1.7449">
        <ele>47</ele>
        <time>2018-03-16T20:21:13Z</time>
      </trkpt>
      <trkpt lat="46.65752" lon="-1.74493">
        <ele>47</ele>
        <time>2018-03-16T20:22:13Z</time>
      </trkpt>
      <trkpt lat="46.65756" lon="-1.74497">
        <ele>47</ele>
        <time>2018-03-16T20:23:13Z</time>
      </trkpt>
      <trkpt lat="46.65764" lon="-1.74505">
        <ele>46</ele>
        <time>2018-03-16T20:24:13Z</time>
      </trkpt>
      <trkpt lat="46.65772" lon="-1.74512">
        <ele>46</ele>
        <time>2018-03-16T20:25:13Z</time>
      </trkpt>
      <trkpt lat="46.65777" lon="-1.74517">
        <ele>46</ele>
        <time>2018-03-16T20:26:13Z</time>
      </trkpt>
      <trkpt lat="46.65781" lon="-1.74522">
        <ele>45</ele>
        <time>2018-03-16T20:27:13Z</time>
      </trkpt>
      <trkpt lat="46.65786" lon="-1.74528">
        <ele>45</ele>
        <time>2018-03-16T20:28:13Z</time>
      </trkpt>
      <trkpt lat="46.6579" lon="-1.74533">
        <ele>45</ele>
        <time>2018-03-16T20:29:13Z</time>
      </trkpt>
      <trkpt lat="46.65796" lon="-1.74542">
        <ele>45</ele>
        <time>2018-03-16T20:30:13Z</time>
      </trkpt>
      <trkpt lat="46.65799" lon="-1.74547">
        <ele>45</ele>
        <time>2018-03-16T20:31:13Z</time>
      </trkpt>
      <trkpt lat="46.65802" lon="-1.74551">
        <ele>45</ele>
        <time>2018-03-16T20:32:13Z</time>
      </trkpt>
      <trkpt lat="46.65808" lon="-1.74561">
        <ele>45</ele>
        <time>2018-03-16T20:33:13Z</time>
      </trkpt>
      <trkpt lat="46.65814" lon="-1.7457">
        <ele>44</ele>
        <time>2018-03-16T20:34:13Z</time>
      </trkpt>
      <trkpt lat="46.65825" lon="-1.74588">
        <ele>44</ele>
        <time>2018-03-16T20:35:13Z</time>
      </trkpt>
      <trkpt lat="46.6583" lon="-1.74597">
        <ele>44</ele>
        <time>2018-03-16T20:36:13Z</time>
      </trkpt>
      <trkpt lat="46.65847" lon="-1.74625">
        <ele>43</ele>
        <time>2018-03-16T20:37:13Z</time>
      </trkpt>
      <trkpt lat="46.6586" lon="-1.74649">
        <ele>42</ele>
        <time>2018-03-16T20:38:13Z</time>
      </trkpt>
      <trkpt lat="46.6587" lon="-1.74664">
        <ele>41</ele>
        <time>2018-03-16T20:39:13Z</time>
      </trkpt>
      <trkpt lat="46.65876" lon="-1.74672">
        <ele>41</ele>
        <time>2018-03-16T20:40:13Z</time>
      </trkpt>
      <trkpt lat="46.65884" lon="-1.74682">
        <ele>40</ele>
        <time>2018-03-16T20:41:13Z</time>
      </trkpt>
      <trkpt lat="46.65893" lon="-1.74694">
        <ele>40</ele>
        <time>2018-03-16T20:42:13Z</time>
      </trkpt>
      <trkpt lat="46.65899" lon="-1.74701">
        <ele>39</ele>
        <time>2018-03-16T20:43:13Z</time>
      </trkpt>
      <trkpt lat="46.65905" lon="-1.74707">
        <ele>39</ele>
        <time>2018-03-16T20:44:13Z</time>
      </trkpt>
      <trkpt lat="46.65917" lon="-1.74719">
        <ele>38</ele>
        <time>2018-03-16T20:45:13Z</time>
      </trkpt>
      <trkpt lat="46.65934" lon="-1.74734">
        <ele>37</ele>
        <time>2018-03-16T20:46:13Z</time>
      </trkpt>
      <trkpt lat="46.65942" lon="-1.74741">
        <ele>36</ele>
        <time>2018-03-16T20:47:13Z</time>
      </trkpt>
      <trkpt lat="46.65952" lon="-1.74748">
        <ele>36</ele>
        <time>2018-03-16T20:48:13Z</time>
      </trkpt>
      <trkpt lat="46.65961" lon="-1.74753">
        <ele>35</ele>
        <time>2018-03-16T20:49:13Z</time>
      </trkpt>
      <trkpt lat="46.65978" lon="-1.74761">
        <ele>33</ele>
        <time>2018-03-16T20:50:13Z</time>
      </trkpt>
      <trkpt lat="46.65994" lon="-1.74768">
        <ele>31</ele>
        <time>2018-03-16T20:51:13Z</time>
      </trkpt>
      <trkpt lat="46.66019" lon="-1.74779">
        <ele>29</ele>
        <time>2018-03-16T20:52:13Z</time>
      </trkpt>
      <trkpt lat="46.66039" lon="-1.74789">
        <ele>27</ele>
        <time>2018-03-16T20:53:13Z</time>
      </trkpt>
      <trkpt lat="46.66049" lon="-1.74794">
        <ele>27</ele>
        <time>2018-03-16T20:54:13Z</time>
      </trkpt>
      <trkpt lat="46.66059" lon="-1.74798">
        <ele>26</ele>
        <time>2018-03-16T20:55:13Z</time>
      </trkpt>
      <trkpt lat="46.66079" lon="-1.74808">
        <ele>25</ele>
        <time>2018-03-16T20:56:13Z</time>
      </trkpt>
      <trkpt lat="46.66082" lon="-1.7481">
        <ele>25</ele>
        <time>2018-03-16T20:57:13Z</time>
      </trkpt>
      <trkpt lat="46.66102" lon="-1.74817">
        <ele>24</ele>
        <time>2018-03-16T20:58:13Z</time>
      </trkpt>
      <trkpt lat="46.66133" lon="-1.74826">
        <ele>22</ele>
        <time>2018-03-16T20:59:13Z</time>
      </trkpt>
      <trkpt lat="46.66154" lon="-1.74831">
        <ele>21</ele>
        <time>2018-03-16T21:00:13Z</time>
      </trkpt>
      <trkpt lat="46.66157" lon="-1.74827">
        <ele>20</ele>
        <time>2018-03-16T21:01:13Z</time>
      </trkpt>
      <trkpt lat="46.6616" lon="-1.74825">
        <ele>20</ele>
        <time>2018-03-16T21:02:13Z</time>
      </trkpt>
      <trkpt lat="46.66161" lon="-1.74824">
        <ele>20</ele>
        <time>2018-03-16T21:03:13Z</time>
      </trkpt>
      <trkpt lat="46.6619" lon="-1.74816">
        <ele>18</ele>
        <time>2018-03-16T21:04:13Z</time>
      </trkpt>
      <trkpt lat="46.6619" lon="-1.74816">
        <ele>18</ele>
        <time>2018-03-16T21:05:13Z</time>
      </trkpt>
      <trkpt lat="46.66192" lon="-1.74828">
        <ele>18</ele>
        <time>2018-03-16T21:06:13Z</time>
      </trkpt>
      <trkpt lat="46.66188" lon="-1.74854">
        <ele>18</ele>
        <time>2018-03-16T21:07:13Z</time>
      </trkpt>
      <trkpt lat="46.66194" lon="-1.74866">
        <ele>18</ele>
        <time>2018-03-16T21:08:13Z</time>
      </trkpt>
      <trkpt lat="46.66198" lon="-1.74881">
        <ele>18</ele>
        <time>2018-03-16T21:09:13Z</time>
      </trkpt>
      <trkpt lat="46.66209" lon="-1.74917">
        <ele>17</ele>
        <time>2018-03-16T21:10:13Z</time>
      </trkpt>
      <trkpt lat="46.66209" lon="-1.74918">
        <ele>17</ele>
        <time>2018-03-16T21:11:13Z</time>
      </trkpt>
      <trkpt lat="46.6621" lon="-1.7492">
        <ele>17</ele>
        <time>2018-03-16T21:12:13Z</time>
      </trkpt>
      <trkpt lat="46.6621" lon="-1.74922">
        <ele>17</ele>
        <time>2018-03-16T21:13:13Z</time>
      </trkpt>
      <trkpt lat="46.6621" lon="-1.74924">
        <ele>17</ele>
        <time>2018-03-16T21:14:13Z</time>
      </trkpt>
      <trkpt lat="46.6621" lon="-1.74928">
        <ele>17</ele>
        <time>2018-03-16T21:15:13Z</time>
      </trkpt>
      <trkpt lat="46.6621" lon="-1.74935">
        <ele>16</ele>
        <time>2018-03-16T21:16:13Z</time>
      </trkpt>
      <trkpt lat="46.66209" lon="-1.74939">
        <ele>16</ele>
        <time>2018-03-16T21:17:13Z</time>
      </trkpt>
      <trkpt lat="46.66209" lon="-1.74942">
        <ele>16</ele>
        <time>2018-03-16T21:18:13Z</time>
      </trkpt>
      <trkpt lat="46.66208" lon="-1.74945">
        <ele>16</ele>
        <time>2018-03-16T21:19:13Z</time>
      </trkpt>
      <trkpt lat="46.66207" lon="-1.74949">
        <ele>16</ele>
        <time>2018-03-16T21:20:13Z</time>
      </trkpt>
      <trkpt lat="46.66206" lon="-1.74952">
        <ele>16</ele>
        <time>2018-03-16T21:21:13Z</time>
      </trkpt>
      <trkpt lat="46.66204" lon="-1.74956">
        <ele>16</ele>
        <time>2018-03-16T21:22:13Z</time>
      </trkpt>
      <trkpt lat="46.66202" lon="-1.74961">
        <ele>16</ele>
        <time>2018-03-16T21:23:13Z</time>
      </trkpt>
      <trkpt lat="46.662" lon="-1.74967">
        <ele>16</ele>
        <time>2018-03-16T21:24:13Z</time>
      </trkpt>
      <trkpt lat="46.66197" lon="-1.74972">
        <ele>16</ele>
        <time>2018-03-16T21:25:13Z</time>
      </trkpt>
      <trkpt lat="46.66194" lon="-1.74977">
        <ele>16</ele>
        <time>2018-03-16T21:26:13Z</time>
      </trkpt>
      <trkpt lat="46.66183" lon="-1.74997">
        <ele>16</ele>
        <time>2018-03-16T21:27:13Z</time>
      </trkpt>
      <trkpt lat="46.6617" lon="-1.75019">
        <ele>15</ele>
        <time>2018-03-16T21:28:13Z</time>
      </trkpt>
      <trkpt lat="46.66157" lon="-1.7504">
        <ele>15</ele>
        <time>2018-03-16T21:29:13Z</time>
      </trkpt>
      <trkpt lat="46.66147" lon="-1.75058">
        <ele>14</ele>
        <time>2018-03-16T21:30:13Z</time>
      </trkpt>
      <trkpt lat="46.6611" lon="-1.75122">
        <ele>13</ele>
        <time>2018-03-16T21:31:13Z</time>
      </trkpt>
      <trkpt lat="46.66073" lon="-1.75183">
        <ele>12</ele>
        <time>2018-03-16T21:32:13Z</time>
      </trkpt>
      <trkpt lat="46.66069" lon="-1.7519">
        <ele>13</ele>
        <time>2018-03-16T21:33:13Z</time>
      </trkpt>
      <trkpt lat="46.66065" lon="-1.75197">
        <ele>13</ele>
        <time>2018-03-16T21:34:13Z</time>
      </trkpt>
      <trkpt lat="46.66032" lon="-1.75257">
        <ele>15</ele>
        <time>2018-03-16T21:35:13Z</time>
      </trkpt>
      <trkpt lat="46.66012" lon="-1.75292">
        <ele>16</ele>
        <time>2018-03-16T21:36:13Z</time>
      </trkpt>
      <trkpt lat="46.6601" lon="-1.75297">
        <ele>15</ele>
        <time>2018-03-16T21:37:13Z</time>
      </trkpt>
      <trkpt lat="46.66008" lon="-1.75302">
        <ele>15</ele>
        <time>2018-03-16T21:38:13Z</time>
      </trkpt>
      <trkpt lat="46.66007" lon="-1.75308">
        <ele>15</ele>
        <time>2018-03-16T21:39:13Z</time>
      </trkpt>
      <trkpt lat="46.66006" lon="-1.75314">
        <ele>15</ele>
        <time>2018-03-16T21:40:13Z</time>
      </trkpt>
      <trkpt lat="46.66007" lon="-1.75321">
        <ele>16</ele>
        <time>2018-03-16T21:41:13Z</time>
      </trkpt>
      <trkpt lat="46.66007" lon="-1.75326">
        <ele>16</ele>
        <time>2018-03-16T21:42:13Z</time>
      </trkpt>
      <trkpt lat="46.66008" lon="-1.75331">
        <ele>16</ele>
        <time>2018-03-16T21:43:13Z</time>
      </trkpt>
      <trkpt lat="46.6601" lon="-1.75336">
        <ele>16</ele>
        <time>2018-03-16T21:44:13Z</time>
      </trkpt>
      <trkpt lat="46.66011" lon="-1.7534">
        <ele>16</ele>
        <time>2018-03-16T21:45:13Z</time>
      </trkpt>
      <trkpt lat="46.66014" lon="-1.75343">
        <ele>16</ele>
        <time>2018-03-16T21:46:13Z</time>
      </trkpt>
      <trkpt lat="46.66018" lon="-1.75349">
        <ele>16</ele>
        <time>2018-03-16T21:47:13Z</time>
      </trkpt>
      <trkpt lat="46.66024" lon="-1.75353">
        <ele>17</ele>
        <time>2018-03-16T21:48:13Z</time>
      </trkpt>
      <trkpt lat="46.66028" lon="-1.75355">
        <ele>17</ele>
        <time>2018-03-16T21:49:13Z</time>
      </trkpt>
      <trkpt lat="46.66032" lon="-1.75357">
        <ele>17</ele>
        <time>2018-03-16T21:50:13Z</time>
      </trkpt>
      <trkpt lat="46.66037" lon="-1.75359">
        <ele>17</ele>
        <time>2018-03-16T21:51:13Z</time>
      </trkpt>
      <trkpt lat="46.66068" lon="-1.75366">
        <ele>20</ele>
        <time>2018-03-16T21:52:13Z</time>
      </trkpt>
      <trkpt lat="46.66083" lon="-1.75369">
        <ele>21</ele>
        <time>2018-03-16T21:53:13Z</time>
      </trkpt>
      <trkpt lat="46.66093" lon="-1.75372">
        <ele>22</ele>
        <time>2018-03-16T21:54:13Z</time>
      </trkpt>
      <trkpt lat="46.66105" lon="-1.75375">
        <ele>23</ele>
        <time>2018-03-16T21:55:13Z</time>
      </trkpt>
      <trkpt lat="46.66129" lon="-1.75381">
        <ele>24</ele>
        <time>2018-03-16T21:56:13Z</time>
      </trkpt>
      <trkpt lat="46.66148" lon="-1.75385">
        <ele>26</ele>
        <time>2018-03-16T21:57:13Z</time>
      </trkpt>
      <trkpt lat="46.66153" lon="-1.75386">
        <ele>26</ele>
        <time>2018-03-16T21:58:13Z</time>
      </trkpt>
      <trkpt lat="46.66157" lon="-1.75387">
        <ele>26</ele>
        <time>2018-03-16T21:59:13Z</time>
      </trkpt>
      <trkpt lat="46.66175" lon="-1.75389">
        <ele>27</ele>
        <time>2018-03-16T22:00:13Z</time>
      </trkpt>
      <trkpt lat="46.66205" lon="-1.75391">
        <ele>28</ele>
        <time>2018-03-16T22:01:13Z</time>
      </trkpt>
      <trkpt lat="46.66221" lon="-1.75392">
        <ele>28</ele>
        <time>2018-03-16T22:02:13Z</time>
      </trkpt>
      <trkpt lat="46.66249" lon="-1.75393">
        <ele>29</ele>
        <time>2018-03-16T22:03:13Z</time>
      </trkpt>
      <trkpt lat="46.66276" lon="-1.75393">
        <ele>29</ele>
        <time>2018-03-16T22:04:13Z</time>
      </trkpt>
      <trkpt lat="46.66281" lon="-1.75393">
        <ele>29</ele>
        <time>2018-03-16T22:05:13Z</time>
      </trkpt>
      <trkpt lat="46.66292" lon="-1.75394">
        <ele>29</ele>
        <time>2018-03-16T22:06:13Z</time>
      </trkpt>
      <trkpt lat="46.663" lon="-1.75394">
        <ele>30</ele>
        <time>2018-03-16T22:07:13Z</time>
      </trkpt>
      <trkpt lat="46.66305" lon="-1.75395">
        <ele>30</ele>
        <time>2018-03-16T22:08:13Z</time>
      </trkpt>
      <trkpt lat="46.66312" lon="-1.75396">
        <ele>30</ele>
        <time>2018-03-16T22:09:13Z</time>
      </trkpt>
      <trkpt lat="46.66317" lon="-1.75397">
        <ele>30</ele>
        <time>2018-03-16T22:10:13Z</time>
      </trkpt>
      <trkpt lat="46.66321" lon="-1.75399">
        <ele>30</ele>
        <time>2018-03-16T22:11:13Z</time>
      </trkpt>
      <trkpt lat="46.66325" lon="-1.754">
        <ele>30</ele>
        <time>2018-03-16T22:12:13Z</time>
      </trkpt>
      <trkpt lat="46.66326" lon="-1.75402">
        <ele>31</ele>
        <time>2018-03-16T22:13:13Z</time>
      </trkpt>
      <trkpt lat="46.66329" lon="-1.75404">
        <ele>31</ele>
        <time>2018-03-16T22:14:13Z</time>
      </trkpt>
      <trkpt lat="46.66332" lon="-1.75406">
        <ele>31</ele>
        <time>2018-03-16T22:15:13Z</time>
      </trkpt>
      <trkpt lat="46.66334" lon="-1.75411">
        <ele>32</ele>
        <time>2018-03-16T22:16:13Z</time>
      </trkpt>
      <trkpt lat="46.66337" lon="-1.75416">
        <ele>32</ele>
        <time>2018-03-16T22:17:13Z</time>
      </trkpt>
      <trkpt lat="46.6634" lon="-1.75423">
        <ele>32</ele>
        <time>2018-03-16T22:18:13Z</time>
      </trkpt>
      <trkpt lat="46.66345" lon="-1.75432">
        <ele>31</ele>
        <time>2018-03-16T22:19:13Z</time>
      </trkpt>
      <trkpt lat="46.66349" lon="-1.75437">
        <ele>31</ele>
        <time>2018-03-16T22:20:13Z</time>
      </trkpt>
      <trkpt lat="46.66351" lon="-1.7544">
        <ele>31</ele>
        <time>2018-03-16T22:21:13Z</time>
      </trkpt>
      <trkpt lat="46.66357" lon="-1.75446">
        <ele>31</ele>
        <time>2018-03-16T22:22:13Z</time>
      </trkpt>
      <trkpt lat="46.66364" lon="-1.75451">
        <ele>31</ele>
        <time>2018-03-16T22:23:13Z</time>
      </trkpt>
      <trkpt lat="46.66371" lon="-1.75455">
        <ele>31</ele>
        <time>2018-03-16T22:24:13Z</time>
      </trkpt>
      <trkpt lat="46.66379" lon="-1.75459">
        <ele>32</ele>
        <time>2018-03-16T22:25:13Z</time>
      </trkpt>
      <trkpt lat="46.66386" lon="-1.75462">
        <ele>32</ele>
        <time>2018-03-16T22:26:13Z</time>
      </trkpt>
      <trkpt lat="46.66401" lon="-1.75468">
        <ele>33</ele>
        <time>2018-03-16T22:27:13Z</time>
      </trkpt>
      <trkpt lat="46.66401" lon="-1.75468">
        <ele>33</ele>
        <time>2018-03-16T22:28:13Z</time>
      </trkpt>
      <trkpt lat="46.66407" lon="-1.7547">
        <ele>33</ele>
        <time>2018-03-16T22:29:13Z</time>
      </trkpt>
      <trkpt lat="46.66413" lon="-1.75471">
        <ele>34</ele>
        <time>2018-03-16T22:30:13Z</time>
      </trkpt>
      <trkpt lat="46.6642" lon="-1.75473">
        <ele>34</ele>
        <time>2018-03-16T22:31:13Z</time>
      </trkpt>
      <trkpt lat="46.66427" lon="-1.75474">
        <ele>35</ele>
        <time>2018-03-16T22:32:13Z</time>
      </trkpt>
      <trkpt lat="46.66432" lon="-1.75475">
        <ele>36</ele>
        <time>2018-03-16T22:33:13Z</time>
      </trkpt>
      <trkpt lat="46.66439" lon="-1.75477">
        <ele>37</ele>
        <time>2018-03-16T22:34:13Z</time>
      </trkpt>
      <trkpt lat="46.6645" lon="-1.75476">
        <ele>38</ele>
        <time>2018-03-16T22:35:13Z</time>
      </trkpt>
      <trkpt lat="46.66458" lon="-1.75475">
        <ele>39</ele>
        <time>2018-03-16T22:36:13Z</time>
      </trkpt>
      <trkpt lat="46.66471" lon="-1.75473">
        <ele>41</ele>
        <time>2018-03-16T22:37:13Z</time>
      </trkpt>
      <trkpt lat="46.66484" lon="-1.7547">
        <ele>43</ele>
        <time>2018-03-16T22:38:13Z</time>
      </trkpt>
      <trkpt lat="46.66494" lon="-1.75467">
        <ele>44</ele>
        <time>2018-03-16T22:39:13Z</time>
      </trkpt>
      <trkpt lat="46.66503" lon="-1.75465">
        <ele>45</ele>
        <time>2018-03-16T22:40:13Z</time>
      </trkpt>
      <trkpt lat="46.66511" lon="-1.75463">
        <ele>46</ele>
        <time>2018-03-16T22:41:13Z</time>
      </trkpt>
      <trkpt lat="46.66521" lon="-1.75462">
        <ele>47</ele>
        <time>2018-03-16T22:42:13Z</time>
      </trkpt>
      <trkpt lat="46.66531" lon="-1.75462">
        <ele>47</ele>
        <time>2018-03-16T22:43:13Z</time>
      </trkpt>
      <trkpt lat="46.6654" lon="-1.75463">
        <ele>48</ele>
        <time>2018-03-16T22:44:13Z</time>
      </trkpt>
      <trkpt lat="46.66548" lon="-1.75464">
        <ele>48</ele>
        <time>2018-03-16T22:45:13Z</time>
      </trkpt>
      <trkpt lat="46.66555" lon="-1.75466">
        <ele>48</ele>
        <time>2018-03-16T22:46:13Z</time>
      </trkpt>
      <trkpt lat="46.66562" lon="-1.75468">
        <ele>49</ele>
        <time>2018-03-16T22:47:13Z</time>
      </trkpt>
      <trkpt lat="46.66571" lon="-1.75472">
        <ele>49</ele>
        <time>2018-03-16T22:48:13Z</time>
      </trkpt>
      <trkpt lat="46.66577" lon="-1.75476">
        <ele>50</ele>
        <time>2018-03-16T22:49:13Z</time>
      </trkpt>
      <trkpt lat="46.66592" lon="-1.75484">
        <ele>50</ele>
        <time>2018-03-16T22:50:13Z</time>
      </trkpt>
      <trkpt lat="46.666" lon="-1.75488">
        <ele>50</ele>
        <time>2018-03-16T22:51:13Z</time>
      </trkpt>
      <trkpt lat="46.66606" lon="-1.75491">
        <ele>50</ele>
        <time>2018-03-16T22:52:13Z</time>
      </trkpt>
      <trkpt lat="46.66615" lon="-1.75493">
        <ele>50</ele>
        <time>2018-03-16T22:53:13Z</time>
      </trkpt>
      <trkpt lat="46.66623" lon="-1.75493">
        <ele>50</ele>
        <time>2018-03-16T22:54:13Z</time>
      </trkpt>
      <trkpt lat="46.6663" lon="-1.75492">
        <ele>50</ele>
        <time>2018-03-16T22:55:13Z</time>
      </trkpt>
      <trkpt lat="46.66651" lon="-1.75488">
        <ele>50</ele>
        <time>2018-03-16T22:56:13Z</time>
      </trkpt>
      <trkpt lat="46.66669" lon="-1.75485">
        <ele>50</ele>
        <time>2018-03-16T22:57:13Z</time>
      </trkpt>
      <trkpt lat="46.66678" lon="-1.75484">
        <ele>49</ele>
        <time>2018-03-16T22:58:13Z</time>
      </trkpt>
      <trkpt lat="46.66686" lon="-1.75483">
        <ele>49</ele>
        <time>2018-03-16T22:59:13Z</time>
      </trkpt>
      <trkpt lat="46.66698" lon="-1.75484">
        <ele>48</ele>
        <time>2018-03-16T23:00:13Z</time>
      </trkpt>
      <trkpt lat="46.66715" lon="-1.75487">
        <ele>48</ele>
        <time>2018-03-16T23:01:13Z</time>
      </trkpt>
      <trkpt lat="46.66737" lon="-1.75493">
        <ele>47</ele>
        <time>2018-03-16T23:02:13Z</time>
      </trkpt>
      <trkpt lat="46.6676" lon="-1.75499">
        <ele>46</ele>
        <time>2018-03-16T23:03:13Z</time>
      </trkpt>
      <trkpt lat="46.66775" lon="-1.75504">
        <ele>46</ele>
        <time>2018-03-16T23:04:13Z</time>
      </trkpt>
      <trkpt lat="46.66786" lon="-1.75508">
        <ele>46</ele>
        <time>2018-03-16T23:05:13Z</time>
      </trkpt>
      <trkpt lat="46.66797" lon="-1.75513">
        <ele>45</ele>
        <time>2018-03-16T23:06:13Z</time>
      </trkpt>
      <trkpt lat="46.66803" lon="-1.75517">
        <ele>45</ele>
        <time>2018-03-16T23:07:13Z</time>
      </trkpt>
      <trkpt lat="46.66808" lon="-1.75521">
        <ele>45</ele>
        <time>2018-03-16T23:08:13Z</time>
      </trkpt>
      <trkpt lat="46.66819" lon="-1.7553">
        <ele>45</ele>
        <time>2018-03-16T23:09:13Z</time>
      </trkpt>
      <trkpt lat="46.66831" lon="-1.75542">
        <ele>45</ele>
        <time>2018-03-16T23:10:13Z</time>
      </trkpt>
      <trkpt lat="46.66839" lon="-1.75552">
        <ele>45</ele>
        <time>2018-03-16T23:11:13Z</time>
      </trkpt>
      <trkpt lat="46.66854" lon="-1.75568">
        <ele>46</ele>
        <time>2018-03-16T23:12:13Z</time>
      </trkpt>
      <trkpt lat="46.66859" lon="-1.75573">
        <ele>46</ele>
        <time>2018-03-16T23:13:13Z</time>
      </trkpt>
      <trkpt lat="46.66864" lon="-1.75578">
        <ele>47</ele>
        <time>2018-03-16T23:14:13Z</time>
      </trkpt>
      <trkpt lat="46.66872" lon="-1.75583">
        <ele>47</ele>
        <time>2018-03-16T23:15:13Z</time>
      </trkpt>
      <trkpt lat="46.66876" lon="-1.75587">
        <ele>47</ele>
        <time>2018-03-16T23:16:13Z</time>
      </trkpt>
      <trkpt lat="46.66879" lon="-1.75589">
        <ele>47</ele>
        <time>2018-03-16T23:17:13Z</time>
      </trkpt>
      <trkpt lat="46.66884" lon="-1.75591">
        <ele>47</ele>
        <time>2018-03-16T23:18:13Z</time>
      </trkpt>
      <trkpt lat="46.6689" lon="-1.75594">
        <ele>47</ele>
        <time>2018-03-16T23:19:13Z</time>
      </trkpt>
      <trkpt lat="46.66895" lon="-1.75596">
        <ele>47</ele>
        <time>2018-03-16T23:20:13Z</time>
      </trkpt>
      <trkpt lat="46.669" lon="-1.75598">
        <ele>47</ele>
        <time>2018-03-16T23:21:13Z</time>
      </trkpt>
      <trkpt lat="46.66911" lon="-1.75601">
        <ele>47</ele>
        <time>2018-03-16T23:22:13Z</time>
      </trkpt>
      <trkpt lat="46.66921" lon="-1.75604">
        <ele>48</ele>
        <time>2018-03-16T23:23:13Z</time>
      </trkpt>
      <trkpt lat="46.66934" lon="-1.75606">
        <ele>48</ele>
        <time>2018-03-16T23:24:13Z</time>
      </trkpt>
      <trkpt lat="46.6696" lon="-1.75611">
        <ele>48</ele>
        <time>2018-03-16T23:25:13Z</time>
      </trkpt>
      <trkpt lat="46.66973" lon="-1.75615">
        <ele>48</ele>
        <time>2018-03-16T23:26:13Z</time>
      </trkpt>
      <trkpt lat="46.66978" lon="-1.75616">
        <ele>48</ele>
        <time>2018-03-16T23:27:13Z</time>
      </trkpt>
      <trkpt lat="46.66981" lon="-1.75618">
        <ele>48</ele>
        <time>2018-03-16T23:28:13Z</time>
      </trkpt>
      <trkpt lat="46.66993" lon="-1.75625">
        <ele>49</ele>
        <time>2018-03-16T23:29:13Z</time>
      </trkpt>
      <trkpt lat="46.66994" lon="-1.75627">
        <ele>49</ele>
        <time>2018-03-16T23:30:13Z</time>
      </trkpt>
      <trkpt lat="46.66996" lon="-1.75628">
        <ele>49</ele>
        <time>2018-03-16T23:31:13Z</time>
      </trkpt>
      <trkpt lat="46.66998" lon="-1.75631">
        <ele>49</ele>
        <time>2018-03-16T23:32:13Z</time>
      </trkpt>
      <trkpt lat="46.67001" lon="-1.75635">
        <ele>49</ele>
        <time>2018-03-16T23:33:13Z</time>
      </trkpt>
      <trkpt lat="46.67004" lon="-1.7564">
        <ele>50</ele>
        <time>2018-03-16T23:34:13Z</time>
      </trkpt>
      <trkpt lat="46.67008" lon="-1.75646">
        <ele>50</ele>
        <time>2018-03-16T23:35:13Z</time>
      </trkpt>
      <trkpt lat="46.6701" lon="-1.75651">
        <ele>50</ele>
        <time>2018-03-16T23:36:13Z</time>
      </trkpt>
      <trkpt lat="46.67013" lon="-1.75658">
        <ele>50</ele>
        <time>2018-03-16T23:37:13Z</time>
      </trkpt>
      <trkpt lat="46.67015" lon="-1.75662">
        <ele>50</ele>
        <time>2018-03-16T23:38:13Z</time>
      </trkpt>
      <trkpt lat="46.67017" lon="-1.75667">
        <ele>51</ele>
        <time>2018-03-16T23:39:13Z</time>
      </trkpt>
      <trkpt lat="46.67018" lon="-1.75673">
        <ele>51</ele>
        <time>2018-03-16T23:40:13Z</time>
      </trkpt>
      <trkpt lat="46.67021" lon="-1.75683">
        <ele>51</ele>
        <time>2018-03-16T23:41:13Z</time>
      </trkpt>
      <trkpt lat="46.67023" lon="-1.7569">
        <ele>51</ele>
        <time>2018-03-16T23:42:13Z</time>
      </trkpt>
      <trkpt lat="46.67026" lon="-1.75699">
        <ele>51</ele>
        <time>2018-03-16T23:43:13Z</time>
      </trkpt>
      <trkpt lat="46.67036" lon="-1.75731">
        <ele>51</ele>
        <time>2018-03-16T23:44:13Z</time>
      </trkpt>
      <trkpt lat="46.67037" lon="-1.75737">
        <ele>51</ele>
        <time>2018-03-16T23:45:13Z</time>
      </trkpt>
      <trkpt lat="46.67048" lon="-1.75765">
        <ele>51</ele>
        <time>2018-03-16T23:46:13Z</time>
      </trkpt>
      <trkpt lat="46.67053" lon="-1.75777">
        <ele>51</ele>
        <time>2018-03-16T23:47:13Z</time>
      </trkpt>
      <trkpt lat="46.67055" lon="-1.75783">
        <ele>51</ele>
        <time>2018-03-16T23:48:13Z</time>
      </trkpt>
      <trkpt lat="46.67057" lon="-1.7579">
        <ele>51</ele>
        <time>2018-03-16T23:49:13Z</time>
      </trkpt>
      <trkpt lat="46.67058" lon="-1.75795">
        <ele>51</ele>
        <time>2018-03-16T23:50:13Z</time>
      </trkpt>
      <trkpt lat="46.67059" lon="-1.75797">
        <ele>51</ele>
        <time>2018-03-16T23:51:13Z</time>
      </trkpt>
      <trkpt lat="46.6706" lon="-1.758">
        <ele>51</ele>
        <time>2018-03-16T23:52:13Z</time>
      </trkpt>
      <trkpt lat="46.6706" lon="-1.75803">
        <ele>51</ele>
        <time>2018-03-16T23:53:13Z</time>
      </trkpt>
      <trkpt lat="46.67061" lon="-1.75808">
        <ele>51</ele>
        <time>2018-03-16T23:54:13Z</time>
      </trkpt>
      <trkpt lat="46.67063" lon="-1.75815">
        <ele>51</ele>
        <time>2018-03-16T23:55:13Z</time>
      </trkpt>
      <trkpt lat="46.67065" lon="-1.75828">
        <ele>51</ele>
        <time>2018-03-16T23:56:13Z</time>
      </trkpt>
      <trkpt lat="46.67067" lon="-1.75837">
        <ele>51</ele>
        <time>2018-03-16T23:57:13Z</time>
      </trkpt>
      <trkpt lat="46.67069" lon="-1.75843">
        <ele>51</ele>
        <time>2018-03-16T23:58:13Z</time>
      </trkpt>
      <trkpt lat="46.6707" lon="-1.75846">
        <ele>51</ele>
        <time>2018-03-16T23:59:13Z</time>
      </trkpt>
      <trkpt lat="46.67073" lon="-1.75856">
        <ele>51</ele>
        <time>2018-03-17T00:00:13Z</time>
      </trkpt>
      <trkpt lat="46.67081" lon="-1.75878">
        <ele>51</ele>
        <time>2018-03-17T00:01:13Z</time>
      </trkpt>
      <trkpt lat="46.67084" lon="-1.75884">
        <ele>51</ele>
        <time>2018-03-17T00:02:13Z</time>
      </trkpt>
      <trkpt lat="46.67104" lon="-1.75932">
        <ele>51</ele>
        <time>2018-03-17T00:03:13Z</time>
      </trkpt>
      <trkpt lat="46.67109" lon="-1.75944">
        <ele>52</ele>
        <time>2018-03-17T00:04:13Z</time>
      </trkpt>
      <trkpt lat="46.67112" lon="-1.75949">
        <ele>52</ele>
        <time>2018-03-17T00:05:13Z</time>
      </trkpt>
      <trkpt lat="46.67114" lon="-1.75952">
        <ele>52</ele>
        <time>2018-03-17T00:06:13Z</time>
      </trkpt>
      <trkpt lat="46.67117" lon="-1.75955">
        <ele>52</ele>
        <time>2018-03-17T00:07:13Z</time>
      </trkpt>
      <trkpt lat="46.6712" lon="-1.75958">
        <ele>52</ele>
        <time>2018-03-17T00:08:13Z</time>
      </trkpt>
      <trkpt lat="46.67123" lon="-1.7596">
        <ele>52</ele>
        <time>2018-03-17T00:09:13Z</time>
      </trkpt>
      <trkpt lat="46.67127" lon="-1.75962">
        <ele>52</ele>
        <time>2018-03-17T00:10:13Z</time>
      </trkpt>
      <trkpt lat="46.67132" lon="-1.75964">
        <ele>52</ele>
        <time>2018-03-17T00:11:13Z</time>
      </trkpt>
      <trkpt lat="46.67137" lon="-1.75963">
        <ele>52</ele>
        <time>2018-03-17T00:12:13Z</time>
      </trkpt>
      <trkpt lat="46.67141" lon="-1.75963">
        <ele>52</ele>
        <time>2018-03-17T00:13:13Z</time>
      </trkpt>
      <trkpt lat="46.67148" lon="-1.7596">
        <ele>52</ele>
        <time>2018-03-17T00:14:13Z</time>
      </trkpt>
      <trkpt lat="46.67154" lon="-1.75957">
        <ele>52</ele>
        <time>2018-03-17T00:15:13Z</time>
      </trkpt>
      <trkpt lat="46.67171" lon="-1.75946">
        <ele>51</ele>
        <time>2018-03-17T00:16:13Z</time>
      </trkpt>
      <trkpt lat="46.67193" lon="-1.75932">
        <ele>51</ele>
        <time>2018-03-17T00:17:13Z</time>
      </trkpt>
      <trkpt lat="46.67229" lon="-1.75909">
        <ele>51</ele>
        <time>2018-03-17T00:18:13Z</time>
      </trkpt>
      <trkpt lat="46.67263" lon="-1.75887">
        <ele>51</ele>
        <time>2018-03-17T00:19:13Z</time>
      </trkpt>
      <trkpt lat="46.67279" lon="-1.75877">
        <ele>52</ele>
        <time>2018-03-17T00:20:13Z</time>
      </trkpt>
      <trkpt lat="46.67281" lon="-1.75872">
        <ele>52</ele>
        <time>2018-03-17T00:21:13Z</time>
      </trkpt>
      <trkpt lat="46.67296" lon="-1.75864">
        <ele>52</ele>
        <time>2018-03-17T00:22:13Z</time>
      </trkpt>
      <trkpt lat="46.67296" lon="-1.75864">
        <ele>52</ele>
        <time>2018-03-17T00:23:13Z</time>
      </trkpt>
      <trkpt lat="46.67303" lon="-1.75862">
        <ele>52</ele>
        <time>2018-03-17T00:24:13Z</time>
      </trkpt>
      <trkpt lat="46.67304" lon="-1.75869">
        <ele>52</ele>
        <time>2018-03-17T00:25:13Z</time>
      </trkpt>
      <trkpt lat="46.67304" lon="-1.75875">
        <ele>52</ele>
        <time>2018-03-17T00:26:13Z</time>
      </trkpt>
      <trkpt lat="46.67301" lon="-1.75912">
        <ele>52</ele>
        <time>2018-03-17T00:27:13Z</time>
      </trkpt>
      <trkpt lat="46.67298" lon="-1.75924">
        <ele>52</ele>
        <time>2018-03-17T00:28:13Z</time>
      </trkpt>
      <trkpt lat="46.67295" lon="-1.75945">
        <ele>52</ele>
        <time>2018-03-17T00:29:13Z</time>
      </trkpt>
      <trkpt lat="46.67292" lon="-1.75975">
        <ele>52</ele>
        <time>2018-03-17T00:30:13Z</time>
      </trkpt>
      <trkpt lat="46.67289" lon="-1.76008">
        <ele>52</ele>
        <time>2018-03-17T00:31:13Z</time>
      </trkpt>
      <trkpt lat="46.67285" lon="-1.76045">
        <ele>52</ele>
        <time>2018-03-17T00:32:13Z</time>
      </trkpt>
      <trkpt lat="46.67281" lon="-1.7608">
        <ele>52</ele>
        <time>2018-03-17T00:33:13Z</time>
      </trkpt>
      <trkpt lat="46.67277" lon="-1.76114">
        <ele>52</ele>
        <time>2018-03-17T00:34:13Z</time>
      </trkpt>
      <trkpt lat="46.67274" lon="-1.76138">
        <ele>52</ele>
        <time>2018-03-17T00:35:13Z</time>
      </trkpt>
      <trkpt lat="46.67272" lon="-1.76156">
        <ele>52</ele>
        <time>2018-03-17T00:36:13Z</time>
      </trkpt>
      <trkpt lat="46.6727" lon="-1.76168">
        <ele>52</ele>
        <time>2018-03-17T00:37:13Z</time>
      </trkpt>
      <trkpt lat="46.67269" lon="-1.76175">
        <ele>52</ele>
        <time>2018-03-17T00:38:13Z</time>
      </trkpt>
      <trkpt lat="46.67267" lon="-1.76183">
        <ele>52</ele>
        <time>2018-03-17T00:39:13Z</time>
      </trkpt>
      <trkpt lat="46.67262" lon="-1.76199">
        <ele>52</ele>
        <time>2018-03-17T00:40:13Z</time>
      </trkpt>
      <trkpt lat="46.67255" lon="-1.76217">
        <ele>51</ele>
        <time>2018-03-17T00:41:13Z</time>
      </trkpt>
      <trkpt lat="46.67249" lon="-1.76231">
        <ele>51</ele>
        <time>2018-03-17T00:42:13Z</time>
      </trkpt>
      <trkpt lat="46.67244" lon="-1.76243">
        <ele>51</ele>
        <time>2018-03-17T00:43:13Z</time>
      </trkpt>
      <trkpt lat="46.67234" lon="-1.76268">
        <ele>51</ele>
        <time>2018-03-17T00:44:13Z</time>
      </trkpt>
      <trkpt lat="46.67226" lon="-1.76284">
        <ele>51</ele>
        <time>2018-03-17T00:45:13Z</time>
      </trkpt>
      <trkpt lat="46.67214" lon="-1.76309">
        <ele>51</ele>
        <time>2018-03-17T00:46:13Z</time>
      </trkpt>
      <trkpt lat="46.67207" lon="-1.76324">
        <ele>51</ele>
        <time>2018-03-17T00:47:13Z</time>
      </trkpt>
      <trkpt lat="46.672" lon="-1.76338">
        <ele>51</ele>
        <time>2018-03-17T00:48:13Z</time>
      </trkpt>
      <trkpt lat="46.67187" lon="-1.76364">
        <ele>51</ele>
        <time>2018-03-17T00:49:13Z</time>
      </trkpt>
      <trkpt lat="46.67184" lon="-1.76371">
        <ele>51</ele>
        <time>2018-03-17T00:50:13Z</time>
      </trkpt>
      <trkpt lat="46.67182" lon="-1.76374">
        <ele>51</ele>
        <time>2018-03-17T00:51:13Z</time>
      </trkpt>
      <trkpt lat="46.6718" lon="-1.7638">
        <ele>51</ele>
        <time>2018-03-17T00:52:13Z</time>
      </trkpt>
      <trkpt lat="46.67176" lon="-1.76389">
        <ele>51</ele>
        <time>2018-03-17T00:53:13Z</time>
      </trkpt>
      <trkpt lat="46.67171" lon="-1.76406">
        <ele>50</ele>
        <time>2018-03-17T00:54:13Z</time>
      </trkpt>
      <trkpt lat="46.67166" lon="-1.76425">
        <ele>50</ele>
        <time>2018-03-17T00:55:13Z</time>
      </trkpt>
      <trkpt lat="46.6715" lon="-1.76484">
        <ele>50</ele>
        <time>2018-03-17T00:56:13Z</time>
      </trkpt>
      <trkpt lat="46.6714" lon="-1.76523">
        <ele>50</ele>
        <time>2018-03-17T00:57:13Z</time>
      </trkpt>
      <trkpt lat="46.67133" lon="-1.76546">
        <ele>50</ele>
        <time>2018-03-17T00:58:13Z</time>
      </trkpt>
      <trkpt lat="46.6713" lon="-1.7656">
        <ele>50</ele>
        <time>2018-03-17T00:59:13Z</time>
      </trkpt>
      <trkpt lat="46.67126" lon="-1.76576">
        <ele>50</ele>
        <time>2018-03-17T01:00:13Z</time>
      </trkpt>
      <trkpt lat="46.67125" lon="-1.76581">
        <ele>50</ele>
        <time>2018-03-17T01:01:13Z</time>
      </trkpt>
      <trkpt lat="46.67123" lon="-1.76589">
        <ele>50</ele>
        <time>2018-03-17T01:02:13Z</time>
      </trkpt>
      <trkpt lat="46.67121" lon="-1.76598">
        <ele>50</ele>
        <time>2018-03-17T01:03:13Z</time>
      </trkpt>
      <trkpt lat="46.67121" lon="-1.76604">
        <ele>50</ele>
        <time>2018-03-17T01:04:13Z</time>
      </trkpt>
      <trkpt lat="46.67119" lon="-1.76618">
        <ele>51</ele>
        <time>2018-03-17T01:05:13Z</time>
      </trkpt>
      <trkpt lat="46.67117" lon="-1.7664">
        <ele>51</ele>
        <time>2018-03-17T01:06:13Z</time>
      </trkpt>
      <trkpt lat="46.67115" lon="-1.76663">
        <ele>51</ele>
        <time>2018-03-17T01:07:13Z</time>
      </trkpt>
      <trkpt lat="46.67114" lon="-1.76683">
        <ele>51</ele>
        <time>2018-03-17T01:08:13Z</time>
      </trkpt>
      <trkpt lat="46.67112" lon="-1.76704">
        <ele>52</ele>
        <time>2018-03-17T01:09:13Z</time>
      </trkpt>
      <trkpt lat="46.6711" lon="-1.76721">
        <ele>52</ele>
        <time>2018-03-17T01:10:13Z</time>
      </trkpt>
      <trkpt lat="46.67109" lon="-1.76734">
        <ele>52</ele>
        <time>2018-03-17T01:11:13Z</time>
      </trkpt>
      <trkpt lat="46.67108" lon="-1.76743">
        <ele>52</ele>
        <time>2018-03-17T01:12:13Z</time>
      </trkpt>
      <trkpt lat="46.67107" lon="-1.76753">
        <ele>52</ele>
        <time>2018-03-17T01:13:13Z</time>
      </trkpt>
      <trkpt lat="46.67104" lon="-1.76764">
        <ele>52</ele>
        <time>2018-03-17T01:14:13Z</time>
      </trkpt>
      <trkpt lat="46.67103" lon="-1.76772">
        <ele>52</ele>
        <time>2018-03-17T01:15:13Z</time>
      </trkpt>
      <trkpt lat="46.67095" lon="-1.76807">
        <ele>52</ele>
        <time>2018-03-17T01:16:13Z</time>
      </trkpt>
      <trkpt lat="46.67084" lon="-1.76857">
        <ele>52</ele>
        <time>2018-03-17T01:17:13Z</time>
      </trkpt>
      <trkpt lat="46.67075" lon="-1.76904">
        <ele>52</ele>
        <time>2018-03-17T01:18:13Z</time>
      </trkpt>
      <trkpt lat="46.67073" lon="-1.76914">
        <ele>52</ele>
        <time>2018-03-17T01:19:13Z</time>
      </trkpt>
      <trkpt lat="46.6707" lon="-1.76927">
        <ele>52</ele>
        <time>2018-03-17T01:20:13Z</time>
      </trkpt>
      <trkpt lat="46.67067" lon="-1.76944">
        <ele>52</ele>
        <time>2018-03-17T01:21:13Z</time>
      </trkpt>
      <trkpt lat="46.67061" lon="-1.7699">
        <ele>52</ele>
        <time>2018-03-17T01:22:13Z</time>
      </trkpt>
      <trkpt lat="46.67055" lon="-1.77029">
        <ele>51</ele>
        <time>2018-03-17T01:23:13Z</time>
      </trkpt>
      <trkpt lat="46.67053" lon="-1.77046">
        <ele>51</ele>
        <time>2018-03-17T01:24:13Z</time>
      </trkpt>
      <trkpt lat="46.67052" lon="-1.77057">
        <ele>51</ele>
        <time>2018-03-17T01:25:13Z</time>
      </trkpt>
      <trkpt lat="46.6705" lon="-1.77066">
        <ele>51</ele>
        <time>2018-03-17T01:26:13Z</time>
      </trkpt>
      <trkpt lat="46.6705" lon="-1.77071">
        <ele>51</ele>
        <time>2018-03-17T01:27:13Z</time>
      </trkpt>
      <trkpt lat="46.67048" lon="-1.77084">
        <ele>51</ele>
        <time>2018-03-17T01:28:13Z</time>
      </trkpt>
      <trkpt lat="46.67044" lon="-1.77105">
        <ele>50</ele>
        <time>2018-03-17T01:29:13Z</time>
      </trkpt>
      <trkpt lat="46.67038" lon="-1.77144">
        <ele>50</ele>
        <time>2018-03-17T01:30:13Z</time>
      </trkpt>
      <trkpt lat="46.6703" lon="-1.77186">
        <ele>49</ele>
        <time>2018-03-17T01:31:13Z</time>
      </trkpt>
      <trkpt lat="46.67021" lon="-1.77237">
        <ele>49</ele>
        <time>2018-03-17T01:32:13Z</time>
      </trkpt>
      <trkpt lat="46.67015" lon="-1.77269">
        <ele>49</ele>
        <time>2018-03-17T01:33:13Z</time>
      </trkpt>
      <trkpt lat="46.6701" lon="-1.77298">
        <ele>48</ele>
        <time>2018-03-17T01:34:13Z</time>
      </trkpt>
      <trkpt lat="46.67008" lon="-1.77312">
        <ele>48</ele>
        <time>2018-03-17T01:35:13Z</time>
      </trkpt>
      <trkpt lat="46.67005" lon="-1.77325">
        <ele>48</ele>
        <time>2018-03-17T01:36:13Z</time>
      </trkpt>
      <trkpt lat="46.67001" lon="-1.77341">
        <ele>48</ele>
        <time>2018-03-17T01:37:13Z</time>
      </trkpt>
      <trkpt lat="46.66994" lon="-1.77369">
        <ele>47</ele>
        <time>2018-03-17T01:38:13Z</time>
      </trkpt>
      <trkpt lat="46.66988" lon="-1.77391">
        <ele>47</ele>
        <time>2018-03-17T01:39:13Z</time>
      </trkpt>
      <trkpt lat="46.6698" lon="-1.77417">
        <ele>47</ele>
        <time>2018-03-17T01:40:13Z</time>
      </trkpt>
      <trkpt lat="46.66971" lon="-1.77451">
        <ele>47</ele>
        <time>2018-03-17T01:41:13Z</time>
      </trkpt>
      <trkpt lat="46.66967" lon="-1.77465">
        <ele>47</ele>
        <time>2018-03-17T01:42:13Z</time>
      </trkpt>
      <trkpt lat="46.66964" lon="-1.77476">
        <ele>47</ele>
        <time>2018-03-17T01:43:13Z</time>
      </trkpt>
      <trkpt lat="46.66962" lon="-1.77484">
        <ele>47</ele>
        <time>2018-03-17T01:44:13Z</time>
      </trkpt>
      <trkpt lat="46.6696" lon="-1.77493">
        <ele>47</ele>
        <time>2018-03-17T01:45:13Z</time>
      </trkpt>
      <trkpt lat="46.66958" lon="-1.77501">
        <ele>47</ele>
        <time>2018-03-17T01:46:13Z</time>
      </trkpt>
      <trkpt lat="46.66957" lon="-1.7751">
        <ele>47</ele>
        <time>2018-03-17T01:47:13Z</time>
      </trkpt>
      <trkpt lat="46.66957" lon="-1.77515">
        <ele>47</ele>
        <time>2018-03-17T01:48:13Z</time>
      </trkpt>
      <trkpt lat="46.66957" lon="-1.7752">
        <ele>47</ele>
        <time>2018-03-17T01:49:13Z</time>
      </trkpt>
      <trkpt lat="46.66957" lon="-1.77528">
        <ele>47</ele>
        <time>2018-03-17T01:50:13Z</time>
      </trkpt>
      <trkpt lat="46.66958" lon="-1.77537">
        <ele>47</ele>
        <time>2018-03-17T01:51:13Z</time>
      </trkpt>
      <trkpt lat="46.66959" lon="-1.77544">
        <ele>46</ele>
        <time>2018-03-17T01:52:13Z</time>
      </trkpt>
      <trkpt lat="46.6696" lon="-1.77551">
        <ele>46</ele>
        <time>2018-03-17T01:53:13Z</time>
      </trkpt>
      <trkpt lat="46.66962" lon="-1.77558">
        <ele>46</ele>
        <time>2018-03-17T01:54:13Z</time>
      </trkpt>
      <trkpt lat="46.66971" lon="-1.77577">
        <ele>46</ele>
        <time>2018-03-17T01:55:13Z</time>
      </trkpt>
      <trkpt lat="46.66984" lon="-1.77605">
        <ele>46</ele>
        <time>2018-03-17T01:56:13Z</time>
      </trkpt>
      <trkpt lat="46.66998" lon="-1.77631">
        <ele>45</ele>
        <time>2018-03-17T01:57:13Z</time>
      </trkpt>
      <trkpt lat="46.67016" lon="-1.77669">
        <ele>45</ele>
        <time>2018-03-17T01:58:13Z</time>
      </trkpt>
      <trkpt lat="46.67033" lon="-1.77706">
        <ele>45</ele>
        <time>2018-03-17T01:59:13Z</time>
      </trkpt>
      <trkpt lat="46.67054" lon="-1.7775">
        <ele>44</ele>
        <time>2018-03-17T02:00:13Z</time>
      </trkpt>
      <trkpt lat="46.67055" lon="-1.77752">
        <ele>44</ele>
        <time>2018-03-17T02:01:13Z</time>
      </trkpt>
      <trkpt lat="46.6706" lon="-1.77764">
        <ele>44</ele>
        <time>2018-03-17T02:02:13Z</time>
      </trkpt>
      <trkpt lat="46.67069" lon="-1.77781">
        <ele>44</ele>
        <time>2018-03-17T02:03:13Z</time>
      </trkpt>
      <trkpt lat="46.67095" lon="-1.77835">
        <ele>43</ele>
        <time>2018-03-17T02:04:13Z</time>
      </trkpt>
      <trkpt lat="46.67116" lon="-1.77878">
        <ele>43</ele>
        <time>2018-03-17T02:05:13Z</time>
      </trkpt>
      <trkpt lat="46.67132" lon="-1.77911">
        <ele>43</ele>
        <time>2018-03-17T02:06:13Z</time>
      </trkpt>
      <trkpt lat="46.6714" lon="-1.77931">
        <ele>42</ele>
        <time>2018-03-17T02:07:13Z</time>
      </trkpt>
      <trkpt lat="46.67147" lon="-1.77951">
        <ele>42</ele>
        <time>2018-03-17T02:08:13Z</time>
      </trkpt>
      <trkpt lat="46.67152" lon="-1.77971">
        <ele>42</ele>
        <time>2018-03-17T02:09:13Z</time>
      </trkpt>
      <trkpt lat="46.67154" lon="-1.77993">
        <ele>41</ele>
        <time>2018-03-17T02:10:13Z</time>
      </trkpt>
      <trkpt lat="46.67155" lon="-1.78015">
        <ele>41</ele>
        <time>2018-03-17T02:11:13Z</time>
      </trkpt>
      <trkpt lat="46.67155" lon="-1.78038">
        <ele>41</ele>
        <time>2018-03-17T02:12:13Z</time>
      </trkpt>
      <trkpt lat="46.67157" lon="-1.7806">
        <ele>41</ele>
        <time>2018-03-17T02:13:13Z</time>
      </trkpt>
      <trkpt lat="46.67158" lon="-1.78077">
        <ele>41</ele>
        <time>2018-03-17T02:14:13Z</time>
      </trkpt>
      <trkpt lat="46.67161" lon="-1.78106">
        <ele>41</ele>
        <time>2018-03-17T02:15:13Z</time>
      </trkpt>
      <trkpt lat="46.67165" lon="-1.78136">
        <ele>40</ele>
        <time>2018-03-17T02:16:13Z</time>
      </trkpt>
      <trkpt lat="46.67169" lon="-1.78158">
        <ele>40</ele>
        <time>2018-03-17T02:17:13Z</time>
      </trkpt>
      <trkpt lat="46.67172" lon="-1.78177">
        <ele>40</ele>
        <time>2018-03-17T02:18:13Z</time>
      </trkpt>
      <trkpt lat="46.67174" lon="-1.78185">
        <ele>40</ele>
        <time>2018-03-17T02:19:13Z</time>
      </trkpt>
      <trkpt lat="46.67176" lon="-1.78192">
        <ele>39</ele>
        <time>2018-03-17T02:20:13Z</time>
      </trkpt>
      <trkpt lat="46.67181" lon="-1.78202">
        <ele>39</ele>
        <time>2018-03-17T02:21:13Z</time>
      </trkpt>
      <trkpt lat="46.67186" lon="-1.78212">
        <ele>39</ele>
        <time>2018-03-17T02:22:13Z</time>
      </trkpt>
      <trkpt lat="46.67196" lon="-1.78221">
        <ele>39</ele>
        <time>2018-03-17T02:23:13Z</time>
      </trkpt>
      <trkpt lat="46.67201" lon="-1.78226">
        <ele>38</ele>
        <time>2018-03-17T02:24:13Z</time>
      </trkpt>
      <trkpt lat="46.67208" lon="-1.7823">
        <ele>38</ele>
        <time>2018-03-17T02:25:13Z</time>
      </trkpt>
      <trkpt lat="46.67221" lon="-1.78237">
        <ele>38</ele>
        <time>2018-03-17T02:26:13Z</time>
      </trkpt>
      <trkpt lat="46.67251" lon="-1.78249">
        <ele>37</ele>
        <time>2018-03-17T02:27:13Z</time>
      </trkpt>
      <trkpt lat="46.67273" lon="-1.78259">
        <ele>37</ele>
        <time>2018-03-17T02:28:13Z</time>
      </trkpt>
      <trkpt lat="46.67307" lon="-1.78274">
        <ele>37</ele>
        <time>2018-03-17T02:29:13Z</time>
      </trkpt>
      <trkpt lat="46.67315" lon="-1.78278">
        <ele>37</ele>
        <time>2018-03-17T02:30:13Z</time>
      </trkpt>
      <trkpt lat="46.67324" lon="-1.78284">
        <ele>37</ele>
        <time>2018-03-17T02:31:13Z</time>
      </trkpt>
      <trkpt lat="46.6733" lon="-1.78289">
        <ele>37</ele>
        <time>2018-03-17T02:32:13Z</time>
      </trkpt>
      <trkpt lat="46.67336" lon="-1.78294">
        <ele>37</ele>
        <time>2018-03-17T02:33:13Z</time>
      </trkpt>
      <trkpt lat="46.67341" lon="-1.78301">
        <ele>37</ele>
        <time>2018-03-17T02:34:13Z</time>
      </trkpt>
      <trkpt lat="46.67347" lon="-1.78309">
        <ele>37</ele>
        <time>2018-03-17T02:35:13Z</time>
      </trkpt>
      <trkpt lat="46.67351" lon="-1.78317">
        <ele>37</ele>
        <time>2018-03-17T02:36:13Z</time>
      </trkpt>
      <trkpt lat="46.67355" lon="-1.78325">
        <ele>37</ele>
        <time>2018-03-17T02:37:13Z</time>
      </trkpt>
      <trkpt lat="46.67362" lon="-1.78345">
        <ele>37</ele>
        <time>2018-03-17T02:38:13Z</time>
      </trkpt>
      <trkpt lat="46.67368" lon="-1.78363">
        <ele>37</ele>
        <time>2018-03-17T02:39:13Z</time>
      </trkpt>
      <trkpt lat="46.67373" lon="-1.78382">
        <ele>37</ele>
        <time>2018-03-17T02:40:13Z</time>
      </trkpt>
      <trkpt lat="46.67379" lon="-1.78401">
        <ele>37</ele>
        <time>2018-03-17T02:41:13Z</time>
      </trkpt>
      <trkpt lat="46.67389" lon="-1.78426">
        <ele>37</ele>
        <time>2018-03-17T02:42:13Z</time>
      </trkpt>
      <trkpt lat="46.67402" lon="-1.78457">
        <ele>37</ele>
        <time>2018-03-17T02:43:13Z</time>
      </trkpt>
      <trkpt lat="46.6741" lon="-1.78476">
        <ele>36</ele>
        <time>2018-03-17T02:44:13Z</time>
      </trkpt>
      <trkpt lat="46.67421" lon="-1.78499">
        <ele>36</ele>
        <time>2018-03-17T02:45:13Z</time>
      </trkpt>
      <trkpt lat="46.67431" lon="-1.78524">
        <ele>36</ele>
        <time>2018-03-17T02:46:13Z</time>
      </trkpt>
      <trkpt lat="46.67437" lon="-1.78527">
        <ele>36</ele>
        <time>2018-03-17T02:47:13Z</time>
      </trkpt>
      <trkpt lat="46.67446" lon="-1.78538">
        <ele>36</ele>
        <time>2018-03-17T02:48:13Z</time>
      </trkpt>
      <trkpt lat="46.67451" lon="-1.78547">
        <ele>36</ele>
        <time>2018-03-17T02:49:13Z</time>
      </trkpt>
      <trkpt lat="46.67454" lon="-1.78553">
        <ele>36</ele>
        <time>2018-03-17T02:50:13Z</time>
      </trkpt>
      <trkpt lat="46.67455" lon="-1.78556">
        <ele>36</ele>
        <time>2018-03-17T02:51:13Z</time>
      </trkpt>
      <trkpt lat="46.67456" lon="-1.78562">
        <ele>36</ele>
        <time>2018-03-17T02:52:13Z</time>
      </trkpt>
      <trkpt lat="46.6746" lon="-1.78579">
        <ele>36</ele>
        <time>2018-03-17T02:53:13Z</time>
      </trkpt>
      <trkpt lat="46.67462" lon="-1.78591">
        <ele>35</ele>
        <time>2018-03-17T02:54:13Z</time>
      </trkpt>
      <trkpt lat="46.67465" lon="-1.78601">
        <ele>35</ele>
        <time>2018-03-17T02:55:13Z</time>
      </trkpt>
      <trkpt lat="46.67471" lon="-1.78619">
        <ele>35</ele>
        <time>2018-03-17T02:56:13Z</time>
      </trkpt>
      <trkpt lat="46.67481" lon="-1.78658">
        <ele>36</ele>
        <time>2018-03-17T02:57:13Z</time>
      </trkpt>
      <trkpt lat="46.67491" lon="-1.78695">
        <ele>36</ele>
        <time>2018-03-17T02:58:13Z</time>
      </trkpt>
      <trkpt lat="46.67499" lon="-1.78726">
        <ele>36</ele>
        <time>2018-03-17T02:59:13Z</time>
      </trkpt>
      <trkpt lat="46.67506" lon="-1.78755">
        <ele>36</ele>
        <time>2018-03-17T03:00:13Z</time>
      </trkpt>
      <trkpt lat="46.67513" lon="-1.78783">
        <ele>36</ele>
        <time>2018-03-17T03:01:13Z</time>
      </trkpt>
      <trkpt lat="46.67515" lon="-1.78791">
        <ele>36</ele>
        <time>2018-03-17T03:02:13Z</time>
      </trkpt>
      <trkpt lat="46.67523" lon="-1.78821">
        <ele>36</ele>
        <time>2018-03-17T03:03:13Z</time>
      </trkpt>
      <trkpt lat="46.67527" lon="-1.78838">
        <ele>36</ele>
        <time>2018-03-17T03:04:13Z</time>
      </trkpt>
      <trkpt lat="46.67532" lon="-1.7886">
        <ele>36</ele>
        <time>2018-03-17T03:05:13Z</time>
      </trkpt>
      <trkpt lat="46.6754" lon="-1.78889">
        <ele>36</ele>
        <time>2018-03-17T03:06:13Z</time>
      </trkpt>
      <trkpt lat="46.67545" lon="-1.78909">
        <ele>36</ele>
        <time>2018-03-17T03:07:13Z</time>
      </trkpt>
      <trkpt lat="46.67551" lon="-1.78936">
        <ele>37</ele>
        <time>2018-03-17T03:08:13Z</time>
      </trkpt>
      <trkpt lat="46.67556" lon="-1.78967">
        <ele>39</ele>
        <time>2018-03-17T03:09:13Z</time>
      </trkpt>
      <trkpt lat="46.67559" lon="-1.7899">
        <ele>40</ele>
        <time>2018-03-17T03:10:13Z</time>
      </trkpt>
      <trkpt lat="46.67565" lon="-1.79025">
        <ele>41</ele>
        <time>2018-03-17T03:11:13Z</time>
      </trkpt>
      <trkpt lat="46.67569" lon="-1.79056">
        <ele>41</ele>
        <time>2018-03-17T03:12:13Z</time>
      </trkpt>
      <trkpt lat="46.67572" lon="-1.79082">
        <ele>42</ele>
        <time>2018-03-17T03:13:13Z</time>
      </trkpt>
      <trkpt lat="46.67575" lon="-1.79106">
        <ele>42</ele>
        <time>2018-03-17T03:14:13Z</time>
      </trkpt>
      <trkpt lat="46.67576" lon="-1.79128">
        <ele>42</ele>
        <time>2018-03-17T03:15:13Z</time>
      </trkpt>
      <trkpt lat="46.67576" lon="-1.79159">
        <ele>43</ele>
        <time>2018-03-17T03:16:13Z</time>
      </trkpt>
      <trkpt lat="46.67576" lon="-1.79175">
        <ele>43</ele>
        <time>2018-03-17T03:17:13Z</time>
      </trkpt>
      <trkpt lat="46.67577" lon="-1.79214">
        <ele>43</ele>
        <time>2018-03-17T03:18:13Z</time>
      </trkpt>
      <trkpt lat="46.67578" lon="-1.79253">
        <ele>43</ele>
        <time>2018-03-17T03:19:13Z</time>
      </trkpt>
      <trkpt lat="46.67579" lon="-1.79279">
        <ele>43</ele>
        <time>2018-03-17T03:20:13Z</time>
      </trkpt>
      <trkpt lat="46.6758" lon="-1.79328">
        <ele>42</ele>
        <time>2018-03-17T03:21:13Z</time>
      </trkpt>
      <trkpt lat="46.6758" lon="-1.7934">
        <ele>42</ele>
        <time>2018-03-17T03:22:13Z</time>
      </trkpt>
      <trkpt lat="46.67581" lon="-1.79355">
        <ele>42</ele>
        <time>2018-03-17T03:23:13Z</time>
      </trkpt>
      <trkpt lat="46.67583" lon="-1.79372">
        <ele>42</ele>
        <time>2018-03-17T03:24:13Z</time>
      </trkpt>
      <trkpt lat="46.67586" lon="-1.79387">
        <ele>41</ele>
        <time>2018-03-17T03:25:13Z</time>
      </trkpt>
      <trkpt lat="46.6759" lon="-1.79398">
        <ele>41</ele>
        <time>2018-03-17T03:26:13Z</time>
      </trkpt>
      <trkpt lat="46.67593" lon="-1.79407">
        <ele>41</ele>
        <time>2018-03-17T03:27:13Z</time>
      </trkpt>
      <trkpt lat="46.67596" lon="-1.79417">
        <ele>41</ele>
        <time>2018-03-17T03:28:13Z</time>
      </trkpt>
      <trkpt lat="46.67599" lon="-1.79426">
        <ele>41</ele>
        <time>2018-03-17T03:29:13Z</time>
      </trkpt>
      <trkpt lat="46.67609" lon="-1.7945">
        <ele>40</ele>
        <time>2018-03-17T03:30:13Z</time>
      </trkpt>
      <trkpt lat="46.6762" lon="-1.79477">
        <ele>40</ele>
        <time>2018-03-17T03:31:13Z</time>
      </trkpt>
      <trkpt lat="46.67623" lon="-1.79488">
        <ele>40</ele>
        <time>2018-03-17T03:32:13Z</time>
      </trkpt>
      <trkpt lat="46.67627" lon="-1.79499">
        <ele>39</ele>
        <time>2018-03-17T03:33:13Z</time>
      </trkpt>
      <trkpt lat="46.67629" lon="-1.79509">
        <ele>39</ele>
        <time>2018-03-17T03:34:13Z</time>
      </trkpt>
      <trkpt lat="46.67631" lon="-1.79521">
        <ele>39</ele>
        <time>2018-03-17T03:35:13Z</time>
      </trkpt>
      <trkpt lat="46.67634" lon="-1.79544">
        <ele>40</ele>
        <time>2018-03-17T03:36:13Z</time>
      </trkpt>
      <trkpt lat="46.67634" lon="-1.79556">
        <ele>40</ele>
        <time>2018-03-17T03:37:13Z</time>
      </trkpt>
      <trkpt lat="46.67634" lon="-1.79568">
        <ele>40</ele>
        <time>2018-03-17T03:38:13Z</time>
      </trkpt>
      <trkpt lat="46.67633" lon="-1.79592">
        <ele>40</ele>
        <time>2018-03-17T03:39:13Z</time>
      </trkpt>
      <trkpt lat="46.6763" lon="-1.79615">
        <ele>40</ele>
        <time>2018-03-17T03:40:13Z</time>
      </trkpt>
      <trkpt lat="46.67625" lon="-1.79639">
        <ele>40</ele>
        <time>2018-03-17T03:41:13Z</time>
      </trkpt>
      <trkpt lat="46.6762" lon="-1.79658">
        <ele>40</ele>
        <time>2018-03-17T03:42:13Z</time>
      </trkpt>
      <trkpt lat="46.67613" lon="-1.79687">
        <ele>41</ele>
        <time>2018-03-17T03:43:13Z</time>
      </trkpt>
      <trkpt lat="46.6761" lon="-1.79707">
        <ele>41</ele>
        <time>2018-03-17T03:44:13Z</time>
      </trkpt>
      <trkpt lat="46.67607" lon="-1.79732">
        <ele>41</ele>
        <time>2018-03-17T03:45:13Z</time>
      </trkpt>
      <trkpt lat="46.67605" lon="-1.79761">
        <ele>41</ele>
        <time>2018-03-17T03:46:13Z</time>
      </trkpt>
      <trkpt lat="46.67604" lon="-1.79787">
        <ele>42</ele>
        <time>2018-03-17T03:47:13Z</time>
      </trkpt>
      <trkpt lat="46.67603" lon="-1.79809">
        <ele>42</ele>
        <time>2018-03-17T03:48:13Z</time>
      </trkpt>
      <trkpt lat="46.67601" lon="-1.79826">
        <ele>42</ele>
        <time>2018-03-17T03:49:13Z</time>
      </trkpt>
      <trkpt lat="46.67599" lon="-1.79837">
        <ele>42</ele>
        <time>2018-03-17T03:50:13Z</time>
      </trkpt>
      <trkpt lat="46.67597" lon="-1.79849">
        <ele>42</ele>
        <time>2018-03-17T03:51:13Z</time>
      </trkpt>
      <trkpt lat="46.67594" lon="-1.79861">
        <ele>42</ele>
        <time>2018-03-17T03:52:13Z</time>
      </trkpt>
      <trkpt lat="46.67589" lon="-1.79878">
        <ele>42</ele>
        <time>2018-03-17T03:53:13Z</time>
      </trkpt>
      <trkpt lat="46.67583" lon="-1.79895">
        <ele>41</ele>
        <time>2018-03-17T03:54:13Z</time>
      </trkpt>
      <trkpt lat="46.67579" lon="-1.79906">
        <ele>41</ele>
        <time>2018-03-17T03:55:13Z</time>
      </trkpt>
      <trkpt lat="46.67575" lon="-1.79917">
        <ele>41</ele>
        <time>2018-03-17T03:56:13Z</time>
      </trkpt>
      <trkpt lat="46.67568" lon="-1.79939">
        <ele>40</ele>
        <time>2018-03-17T03:57:13Z</time>
      </trkpt>
      <trkpt lat="46.67561" lon="-1.79961">
        <ele>40</ele>
        <time>2018-03-17T03:58:13Z</time>
      </trkpt>
      <trkpt lat="46.6756" lon="-1.79973">
        <ele>39</ele>
        <time>2018-03-17T03:59:13Z</time>
      </trkpt>
      <trkpt lat="46.67558" lon="-1.79986">
        <ele>39</ele>
        <time>2018-03-17T04:00:13Z</time>
      </trkpt>
      <trkpt lat="46.67556" lon="-1.79998">
        <ele>39</ele>
        <time>2018-03-17T04:01:13Z</time>
      </trkpt>
      <trkpt lat="46.67553" lon="-1.80026">
        <ele>39</ele>
        <time>2018-03-17T04:02:13Z</time>
      </trkpt>
      <trkpt lat="46.67553" lon="-1.80032">
        <ele>39</ele>
        <time>2018-03-17T04:03:13Z</time>
      </trkpt>
      <trkpt lat="46.6755" lon="-1.80059">
        <ele>38</ele>
        <time>2018-03-17T04:04:13Z</time>
      </trkpt>
      <trkpt lat="46.67549" lon="-1.80084">
        <ele>38</ele>
        <time>2018-03-17T04:05:13Z</time>
      </trkpt>
      <trkpt lat="46.67548" lon="-1.80112">
        <ele>38</ele>
        <time>2018-03-17T04:06:13Z</time>
      </trkpt>
      <trkpt lat="46.67548" lon="-1.8014">
        <ele>37</ele>
        <time>2018-03-17T04:07:13Z</time>
      </trkpt>
      <trkpt lat="46.67549" lon="-1.80168">
        <ele>37</ele>
        <time>2018-03-17T04:08:13Z</time>
      </trkpt>
      <trkpt lat="46.67551" lon="-1.80193">
        <ele>36</ele>
        <time>2018-03-17T04:09:13Z</time>
      </trkpt>
      <trkpt lat="46.67555" lon="-1.80217">
        <ele>36</ele>
        <time>2018-03-17T04:10:13Z</time>
      </trkpt>
      <trkpt lat="46.67559" lon="-1.80243">
        <ele>36</ele>
        <time>2018-03-17T04:11:13Z</time>
      </trkpt>
      <trkpt lat="46.67564" lon="-1.80267">
        <ele>36</ele>
        <time>2018-03-17T04:12:13Z</time>
      </trkpt>
      <trkpt lat="46.67566" lon="-1.80289">
        <ele>36</ele>
        <time>2018-03-17T04:13:13Z</time>
      </trkpt>
      <trkpt lat="46.67569" lon="-1.8031">
        <ele>37</ele>
        <time>2018-03-17T04:14:13Z</time>
      </trkpt>
      <trkpt lat="46.67569" lon="-1.80328">
        <ele>37</ele>
        <time>2018-03-17T04:15:13Z</time>
      </trkpt>
      <trkpt lat="46.6757" lon="-1.80352">
        <ele>37</ele>
        <time>2018-03-17T04:16:13Z</time>
      </trkpt>
      <trkpt lat="46.6757" lon="-1.80378">
        <ele>37</ele>
        <time>2018-03-17T04:17:13Z</time>
      </trkpt>
      <trkpt lat="46.6757" lon="-1.80409">
        <ele>37</ele>
        <time>2018-03-17T04:18:13Z</time>
      </trkpt>
      <trkpt lat="46.67571" lon="-1.80439">
        <ele>37</ele>
        <time>2018-03-17T04:19:13Z</time>
      </trkpt>
      <trkpt lat="46.67571" lon="-1.80464">
        <ele>37</ele>
        <time>2018-03-17T04:20:13Z</time>
      </trkpt>
      <trkpt lat="46.67571" lon="-1.80495">
        <ele>37</ele>
        <time>2018-03-17T04:21:13Z</time>
      </trkpt>
      <trkpt lat="46.67572" lon="-1.80522">
        <ele>37</ele>
        <time>2018-03-17T04:22:13Z</time>
      </trkpt>
      <trkpt lat="46.67572" lon="-1.80542">
        <ele>37</ele>
        <time>2018-03-17T04:23:13Z</time>
      </trkpt>
      <trkpt lat="46.67571" lon="-1.80579">
        <ele>38</ele>
        <time>2018-03-17T04:24:13Z</time>
      </trkpt>
      <trkpt lat="46.67571" lon="-1.80611">
        <ele>38</ele>
        <time>2018-03-17T04:25:13Z</time>
      </trkpt>
      <trkpt lat="46.6757" lon="-1.80645">
        <ele>37</ele>
        <time>2018-03-17T04:26:13Z</time>
      </trkpt>
      <trkpt lat="46.67571" lon="-1.80684">
        <ele>37</ele>
        <time>2018-03-17T04:27:13Z</time>
      </trkpt>
      <trkpt lat="46.67572" lon="-1.80697">
        <ele>37</ele>
        <time>2018-03-17T04:28:13Z</time>
      </trkpt>
      <trkpt lat="46.67573" lon="-1.80715">
        <ele>36</ele>
        <time>2018-03-17T04:29:13Z</time>
      </trkpt>
      <trkpt lat="46.67573" lon="-1.80732">
        <ele>36</ele>
        <time>2018-03-17T04:30:13Z</time>
      </trkpt>
      <trkpt lat="46.67571" lon="-1.80759">
        <ele>36</ele>
        <time>2018-03-17T04:31:13Z</time>
      </trkpt>
      <trkpt lat="46.67569" lon="-1.80785">
        <ele>36</ele>
        <time>2018-03-17T04:32:13Z</time>
      </trkpt>
      <trkpt lat="46.67565" lon="-1.80813">
        <ele>36</ele>
        <time>2018-03-17T04:33:13Z</time>
      </trkpt>
      <trkpt lat="46.67562" lon="-1.80834">
        <ele>35</ele>
        <time>2018-03-17T04:34:13Z</time>
      </trkpt>
      <trkpt lat="46.67555" lon="-1.80865">
        <ele>35</ele>
        <time>2018-03-17T04:35:13Z</time>
      </trkpt>
      <trkpt lat="46.67545" lon="-1.80903">
        <ele>35</ele>
        <time>2018-03-17T04:36:13Z</time>
      </trkpt>
      <trkpt lat="46.67525" lon="-1.80989">
        <ele>33</ele>
        <time>2018-03-17T04:37:13Z</time>
      </trkpt>
      <trkpt lat="46.67521" lon="-1.81013">
        <ele>32</ele>
        <time>2018-03-17T04:38:13Z</time>
      </trkpt>
      <trkpt lat="46.67518" lon="-1.81026">
        <ele>32</ele>
        <time>2018-03-17T04:39:13Z</time>
      </trkpt>
      <trkpt lat="46.67514" lon="-1.81053">
        <ele>32</ele>
        <time>2018-03-17T04:40:13Z</time>
      </trkpt>
      <trkpt lat="46.67511" lon="-1.81078">
        <ele>31</ele>
        <time>2018-03-17T04:41:13Z</time>
      </trkpt>
      <trkpt lat="46.67508" lon="-1.81105">
        <ele>32</ele>
        <time>2018-03-17T04:42:13Z</time>
      </trkpt>
      <trkpt lat="46.67506" lon="-1.81131">
        <ele>33</ele>
        <time>2018-03-17T04:43:13Z</time>
      </trkpt>
      <trkpt lat="46.67506" lon="-1.81156">
        <ele>34</ele>
        <time>2018-03-17T04:44:13Z</time>
      </trkpt>
      <trkpt lat="46.67505" lon="-1.81181">
        <ele>34</ele>
        <time>2018-03-17T04:45:13Z</time>
      </trkpt>
      <trkpt lat="46.67505" lon="-1.81206">
        <ele>35</ele>
        <time>2018-03-17T04:46:13Z</time>
      </trkpt>
      <trkpt lat="46.67504" lon="-1.81229">
        <ele>36</ele>
        <time>2018-03-17T04:47:13Z</time>
      </trkpt>
      <trkpt lat="46.67504" lon="-1.81254">
        <ele>36</ele>
        <time>2018-03-17T04:48:13Z</time>
      </trkpt>
      <trkpt lat="46.67503" lon="-1.81276">
        <ele>36</ele>
        <time>2018-03-17T04:49:13Z</time>
      </trkpt>
      <trkpt lat="46.67501" lon="-1.81301">
        <ele>35</ele>
        <time>2018-03-17T04:50:13Z</time>
      </trkpt>
      <trkpt lat="46.67498" lon="-1.81323">
        <ele>35</ele>
        <time>2018-03-17T04:51:13Z</time>
      </trkpt>
      <trkpt lat="46.67493" lon="-1.81347">
        <ele>35</ele>
        <time>2018-03-17T04:52:13Z</time>
      </trkpt>
      <trkpt lat="46.67488" lon="-1.8137">
        <ele>35</ele>
        <time>2018-03-17T04:53:13Z</time>
      </trkpt>
      <trkpt lat="46.67481" lon="-1.81393">
        <ele>35</ele>
        <time>2018-03-17T04:54:13Z</time>
      </trkpt>
      <trkpt lat="46.67471" lon="-1.8142">
        <ele>35</ele>
        <time>2018-03-17T04:55:13Z</time>
      </trkpt>
      <trkpt lat="46.67465" lon="-1.81438">
        <ele>35</ele>
        <time>2018-03-17T04:56:13Z</time>
      </trkpt>
      <trkpt lat="46.67457" lon="-1.81468">
        <ele>35</ele>
        <time>2018-03-17T04:57:13Z</time>
      </trkpt>
      <trkpt lat="46.67449" lon="-1.81501">
        <ele>35</ele>
        <time>2018-03-17T04:58:13Z</time>
      </trkpt>
      <trkpt lat="46.67442" lon="-1.81528">
        <ele>34</ele>
        <time>2018-03-17T04:59:13Z</time>
      </trkpt>
      <trkpt lat="46.67432" lon="-1.81568">
        <ele>33</ele>
        <time>2018-03-17T05:00:13Z</time>
      </trkpt>
      <trkpt lat="46.67426" lon="-1.81595">
        <ele>32</ele>
        <time>2018-03-17T05:01:13Z</time>
      </trkpt>
      <trkpt lat="46.67422" lon="-1.81623">
        <ele>32</ele>
        <time>2018-03-17T05:02:13Z</time>
      </trkpt>
      <trkpt lat="46.67418" lon="-1.81652">
        <ele>32</ele>
        <time>2018-03-17T05:03:13Z</time>
      </trkpt>
      <trkpt lat="46.67416" lon="-1.81674">
        <ele>32</ele>
        <time>2018-03-17T05:04:13Z</time>
      </trkpt>
      <trkpt lat="46.67414" lon="-1.81695">
        <ele>32</ele>
        <time>2018-03-17T05:05:13Z</time>
      </trkpt>
      <trkpt lat="46.6741" lon="-1.8174">
        <ele>32</ele>
        <time>2018-03-17T05:06:13Z</time>
      </trkpt>
      <trkpt lat="46.67406" lon="-1.81783">
        <ele>32</ele>
        <time>2018-03-17T05:07:13Z</time>
      </trkpt>
      <trkpt lat="46.67402" lon="-1.81808">
        <ele>32</ele>
        <time>2018-03-17T05:08:13Z</time>
      </trkpt>
      <trkpt lat="46.67399" lon="-1.81824">
        <ele>32</ele>
        <time>2018-03-17T05:09:13Z</time>
      </trkpt>
      <trkpt lat="46.67395" lon="-1.81838">
        <ele>32</ele>
        <time>2018-03-17T05:10:13Z</time>
      </trkpt>
      <trkpt lat="46.67391" lon="-1.81851">
        <ele>32</ele>
        <time>2018-03-17T05:11:13Z</time>
      </trkpt>
      <trkpt lat="46.67386" lon="-1.81865">
        <ele>32</ele>
        <time>2018-03-17T05:12:13Z</time>
      </trkpt>
      <trkpt lat="46.67373" lon="-1.81897">
        <ele>32</ele>
        <time>2018-03-17T05:13:13Z</time>
      </trkpt>
      <trkpt lat="46.67364" lon="-1.81917">
        <ele>32</ele>
        <time>2018-03-17T05:14:13Z</time>
      </trkpt>
      <trkpt lat="46.67353" lon="-1.81943">
        <ele>33</ele>
        <time>2018-03-17T05:15:13Z</time>
      </trkpt>
      <trkpt lat="46.67347" lon="-1.8196">
        <ele>33</ele>
        <time>2018-03-17T05:16:13Z</time>
      </trkpt>
      <trkpt lat="46.67337" lon="-1.81992">
        <ele>33</ele>
        <time>2018-03-17T05:17:13Z</time>
      </trkpt>
      <trkpt lat="46.6733" lon="-1.82015">
        <ele>33</ele>
        <time>2018-03-17T05:18:13Z</time>
      </trkpt>
      <trkpt lat="46.67327" lon="-1.82026">
        <ele>33</ele>
        <time>2018-03-17T05:19:13Z</time>
      </trkpt>
      <trkpt lat="46.67317" lon="-1.82062">
        <ele>33</ele>
        <time>2018-03-17T05:20:13Z</time>
      </trkpt>
      <trkpt lat="46.6731" lon="-1.8209">
        <ele>32</ele>
        <time>2018-03-17T05:21:13Z</time>
      </trkpt>
      <trkpt lat="46.67305" lon="-1.82105">
        <ele>32</ele>
        <time>2018-03-17T05:22:13Z</time>
      </trkpt>
      <trkpt lat="46.6729" lon="-1.82148">
        <ele>32</ele>
        <time>2018-03-17T05:23:13Z</time>
      </trkpt>
      <trkpt lat="46.67285" lon="-1.82162">
        <ele>32</ele>
        <time>2018-03-17T05:24:13Z</time>
      </trkpt>
      <trkpt lat="46.6728" lon="-1.82178">
        <ele>32</ele>
        <time>2018-03-17T05:25:13Z</time>
      </trkpt>
      <trkpt lat="46.6727" lon="-1.82207">
        <ele>32</ele>
        <time>2018-03-17T05:26:13Z</time>
      </trkpt>
      <trkpt lat="46.67261" lon="-1.8223">
        <ele>32</ele>
        <time>2018-03-17T05:27:13Z</time>
      </trkpt>
      <trkpt lat="46.67251" lon="-1.82252">
        <ele>32</ele>
        <time>2018-03-17T05:28:13Z</time>
      </trkpt>
      <trkpt lat="46.67245" lon="-1.82267">
        <ele>32</ele>
        <time>2018-03-17T05:29:13Z</time>
      </trkpt>
      <trkpt lat="46.67235" lon="-1.82289">
        <ele>32</ele>
        <time>2018-03-17T05:30:13Z</time>
      </trkpt>
      <trkpt lat="46.67229" lon="-1.82304">
        <ele>32</ele>
        <time>2018-03-17T05:31:13Z</time>
      </trkpt>
      <trkpt lat="46.67223" lon="-1.82319">
        <ele>32</ele>
        <time>2018-03-17T05:32:13Z</time>
      </trkpt>
      <trkpt lat="46.67207" lon="-1.82355">
        <ele>32</ele>
        <time>2018-03-17T05:33:13Z</time>
      </trkpt>
      <trkpt lat="46.67192" lon="-1.8239">
        <ele>32</ele>
        <time>2018-03-17T05:34:13Z</time>
      </trkpt>
      <trkpt lat="46.67172" lon="-1.82433">
        <ele>31</ele>
        <time>2018-03-17T05:35:13Z</time>
      </trkpt>
      <trkpt lat="46.67158" lon="-1.82461">
        <ele>31</ele>
        <time>2018-03-17T05:36:13Z</time>
      </trkpt>
      <trkpt lat="46.67149" lon="-1.8248">
        <ele>31</ele>
        <time>2018-03-17T05:37:13Z</time>
      </trkpt>
      <trkpt lat="46.67143" lon="-1.82493">
        <ele>31</ele>
        <time>2018-03-17T05:38:13Z</time>
      </trkpt>
      <trkpt lat="46.67136" lon="-1.82506">
        <ele>31</ele>
        <time>2018-03-17T05:39:13Z</time>
      </trkpt>
      <trkpt lat="46.67128" lon="-1.82518">
        <ele>30</ele>
        <time>2018-03-17T05:40:13Z</time>
      </trkpt>
      <trkpt lat="46.67113" lon="-1.82541">
        <ele>29</ele>
        <time>2018-03-17T05:41:13Z</time>
      </trkpt>
      <trkpt lat="46.67106" lon="-1.82553">
        <ele>29</ele>
        <time>2018-03-17T05:42:13Z</time>
      </trkpt>
      <trkpt lat="46.67098" lon="-1.82565">
        <ele>28</ele>
        <time>2018-03-17T05:43:13Z</time>
      </trkpt>
      <trkpt lat="46.67092" lon="-1.82577">
        <ele>27</ele>
        <time>2018-03-17T05:44:13Z</time>
      </trkpt>
      <trkpt lat="46.67088" lon="-1.82583">
        <ele>27</ele>
        <time>2018-03-17T05:45:13Z</time>
      </trkpt>
      <trkpt lat="46.67086" lon="-1.82589">
        <ele>27</ele>
        <time>2018-03-17T05:46:13Z</time>
      </trkpt>
      <trkpt lat="46.67084" lon="-1.82595">
        <ele>26</ele>
        <time>2018-03-17T05:47:13Z</time>
      </trkpt>
      <trkpt lat="46.67082" lon="-1.82601">
        <ele>26</ele>
        <time>2018-03-17T05:48:13Z</time>
      </trkpt>
      <trkpt lat="46.6708" lon="-1.82607">
        <ele>26</ele>
        <time>2018-03-17T05:49:13Z</time>
      </trkpt>
      <trkpt lat="46.6708" lon="-1.82612">
        <ele>26</ele>
        <time>2018-03-17T05:50:13Z</time>
      </trkpt>
      <trkpt lat="46.67079" lon="-1.82617">
        <ele>25</ele>
        <time>2018-03-17T05:51:13Z</time>
      </trkpt>
      <trkpt lat="46.67078" lon="-1.82634">
        <ele>25</ele>
        <time>2018-03-17T05:52:13Z</time>
      </trkpt>
      <trkpt lat="46.67077" lon="-1.82641">
        <ele>24</ele>
        <time>2018-03-17T05:53:13Z</time>
      </trkpt>
      <trkpt lat="46.67078" lon="-1.8265">
        <ele>24</ele>
        <time>2018-03-17T05:54:13Z</time>
      </trkpt>
      <trkpt lat="46.67077" lon="-1.82664">
        <ele>23</ele>
        <time>2018-03-17T05:55:13Z</time>
      </trkpt>
      <trkpt lat="46.67077" lon="-1.82664">
        <ele>23</ele>
        <time>2018-03-17T05:56:13Z</time>
      </trkpt>
      <trkpt lat="46.67078" lon="-1.82665">
        <ele>23</ele>
        <time>2018-03-17T05:57:13Z</time>
      </trkpt>
      <trkpt lat="46.67079" lon="-1.82666">
        <ele>23</ele>
        <time>2018-03-17T05:58:13Z</time>
      </trkpt>
      <trkpt lat="46.67079" lon="-1.82667">
        <ele>23</ele>
        <time>2018-03-17T05:59:13Z</time>
      </trkpt>
      <trkpt lat="46.6708" lon="-1.82668">
        <ele>23</ele>
        <time>2018-03-17T06:00:13Z</time>
      </trkpt>
      <trkpt lat="46.6708" lon="-1.82669">
        <ele>23</ele>
        <time>2018-03-17T06:01:13Z</time>
      </trkpt>
      <trkpt lat="46.6708" lon="-1.8267">
        <ele>23</ele>
        <time>2018-03-17T06:02:13Z</time>
      </trkpt>
      <trkpt lat="46.67081" lon="-1.8267">
        <ele>23</ele>
        <time>2018-03-17T06:03:13Z</time>
      </trkpt>
      <trkpt lat="46.67081" lon="-1.82671">
        <ele>23</ele>
        <time>2018-03-17T06:04:13Z</time>
      </trkpt>
      <trkpt lat="46.67081" lon="-1.82672">
        <ele>23</ele>
        <time>2018-03-17T06:05:13Z</time>
      </trkpt>
      <trkpt lat="46.67081" lon="-1.82673">
        <ele>23</ele>
        <time>2018-03-17T06:06:13Z</time>
      </trkpt>
      <trkpt lat="46.67081" lon="-1.82674">
        <ele>23</ele>
        <time>2018-03-17T06:07:13Z</time>
      </trkpt>
      <trkpt lat="46.67082" lon="-1.82675">
        <ele>23</ele>
        <time>2018-03-17T06:08:13Z</time>
      </trkpt>
      <trkpt lat="46.67082" lon="-1.82676">
        <ele>23</ele>
        <time>2018-03-17T06:09:13Z</time>
      </trkpt>
      <trkpt lat="46.67082" lon="-1.82677">
        <ele>23</ele>
        <time>2018-03-17T06:10:13Z</time>
      </trkpt>
      <trkpt lat="46.67082" lon="-1.82678">
        <ele>23</ele>
        <time>2018-03-17T06:11:13Z</time>
      </trkpt>
      <trkpt lat="46.67082" lon="-1.82679">
        <ele>23</ele>
        <time>2018-03-17T06:12:13Z</time>
      </trkpt>
      <trkpt lat="46.67085" lon="-1.82681">
        <ele>22</ele>
        <time>2018-03-17T06:13:13Z</time>
      </trkpt>
      <trkpt lat="46.67087" lon="-1.82683">
        <ele>22</ele>
        <time>2018-03-17T06:14:13Z</time>
      </trkpt>
      <trkpt lat="46.67089" lon="-1.82686">
        <ele>22</ele>
        <time>2018-03-17T06:15:13Z</time>
      </trkpt>
      <trkpt lat="46.67092" lon="-1.82693">
        <ele>22</ele>
        <time>2018-03-17T06:16:13Z</time>
      </trkpt>
      <trkpt lat="46.671" lon="-1.82704">
        <ele>22</ele>
        <time>2018-03-17T06:17:13Z</time>
      </trkpt>
      <trkpt lat="46.67109" lon="-1.82715">
        <ele>21</ele>
        <time>2018-03-17T06:18:13Z</time>
      </trkpt>
      <trkpt lat="46.67113" lon="-1.82721">
        <ele>21</ele>
        <time>2018-03-17T06:19:13Z</time>
      </trkpt>
      <trkpt lat="46.67123" lon="-1.82736">
        <ele>21</ele>
        <time>2018-03-17T06:20:13Z</time>
      </trkpt>
      <trkpt lat="46.67125" lon="-1.82738">
        <ele>20</ele>
        <time>2018-03-17T06:21:13Z</time>
      </trkpt>
      <trkpt lat="46.67144" lon="-1.82764">
        <ele>20</ele>
        <time>2018-03-17T06:22:13Z</time>
      </trkpt>
      <trkpt lat="46.67149" lon="-1.82772">
        <ele>20</ele>
        <time>2018-03-17T06:23:13Z</time>
      </trkpt>
      <trkpt lat="46.67153" lon="-1.82777">
        <ele>20</ele>
        <time>2018-03-17T06:24:13Z</time>
      </trkpt>
      <trkpt lat="46.67163" lon="-1.82786">
        <ele>20</ele>
        <time>2018-03-17T06:25:13Z</time>
      </trkpt>
      <trkpt lat="46.67164" lon="-1.82789">
        <ele>20</ele>
        <time>2018-03-17T06:26:13Z</time>
      </trkpt>
      <trkpt lat="46.67169" lon="-1.82797">
        <ele>20</ele>
        <time>2018-03-17T06:27:13Z</time>
      </trkpt>
      <trkpt lat="46.6718" lon="-1.82811">
        <ele>20</ele>
        <time>2018-03-17T06:28:13Z</time>
      </trkpt>
      <trkpt lat="46.67189" lon="-1.82825">
        <ele>21</ele>
        <time>2018-03-17T06:29:13Z</time>
      </trkpt>
      <trkpt lat="46.67202" lon="-1.82842">
        <ele>21</ele>
        <time>2018-03-17T06:30:13Z</time>
      </trkpt>
      <trkpt lat="46.67205" lon="-1.82846">
        <ele>21</ele>
        <time>2018-03-17T06:31:13Z</time>
      </trkpt>
      <trkpt lat="46.67219" lon="-1.82865">
        <ele>22</ele>
        <time>2018-03-17T06:32:13Z</time>
      </trkpt>
      <trkpt lat="46.67219" lon="-1.82865">
        <ele>22</ele>
        <time>2018-03-17T06:33:13Z</time>
      </trkpt>
      <trkpt lat="46.67216" lon="-1.82871">
        <ele>22</ele>
        <time>2018-03-17T06:34:13Z</time>
      </trkpt>
      <trkpt lat="46.67212" lon="-1.82876">
        <ele>22</ele>
        <time>2018-03-17T06:35:13Z</time>
      </trkpt>
      <trkpt lat="46.6721" lon="-1.82879">
        <ele>22</ele>
        <time>2018-03-17T06:36:13Z</time>
      </trkpt>
      <trkpt lat="46.67205" lon="-1.82885">
        <ele>22</ele>
        <time>2018-03-17T06:37:13Z</time>
      </trkpt>
      <trkpt lat="46.67189" lon="-1.82902">
        <ele>22</ele>
        <time>2018-03-17T06:38:13Z</time>
      </trkpt>
      <trkpt lat="46.67182" lon="-1.82907">
        <ele>22</ele>
        <time>2018-03-17T06:39:13Z</time>
      </trkpt>
      <trkpt lat="46.67176" lon="-1.82912">
        <ele>22</ele>
        <time>2018-03-17T06:40:13Z</time>
      </trkpt>
      <trkpt lat="46.67166" lon="-1.82918">
        <ele>22</ele>
        <time>2018-03-17T06:41:13Z</time>
      </trkpt>
      <trkpt lat="46.67157" lon="-1.82923">
        <ele>22</ele>
        <time>2018-03-17T06:42:13Z</time>
      </trkpt>
      <trkpt lat="46.67148" lon="-1.82927">
        <ele>22</ele>
        <time>2018-03-17T06:43:13Z</time>
      </trkpt>
      <trkpt lat="46.67139" lon="-1.8293">
        <ele>22</ele>
        <time>2018-03-17T06:44:13Z</time>
      </trkpt>
      <trkpt lat="46.67122" lon="-1.82934">
        <ele>22</ele>
        <time>2018-03-17T06:45:13Z</time>
      </trkpt>
      <trkpt lat="46.67106" lon="-1.82936">
        <ele>21</ele>
        <time>2018-03-17T06:46:13Z</time>
      </trkpt>
      <trkpt lat="46.67096" lon="-1.82938">
        <ele>21</ele>
        <time>2018-03-17T06:47:13Z</time>
      </trkpt>
      <trkpt lat="46.67082" lon="-1.82938">
        <ele>21</ele>
        <time>2018-03-17T06:48:13Z</time>
      </trkpt>
      <trkpt lat="46.67065" lon="-1.82936">
        <ele>20</ele>
        <time>2018-03-17T06:49:13Z</time>
      </trkpt>
      <trkpt lat="46.67053" lon="-1.82935">
        <ele>20</ele>
        <time>2018-03-17T06:50:13Z</time>
      </trkpt>
      <trkpt lat="46.67039" lon="-1.82934">
        <ele>19</ele>
        <time>2018-03-17T06:51:13Z</time>
      </trkpt>
      <trkpt lat="46.67027" lon="-1.82932">
        <ele>19</ele>
        <time>2018-03-17T06:52:13Z</time>
      </trkpt>
      <trkpt lat="46.6702" lon="-1.82933">
        <ele>19</ele>
        <time>2018-03-17T06:53:13Z</time>
      </trkpt>
      <trkpt lat="46.67014" lon="-1.82934">
        <ele>18</ele>
        <time>2018-03-17T06:54:13Z</time>
      </trkpt>
      <trkpt lat="46.67014" lon="-1.82934">
        <ele>18</ele>
        <time>2018-03-17T06:55:13Z</time>
      </trkpt>
      <trkpt lat="46.6701" lon="-1.82939">
        <ele>18</ele>
        <time>2018-03-17T06:56:13Z</time>
      </trkpt>
      <trkpt lat="46.67005" lon="-1.82947">
        <ele>18</ele>
        <time>2018-03-17T06:57:13Z</time>
      </trkpt>
      <trkpt lat="46.67005" lon="-1.82947">
        <ele>18</ele>
        <time>2018-03-17T06:58:13Z</time>
      </trkpt>
      <trkpt lat="46.67007" lon="-1.82957">
        <ele>18</ele>
        <time>2018-03-17T06:59:13Z</time>
      </trkpt>
      <trkpt lat="46.67012" lon="-1.82973">
        <ele>18</ele>
        <time>2018-03-17T07:00:13Z</time>
      </trkpt>
      <trkpt lat="46.67012" lon="-1.82975">
        <ele>18</ele>
        <time>2018-03-17T07:01:13Z</time>
      </trkpt>
      <trkpt lat="46.67014" lon="-1.82981">
        <ele>18</ele>
        <time>2018-03-17T07:02:13Z</time>
      </trkpt>
      <trkpt lat="46.67022" lon="-1.8301">
        <ele>18</ele>
        <time>2018-03-17T07:03:13Z</time>
      </trkpt>
      <trkpt lat="46.6703" lon="-1.83036">
        <ele>18</ele>
        <time>2018-03-17T07:04:13Z</time>
      </trkpt>
      <trkpt lat="46.67035" lon="-1.8305">
        <ele>18</ele>
        <time>2018-03-17T07:05:13Z</time>
      </trkpt>
      <trkpt lat="46.6704" lon="-1.83062">
        <ele>19</ele>
        <time>2018-03-17T07:06:13Z</time>
      </trkpt>
      <trkpt lat="46.67051" lon="-1.83086">
        <ele>19</ele>
        <time>2018-03-17T07:07:13Z</time>
      </trkpt>
      <trkpt lat="46.67063" lon="-1.83109">
        <ele>20</ele>
        <time>2018-03-17T07:08:13Z</time>
      </trkpt>
      <trkpt lat="46.67064" lon="-1.83112">
        <ele>20</ele>
        <time>2018-03-17T07:09:13Z</time>
      </trkpt>
      <trkpt lat="46.67068" lon="-1.83121">
        <ele>20</ele>
        <time>2018-03-17T07:10:13Z</time>
      </trkpt>
      <trkpt lat="46.67088" lon="-1.83161">
        <ele>21</ele>
        <time>2018-03-17T07:11:13Z</time>
      </trkpt>
      <trkpt lat="46.67104" lon="-1.83196">
        <ele>21</ele>
        <time>2018-03-17T07:12:13Z</time>
      </trkpt>
      <trkpt lat="46.6712" lon="-1.8323">
        <ele>22</ele>
        <time>2018-03-17T07:13:13Z</time>
      </trkpt>
      <trkpt lat="46.67135" lon="-1.83267">
        <ele>22</ele>
        <time>2018-03-17T07:14:13Z</time>
      </trkpt>
      <trkpt lat="46.67147" lon="-1.83295">
        <ele>22</ele>
        <time>2018-03-17T07:15:13Z</time>
      </trkpt>
      <trkpt lat="46.6716" lon="-1.83332">
        <ele>23</ele>
        <time>2018-03-17T07:16:13Z</time>
      </trkpt>
      <trkpt lat="46.67174" lon="-1.83374">
        <ele>22</ele>
        <time>2018-03-17T07:17:13Z</time>
      </trkpt>
      <trkpt lat="46.67186" lon="-1.83413">
        <ele>21</ele>
        <time>2018-03-17T07:18:13Z</time>
      </trkpt>
      <trkpt lat="46.67196" lon="-1.83446">
        <ele>21</ele>
        <time>2018-03-17T07:19:13Z</time>
      </trkpt>
      <trkpt lat="46.67201" lon="-1.83461">
        <ele>21</ele>
        <time>2018-03-17T07:20:13Z</time>
      </trkpt>
      <trkpt lat="46.67207" lon="-1.83477">
        <ele>21</ele>
        <time>2018-03-17T07:21:13Z</time>
      </trkpt>
      <trkpt lat="46.67214" lon="-1.83501">
        <ele>21</ele>
        <time>2018-03-17T07:22:13Z</time>
      </trkpt>
      <trkpt lat="46.67218" lon="-1.83519">
        <ele>20</ele>
        <time>2018-03-17T07:23:13Z</time>
      </trkpt>
      <trkpt lat="46.67223" lon="-1.8354">
        <ele>20</ele>
        <time>2018-03-17T07:24:13Z</time>
      </trkpt>
      <trkpt lat="46.67224" lon="-1.83548">
        <ele>20</ele>
        <time>2018-03-17T07:25:13Z</time>
      </trkpt>
      <trkpt lat="46.67224" lon="-1.83548">
        <ele>20</ele>
        <time>2018-03-17T07:26:13Z</time>
      </trkpt>
      <trkpt lat="46.67226" lon="-1.83557">
        <ele>20</ele>
        <time>2018-03-17T07:27:13Z</time>
      </trkpt>
      <trkpt lat="46.67229" lon="-1.83588">
        <ele>20</ele>
        <time>2018-03-17T07:28:13Z</time>
      </trkpt>
      <trkpt lat="46.67236" lon="-1.83657">
        <ele>21</ele>
        <time>2018-03-17T07:29:13Z</time>
      </trkpt>
      <trkpt lat="46.67241" lon="-1.83718">
        <ele>22</ele>
        <time>2018-03-17T07:30:13Z</time>
      </trkpt>
      <trkpt lat="46.67246" lon="-1.83765">
        <ele>23</ele>
        <time>2018-03-17T07:31:13Z</time>
      </trkpt>
      <trkpt lat="46.67251" lon="-1.83814">
        <ele>23</ele>
        <time>2018-03-17T07:32:13Z</time>
      </trkpt>
      <trkpt lat="46.67252" lon="-1.8382">
        <ele>23</ele>
        <time>2018-03-17T07:33:13Z</time>
      </trkpt>
      <trkpt lat="46.67252" lon="-1.83824">
        <ele>23</ele>
        <time>2018-03-17T07:34:13Z</time>
      </trkpt>
      <trkpt lat="46.67254" lon="-1.83845">
        <ele>23</ele>
        <time>2018-03-17T07:35:13Z</time>
      </trkpt>
      <trkpt lat="46.67256" lon="-1.83874">
        <ele>23</ele>
        <time>2018-03-17T07:36:13Z</time>
      </trkpt>
      <trkpt lat="46.67257" lon="-1.83897">
        <ele>23</ele>
        <time>2018-03-17T07:37:13Z</time>
      </trkpt>
      <trkpt lat="46.67257" lon="-1.83925">
        <ele>23</ele>
        <time>2018-03-17T07:38:13Z</time>
      </trkpt>
      <trkpt lat="46.67256" lon="-1.83985">
        <ele>22</ele>
        <time>2018-03-17T07:39:13Z</time>
      </trkpt>
      <trkpt lat="46.67254" lon="-1.84058">
        <ele>21</ele>
        <time>2018-03-17T07:40:13Z</time>
      </trkpt>
      <trkpt lat="46.67252" lon="-1.84121">
        <ele>20</ele>
        <time>2018-03-17T07:41:13Z</time>
      </trkpt>
      <trkpt lat="46.67251" lon="-1.84138">
        <ele>20</ele>
        <time>2018-03-17T07:42:13Z</time>
      </trkpt>
      <trkpt lat="46.6725" lon="-1.84185">
        <ele>20</ele>
        <time>2018-03-17T07:43:13Z</time>
      </trkpt>
      <trkpt lat="46.67248" lon="-1.84207">
        <ele>21</ele>
        <time>2018-03-17T07:44:13Z</time>
      </trkpt>
      <trkpt lat="46.67247" lon="-1.84225">
        <ele>21</ele>
        <time>2018-03-17T07:45:13Z</time>
      </trkpt>
      <trkpt lat="46.67245" lon="-1.84242">
        <ele>22</ele>
        <time>2018-03-17T07:46:13Z</time>
      </trkpt>
      <trkpt lat="46.67241" lon="-1.84276">
        <ele>22</ele>
        <time>2018-03-17T07:47:13Z</time>
      </trkpt>
      <trkpt lat="46.67237" lon="-1.84309">
        <ele>22</ele>
        <time>2018-03-17T07:48:13Z</time>
      </trkpt>
      <trkpt lat="46.6723" lon="-1.84361">
        <ele>21</ele>
        <time>2018-03-17T07:49:13Z</time>
      </trkpt>
      <trkpt lat="46.67226" lon="-1.84398">
        <ele>21</ele>
        <time>2018-03-17T07:50:13Z</time>
      </trkpt>
      <trkpt lat="46.67224" lon="-1.84411">
        <ele>21</ele>
        <time>2018-03-17T07:51:13Z</time>
      </trkpt>
      <trkpt lat="46.67219" lon="-1.84446">
        <ele>21</ele>
        <time>2018-03-17T07:52:13Z</time>
      </trkpt>
      <trkpt lat="46.67212" lon="-1.84497">
        <ele>21</ele>
        <time>2018-03-17T07:53:13Z</time>
      </trkpt>
      <trkpt lat="46.67205" lon="-1.84549">
        <ele>20</ele>
        <time>2018-03-17T07:54:13Z</time>
      </trkpt>
      <trkpt lat="46.67198" lon="-1.84599">
        <ele>20</ele>
        <time>2018-03-17T07:55:13Z</time>
      </trkpt>
      <trkpt lat="46.67191" lon="-1.84651">
        <ele>20</ele>
        <time>2018-03-17T07:56:13Z</time>
      </trkpt>
      <trkpt lat="46.67182" lon="-1.84714">
        <ele>20</ele>
        <time>2018-03-17T07:57:13Z</time>
      </trkpt>
      <trkpt lat="46.67175" lon="-1.84769">
        <ele>19</ele>
        <time>2018-03-17T07:58:13Z</time>
      </trkpt>
      <trkpt lat="46.67175" lon="-1.8478">
        <ele>19</ele>
        <time>2018-03-17T07:59:13Z</time>
      </trkpt>
      <trkpt lat="46.67171" lon="-1.84811">
        <ele>18</ele>
        <time>2018-03-17T08:00:13Z</time>
      </trkpt>
      <trkpt lat="46.67167" lon="-1.8484">
        <ele>18</ele>
        <time>2018-03-17T08:01:13Z</time>
      </trkpt>
      <trkpt lat="46.67165" lon="-1.84868">
        <ele>18</ele>
        <time>2018-03-17T08:02:13Z</time>
      </trkpt>
      <trkpt lat="46.67164" lon="-1.84883">
        <ele>18</ele>
        <time>2018-03-17T08:03:13Z</time>
      </trkpt>
      <trkpt lat="46.67164" lon="-1.84898">
        <ele>18</ele>
        <time>2018-03-17T08:04:13Z</time>
      </trkpt>
      <trkpt lat="46.67164" lon="-1.84926">
        <ele>18</ele>
        <time>2018-03-17T08:05:13Z</time>
      </trkpt>
      <trkpt lat="46.67165" lon="-1.84941">
        <ele>18</ele>
        <time>2018-03-17T08:06:13Z</time>
      </trkpt>
      <trkpt lat="46.67166" lon="-1.84956">
        <ele>18</ele>
        <time>2018-03-17T08:07:13Z</time>
      </trkpt>
      <trkpt lat="46.67168" lon="-1.84972">
        <ele>18</ele>
        <time>2018-03-17T08:08:13Z</time>
      </trkpt>
      <trkpt lat="46.67172" lon="-1.84999">
        <ele>18</ele>
        <time>2018-03-17T08:09:13Z</time>
      </trkpt>
      <trkpt lat="46.67175" lon="-1.85014">
        <ele>18</ele>
        <time>2018-03-17T08:10:13Z</time>
      </trkpt>
      <trkpt lat="46.67178" lon="-1.85027">
        <ele>19</ele>
        <time>2018-03-17T08:11:13Z</time>
      </trkpt>
      <trkpt lat="46.67185" lon="-1.85055">
        <ele>19</ele>
        <time>2018-03-17T08:12:13Z</time>
      </trkpt>
      <trkpt lat="46.6719" lon="-1.85073">
        <ele>19</ele>
        <time>2018-03-17T08:13:13Z</time>
      </trkpt>
      <trkpt lat="46.67201" lon="-1.85109">
        <ele>19</ele>
        <time>2018-03-17T08:14:13Z</time>
      </trkpt>
      <trkpt lat="46.67214" lon="-1.8515">
        <ele>19</ele>
        <time>2018-03-17T08:15:13Z</time>
      </trkpt>
      <trkpt lat="46.67224" lon="-1.85184">
        <ele>19</ele>
        <time>2018-03-17T08:16:13Z</time>
      </trkpt>
      <trkpt lat="46.67239" lon="-1.85237">
        <ele>19</ele>
        <time>2018-03-17T08:17:13Z</time>
      </trkpt>
      <trkpt lat="46.67248" lon="-1.85268">
        <ele>19</ele>
        <time>2018-03-17T08:18:13Z</time>
      </trkpt>
      <trkpt lat="46.67255" lon="-1.85296">
        <ele>19</ele>
        <time>2018-03-17T08:19:13Z</time>
      </trkpt>
      <trkpt lat="46.6726" lon="-1.85321">
        <ele>20</ele>
        <time>2018-03-17T08:20:13Z</time>
      </trkpt>
      <trkpt lat="46.67263" lon="-1.85339">
        <ele>20</ele>
        <time>2018-03-17T08:21:13Z</time>
      </trkpt>
      <trkpt lat="46.67266" lon="-1.85362">
        <ele>19</ele>
        <time>2018-03-17T08:22:13Z</time>
      </trkpt>
      <trkpt lat="46.67269" lon="-1.85388">
        <ele>19</ele>
        <time>2018-03-17T08:23:13Z</time>
      </trkpt>
      <trkpt lat="46.67271" lon="-1.85421">
        <ele>18</ele>
        <time>2018-03-17T08:24:13Z</time>
      </trkpt>
      <trkpt lat="46.67275" lon="-1.8548">
        <ele>18</ele>
        <time>2018-03-17T08:25:13Z</time>
      </trkpt>
      <trkpt lat="46.67279" lon="-1.85526">
        <ele>17</ele>
        <time>2018-03-17T08:26:13Z</time>
      </trkpt>
      <trkpt lat="46.67281" lon="-1.85556">
        <ele>17</ele>
        <time>2018-03-17T08:27:13Z</time>
      </trkpt>
      <trkpt lat="46.67285" lon="-1.85601">
        <ele>16</ele>
        <time>2018-03-17T08:28:13Z</time>
      </trkpt>
      <trkpt lat="46.67288" lon="-1.85647">
        <ele>15</ele>
        <time>2018-03-17T08:29:13Z</time>
      </trkpt>
      <trkpt lat="46.67291" lon="-1.85677">
        <ele>15</ele>
        <time>2018-03-17T08:30:13Z</time>
      </trkpt>
      <trkpt lat="46.67295" lon="-1.85721">
        <ele>15</ele>
        <time>2018-03-17T08:31:13Z</time>
      </trkpt>
      <trkpt lat="46.67299" lon="-1.85767">
        <ele>16</ele>
        <time>2018-03-17T08:32:13Z</time>
      </trkpt>
      <trkpt lat="46.67302" lon="-1.8581">
        <ele>16</ele>
        <time>2018-03-17T08:33:13Z</time>
      </trkpt>
      <trkpt lat="46.67304" lon="-1.8584">
        <ele>16</ele>
        <time>2018-03-17T08:34:13Z</time>
      </trkpt>
      <trkpt lat="46.67305" lon="-1.85869">
        <ele>16</ele>
        <time>2018-03-17T08:35:13Z</time>
      </trkpt>
      <trkpt lat="46.67306" lon="-1.859">
        <ele>15</ele>
        <time>2018-03-17T08:36:13Z</time>
      </trkpt>
      <trkpt lat="46.67306" lon="-1.8593">
        <ele>15</ele>
        <time>2018-03-17T08:37:13Z</time>
      </trkpt>
      <trkpt lat="46.67306" lon="-1.85959">
        <ele>15</ele>
        <time>2018-03-17T08:38:13Z</time>
      </trkpt>
      <trkpt lat="46.67305" lon="-1.85977">
        <ele>15</ele>
        <time>2018-03-17T08:39:13Z</time>
      </trkpt>
      <trkpt lat="46.67301" lon="-1.86022">
        <ele>14</ele>
        <time>2018-03-17T08:40:13Z</time>
      </trkpt>
      <trkpt lat="46.673" lon="-1.86038">
        <ele>13</ele>
        <time>2018-03-17T08:41:13Z</time>
      </trkpt>
      <trkpt lat="46.67298" lon="-1.86053">
        <ele>13</ele>
        <time>2018-03-17T08:42:13Z</time>
      </trkpt>
      <trkpt lat="46.67296" lon="-1.86068">
        <ele>13</ele>
        <time>2018-03-17T08:43:13Z</time>
      </trkpt>
      <trkpt lat="46.67295" lon="-1.86076">
        <ele>13</ele>
        <time>2018-03-17T08:44:13Z</time>
      </trkpt>
      <trkpt lat="46.67292" lon="-1.86098">
        <ele>12</ele>
        <time>2018-03-17T08:45:13Z</time>
      </trkpt>
      <trkpt lat="46.67288" lon="-1.8612">
        <ele>12</ele>
        <time>2018-03-17T08:46:13Z</time>
      </trkpt>
      <trkpt lat="46.67283" lon="-1.86141">
        <ele>12</ele>
        <time>2018-03-17T08:47:13Z</time>
      </trkpt>
      <trkpt lat="46.67277" lon="-1.86165">
        <ele>12</ele>
        <time>2018-03-17T08:48:13Z</time>
      </trkpt>
      <trkpt lat="46.67276" lon="-1.86168">
        <ele>12</ele>
        <time>2018-03-17T08:49:13Z</time>
      </trkpt>
      <trkpt lat="46.6727" lon="-1.86185">
        <ele>12</ele>
        <time>2018-03-17T08:50:13Z</time>
      </trkpt>
      <trkpt lat="46.67262" lon="-1.86208">
        <ele>11</ele>
        <time>2018-03-17T08:51:13Z</time>
      </trkpt>
      <trkpt lat="46.67255" lon="-1.86227">
        <ele>11</ele>
        <time>2018-03-17T08:52:13Z</time>
      </trkpt>
      <trkpt lat="46.67252" lon="-1.86237">
        <ele>11</ele>
        <time>2018-03-17T08:53:13Z</time>
      </trkpt>
      <trkpt lat="46.6725" lon="-1.86243">
        <ele>10</ele>
        <time>2018-03-17T08:54:13Z</time>
      </trkpt>
      <trkpt lat="46.67248" lon="-1.86257">
        <ele>10</ele>
        <time>2018-03-17T08:55:13Z</time>
      </trkpt>
      <trkpt lat="46.67246" lon="-1.86272">
        <ele>10</ele>
        <time>2018-03-17T08:56:13Z</time>
      </trkpt>
      <trkpt lat="46.67245" lon="-1.863">
        <ele>10</ele>
        <time>2018-03-17T08:57:13Z</time>
      </trkpt>
      <trkpt lat="46.67243" lon="-1.86336">
        <ele>10</ele>
        <time>2018-03-17T08:58:13Z</time>
      </trkpt>
      <trkpt lat="46.67241" lon="-1.8637">
        <ele>10</ele>
        <time>2018-03-17T08:59:13Z</time>
      </trkpt>
      <trkpt lat="46.67237" lon="-1.86399">
        <ele>10</ele>
        <time>2018-03-17T09:00:13Z</time>
      </trkpt>
      <trkpt lat="46.67235" lon="-1.86411">
        <ele>10</ele>
        <time>2018-03-17T09:01:13Z</time>
      </trkpt>
      <trkpt lat="46.67234" lon="-1.86421">
        <ele>10</ele>
        <time>2018-03-17T09:02:13Z</time>
      </trkpt>
      <trkpt lat="46.67229" lon="-1.86444">
        <ele>10</ele>
        <time>2018-03-17T09:03:13Z</time>
      </trkpt>
      <trkpt lat="46.67223" lon="-1.86467">
        <ele>10</ele>
        <time>2018-03-17T09:04:13Z</time>
      </trkpt>
      <trkpt lat="46.67214" lon="-1.86498">
        <ele>9</ele>
        <time>2018-03-17T09:05:13Z</time>
      </trkpt>
      <trkpt lat="46.67206" lon="-1.86523">
        <ele>9</ele>
        <time>2018-03-17T09:06:13Z</time>
      </trkpt>
      <trkpt lat="46.67202" lon="-1.86536">
        <ele>9</ele>
        <time>2018-03-17T09:07:13Z</time>
      </trkpt>
      <trkpt lat="46.67196" lon="-1.86553">
        <ele>8</ele>
        <time>2018-03-17T09:08:13Z</time>
      </trkpt>
      <trkpt lat="46.67196" lon="-1.86555">
        <ele>8</ele>
        <time>2018-03-17T09:09:13Z</time>
      </trkpt>
      <trkpt lat="46.6719" lon="-1.86574">
        <ele>8</ele>
        <time>2018-03-17T09:10:13Z</time>
      </trkpt>
      <trkpt lat="46.67183" lon="-1.86598">
        <ele>8</ele>
        <time>2018-03-17T09:11:13Z</time>
      </trkpt>
      <trkpt lat="46.67179" lon="-1.8661">
        <ele>8</ele>
        <time>2018-03-17T09:12:13Z</time>
      </trkpt>
      <trkpt lat="46.67176" lon="-1.86622">
        <ele>8</ele>
        <time>2018-03-17T09:13:13Z</time>
      </trkpt>
      <trkpt lat="46.67174" lon="-1.86635">
        <ele>8</ele>
        <time>2018-03-17T09:14:13Z</time>
      </trkpt>
      <trkpt lat="46.67172" lon="-1.86647">
        <ele>8</ele>
        <time>2018-03-17T09:15:13Z</time>
      </trkpt>
      <trkpt lat="46.67171" lon="-1.86648">
        <ele>8</ele>
        <time>2018-03-17T09:16:13Z</time>
      </trkpt>
      <trkpt lat="46.6717" lon="-1.86659">
        <ele>8</ele>
        <time>2018-03-17T09:17:13Z</time>
      </trkpt>
      <trkpt lat="46.67168" lon="-1.86671">
        <ele>8</ele>
        <time>2018-03-17T09:18:13Z</time>
      </trkpt>
      <trkpt lat="46.67168" lon="-1.86673">
        <ele>8</ele>
        <time>2018-03-17T09:19:13Z</time>
      </trkpt>
      <trkpt lat="46.67167" lon="-1.86684">
        <ele>7</ele>
        <time>2018-03-17T09:20:13Z</time>
      </trkpt>
      <trkpt lat="46.67166" lon="-1.86696">
        <ele>7</ele>
        <time>2018-03-17T09:21:13Z</time>
      </trkpt>
      <trkpt lat="46.67166" lon="-1.86704">
        <ele>7</ele>
        <time>2018-03-17T09:22:13Z</time>
      </trkpt>
      <trkpt lat="46.67166" lon="-1.86708">
        <ele>7</ele>
        <time>2018-03-17T09:23:13Z</time>
      </trkpt>
      <trkpt lat="46.67166" lon="-1.86732">
        <ele>6</ele>
        <time>2018-03-17T09:24:13Z</time>
      </trkpt>
      <trkpt lat="46.67166" lon="-1.86747">
        <ele>5</ele>
        <time>2018-03-17T09:25:13Z</time>
      </trkpt>
      <trkpt lat="46.67166" lon="-1.8675">
        <ele>5</ele>
        <time>2018-03-17T09:26:13Z</time>
      </trkpt>
      <trkpt lat="46.67167" lon="-1.86759">
        <ele>5</ele>
        <time>2018-03-17T09:27:13Z</time>
      </trkpt>
      <trkpt lat="46.67169" lon="-1.86772">
        <ele>5</ele>
        <time>2018-03-17T09:28:13Z</time>
      </trkpt>
      <trkpt lat="46.6717" lon="-1.86785">
        <ele>4</ele>
        <time>2018-03-17T09:29:13Z</time>
      </trkpt>
      <trkpt lat="46.67173" lon="-1.86797">
        <ele>4</ele>
        <time>2018-03-17T09:30:13Z</time>
      </trkpt>
      <trkpt lat="46.67177" lon="-1.86808">
        <ele>4</ele>
        <time>2018-03-17T09:31:13Z</time>
      </trkpt>
      <trkpt lat="46.67179" lon="-1.86815">
        <ele>4</ele>
        <time>2018-03-17T09:32:13Z</time>
      </trkpt>
      <trkpt lat="46.6718" lon="-1.86819">
        <ele>4</ele>
        <time>2018-03-17T09:33:13Z</time>
      </trkpt>
      <trkpt lat="46.67189" lon="-1.86841">
        <ele>3</ele>
        <time>2018-03-17T09:34:13Z</time>
      </trkpt>
      <trkpt lat="46.67202" lon="-1.86862">
        <ele>3</ele>
        <time>2018-03-17T09:35:13Z</time>
      </trkpt>
      <trkpt lat="46.67205" lon="-1.86869">
        <ele>3</ele>
        <time>2018-03-17T09:36:13Z</time>
      </trkpt>
      <trkpt lat="46.67209" lon="-1.86876">
        <ele>3</ele>
        <time>2018-03-17T09:37:13Z</time>
      </trkpt>
      <trkpt lat="46.67213" lon="-1.86883">
        <ele>3</ele>
        <time>2018-03-17T09:38:13Z</time>
      </trkpt>
      <trkpt lat="46.67228" lon="-1.8691">
        <ele>4</ele>
        <time>2018-03-17T09:39:13Z</time>
      </trkpt>
      <trkpt lat="46.67246" lon="-1.86946">
        <ele>5</ele>
        <time>2018-03-17T09:40:13Z</time>
      </trkpt>
      <trkpt lat="46.67251" lon="-1.86955">
        <ele>5</ele>
        <time>2018-03-17T09:41:13Z</time>
      </trkpt>
      <trkpt lat="46.67256" lon="-1.86965">
        <ele>5</ele>
        <time>2018-03-17T09:42:13Z</time>
      </trkpt>
      <trkpt lat="46.6726" lon="-1.86974">
        <ele>6</ele>
        <time>2018-03-17T09:43:13Z</time>
      </trkpt>
      <trkpt lat="46.67263" lon="-1.86983">
        <ele>6</ele>
        <time>2018-03-17T09:44:13Z</time>
      </trkpt>
      <trkpt lat="46.67267" lon="-1.86994">
        <ele>7</ele>
        <time>2018-03-17T09:45:13Z</time>
      </trkpt>
      <trkpt lat="46.67269" lon="-1.87004">
        <ele>7</ele>
        <time>2018-03-17T09:46:13Z</time>
      </trkpt>
      <trkpt lat="46.67271" lon="-1.87013">
        <ele>8</ele>
        <time>2018-03-17T09:47:13Z</time>
      </trkpt>
      <trkpt lat="46.67273" lon="-1.87028">
        <ele>8</ele>
        <time>2018-03-17T09:48:13Z</time>
      </trkpt>
      <trkpt lat="46.67273" lon="-1.87048">
        <ele>9</ele>
        <time>2018-03-17T09:49:13Z</time>
      </trkpt>
      <trkpt lat="46.67272" lon="-1.8707">
        <ele>9</ele>
        <time>2018-03-17T09:50:13Z</time>
      </trkpt>
      <trkpt lat="46.67272" lon="-1.87082">
        <ele>9</ele>
        <time>2018-03-17T09:51:13Z</time>
      </trkpt>
      <trkpt lat="46.67269" lon="-1.8713">
        <ele>9</ele>
        <time>2018-03-17T09:52:13Z</time>
      </trkpt>
      <trkpt lat="46.67267" lon="-1.87155">
        <ele>8</ele>
        <time>2018-03-17T09:53:13Z</time>
      </trkpt>
      <trkpt lat="46.67265" lon="-1.8718">
        <ele>8</ele>
        <time>2018-03-17T09:54:13Z</time>
      </trkpt>
      <trkpt lat="46.67264" lon="-1.87205">
        <ele>9</ele>
        <time>2018-03-17T09:55:13Z</time>
      </trkpt>
      <trkpt lat="46.67263" lon="-1.87218">
        <ele>9</ele>
        <time>2018-03-17T09:56:13Z</time>
      </trkpt>
      <trkpt lat="46.67261" lon="-1.87244">
        <ele>9</ele>
        <time>2018-03-17T09:57:13Z</time>
      </trkpt>
      <trkpt lat="46.6726" lon="-1.87256">
        <ele>10</ele>
        <time>2018-03-17T09:58:13Z</time>
      </trkpt>
      <trkpt lat="46.67256" lon="-1.87307">
        <ele>11</ele>
        <time>2018-03-17T09:59:13Z</time>
      </trkpt>
      <trkpt lat="46.67254" lon="-1.87333">
        <ele>11</ele>
        <time>2018-03-17T10:00:13Z</time>
      </trkpt>
      <trkpt lat="46.67251" lon="-1.87373">
        <ele>12</ele>
        <time>2018-03-17T10:01:13Z</time>
      </trkpt>
      <trkpt lat="46.6725" lon="-1.87377">
        <ele>12</ele>
        <time>2018-03-17T10:02:13Z</time>
      </trkpt>
      <trkpt lat="46.67247" lon="-1.87407">
        <ele>12</ele>
        <time>2018-03-17T10:03:13Z</time>
      </trkpt>
      <trkpt lat="46.67247" lon="-1.87411">
        <ele>12</ele>
        <time>2018-03-17T10:04:13Z</time>
      </trkpt>
      <trkpt lat="46.67243" lon="-1.87445">
        <ele>12</ele>
        <time>2018-03-17T10:05:13Z</time>
      </trkpt>
      <trkpt lat="46.67236" lon="-1.87498">
        <ele>12</ele>
        <time>2018-03-17T10:06:13Z</time>
      </trkpt>
      <trkpt lat="46.67232" lon="-1.87531">
        <ele>12</ele>
        <time>2018-03-17T10:07:13Z</time>
      </trkpt>
      <trkpt lat="46.6723" lon="-1.8755">
        <ele>12</ele>
        <time>2018-03-17T10:08:13Z</time>
      </trkpt>
      <trkpt lat="46.67226" lon="-1.8758">
        <ele>12</ele>
        <time>2018-03-17T10:09:13Z</time>
      </trkpt>
      <trkpt lat="46.67225" lon="-1.87591">
        <ele>12</ele>
        <time>2018-03-17T10:10:13Z</time>
      </trkpt>
      <trkpt lat="46.67224" lon="-1.87603">
        <ele>12</ele>
        <time>2018-03-17T10:11:13Z</time>
      </trkpt>
      <trkpt lat="46.67221" lon="-1.87616">
        <ele>11</ele>
        <time>2018-03-17T10:12:13Z</time>
      </trkpt>
      <trkpt lat="46.67219" lon="-1.87634">
        <ele>11</ele>
        <time>2018-03-17T10:13:13Z</time>
      </trkpt>
      <trkpt lat="46.67218" lon="-1.87652">
        <ele>11</ele>
        <time>2018-03-17T10:14:13Z</time>
      </trkpt>
      <trkpt lat="46.67217" lon="-1.87673">
        <ele>11</ele>
        <time>2018-03-17T10:15:13Z</time>
      </trkpt>
      <trkpt lat="46.67215" lon="-1.87698">
        <ele>11</ele>
        <time>2018-03-17T10:16:13Z</time>
      </trkpt>
      <trkpt lat="46.67214" lon="-1.87723">
        <ele>10</ele>
        <time>2018-03-17T10:17:13Z</time>
      </trkpt>
      <trkpt lat="46.67213" lon="-1.87744">
        <ele>10</ele>
        <time>2018-03-17T10:18:13Z</time>
      </trkpt>
      <trkpt lat="46.67212" lon="-1.87767">
        <ele>10</ele>
        <time>2018-03-17T10:19:13Z</time>
      </trkpt>
      <trkpt lat="46.67212" lon="-1.87783">
        <ele>10</ele>
        <time>2018-03-17T10:20:13Z</time>
      </trkpt>
      <trkpt lat="46.67212" lon="-1.878">
        <ele>10</ele>
        <time>2018-03-17T10:21:13Z</time>
      </trkpt>
      <trkpt lat="46.67213" lon="-1.87822">
        <ele>10</ele>
        <time>2018-03-17T10:22:13Z</time>
      </trkpt>
      <trkpt lat="46.67213" lon="-1.87839">
        <ele>10</ele>
        <time>2018-03-17T10:23:13Z</time>
      </trkpt>
      <trkpt lat="46.67213" lon="-1.87857">
        <ele>10</ele>
        <time>2018-03-17T10:24:13Z</time>
      </trkpt>
      <trkpt lat="46.67213" lon="-1.87872">
        <ele>10</ele>
        <time>2018-03-17T10:25:13Z</time>
      </trkpt>
      <trkpt lat="46.67213" lon="-1.87887">
        <ele>10</ele>
        <time>2018-03-17T10:26:13Z</time>
      </trkpt>
      <trkpt lat="46.67211" lon="-1.87909">
        <ele>10</ele>
        <time>2018-03-17T10:27:13Z</time>
      </trkpt>
      <trkpt lat="46.67208" lon="-1.87929">
        <ele>10</ele>
        <time>2018-03-17T10:28:13Z</time>
      </trkpt>
      <trkpt lat="46.67205" lon="-1.87955">
        <ele>10</ele>
        <time>2018-03-17T10:29:13Z</time>
      </trkpt>
      <trkpt lat="46.67202" lon="-1.87978">
        <ele>10</ele>
        <time>2018-03-17T10:30:13Z</time>
      </trkpt>
      <trkpt lat="46.67198" lon="-1.88006">
        <ele>10</ele>
        <time>2018-03-17T10:31:13Z</time>
      </trkpt>
      <trkpt lat="46.67193" lon="-1.88041">
        <ele>9</ele>
        <time>2018-03-17T10:32:13Z</time>
      </trkpt>
      <trkpt lat="46.67187" lon="-1.88081">
        <ele>9</ele>
        <time>2018-03-17T10:33:13Z</time>
      </trkpt>
      <trkpt lat="46.67183" lon="-1.88109">
        <ele>8</ele>
        <time>2018-03-17T10:34:13Z</time>
      </trkpt>
      <trkpt lat="46.67178" lon="-1.88145">
        <ele>8</ele>
        <time>2018-03-17T10:35:13Z</time>
      </trkpt>
      <trkpt lat="46.67174" lon="-1.8817">
        <ele>7</ele>
        <time>2018-03-17T10:36:13Z</time>
      </trkpt>
      <trkpt lat="46.67173" lon="-1.88176">
        <ele>7</ele>
        <time>2018-03-17T10:37:13Z</time>
      </trkpt>
      <trkpt lat="46.67172" lon="-1.88182">
        <ele>7</ele>
        <time>2018-03-17T10:38:13Z</time>
      </trkpt>
      <trkpt lat="46.67168" lon="-1.88195">
        <ele>7</ele>
        <time>2018-03-17T10:39:13Z</time>
      </trkpt>
      <trkpt lat="46.67169" lon="-1.88196">
        <ele>7</ele>
        <time>2018-03-17T10:40:13Z</time>
      </trkpt>
      <trkpt lat="46.6717" lon="-1.88196">
        <ele>7</ele>
        <time>2018-03-17T10:41:13Z</time>
      </trkpt>
      <trkpt lat="46.6717" lon="-1.88197">
        <ele>7</ele>
        <time>2018-03-17T10:42:13Z</time>
      </trkpt>
      <trkpt lat="46.67171" lon="-1.88197">
        <ele>7</ele>
        <time>2018-03-17T10:43:13Z</time>
      </trkpt>
      <trkpt lat="46.67172" lon="-1.88198">
        <ele>8</ele>
        <time>2018-03-17T10:44:13Z</time>
      </trkpt>
      <trkpt lat="46.67172" lon="-1.88199">
        <ele>8</ele>
        <time>2018-03-17T10:45:13Z</time>
      </trkpt>
      <trkpt lat="46.67173" lon="-1.88199">
        <ele>8</ele>
        <time>2018-03-17T10:46:13Z</time>
      </trkpt>
      <trkpt lat="46.67173" lon="-1.882">
        <ele>8</ele>
        <time>2018-03-17T10:47:13Z</time>
      </trkpt>
      <trkpt lat="46.67173" lon="-1.88201">
        <ele>8</ele>
        <time>2018-03-17T10:48:13Z</time>
      </trkpt>
      <trkpt lat="46.67174" lon="-1.88202">
        <ele>8</ele>
        <time>2018-03-17T10:49:13Z</time>
      </trkpt>
      <trkpt lat="46.67174" lon="-1.88203">
        <ele>8</ele>
        <time>2018-03-17T10:50:13Z</time>
      </trkpt>
      <trkpt lat="46.67174" lon="-1.88204">
        <ele>8</ele>
        <time>2018-03-17T10:51:13Z</time>
      </trkpt>
      <trkpt lat="46.67174" lon="-1.88205">
        <ele>8</ele>
        <time>2018-03-17T10:52:13Z</time>
      </trkpt>
      <trkpt lat="46.67175" lon="-1.88205">
        <ele>8</ele>
        <time>2018-03-17T10:53:13Z</time>
      </trkpt>
      <trkpt lat="46.67175" lon="-1.88206">
        <ele>8</ele>
        <time>2018-03-17T10:54:13Z</time>
      </trkpt>
      <trkpt lat="46.67175" lon="-1.88207">
        <ele>8</ele>
        <time>2018-03-17T10:55:13Z</time>
      </trkpt>
      <trkpt lat="46.67175" lon="-1.88208">
        <ele>8</ele>
        <time>2018-03-17T10:56:13Z</time>
      </trkpt>
      <trkpt lat="46.67175" lon="-1.88209">
        <ele>8</ele>
        <time>2018-03-17T10:57:13Z</time>
      </trkpt>
      <trkpt lat="46.67175" lon="-1.8821">
        <ele>8</ele>
        <time>2018-03-17T10:58:13Z</time>
      </trkpt>
      <trkpt lat="46.67175" lon="-1.88211">
        <ele>8</ele>
        <time>2018-03-17T10:59:13Z</time>
      </trkpt>
      <trkpt lat="46.67174" lon="-1.88212">
        <ele>8</ele>
        <time>2018-03-17T11:00:13Z</time>
      </trkpt>
      <trkpt lat="46.67174" lon="-1.88213">
        <ele>8</ele>
        <time>2018-03-17T11:01:13Z</time>
      </trkpt>
      <trkpt lat="46.67174" lon="-1.88214">
        <ele>8</ele>
        <time>2018-03-17T11:02:13Z</time>
      </trkpt>
      <trkpt lat="46.67174" lon="-1.88215">
        <ele>8</ele>
        <time>2018-03-17T11:03:13Z</time>
      </trkpt>
      <trkpt lat="46.67173" lon="-1.88215">
        <ele>8</ele>
        <time>2018-03-17T11:04:13Z</time>
      </trkpt>
      <trkpt lat="46.67173" lon="-1.88216">
        <ele>8</ele>
        <time>2018-03-17T11:05:13Z</time>
      </trkpt>
      <trkpt lat="46.67173" lon="-1.88217">
        <ele>8</ele>
        <time>2018-03-17T11:06:13Z</time>
      </trkpt>
      <trkpt lat="46.67172" lon="-1.88217">
        <ele>8</ele>
        <time>2018-03-17T11:07:13Z</time>
      </trkpt>
      <trkpt lat="46.67172" lon="-1.88218">
        <ele>8</ele>
        <time>2018-03-17T11:08:13Z</time>
      </trkpt>
      <trkpt lat="46.67171" lon="-1.88219">
        <ele>8</ele>
        <time>2018-03-17T11:09:13Z</time>
      </trkpt>
      <trkpt lat="46.6717" lon="-1.8822">
        <ele>8</ele>
        <time>2018-03-17T11:10:13Z</time>
      </trkpt>
      <trkpt lat="46.67169" lon="-1.8822">
        <ele>8</ele>
        <time>2018-03-17T11:11:13Z</time>
      </trkpt>
      <trkpt lat="46.67169" lon="-1.88221">
        <ele>8</ele>
        <time>2018-03-17T11:12:13Z</time>
      </trkpt>
      <trkpt lat="46.67168" lon="-1.88221">
        <ele>8</ele>
        <time>2018-03-17T11:13:13Z</time>
      </trkpt>
      <trkpt lat="46.67167" lon="-1.88221">
        <ele>8</ele>
        <time>2018-03-17T11:14:13Z</time>
      </trkpt>
      <trkpt lat="46.67166" lon="-1.88222">
        <ele>8</ele>
        <time>2018-03-17T11:15:13Z</time>
      </trkpt>
      <trkpt lat="46.67165" lon="-1.88222">
        <ele>8</ele>
        <time>2018-03-17T11:16:13Z</time>
      </trkpt>
      <trkpt lat="46.67165" lon="-1.88221">
        <ele>8</ele>
        <time>2018-03-17T11:17:13Z</time>
      </trkpt>
      <trkpt lat="46.67164" lon="-1.88221">
        <ele>8</ele>
        <time>2018-03-17T11:18:13Z</time>
      </trkpt>
      <trkpt lat="46.67163" lon="-1.88221">
        <ele>8</ele>
        <time>2018-03-17T11:19:13Z</time>
      </trkpt>
      <trkpt lat="46.67162" lon="-1.88221">
        <ele>8</ele>
        <time>2018-03-17T11:20:13Z</time>
      </trkpt>
      <trkpt lat="46.67162" lon="-1.8822">
        <ele>8</ele>
        <time>2018-03-17T11:21:13Z</time>
      </trkpt>
      <trkpt lat="46.67159" lon="-1.88229">
        <ele>8</ele>
        <time>2018-03-17T11:22:13Z</time>
      </trkpt>
      <trkpt lat="46.67159" lon="-1.8823">
        <ele>8</ele>
        <time>2018-03-17T11:23:13Z</time>
      </trkpt>
      <trkpt lat="46.67158" lon="-1.88235">
        <ele>8</ele>
        <time>2018-03-17T11:24:13Z</time>
      </trkpt>
      <trkpt lat="46.67156" lon="-1.88241">
        <ele>8</ele>
        <time>2018-03-17T11:25:13Z</time>
      </trkpt>
      <trkpt lat="46.67155" lon="-1.88246">
        <ele>8</ele>
        <time>2018-03-17T11:26:13Z</time>
      </trkpt>
      <trkpt lat="46.67152" lon="-1.88256">
        <ele>8</ele>
        <time>2018-03-17T11:27:13Z</time>
      </trkpt>
      <trkpt lat="46.67149" lon="-1.88266">
        <ele>8</ele>
        <time>2018-03-17T11:28:13Z</time>
      </trkpt>
      <trkpt lat="46.67148" lon="-1.8827">
        <ele>8</ele>
        <time>2018-03-17T11:29:13Z</time>
      </trkpt>
      <trkpt lat="46.67146" lon="-1.88277">
        <ele>8</ele>
        <time>2018-03-17T11:30:13Z</time>
      </trkpt>
      <trkpt lat="46.67143" lon="-1.88289">
        <ele>9</ele>
        <time>2018-03-17T11:31:13Z</time>
      </trkpt>
      <trkpt lat="46.67142" lon="-1.88295">
        <ele>9</ele>
        <time>2018-03-17T11:32:13Z</time>
      </trkpt>
      <trkpt lat="46.67141" lon="-1.88301">
        <ele>9</ele>
        <time>2018-03-17T11:33:13Z</time>
      </trkpt>
      <trkpt lat="46.67141" lon="-1.88306">
        <ele>9</ele>
        <time>2018-03-17T11:34:13Z</time>
      </trkpt>
      <trkpt lat="46.6714" lon="-1.88317">
        <ele>9</ele>
        <time>2018-03-17T11:35:13Z</time>
      </trkpt>
      <trkpt lat="46.67139" lon="-1.88324">
        <ele>9</ele>
        <time>2018-03-17T11:36:13Z</time>
      </trkpt>
      <trkpt lat="46.67139" lon="-1.8833">
        <ele>9</ele>
        <time>2018-03-17T11:37:13Z</time>
      </trkpt>
      <trkpt lat="46.67139" lon="-1.88336">
        <ele>9</ele>
        <time>2018-03-17T11:38:13Z</time>
      </trkpt>
      <trkpt lat="46.67139" lon="-1.88342">
        <ele>9</ele>
        <time>2018-03-17T11:39:13Z</time>
      </trkpt>
      <trkpt lat="46.67139" lon="-1.88356">
        <ele>9</ele>
        <time>2018-03-17T11:40:13Z</time>
      </trkpt>
      <trkpt lat="46.67139" lon="-1.88365">
        <ele>9</ele>
        <time>2018-03-17T11:41:13Z</time>
      </trkpt>
      <trkpt lat="46.67138" lon="-1.88369">
        <ele>9</ele>
        <time>2018-03-17T11:42:13Z</time>
      </trkpt>
      <trkpt lat="46.67138" lon="-1.88377">
        <ele>10</ele>
        <time>2018-03-17T11:43:13Z</time>
      </trkpt>
      <trkpt lat="46.67136" lon="-1.88388">
        <ele>10</ele>
        <time>2018-03-17T11:44:13Z</time>
      </trkpt>
      <trkpt lat="46.67135" lon="-1.88398">
        <ele>10</ele>
        <time>2018-03-17T11:45:13Z</time>
      </trkpt>
      <trkpt lat="46.67133" lon="-1.88408">
        <ele>10</ele>
        <time>2018-03-17T11:46:13Z</time>
      </trkpt>
      <trkpt lat="46.67128" lon="-1.88428">
        <ele>10</ele>
        <time>2018-03-17T11:47:13Z</time>
      </trkpt>
      <trkpt lat="46.6712" lon="-1.88468">
        <ele>11</ele>
        <time>2018-03-17T11:48:13Z</time>
      </trkpt>
      <trkpt lat="46.67113" lon="-1.88499">
        <ele>11</ele>
        <time>2018-03-17T11:49:13Z</time>
      </trkpt>
      <trkpt lat="46.67108" lon="-1.8852">
        <ele>12</ele>
        <time>2018-03-17T11:50:13Z</time>
      </trkpt>
      <trkpt lat="46.67103" lon="-1.88538">
        <ele>12</ele>
        <time>2018-03-17T11:51:13Z</time>
      </trkpt>
      <trkpt lat="46.67092" lon="-1.88586">
        <ele>12</ele>
        <time>2018-03-17T11:52:13Z</time>
      </trkpt>
      <trkpt lat="46.67091" lon="-1.8859">
        <ele>12</ele>
        <time>2018-03-17T11:53:13Z</time>
      </trkpt>
      <trkpt lat="46.67081" lon="-1.88634">
        <ele>12</ele>
        <time>2018-03-17T11:54:13Z</time>
      </trkpt>
      <trkpt lat="46.6708" lon="-1.88641">
        <ele>12</ele>
        <time>2018-03-17T11:55:13Z</time>
      </trkpt>
      <trkpt lat="46.67063" lon="-1.88716">
        <ele>11</ele>
        <time>2018-03-17T11:56:13Z</time>
      </trkpt>
      <trkpt lat="46.67061" lon="-1.88725">
        <ele>11</ele>
        <time>2018-03-17T11:57:13Z</time>
      </trkpt>
      <trkpt lat="46.67064" lon="-1.88728">
        <ele>11</ele>
        <time>2018-03-17T11:58:13Z</time>
      </trkpt>
      <trkpt lat="46.67065" lon="-1.88731">
        <ele>11</ele>
        <time>2018-03-17T11:59:13Z</time>
      </trkpt>
      <trkpt lat="46.67065" lon="-1.88734">
        <ele>11</ele>
        <time>2018-03-17T12:00:13Z</time>
      </trkpt>
      <trkpt lat="46.67065" lon="-1.88737">
        <ele>11</ele>
        <time>2018-03-17T12:01:13Z</time>
      </trkpt>
      <trkpt lat="46.67065" lon="-1.8874">
        <ele>11</ele>
        <time>2018-03-17T12:02:13Z</time>
      </trkpt>
      <trkpt lat="46.67065" lon="-1.88742">
        <ele>11</ele>
        <time>2018-03-17T12:03:13Z</time>
      </trkpt>
      <trkpt lat="46.67064" lon="-1.88743">
        <ele>11</ele>
        <time>2018-03-17T12:04:13Z</time>
      </trkpt>
      <trkpt lat="46.67062" lon="-1.88746">
        <ele>11</ele>
        <time>2018-03-17T12:05:13Z</time>
      </trkpt>
      <trkpt lat="46.6706" lon="-1.88747">
        <ele>11</ele>
        <time>2018-03-17T12:06:13Z</time>
      </trkpt>
      <trkpt lat="46.67058" lon="-1.88748">
        <ele>11</ele>
        <time>2018-03-17T12:07:13Z</time>
      </trkpt>
      <trkpt lat="46.67056" lon="-1.88749">
        <ele>11</ele>
        <time>2018-03-17T12:08:13Z</time>
      </trkpt>
      <trkpt lat="46.67051" lon="-1.88769">
        <ele>11</ele>
        <time>2018-03-17T12:09:13Z</time>
      </trkpt>
      <trkpt lat="46.67047" lon="-1.88789">
        <ele>10</ele>
        <time>2018-03-17T12:10:13Z</time>
      </trkpt>
      <trkpt lat="46.67041" lon="-1.88816">
        <ele>10</ele>
        <time>2018-03-17T12:11:13Z</time>
      </trkpt>
      <trkpt lat="46.67039" lon="-1.88825">
        <ele>10</ele>
        <time>2018-03-17T12:12:13Z</time>
      </trkpt>
      <trkpt lat="46.67033" lon="-1.88851">
        <ele>10</ele>
        <time>2018-03-17T12:13:13Z</time>
      </trkpt>
      <trkpt lat="46.67029" lon="-1.88866">
        <ele>9</ele>
        <time>2018-03-17T12:14:13Z</time>
      </trkpt>
      <trkpt lat="46.67023" lon="-1.88898">
        <ele>8</ele>
        <time>2018-03-17T12:15:13Z</time>
      </trkpt>
      <trkpt lat="46.67016" lon="-1.88929">
        <ele>8</ele>
        <time>2018-03-17T12:16:13Z</time>
      </trkpt>
      <trkpt lat="46.67013" lon="-1.88939">
        <ele>8</ele>
        <time>2018-03-17T12:17:13Z</time>
      </trkpt>
      <trkpt lat="46.6701" lon="-1.88956">
        <ele>7</ele>
        <time>2018-03-17T12:18:13Z</time>
      </trkpt>
      <trkpt lat="46.67008" lon="-1.88964">
        <ele>7</ele>
        <time>2018-03-17T12:19:13Z</time>
      </trkpt>
      <trkpt lat="46.67003" lon="-1.88989">
        <ele>7</ele>
        <time>2018-03-17T12:20:13Z</time>
      </trkpt>
      <trkpt lat="46.67001" lon="-1.88998">
        <ele>7</ele>
        <time>2018-03-17T12:21:13Z</time>
      </trkpt>
      <trkpt lat="46.66998" lon="-1.8901">
        <ele>7</ele>
        <time>2018-03-17T12:22:13Z</time>
      </trkpt>
      <trkpt lat="46.66995" lon="-1.89024">
        <ele>8</ele>
        <time>2018-03-17T12:23:13Z</time>
      </trkpt>
      <trkpt lat="46.66993" lon="-1.89033">
        <ele>8</ele>
        <time>2018-03-17T12:24:13Z</time>
      </trkpt>
      <trkpt lat="46.66991" lon="-1.89041">
        <ele>8</ele>
        <time>2018-03-17T12:25:13Z</time>
      </trkpt>
      <trkpt lat="46.6699" lon="-1.89048">
        <ele>8</ele>
        <time>2018-03-17T12:26:13Z</time>
      </trkpt>
      <trkpt lat="46.66988" lon="-1.89056">
        <ele>8</ele>
        <time>2018-03-17T12:27:13Z</time>
      </trkpt>
      <trkpt lat="46.66985" lon="-1.89069">
        <ele>9</ele>
        <time>2018-03-17T12:28:13Z</time>
      </trkpt>
      <trkpt lat="46.66982" lon="-1.89082">
        <ele>9</ele>
        <time>2018-03-17T12:29:13Z</time>
      </trkpt>
      <trkpt lat="46.66969" lon="-1.89126">
        <ele>10</ele>
        <time>2018-03-17T12:30:13Z</time>
      </trkpt>
      <trkpt lat="46.66961" lon="-1.89149">
        <ele>10</ele>
        <time>2018-03-17T12:31:13Z</time>
      </trkpt>
      <trkpt lat="46.66954" lon="-1.89171">
        <ele>10</ele>
        <time>2018-03-17T12:32:13Z</time>
      </trkpt>
      <trkpt lat="46.66945" lon="-1.89198">
        <ele>10</ele>
        <time>2018-03-17T12:33:13Z</time>
      </trkpt>
      <trkpt lat="46.66941" lon="-1.89208">
        <ele>10</ele>
        <time>2018-03-17T12:34:13Z</time>
      </trkpt>
      <trkpt lat="46.66929" lon="-1.89245">
        <ele>11</ele>
        <time>2018-03-17T12:35:13Z</time>
      </trkpt>
      <trkpt lat="46.66926" lon="-1.89253">
        <ele>11</ele>
        <time>2018-03-17T12:36:13Z</time>
      </trkpt>
      <trkpt lat="46.66922" lon="-1.89264">
        <ele>11</ele>
        <time>2018-03-17T12:37:13Z</time>
      </trkpt>
      <trkpt lat="46.66925" lon="-1.89268">
        <ele>11</ele>
        <time>2018-03-17T12:38:13Z</time>
      </trkpt>
      <trkpt lat="46.66926" lon="-1.89272">
        <ele>11</ele>
        <time>2018-03-17T12:39:13Z</time>
      </trkpt>
      <trkpt lat="46.66926" lon="-1.89277">
        <ele>11</ele>
        <time>2018-03-17T12:40:13Z</time>
      </trkpt>
      <trkpt lat="46.66926" lon="-1.8928">
        <ele>11</ele>
        <time>2018-03-17T12:41:13Z</time>
      </trkpt>
      <trkpt lat="46.66924" lon="-1.89284">
        <ele>11</ele>
        <time>2018-03-17T12:42:13Z</time>
      </trkpt>
      <trkpt lat="46.66921" lon="-1.89287">
        <ele>11</ele>
        <time>2018-03-17T12:43:13Z</time>
      </trkpt>
      <trkpt lat="46.66919" lon="-1.89288">
        <ele>11</ele>
        <time>2018-03-17T12:44:13Z</time>
      </trkpt>
      <trkpt lat="46.66917" lon="-1.89288">
        <ele>11</ele>
        <time>2018-03-17T12:45:13Z</time>
      </trkpt>
      <trkpt lat="46.66914" lon="-1.89286">
        <ele>11</ele>
        <time>2018-03-17T12:46:13Z</time>
      </trkpt>
      <trkpt lat="46.66909" lon="-1.89305">
        <ele>11</ele>
        <time>2018-03-17T12:47:13Z</time>
      </trkpt>
      <trkpt lat="46.66906" lon="-1.89314">
        <ele>11</ele>
        <time>2018-03-17T12:48:13Z</time>
      </trkpt>
      <trkpt lat="46.66901" lon="-1.89329">
        <ele>11</ele>
        <time>2018-03-17T12:49:13Z</time>
      </trkpt>
      <trkpt lat="46.66899" lon="-1.89335">
        <ele>11</ele>
        <time>2018-03-17T12:50:13Z</time>
      </trkpt>
      <trkpt lat="46.66896" lon="-1.89347">
        <ele>11</ele>
        <time>2018-03-17T12:51:13Z</time>
      </trkpt>
      <trkpt lat="46.66892" lon="-1.89362">
        <ele>12</ele>
        <time>2018-03-17T12:52:13Z</time>
      </trkpt>
      <trkpt lat="46.66889" lon="-1.89376">
        <ele>12</ele>
        <time>2018-03-17T12:53:13Z</time>
      </trkpt>
      <trkpt lat="46.66887" lon="-1.89385">
        <ele>12</ele>
        <time>2018-03-17T12:54:13Z</time>
      </trkpt>
      <trkpt lat="46.66885" lon="-1.89403">
        <ele>12</ele>
        <time>2018-03-17T12:55:13Z</time>
      </trkpt>
      <trkpt lat="46.66884" lon="-1.89421">
        <ele>12</ele>
        <time>2018-03-17T12:56:13Z</time>
      </trkpt>
      <trkpt lat="46.66884" lon="-1.89439">
        <ele>12</ele>
        <time>2018-03-17T12:57:13Z</time>
      </trkpt>
      <trkpt lat="46.66884" lon="-1.89451">
        <ele>12</ele>
        <time>2018-03-17T12:58:13Z</time>
      </trkpt>
      <trkpt lat="46.66885" lon="-1.8946">
        <ele>12</ele>
        <time>2018-03-17T12:59:13Z</time>
      </trkpt>
      <trkpt lat="46.66885" lon="-1.89467">
        <ele>12</ele>
        <time>2018-03-17T13:00:13Z</time>
      </trkpt>
      <trkpt lat="46.66886" lon="-1.89475">
        <ele>12</ele>
        <time>2018-03-17T13:01:13Z</time>
      </trkpt>
      <trkpt lat="46.66886" lon="-1.89484">
        <ele>12</ele>
        <time>2018-03-17T13:02:13Z</time>
      </trkpt>
      <trkpt lat="46.66887" lon="-1.89492">
        <ele>12</ele>
        <time>2018-03-17T13:03:13Z</time>
      </trkpt>
      <trkpt lat="46.66888" lon="-1.89499">
        <ele>12</ele>
        <time>2018-03-17T13:04:13Z</time>
      </trkpt>
      <trkpt lat="46.6689" lon="-1.89515">
        <ele>12</ele>
        <time>2018-03-17T13:05:13Z</time>
      </trkpt>
      <trkpt lat="46.66891" lon="-1.89517">
        <ele>12</ele>
        <time>2018-03-17T13:06:13Z</time>
      </trkpt>
      <trkpt lat="46.66894" lon="-1.89545">
        <ele>12</ele>
        <time>2018-03-17T13:07:13Z</time>
      </trkpt>
      <trkpt lat="46.66896" lon="-1.89555">
        <ele>12</ele>
        <time>2018-03-17T13:08:13Z</time>
      </trkpt>
      <trkpt lat="46.66897" lon="-1.89564">
        <ele>13</ele>
        <time>2018-03-17T13:09:13Z</time>
      </trkpt>
      <trkpt lat="46.66898" lon="-1.89575">
        <ele>13</ele>
        <time>2018-03-17T13:10:13Z</time>
      </trkpt>
      <trkpt lat="46.66904" lon="-1.89615">
        <ele>12</ele>
        <time>2018-03-17T13:11:13Z</time>
      </trkpt>
      <trkpt lat="46.66911" lon="-1.89664">
        <ele>12</ele>
        <time>2018-03-17T13:12:13Z</time>
      </trkpt>
      <trkpt lat="46.66911" lon="-1.89666">
        <ele>12</ele>
        <time>2018-03-17T13:13:13Z</time>
      </trkpt>
      <trkpt lat="46.66915" lon="-1.89697">
        <ele>12</ele>
        <time>2018-03-17T13:14:13Z</time>
      </trkpt>
      <trkpt lat="46.66917" lon="-1.89712">
        <ele>11</ele>
        <time>2018-03-17T13:15:13Z</time>
      </trkpt>
      <trkpt lat="46.6692" lon="-1.89738">
        <ele>11</ele>
        <time>2018-03-17T13:16:13Z</time>
      </trkpt>
      <trkpt lat="46.66922" lon="-1.89752">
        <ele>11</ele>
        <time>2018-03-17T13:17:13Z</time>
      </trkpt>
      <trkpt lat="46.66925" lon="-1.89768">
        <ele>11</ele>
        <time>2018-03-17T13:18:13Z</time>
      </trkpt>
      <trkpt lat="46.66928" lon="-1.89795">
        <ele>11</ele>
        <time>2018-03-17T13:19:13Z</time>
      </trkpt>
      <trkpt lat="46.66928" lon="-1.89797">
        <ele>11</ele>
        <time>2018-03-17T13:20:13Z</time>
      </trkpt>
      <trkpt lat="46.66931" lon="-1.8982">
        <ele>11</ele>
        <time>2018-03-17T13:21:13Z</time>
      </trkpt>
      <trkpt lat="46.66932" lon="-1.89826">
        <ele>11</ele>
        <time>2018-03-17T13:22:13Z</time>
      </trkpt>
      <trkpt lat="46.66938" lon="-1.89867">
        <ele>11</ele>
        <time>2018-03-17T13:23:13Z</time>
      </trkpt>
      <trkpt lat="46.6694" lon="-1.89885">
        <ele>11</ele>
        <time>2018-03-17T13:24:13Z</time>
      </trkpt>
      <trkpt lat="46.66944" lon="-1.89914">
        <ele>11</ele>
        <time>2018-03-17T13:25:13Z</time>
      </trkpt>
      <trkpt lat="46.66949" lon="-1.89948">
        <ele>11</ele>
        <time>2018-03-17T13:26:13Z</time>
      </trkpt>
      <trkpt lat="46.66951" lon="-1.8996">
        <ele>10</ele>
        <time>2018-03-17T13:27:13Z</time>
      </trkpt>
      <trkpt lat="46.66955" lon="-1.89998">
        <ele>10</ele>
        <time>2018-03-17T13:28:13Z</time>
      </trkpt>
      <trkpt lat="46.6696" lon="-1.90028">
        <ele>10</ele>
        <time>2018-03-17T13:29:13Z</time>
      </trkpt>
      <trkpt lat="46.66963" lon="-1.90055">
        <ele>10</ele>
        <time>2018-03-17T13:30:13Z</time>
      </trkpt>
      <trkpt lat="46.66964" lon="-1.9006">
        <ele>10</ele>
        <time>2018-03-17T13:31:13Z</time>
      </trkpt>
      <trkpt lat="46.66968" lon="-1.90096">
        <ele>9</ele>
        <time>2018-03-17T13:32:13Z</time>
      </trkpt>
      <trkpt lat="46.66972" lon="-1.9013">
        <ele>9</ele>
        <time>2018-03-17T13:33:13Z</time>
      </trkpt>
      <trkpt lat="46.66977" lon="-1.90166">
        <ele>8</ele>
        <time>2018-03-17T13:34:13Z</time>
      </trkpt>
      <trkpt lat="46.66981" lon="-1.90197">
        <ele>8</ele>
        <time>2018-03-17T13:35:13Z</time>
      </trkpt>
      <trkpt lat="46.66985" lon="-1.90224">
        <ele>7</ele>
        <time>2018-03-17T13:36:13Z</time>
      </trkpt>
      <trkpt lat="46.6699" lon="-1.90259">
        <ele>7</ele>
        <time>2018-03-17T13:37:13Z</time>
      </trkpt>
      <trkpt lat="46.66991" lon="-1.9027">
        <ele>7</ele>
        <time>2018-03-17T13:38:13Z</time>
      </trkpt>
      <trkpt lat="46.66993" lon="-1.90283">
        <ele>6</ele>
        <time>2018-03-17T13:39:13Z</time>
      </trkpt>
      <trkpt lat="46.66994" lon="-1.90299">
        <ele>6</ele>
        <time>2018-03-17T13:40:13Z</time>
      </trkpt>
      <trkpt lat="46.66995" lon="-1.90311">
        <ele>6</ele>
        <time>2018-03-17T13:41:13Z</time>
      </trkpt>
      <trkpt lat="46.66995" lon="-1.90311">
        <ele>6</ele>
        <time>2018-03-17T13:42:13Z</time>
      </trkpt>
      <trkpt lat="46.66996" lon="-1.90311">
        <ele>6</ele>
        <time>2018-03-17T13:43:13Z</time>
      </trkpt>
      <trkpt lat="46.66996" lon="-1.90312">
        <ele>6</ele>
        <time>2018-03-17T13:44:13Z</time>
      </trkpt>
      <trkpt lat="46.66997" lon="-1.90313">
        <ele>6</ele>
        <time>2018-03-17T13:45:13Z</time>
      </trkpt>
      <trkpt lat="46.66997" lon="-1.90314">
        <ele>6</ele>
        <time>2018-03-17T13:46:13Z</time>
      </trkpt>
      <trkpt lat="46.66998" lon="-1.90315">
        <ele>6</ele>
        <time>2018-03-17T13:47:13Z</time>
      </trkpt>
      <trkpt lat="46.66998" lon="-1.90316">
        <ele>6</ele>
        <time>2018-03-17T13:48:13Z</time>
      </trkpt>
      <trkpt lat="46.66999" lon="-1.90317">
        <ele>6</ele>
        <time>2018-03-17T13:49:13Z</time>
      </trkpt>
      <trkpt lat="46.66999" lon="-1.90318">
        <ele>6</ele>
        <time>2018-03-17T13:50:13Z</time>
      </trkpt>
      <trkpt lat="46.67" lon="-1.90319">
        <ele>6</ele>
        <time>2018-03-17T13:51:13Z</time>
      </trkpt>
      <trkpt lat="46.67001" lon="-1.90321">
        <ele>6</ele>
        <time>2018-03-17T13:52:13Z</time>
      </trkpt>
      <trkpt lat="46.67001" lon="-1.90322">
        <ele>6</ele>
        <time>2018-03-17T13:53:13Z</time>
      </trkpt>
      <trkpt lat="46.67001" lon="-1.90324">
        <ele>6</ele>
        <time>2018-03-17T13:54:13Z</time>
      </trkpt>
      <trkpt lat="46.67002" lon="-1.90326">
        <ele>6</ele>
        <time>2018-03-17T13:55:13Z</time>
      </trkpt>
      <trkpt lat="46.67002" lon="-1.90328">
        <ele>6</ele>
        <time>2018-03-17T13:56:13Z</time>
      </trkpt>
      <trkpt lat="46.67002" lon="-1.9033">
        <ele>6</ele>
        <time>2018-03-17T13:57:13Z</time>
      </trkpt>
      <trkpt lat="46.67002" lon="-1.90332">
        <ele>6</ele>
        <time>2018-03-17T13:58:13Z</time>
      </trkpt>
      <trkpt lat="46.67002" lon="-1.90333">
        <ele>6</ele>
        <time>2018-03-17T13:59:13Z</time>
      </trkpt>
      <trkpt lat="46.67002" lon="-1.90335">
        <ele>6</ele>
        <time>2018-03-17T14:00:13Z</time>
      </trkpt>
      <trkpt lat="46.67001" lon="-1.90337">
        <ele>6</ele>
        <time>2018-03-17T14:01:13Z</time>
      </trkpt>
      <trkpt lat="46.67001" lon="-1.90339">
        <ele>6</ele>
        <time>2018-03-17T14:02:13Z</time>
      </trkpt>
      <trkpt lat="46.67001" lon="-1.9034">
        <ele>6</ele>
        <time>2018-03-17T14:03:13Z</time>
      </trkpt>
      <trkpt lat="46.67001" lon="-1.90341">
        <ele>6</ele>
        <time>2018-03-17T14:04:13Z</time>
      </trkpt>
      <trkpt lat="46.67" lon="-1.90342">
        <ele>6</ele>
        <time>2018-03-17T14:05:13Z</time>
      </trkpt>
      <trkpt lat="46.67" lon="-1.90343">
        <ele>6</ele>
        <time>2018-03-17T14:06:13Z</time>
      </trkpt>
      <trkpt lat="46.67" lon="-1.90344">
        <ele>6</ele>
        <time>2018-03-17T14:07:13Z</time>
      </trkpt>
      <trkpt lat="46.67" lon="-1.90345">
        <ele>6</ele>
        <time>2018-03-17T14:08:13Z</time>
      </trkpt>
      <trkpt lat="46.67" lon="-1.90351">
        <ele>6</ele>
        <time>2018-03-17T14:09:13Z</time>
      </trkpt>
      <trkpt lat="46.67001" lon="-1.90365">
        <ele>6</ele>
        <time>2018-03-17T14:10:13Z</time>
      </trkpt>
      <trkpt lat="46.67001" lon="-1.90368">
        <ele>6</ele>
        <time>2018-03-17T14:11:13Z</time>
      </trkpt>
      <trkpt lat="46.67002" lon="-1.9037">
        <ele>6</ele>
        <time>2018-03-17T14:12:13Z</time>
      </trkpt>
      <trkpt lat="46.67002" lon="-1.90373">
        <ele>6</ele>
        <time>2018-03-17T14:13:13Z</time>
      </trkpt>
      <trkpt lat="46.67003" lon="-1.90375">
        <ele>6</ele>
        <time>2018-03-17T14:14:13Z</time>
      </trkpt>
      <trkpt lat="46.67004" lon="-1.90378">
        <ele>6</ele>
        <time>2018-03-17T14:15:13Z</time>
      </trkpt>
      <trkpt lat="46.67006" lon="-1.9038">
        <ele>6</ele>
        <time>2018-03-17T14:16:13Z</time>
      </trkpt>
      <trkpt lat="46.67007" lon="-1.90383">
        <ele>5</ele>
        <time>2018-03-17T14:17:13Z</time>
      </trkpt>
      <trkpt lat="46.67009" lon="-1.90386">
        <ele>5</ele>
        <time>2018-03-17T14:18:13Z</time>
      </trkpt>
      <trkpt lat="46.67012" lon="-1.9039">
        <ele>5</ele>
        <time>2018-03-17T14:19:13Z</time>
      </trkpt>
      <trkpt lat="46.67021" lon="-1.90401">
        <ele>5</ele>
        <time>2018-03-17T14:20:13Z</time>
      </trkpt>
      <trkpt lat="46.67034" lon="-1.90417">
        <ele>5</ele>
        <time>2018-03-17T14:21:13Z</time>
      </trkpt>
      <trkpt lat="46.67059" lon="-1.90451">
        <ele>5</ele>
        <time>2018-03-17T14:22:13Z</time>
      </trkpt>
      <trkpt lat="46.671" lon="-1.90508">
        <ele>5</ele>
        <time>2018-03-17T14:23:13Z</time>
      </trkpt>
      <trkpt lat="46.67105" lon="-1.90518">
        <ele>5</ele>
        <time>2018-03-17T14:24:13Z</time>
      </trkpt>
      <trkpt lat="46.67166" lon="-1.90604">
        <ele>5</ele>
        <time>2018-03-17T14:25:13Z</time>
      </trkpt>
      <trkpt lat="46.67205" lon="-1.90658">
        <ele>4</ele>
        <time>2018-03-17T14:26:13Z</time>
      </trkpt>
      <trkpt lat="46.67226" lon="-1.90688">
        <ele>4</ele>
        <time>2018-03-17T14:27:13Z</time>
      </trkpt>
      <trkpt lat="46.67255" lon="-1.90729">
        <ele>3</ele>
        <time>2018-03-17T14:28:13Z</time>
      </trkpt>
      <trkpt lat="46.67282" lon="-1.90767">
        <ele>3</ele>
        <time>2018-03-17T14:29:13Z</time>
      </trkpt>
      <trkpt lat="46.67301" lon="-1.90794">
        <ele>2</ele>
        <time>2018-03-17T14:30:13Z</time>
      </trkpt>
      <trkpt lat="46.67313" lon="-1.9081">
        <ele>2</ele>
        <time>2018-03-17T14:31:13Z</time>
      </trkpt>
      <trkpt lat="46.6732" lon="-1.90819">
        <ele>2</ele>
        <time>2018-03-17T14:32:13Z</time>
      </trkpt>
      <trkpt lat="46.67323" lon="-1.90824">
        <ele>2</ele>
        <time>2018-03-17T14:33:13Z</time>
      </trkpt>
      <trkpt lat="46.67327" lon="-1.90829">
        <ele>2</ele>
        <time>2018-03-17T14:34:13Z</time>
      </trkpt>
      <trkpt lat="46.6733" lon="-1.90833">
        <ele>2</ele>
        <time>2018-03-17T14:35:13Z</time>
      </trkpt>
      <trkpt lat="46.67333" lon="-1.90837">
        <ele>2</ele>
        <time>2018-03-17T14:36:13Z</time>
      </trkpt>
      <trkpt lat="46.67336" lon="-1.9084">
        <ele>2</ele>
        <time>2018-03-17T14:37:13Z</time>
      </trkpt>
      <trkpt lat="46.67339" lon="-1.90844">
        <ele>2</ele>
        <time>2018-03-17T14:38:13Z</time>
      </trkpt>
      <trkpt lat="46.67347" lon="-1.90849">
        <ele>2</ele>
        <time>2018-03-17T14:39:13Z</time>
      </trkpt>
      <trkpt lat="46.67361" lon="-1.90864">
        <ele>2</ele>
        <time>2018-03-17T14:40:13Z</time>
      </trkpt>
      <trkpt lat="46.67381" lon="-1.90883">
        <ele>3</ele>
        <time>2018-03-17T14:41:13Z</time>
      </trkpt>
      <trkpt lat="46.67397" lon="-1.90898">
        <ele>3</ele>
        <time>2018-03-17T14:42:13Z</time>
      </trkpt>
      <trkpt lat="46.674" lon="-1.90901">
        <ele>3</ele>
        <time>2018-03-17T14:43:13Z</time>
      </trkpt>
      <trkpt lat="46.67404" lon="-1.90904">
        <ele>3</ele>
        <time>2018-03-17T14:44:13Z</time>
      </trkpt>
      <trkpt lat="46.67406" lon="-1.90905">
        <ele>3</ele>
        <time>2018-03-17T14:45:13Z</time>
      </trkpt>
      <trkpt lat="46.67409" lon="-1.90906">
        <ele>3</ele>
        <time>2018-03-17T14:46:13Z</time>
      </trkpt>
      <trkpt lat="46.67412" lon="-1.90907">
        <ele>3</ele>
        <time>2018-03-17T14:47:13Z</time>
      </trkpt>
      <trkpt lat="46.67414" lon="-1.90908">
        <ele>3</ele>
        <time>2018-03-17T14:48:13Z</time>
      </trkpt>
      <trkpt lat="46.67417" lon="-1.90909">
        <ele>3</ele>
        <time>2018-03-17T14:49:13Z</time>
      </trkpt>
      <trkpt lat="46.67436" lon="-1.90914">
        <ele>3</ele>
        <time>2018-03-17T14:50:13Z</time>
      </trkpt>
      <trkpt lat="46.67436" lon="-1.90914">
        <ele>3</ele>
        <time>2018-03-17T14:51:13Z</time>
      </trkpt>
      <trkpt lat="46.67438" lon="-1.90914">
        <ele>3</ele>
        <time>2018-03-17T14:52:13Z</time>
      </trkpt>
      <trkpt lat="46.6744" lon="-1.90914">
        <ele>3</ele>
        <time>2018-03-17T14:53:13Z</time>
      </trkpt>
      <trkpt lat="46.67441" lon="-1.90914">
        <ele>3</ele>
        <time>2018-03-17T14:54:13Z</time>
      </trkpt>
      <trkpt lat="46.67443" lon="-1.90915">
        <ele>3</ele>
        <time>2018-03-17T14:55:13Z</time>
      </trkpt>
      <trkpt lat="46.67445" lon="-1.90915">
        <ele>3</ele>
        <time>2018-03-17T14:56:13Z</time>
      </trkpt>
      <trkpt lat="46.67446" lon="-1.90916">
        <ele>3</ele>
        <time>2018-03-17T14:57:13Z</time>
      </trkpt>
      <trkpt lat="46.67448" lon="-1.90917">
        <ele>3</ele>
        <time>2018-03-17T14:58:13Z</time>
      </trkpt>
      <trkpt lat="46.6745" lon="-1.90918">
        <ele>3</ele>
        <time>2018-03-17T14:59:13Z</time>
      </trkpt>
      <trkpt lat="46.67451" lon="-1.9092">
        <ele>3</ele>
        <time>2018-03-17T15:00:13Z</time>
      </trkpt>
      <trkpt lat="46.67452" lon="-1.90922">
        <ele>3</ele>
        <time>2018-03-17T15:01:13Z</time>
      </trkpt>
      <trkpt lat="46.67454" lon="-1.90923">
        <ele>3</ele>
        <time>2018-03-17T15:02:13Z</time>
      </trkpt>
      <trkpt lat="46.67455" lon="-1.90925">
        <ele>4</ele>
        <time>2018-03-17T15:03:13Z</time>
      </trkpt>
      <trkpt lat="46.67456" lon="-1.90927">
        <ele>4</ele>
        <time>2018-03-17T15:04:13Z</time>
      </trkpt>
      <trkpt lat="46.67457" lon="-1.9093">
        <ele>4</ele>
        <time>2018-03-17T15:05:13Z</time>
      </trkpt>
      <trkpt lat="46.67458" lon="-1.90933">
        <ele>4</ele>
        <time>2018-03-17T15:06:13Z</time>
      </trkpt>
      <trkpt lat="46.67458" lon="-1.90936">
        <ele>4</ele>
        <time>2018-03-17T15:07:13Z</time>
      </trkpt>
      <trkpt lat="46.67459" lon="-1.90938">
        <ele>4</ele>
        <time>2018-03-17T15:08:13Z</time>
      </trkpt>
      <trkpt lat="46.67459" lon="-1.90941">
        <ele>4</ele>
        <time>2018-03-17T15:09:13Z</time>
      </trkpt>
      <trkpt lat="46.67459" lon="-1.90943">
        <ele>4</ele>
        <time>2018-03-17T15:10:13Z</time>
      </trkpt>
      <trkpt lat="46.67459" lon="-1.90946">
        <ele>4</ele>
        <time>2018-03-17T15:11:13Z</time>
      </trkpt>
      <trkpt lat="46.67459" lon="-1.90948">
        <ele>4</ele>
        <time>2018-03-17T15:12:13Z</time>
      </trkpt>
      <trkpt lat="46.67458" lon="-1.9095">
        <ele>4</ele>
        <time>2018-03-17T15:13:13Z</time>
      </trkpt>
      <trkpt lat="46.67458" lon="-1.90953">
        <ele>4</ele>
        <time>2018-03-17T15:14:13Z</time>
      </trkpt>
      <trkpt lat="46.67457" lon="-1.90955">
        <ele>4</ele>
        <time>2018-03-17T15:15:13Z</time>
      </trkpt>
      <trkpt lat="46.67456" lon="-1.90957">
        <ele>4</ele>
        <time>2018-03-17T15:16:13Z</time>
      </trkpt>
      <trkpt lat="46.67455" lon="-1.9096">
        <ele>4</ele>
        <time>2018-03-17T15:17:13Z</time>
      </trkpt>
      <trkpt lat="46.67455" lon="-1.90961">
        <ele>4</ele>
        <time>2018-03-17T15:18:13Z</time>
      </trkpt>
      <trkpt lat="46.67454" lon="-1.90962">
        <ele>4</ele>
        <time>2018-03-17T15:19:13Z</time>
      </trkpt>
      <trkpt lat="46.67453" lon="-1.90963">
        <ele>4</ele>
        <time>2018-03-17T15:20:13Z</time>
      </trkpt>
      <trkpt lat="46.67453" lon="-1.90964">
        <ele>4</ele>
        <time>2018-03-17T15:21:13Z</time>
      </trkpt>
      <trkpt lat="46.67452" lon="-1.90965">
        <ele>4</ele>
        <time>2018-03-17T15:22:13Z</time>
      </trkpt>
      <trkpt lat="46.67451" lon="-1.90965">
        <ele>4</ele>
        <time>2018-03-17T15:23:13Z</time>
      </trkpt>
      <trkpt lat="46.67451" lon="-1.90966">
        <ele>4</ele>
        <time>2018-03-17T15:24:13Z</time>
      </trkpt>
      <trkpt lat="46.6745" lon="-1.90967">
        <ele>4</ele>
        <time>2018-03-17T15:25:13Z</time>
      </trkpt>
      <trkpt lat="46.6745" lon="-1.90984">
        <ele>4</ele>
        <time>2018-03-17T15:26:13Z</time>
      </trkpt>
      <trkpt lat="46.67451" lon="-1.90994">
        <ele>4</ele>
        <time>2018-03-17T15:27:13Z</time>
      </trkpt>
      <trkpt lat="46.67454" lon="-1.91004">
        <ele>4</ele>
        <time>2018-03-17T15:28:13Z</time>
      </trkpt>
      <trkpt lat="46.67456" lon="-1.9101">
        <ele>4</ele>
        <time>2018-03-17T15:29:13Z</time>
      </trkpt>
      <trkpt lat="46.67469" lon="-1.9103">
        <ele>4</ele>
        <time>2018-03-17T15:30:13Z</time>
      </trkpt>
      <trkpt lat="46.6749" lon="-1.9106">
        <ele>5</ele>
        <time>2018-03-17T15:31:13Z</time>
      </trkpt>
      <trkpt lat="46.67518" lon="-1.91097">
        <ele>5</ele>
        <time>2018-03-17T15:32:13Z</time>
      </trkpt>
      <trkpt lat="46.67546" lon="-1.91137">
        <ele>5</ele>
        <time>2018-03-17T15:33:13Z</time>
      </trkpt>
      <trkpt lat="46.67578" lon="-1.91181">
        <ele>6</ele>
        <time>2018-03-17T15:34:13Z</time>
      </trkpt>
      <trkpt lat="46.67587" lon="-1.91194">
        <ele>6</ele>
        <time>2018-03-17T15:35:13Z</time>
      </trkpt>
      <trkpt lat="46.67612" lon="-1.91228">
        <ele>5</ele>
        <time>2018-03-17T15:36:13Z</time>
      </trkpt>
      <trkpt lat="46.67634" lon="-1.91261">
        <ele>5</ele>
        <time>2018-03-17T15:37:13Z</time>
      </trkpt>
      <trkpt lat="46.67662" lon="-1.91298">
        <ele>5</ele>
        <time>2018-03-17T15:38:13Z</time>
      </trkpt>
      <trkpt lat="46.67704" lon="-1.91358">
        <ele>5</ele>
        <time>2018-03-17T15:39:13Z</time>
      </trkpt>
      <trkpt lat="46.67743" lon="-1.91414">
        <ele>6</ele>
        <time>2018-03-17T15:40:13Z</time>
      </trkpt>
      <trkpt lat="46.67747" lon="-1.9142">
        <ele>6</ele>
        <time>2018-03-17T15:41:13Z</time>
      </trkpt>
      <trkpt lat="46.67783" lon="-1.91471">
        <ele>6</ele>
        <time>2018-03-17T15:42:13Z</time>
      </trkpt>
      <trkpt lat="46.67831" lon="-1.91538">
        <ele>6</ele>
        <time>2018-03-17T15:43:13Z</time>
      </trkpt>
      <trkpt lat="46.6784" lon="-1.91552">
        <ele>6</ele>
        <time>2018-03-17T15:44:13Z</time>
      </trkpt>
      <trkpt lat="46.67864" lon="-1.91583">
        <ele>6</ele>
        <time>2018-03-17T15:45:13Z</time>
      </trkpt>
      <trkpt lat="46.67883" lon="-1.91611">
        <ele>6</ele>
        <time>2018-03-17T15:46:13Z</time>
      </trkpt>
      <trkpt lat="46.67898" lon="-1.91633">
        <ele>7</ele>
        <time>2018-03-17T15:47:13Z</time>
      </trkpt>
      <trkpt lat="46.67928" lon="-1.91675">
        <ele>7</ele>
        <time>2018-03-17T15:48:13Z</time>
      </trkpt>
      <trkpt lat="46.67947" lon="-1.91703">
        <ele>7</ele>
        <time>2018-03-17T15:49:13Z</time>
      </trkpt>
      <trkpt lat="46.67972" lon="-1.91737">
        <ele>7</ele>
        <time>2018-03-17T15:50:13Z</time>
      </trkpt>
      <trkpt lat="46.68" lon="-1.91776">
        <ele>8</ele>
        <time>2018-03-17T15:51:13Z</time>
      </trkpt>
      <trkpt lat="46.68022" lon="-1.91808">
        <ele>8</ele>
        <time>2018-03-17T15:52:13Z</time>
      </trkpt>
      <trkpt lat="46.68033" lon="-1.91825">
        <ele>8</ele>
        <time>2018-03-17T15:53:13Z</time>
      </trkpt>
      <trkpt lat="46.68041" lon="-1.91836">
        <ele>8</ele>
        <time>2018-03-17T15:54:13Z</time>
      </trkpt>
      <trkpt lat="46.68057" lon="-1.91858">
        <ele>8</ele>
        <time>2018-03-17T15:55:13Z</time>
      </trkpt>
      <trkpt lat="46.68083" lon="-1.91897">
        <ele>8</ele>
        <time>2018-03-17T15:56:13Z</time>
      </trkpt>
      <trkpt lat="46.68115" lon="-1.91941">
        <ele>8</ele>
        <time>2018-03-17T15:57:13Z</time>
      </trkpt>
      <trkpt lat="46.68158" lon="-1.92003">
        <ele>8</ele>
        <time>2018-03-17T15:58:13Z</time>
      </trkpt>
      <trkpt lat="46.68174" lon="-1.92025">
        <ele>8</ele>
        <time>2018-03-17T15:59:13Z</time>
      </trkpt>
      <trkpt lat="46.68198" lon="-1.92057">
        <ele>7</ele>
        <time>2018-03-17T16:00:13Z</time>
      </trkpt>
      <trkpt lat="46.68208" lon="-1.92073">
        <ele>7</ele>
        <time>2018-03-17T16:01:13Z</time>
      </trkpt>
      <trkpt lat="46.6822" lon="-1.92091">
        <ele>7</ele>
        <time>2018-03-17T16:02:13Z</time>
      </trkpt>
      <trkpt lat="46.68224" lon="-1.92097">
        <ele>7</ele>
        <time>2018-03-17T16:03:13Z</time>
      </trkpt>
      <trkpt lat="46.68224" lon="-1.92098">
        <ele>7</ele>
        <time>2018-03-17T16:04:13Z</time>
      </trkpt>
      <trkpt lat="46.68227" lon="-1.92103">
        <ele>7</ele>
        <time>2018-03-17T16:05:13Z</time>
      </trkpt>
      <trkpt lat="46.6823" lon="-1.92107">
        <ele>7</ele>
        <time>2018-03-17T16:06:13Z</time>
      </trkpt>
      <trkpt lat="46.68255" lon="-1.9214">
        <ele>7</ele>
        <time>2018-03-17T16:07:13Z</time>
      </trkpt>
      <trkpt lat="46.68267" lon="-1.92157">
        <ele>7</ele>
        <time>2018-03-17T16:08:13Z</time>
      </trkpt>
      <trkpt lat="46.68277" lon="-1.92172">
        <ele>8</ele>
        <time>2018-03-17T16:09:13Z</time>
      </trkpt>
      <trkpt lat="46.68286" lon="-1.92186">
        <ele>8</ele>
        <time>2018-03-17T16:10:13Z</time>
      </trkpt>
      <trkpt lat="46.68291" lon="-1.92193">
        <ele>8</ele>
        <time>2018-03-17T16:11:13Z</time>
      </trkpt>
      <trkpt lat="46.68306" lon="-1.92219">
        <ele>9</ele>
        <time>2018-03-17T16:12:13Z</time>
      </trkpt>
      <trkpt lat="46.6832" lon="-1.92245">
        <ele>9</ele>
        <time>2018-03-17T16:13:13Z</time>
      </trkpt>
      <trkpt lat="46.6833" lon="-1.92261">
        <ele>9</ele>
        <time>2018-03-17T16:14:13Z</time>
      </trkpt>
      <trkpt lat="46.68355" lon="-1.92305">
        <ele>10</ele>
        <time>2018-03-17T16:15:13Z</time>
      </trkpt>
      <trkpt lat="46.6837" lon="-1.92334">
        <ele>10</ele>
        <time>2018-03-17T16:16:13Z</time>
      </trkpt>
      <trkpt lat="46.68377" lon="-1.92346">
        <ele>10</ele>
        <time>2018-03-17T16:17:13Z</time>
      </trkpt>
      <trkpt lat="46.6838" lon="-1.92351">
        <ele>10</ele>
        <time>2018-03-17T16:18:13Z</time>
      </trkpt>
      <trkpt lat="46.68389" lon="-1.92363">
        <ele>10</ele>
        <time>2018-03-17T16:19:13Z</time>
      </trkpt>
      <trkpt lat="46.68403" lon="-1.9238">
        <ele>10</ele>
        <time>2018-03-17T16:20:13Z</time>
      </trkpt>
      <trkpt lat="46.68413" lon="-1.92388">
        <ele>10</ele>
        <time>2018-03-17T16:21:13Z</time>
      </trkpt>
      <trkpt lat="46.68426" lon="-1.92396">
        <ele>10</ele>
        <time>2018-03-17T16:22:13Z</time>
      </trkpt>
      <trkpt lat="46.68435" lon="-1.924">
        <ele>10</ele>
        <time>2018-03-17T16:23:13Z</time>
      </trkpt>
      <trkpt lat="46.68447" lon="-1.92403">
        <ele>10</ele>
        <time>2018-03-17T16:24:13Z</time>
      </trkpt>
      <trkpt lat="46.68454" lon="-1.92404">
        <ele>10</ele>
        <time>2018-03-17T16:25:13Z</time>
      </trkpt>
      <trkpt lat="46.68463" lon="-1.92406">
        <ele>10</ele>
        <time>2018-03-17T16:26:13Z</time>
      </trkpt>
      <trkpt lat="46.68472" lon="-1.92408">
        <ele>10</ele>
        <time>2018-03-17T16:27:13Z</time>
      </trkpt>
      <trkpt lat="46.68481" lon="-1.92411">
        <ele>10</ele>
        <time>2018-03-17T16:28:13Z</time>
      </trkpt>
      <trkpt lat="46.68487" lon="-1.92415">
        <ele>10</ele>
        <time>2018-03-17T16:29:13Z</time>
      </trkpt>
      <trkpt lat="46.68495" lon="-1.9242">
        <ele>10</ele>
        <time>2018-03-17T16:30:13Z</time>
      </trkpt>
      <trkpt lat="46.68505" lon="-1.92428">
        <ele>10</ele>
        <time>2018-03-17T16:31:13Z</time>
      </trkpt>
      <trkpt lat="46.68514" lon="-1.92436">
        <ele>10</ele>
        <time>2018-03-17T16:32:13Z</time>
      </trkpt>
      <trkpt lat="46.68528" lon="-1.9245">
        <ele>10</ele>
        <time>2018-03-17T16:33:13Z</time>
      </trkpt>
      <trkpt lat="46.68532" lon="-1.92456">
        <ele>10</ele>
        <time>2018-03-17T16:34:13Z</time>
      </trkpt>
      <trkpt lat="46.68538" lon="-1.92464">
        <ele>10</ele>
        <time>2018-03-17T16:35:13Z</time>
      </trkpt>
      <trkpt lat="46.68549" lon="-1.92476">
        <ele>10</ele>
        <time>2018-03-17T16:36:13Z</time>
      </trkpt>
      <trkpt lat="46.68567" lon="-1.925">
        <ele>10</ele>
        <time>2018-03-17T16:37:13Z</time>
      </trkpt>
      <trkpt lat="46.68589" lon="-1.92528">
        <ele>10</ele>
        <time>2018-03-17T16:38:13Z</time>
      </trkpt>
      <trkpt lat="46.68594" lon="-1.92534">
        <ele>10</ele>
        <time>2018-03-17T16:39:13Z</time>
      </trkpt>
      <trkpt lat="46.68605" lon="-1.92548">
        <ele>10</ele>
        <time>2018-03-17T16:40:13Z</time>
      </trkpt>
      <trkpt lat="46.68616" lon="-1.92563">
        <ele>10</ele>
        <time>2018-03-17T16:41:13Z</time>
      </trkpt>
      <trkpt lat="46.68625" lon="-1.92575">
        <ele>10</ele>
        <time>2018-03-17T16:42:13Z</time>
      </trkpt>
      <trkpt lat="46.68629" lon="-1.9258">
        <ele>10</ele>
        <time>2018-03-17T16:43:13Z</time>
      </trkpt>
      <trkpt lat="46.68634" lon="-1.92586">
        <ele>10</ele>
        <time>2018-03-17T16:44:13Z</time>
      </trkpt>
      <trkpt lat="46.68635" lon="-1.92588">
        <ele>10</ele>
        <time>2018-03-17T16:45:13Z</time>
      </trkpt>
      <trkpt lat="46.68644" lon="-1.92596">
        <ele>10</ele>
        <time>2018-03-17T16:46:13Z</time>
      </trkpt>
      <trkpt lat="46.68651" lon="-1.92602">
        <ele>10</ele>
        <time>2018-03-17T16:47:13Z</time>
      </trkpt>
      <trkpt lat="46.68669" lon="-1.92615">
        <ele>10</ele>
        <time>2018-03-17T16:48:13Z</time>
      </trkpt>
      <trkpt lat="46.68707" lon="-1.92638">
        <ele>9</ele>
        <time>2018-03-17T16:49:13Z</time>
      </trkpt>
      <trkpt lat="46.68732" lon="-1.92654">
        <ele>8</ele>
        <time>2018-03-17T16:50:13Z</time>
      </trkpt>
      <trkpt lat="46.68733" lon="-1.92654">
        <ele>8</ele>
        <time>2018-03-17T16:51:13Z</time>
      </trkpt>
      <trkpt lat="46.68759" lon="-1.92668">
        <ele>8</ele>
        <time>2018-03-17T16:52:13Z</time>
      </trkpt>
      <trkpt lat="46.6876" lon="-1.92669">
        <ele>8</ele>
        <time>2018-03-17T16:53:13Z</time>
      </trkpt>
      <trkpt lat="46.68776" lon="-1.92676">
        <ele>8</ele>
        <time>2018-03-17T16:54:13Z</time>
      </trkpt>
      <trkpt lat="46.68787" lon="-1.9268">
        <ele>8</ele>
        <time>2018-03-17T16:55:13Z</time>
      </trkpt>
      <trkpt lat="46.68804" lon="-1.92685">
        <ele>7</ele>
        <time>2018-03-17T16:56:13Z</time>
      </trkpt>
      <trkpt lat="46.68817" lon="-1.9269">
        <ele>7</ele>
        <time>2018-03-17T16:57:13Z</time>
      </trkpt>
      <trkpt lat="46.68817" lon="-1.92689">
        <ele>7</ele>
        <time>2018-03-17T16:58:13Z</time>
      </trkpt>
      <trkpt lat="46.68818" lon="-1.92689">
        <ele>7</ele>
        <time>2018-03-17T16:59:13Z</time>
      </trkpt>
      <trkpt lat="46.68818" lon="-1.92688">
        <ele>7</ele>
        <time>2018-03-17T17:00:13Z</time>
      </trkpt>
      <trkpt lat="46.68818" lon="-1.92687">
        <ele>7</ele>
        <time>2018-03-17T17:01:13Z</time>
      </trkpt>
      <trkpt lat="46.68819" lon="-1.92687">
        <ele>7</ele>
        <time>2018-03-17T17:02:13Z</time>
      </trkpt>
      <trkpt lat="46.68819" lon="-1.92686">
        <ele>7</ele>
        <time>2018-03-17T17:03:13Z</time>
      </trkpt>
      <trkpt lat="46.6882" lon="-1.92686">
        <ele>7</ele>
        <time>2018-03-17T17:04:13Z</time>
      </trkpt>
      <trkpt lat="46.6882" lon="-1.92685">
        <ele>7</ele>
        <time>2018-03-17T17:05:13Z</time>
      </trkpt>
      <trkpt lat="46.68821" lon="-1.92685">
        <ele>7</ele>
        <time>2018-03-17T17:06:13Z</time>
      </trkpt>
      <trkpt lat="46.68822" lon="-1.92685">
        <ele>7</ele>
        <time>2018-03-17T17:07:13Z</time>
      </trkpt>
      <trkpt lat="46.68823" lon="-1.92685">
        <ele>7</ele>
        <time>2018-03-17T17:08:13Z</time>
      </trkpt>
      <trkpt lat="46.68824" lon="-1.92685">
        <ele>7</ele>
        <time>2018-03-17T17:09:13Z</time>
      </trkpt>
      <trkpt lat="46.68825" lon="-1.92685">
        <ele>7</ele>
        <time>2018-03-17T17:10:13Z</time>
      </trkpt>
      <trkpt lat="46.68826" lon="-1.92686">
        <ele>7</ele>
        <time>2018-03-17T17:11:13Z</time>
      </trkpt>
      <trkpt lat="46.68827" lon="-1.92686">
        <ele>7</ele>
        <time>2018-03-17T17:12:13Z</time>
      </trkpt>
      <trkpt lat="46.68827" lon="-1.92687">
        <ele>7</ele>
        <time>2018-03-17T17:13:13Z</time>
      </trkpt>
      <trkpt lat="46.68827" lon="-1.92688">
        <ele>7</ele>
        <time>2018-03-17T17:14:13Z</time>
      </trkpt>
      <trkpt lat="46.68828" lon="-1.92688">
        <ele>7</ele>
        <time>2018-03-17T17:15:13Z</time>
      </trkpt>
      <trkpt lat="46.68841" lon="-1.92685">
        <ele>7</ele>
        <time>2018-03-17T17:16:13Z</time>
      </trkpt>
      <trkpt lat="46.68841" lon="-1.92685">
        <ele>7</ele>
        <time>2018-03-17T17:17:13Z</time>
      </trkpt>
      <trkpt lat="46.68841" lon="-1.92684">
        <ele>7</ele>
        <time>2018-03-17T17:18:13Z</time>
      </trkpt>
      <trkpt lat="46.68842" lon="-1.92684">
        <ele>7</ele>
        <time>2018-03-17T17:19:13Z</time>
      </trkpt>
      <trkpt lat="46.68842" lon="-1.92683">
        <ele>7</ele>
        <time>2018-03-17T17:20:13Z</time>
      </trkpt>
      <trkpt lat="46.68843" lon="-1.92682">
        <ele>7</ele>
        <time>2018-03-17T17:21:13Z</time>
      </trkpt>
      <trkpt lat="46.68844" lon="-1.92682">
        <ele>7</ele>
        <time>2018-03-17T17:22:13Z</time>
      </trkpt>
      <trkpt lat="46.68844" lon="-1.92681">
        <ele>7</ele>
        <time>2018-03-17T17:23:13Z</time>
      </trkpt>
      <trkpt lat="46.68845" lon="-1.92681">
        <ele>6</ele>
        <time>2018-03-17T17:24:13Z</time>
      </trkpt>
      <trkpt lat="46.68846" lon="-1.92681">
        <ele>6</ele>
        <time>2018-03-17T17:25:13Z</time>
      </trkpt>
      <trkpt lat="46.68847" lon="-1.92681">
        <ele>6</ele>
        <time>2018-03-17T17:26:13Z</time>
      </trkpt>
      <trkpt lat="46.68848" lon="-1.92681">
        <ele>6</ele>
        <time>2018-03-17T17:27:13Z</time>
      </trkpt>
      <trkpt lat="46.68849" lon="-1.92681">
        <ele>6</ele>
        <time>2018-03-17T17:28:13Z</time>
      </trkpt>
      <trkpt lat="46.68849" lon="-1.92682">
        <ele>6</ele>
        <time>2018-03-17T17:29:13Z</time>
      </trkpt>
      <trkpt lat="46.6885" lon="-1.92682">
        <ele>6</ele>
        <time>2018-03-17T17:30:13Z</time>
      </trkpt>
      <trkpt lat="46.6885" lon="-1.92683">
        <ele>6</ele>
        <time>2018-03-17T17:31:13Z</time>
      </trkpt>
      <trkpt lat="46.68851" lon="-1.92683">
        <ele>6</ele>
        <time>2018-03-17T17:32:13Z</time>
      </trkpt>
      <trkpt lat="46.68851" lon="-1.92684">
        <ele>6</ele>
        <time>2018-03-17T17:33:13Z</time>
      </trkpt>
      <trkpt lat="46.68852" lon="-1.92684">
        <ele>6</ele>
        <time>2018-03-17T17:34:13Z</time>
      </trkpt>
      <trkpt lat="46.68852" lon="-1.92685">
        <ele>6</ele>
        <time>2018-03-17T17:35:13Z</time>
      </trkpt>
      <trkpt lat="46.68852" lon="-1.92686">
        <ele>6</ele>
        <time>2018-03-17T17:36:13Z</time>
      </trkpt>
      <trkpt lat="46.68853" lon="-1.92687">
        <ele>6</ele>
        <time>2018-03-17T17:37:13Z</time>
      </trkpt>
      <trkpt lat="46.68853" lon="-1.92688">
        <ele>6</ele>
        <time>2018-03-17T17:38:13Z</time>
      </trkpt>
      <trkpt lat="46.68853" lon="-1.92689">
        <ele>6</ele>
        <time>2018-03-17T17:39:13Z</time>
      </trkpt>
      <trkpt lat="46.68853" lon="-1.9269">
        <ele>6</ele>
        <time>2018-03-17T17:40:13Z</time>
      </trkpt>
      <trkpt lat="46.68853" lon="-1.92691">
        <ele>6</ele>
        <time>2018-03-17T17:41:13Z</time>
      </trkpt>
      <trkpt lat="46.68853" lon="-1.92692">
        <ele>6</ele>
        <time>2018-03-17T17:42:13Z</time>
      </trkpt>
      <trkpt lat="46.68853" lon="-1.92693">
        <ele>6</ele>
        <time>2018-03-17T17:43:13Z</time>
      </trkpt>
      <trkpt lat="46.68853" lon="-1.92694">
        <ele>6</ele>
        <time>2018-03-17T17:44:13Z</time>
      </trkpt>
      <trkpt lat="46.68853" lon="-1.92695">
        <ele>6</ele>
        <time>2018-03-17T17:45:13Z</time>
      </trkpt>
      <trkpt lat="46.68852" lon="-1.92695">
        <ele>6</ele>
        <time>2018-03-17T17:46:13Z</time>
      </trkpt>
      <trkpt lat="46.68852" lon="-1.92696">
        <ele>6</ele>
        <time>2018-03-17T17:47:13Z</time>
      </trkpt>
      <trkpt lat="46.68852" lon="-1.92697">
        <ele>6</ele>
        <time>2018-03-17T17:48:13Z</time>
      </trkpt>
      <trkpt lat="46.68851" lon="-1.92697">
        <ele>6</ele>
        <time>2018-03-17T17:49:13Z</time>
      </trkpt>
      <trkpt lat="46.68851" lon="-1.92698">
        <ele>6</ele>
        <time>2018-03-17T17:50:13Z</time>
      </trkpt>
      <trkpt lat="46.68859" lon="-1.92704">
        <ele>6</ele>
        <time>2018-03-17T17:51:13Z</time>
      </trkpt>
      <trkpt lat="46.6886" lon="-1.92704">
        <ele>6</ele>
        <time>2018-03-17T17:52:13Z</time>
      </trkpt>
      <trkpt lat="46.68869" lon="-1.92706">
        <ele>5</ele>
        <time>2018-03-17T17:53:13Z</time>
      </trkpt>
      <trkpt lat="46.68881" lon="-1.92711">
        <ele>5</ele>
        <time>2018-03-17T17:54:13Z</time>
      </trkpt>
      <trkpt lat="46.68897" lon="-1.92716">
        <ele>4</ele>
        <time>2018-03-17T17:55:13Z</time>
      </trkpt>
      <trkpt lat="46.68913" lon="-1.92723">
        <ele>4</ele>
        <time>2018-03-17T17:56:13Z</time>
      </trkpt>
      <trkpt lat="46.68926" lon="-1.9273">
        <ele>4</ele>
        <time>2018-03-17T17:57:13Z</time>
      </trkpt>
      <trkpt lat="46.68936" lon="-1.92737">
        <ele>4</ele>
        <time>2018-03-17T17:58:13Z</time>
      </trkpt>
      <trkpt lat="46.68947" lon="-1.92747">
        <ele>4</ele>
        <time>2018-03-17T17:59:13Z</time>
      </trkpt>
      <trkpt lat="46.68955" lon="-1.92755">
        <ele>4</ele>
        <time>2018-03-17T18:00:13Z</time>
      </trkpt>
      <trkpt lat="46.68965" lon="-1.92769">
        <ele>4</ele>
        <time>2018-03-17T18:01:13Z</time>
      </trkpt>
      <trkpt lat="46.68969" lon="-1.92774">
        <ele>4</ele>
        <time>2018-03-17T18:02:13Z</time>
      </trkpt>
      <trkpt lat="46.68977" lon="-1.92784">
        <ele>4</ele>
        <time>2018-03-17T18:03:13Z</time>
      </trkpt>
      <trkpt lat="46.68992" lon="-1.92805">
        <ele>4</ele>
        <time>2018-03-17T18:04:13Z</time>
      </trkpt>
      <trkpt lat="46.68993" lon="-1.92806">
        <ele>4</ele>
        <time>2018-03-17T18:05:13Z</time>
      </trkpt>
      <trkpt lat="46.69014" lon="-1.92836">
        <ele>4</ele>
        <time>2018-03-17T18:06:13Z</time>
      </trkpt>
      <trkpt lat="46.69038" lon="-1.92867">
        <ele>4</ele>
        <time>2018-03-17T18:07:13Z</time>
      </trkpt>
      <trkpt lat="46.69055" lon="-1.9289">
        <ele>4</ele>
        <time>2018-03-17T18:08:13Z</time>
      </trkpt>
      <trkpt lat="46.69068" lon="-1.92907">
        <ele>4</ele>
        <time>2018-03-17T18:09:13Z</time>
      </trkpt>
      <trkpt lat="46.69095" lon="-1.92938">
        <ele>4</ele>
        <time>2018-03-17T18:10:13Z</time>
      </trkpt>
      <trkpt lat="46.69107" lon="-1.92948">
        <ele>4</ele>
        <time>2018-03-17T18:11:13Z</time>
      </trkpt>
      <trkpt lat="46.69133" lon="-1.92971">
        <ele>4</ele>
        <time>2018-03-17T18:12:13Z</time>
      </trkpt>
      <trkpt lat="46.69154" lon="-1.92991">
        <ele>4</ele>
        <time>2018-03-17T18:13:13Z</time>
      </trkpt>
      <trkpt lat="46.6917" lon="-1.93005">
        <ele>4</ele>
        <time>2018-03-17T18:14:13Z</time>
      </trkpt>
      <trkpt lat="46.69175" lon="-1.93009">
        <ele>4</ele>
        <time>2018-03-17T18:15:13Z</time>
      </trkpt>
      <trkpt lat="46.69194" lon="-1.93026">
        <ele>5</ele>
        <time>2018-03-17T18:16:13Z</time>
      </trkpt>
      <trkpt lat="46.69217" lon="-1.93046">
        <ele>5</ele>
        <time>2018-03-17T18:17:13Z</time>
      </trkpt>
      <trkpt lat="46.69224" lon="-1.93053">
        <ele>5</ele>
        <time>2018-03-17T18:18:13Z</time>
      </trkpt>
      <trkpt lat="46.69245" lon="-1.93071">
        <ele>5</ele>
        <time>2018-03-17T18:19:13Z</time>
      </trkpt>
      <trkpt lat="46.69255" lon="-1.9308">
        <ele>5</ele>
        <time>2018-03-17T18:20:13Z</time>
      </trkpt>
      <trkpt lat="46.69269" lon="-1.93094">
        <ele>5</ele>
        <time>2018-03-17T18:21:13Z</time>
      </trkpt>
      <trkpt lat="46.69287" lon="-1.9311">
        <ele>5</ele>
        <time>2018-03-17T18:22:13Z</time>
      </trkpt>
      <trkpt lat="46.69303" lon="-1.93127">
        <ele>5</ele>
        <time>2018-03-17T18:23:13Z</time>
      </trkpt>
      <trkpt lat="46.69314" lon="-1.93136">
        <ele>5</ele>
        <time>2018-03-17T18:24:13Z</time>
      </trkpt>
      <trkpt lat="46.69324" lon="-1.93151">
        <ele>5</ele>
        <time>2018-03-17T18:25:13Z</time>
      </trkpt>
      <trkpt lat="46.69333" lon="-1.93166">
        <ele>5</ele>
        <time>2018-03-17T18:26:13Z</time>
      </trkpt>
      <trkpt lat="46.69341" lon="-1.93186">
        <ele>5</ele>
        <time>2018-03-17T18:27:13Z</time>
      </trkpt>
      <trkpt lat="46.69348" lon="-1.93201">
        <ele>5</ele>
        <time>2018-03-17T18:28:13Z</time>
      </trkpt>
      <trkpt lat="46.69351" lon="-1.93212">
        <ele>5</ele>
        <time>2018-03-17T18:29:13Z</time>
      </trkpt>
      <trkpt lat="46.69355" lon="-1.93224">
        <ele>4</ele>
        <time>2018-03-17T18:30:13Z</time>
      </trkpt>
      <trkpt lat="46.6936" lon="-1.93244">
        <ele>4</ele>
        <time>2018-03-17T18:31:13Z</time>
      </trkpt>
      <trkpt lat="46.69365" lon="-1.93261">
        <ele>4</ele>
        <time>2018-03-17T18:32:13Z</time>
      </trkpt>
      <trkpt lat="46.69368" lon="-1.93273">
        <ele>4</ele>
        <time>2018-03-17T18:33:13Z</time>
      </trkpt>
      <trkpt lat="46.69372" lon="-1.93291">
        <ele>4</ele>
        <time>2018-03-17T18:34:13Z</time>
      </trkpt>
      <trkpt lat="46.69374" lon="-1.93299">
        <ele>4</ele>
        <time>2018-03-17T18:35:13Z</time>
      </trkpt>
      <trkpt lat="46.69376" lon="-1.93304">
        <ele>4</ele>
        <time>2018-03-17T18:36:13Z</time>
      </trkpt>
      <trkpt lat="46.69378" lon="-1.93307">
        <ele>4</ele>
        <time>2018-03-17T18:37:13Z</time>
      </trkpt>
      <trkpt lat="46.69379" lon="-1.93309">
        <ele>4</ele>
        <time>2018-03-17T18:38:13Z</time>
      </trkpt>
      <trkpt lat="46.69384" lon="-1.93312">
        <ele>4</ele>
        <time>2018-03-17T18:39:13Z</time>
      </trkpt>
      <trkpt lat="46.69385" lon="-1.93312">
        <ele>4</ele>
        <time>2018-03-17T18:40:13Z</time>
      </trkpt>
      <trkpt lat="46.69386" lon="-1.93311">
        <ele>4</ele>
        <time>2018-03-17T18:41:13Z</time>
      </trkpt>
      <trkpt lat="46.69387" lon="-1.93311">
        <ele>4</ele>
        <time>2018-03-17T18:42:13Z</time>
      </trkpt>
      <trkpt lat="46.69388" lon="-1.93311">
        <ele>4</ele>
        <time>2018-03-17T18:43:13Z</time>
      </trkpt>
      <trkpt lat="46.69389" lon="-1.93311">
        <ele>4</ele>
        <time>2018-03-17T18:44:13Z</time>
      </trkpt>
      <trkpt lat="46.69389" lon="-1.93312">
        <ele>4</ele>
        <time>2018-03-17T18:45:13Z</time>
      </trkpt>
      <trkpt lat="46.6939" lon="-1.93312">
        <ele>4</ele>
        <time>2018-03-17T18:46:13Z</time>
      </trkpt>
      <trkpt lat="46.69391" lon="-1.93312">
        <ele>4</ele>
        <time>2018-03-17T18:47:13Z</time>
      </trkpt>
      <trkpt lat="46.69391" lon="-1.93313">
        <ele>4</ele>
        <time>2018-03-17T18:48:13Z</time>
      </trkpt>
      <trkpt lat="46.69392" lon="-1.93313">
        <ele>4</ele>
        <time>2018-03-17T18:49:13Z</time>
      </trkpt>
      <trkpt lat="46.69393" lon="-1.93314">
        <ele>4</ele>
        <time>2018-03-17T18:50:13Z</time>
      </trkpt>
      <trkpt lat="46.69393" lon="-1.93315">
        <ele>4</ele>
        <time>2018-03-17T18:51:13Z</time>
      </trkpt>
      <trkpt lat="46.69394" lon="-1.93315">
        <ele>4</ele>
        <time>2018-03-17T18:52:13Z</time>
      </trkpt>
      <trkpt lat="46.69394" lon="-1.93316">
        <ele>4</ele>
        <time>2018-03-17T18:53:13Z</time>
      </trkpt>
      <trkpt lat="46.69395" lon="-1.93317">
        <ele>4</ele>
        <time>2018-03-17T18:54:13Z</time>
      </trkpt>
      <trkpt lat="46.69395" lon="-1.93318">
        <ele>4</ele>
        <time>2018-03-17T18:55:13Z</time>
      </trkpt>
      <trkpt lat="46.69396" lon="-1.93319">
        <ele>4</ele>
        <time>2018-03-17T18:56:13Z</time>
      </trkpt>
      <trkpt lat="46.69396" lon="-1.9332">
        <ele>4</ele>
        <time>2018-03-17T18:57:13Z</time>
      </trkpt>
      <trkpt lat="46.69396" lon="-1.93321">
        <ele>4</ele>
        <time>2018-03-17T18:58:13Z</time>
      </trkpt>
      <trkpt lat="46.69406" lon="-1.93325">
        <ele>4</ele>
        <time>2018-03-17T18:59:13Z</time>
      </trkpt>
      <trkpt lat="46.69416" lon="-1.93331">
        <ele>4</ele>
        <time>2018-03-17T19:00:13Z</time>
      </trkpt>
      <trkpt lat="46.69421" lon="-1.93333">
        <ele>4</ele>
        <time>2018-03-17T19:01:13Z</time>
      </trkpt>
      <trkpt lat="46.69426" lon="-1.93334">
        <ele>4</ele>
        <time>2018-03-17T19:02:13Z</time>
      </trkpt>
      <trkpt lat="46.69431" lon="-1.93336">
        <ele>4</ele>
        <time>2018-03-17T19:03:13Z</time>
      </trkpt>
      <trkpt lat="46.6946" lon="-1.93349">
        <ele>4</ele>
        <time>2018-03-17T19:04:13Z</time>
      </trkpt>
      <trkpt lat="46.69498" lon="-1.93366">
        <ele>4</ele>
        <time>2018-03-17T19:05:13Z</time>
      </trkpt>
      <trkpt lat="46.69503" lon="-1.93368">
        <ele>4</ele>
        <time>2018-03-17T19:06:13Z</time>
      </trkpt>
      <trkpt lat="46.69507" lon="-1.9337">
        <ele>4</ele>
        <time>2018-03-17T19:07:13Z</time>
      </trkpt>
      <trkpt lat="46.69518" lon="-1.93374">
        <ele>4</ele>
        <time>2018-03-17T19:08:13Z</time>
      </trkpt>
      <trkpt lat="46.69551" lon="-1.93388">
        <ele>4</ele>
        <time>2018-03-17T19:09:13Z</time>
      </trkpt>
      <trkpt lat="46.69587" lon="-1.93404">
        <ele>4</ele>
        <time>2018-03-17T19:10:13Z</time>
      </trkpt>
      <trkpt lat="46.69607" lon="-1.93416">
        <ele>4</ele>
        <time>2018-03-17T19:11:13Z</time>
      </trkpt>
      <trkpt lat="46.69617" lon="-1.9342">
        <ele>4</ele>
        <time>2018-03-17T19:12:13Z</time>
      </trkpt>
      <trkpt lat="46.69617" lon="-1.9342">
        <ele>4</ele>
        <time>2018-03-17T19:13:13Z</time>
      </trkpt>
      <trkpt lat="46.69617" lon="-1.93419">
        <ele>4</ele>
        <time>2018-03-17T19:14:13Z</time>
      </trkpt>
      <trkpt lat="46.69617" lon="-1.93418">
        <ele>4</ele>
        <time>2018-03-17T19:15:13Z</time>
      </trkpt>
      <trkpt lat="46.69618" lon="-1.93418">
        <ele>4</ele>
        <time>2018-03-17T19:16:13Z</time>
      </trkpt>
      <trkpt lat="46.69618" lon="-1.93417">
        <ele>4</ele>
        <time>2018-03-17T19:17:13Z</time>
      </trkpt>
      <trkpt lat="46.69618" lon="-1.93416">
        <ele>4</ele>
        <time>2018-03-17T19:18:13Z</time>
      </trkpt>
      <trkpt lat="46.69619" lon="-1.93416">
        <ele>4</ele>
        <time>2018-03-17T19:19:13Z</time>
      </trkpt>
      <trkpt lat="46.69619" lon="-1.93415">
        <ele>4</ele>
        <time>2018-03-17T19:20:13Z</time>
      </trkpt>
      <trkpt lat="46.6962" lon="-1.93415">
        <ele>4</ele>
        <time>2018-03-17T19:21:13Z</time>
      </trkpt>
      <trkpt lat="46.6962" lon="-1.93414">
        <ele>5</ele>
        <time>2018-03-17T19:22:13Z</time>
      </trkpt>
      <trkpt lat="46.69621" lon="-1.93414">
        <ele>5</ele>
        <time>2018-03-17T19:23:13Z</time>
      </trkpt>
      <trkpt lat="46.69621" lon="-1.93413">
        <ele>5</ele>
        <time>2018-03-17T19:24:13Z</time>
      </trkpt>
      <trkpt lat="46.69622" lon="-1.93413">
        <ele>5</ele>
        <time>2018-03-17T19:25:13Z</time>
      </trkpt>
      <trkpt lat="46.69623" lon="-1.93412">
        <ele>5</ele>
        <time>2018-03-17T19:26:13Z</time>
      </trkpt>
      <trkpt lat="46.69624" lon="-1.93412">
        <ele>5</ele>
        <time>2018-03-17T19:27:13Z</time>
      </trkpt>
      <trkpt lat="46.69625" lon="-1.93412">
        <ele>5</ele>
        <time>2018-03-17T19:28:13Z</time>
      </trkpt>
      <trkpt lat="46.69626" lon="-1.93412">
        <ele>5</ele>
        <time>2018-03-17T19:29:13Z</time>
      </trkpt>
      <trkpt lat="46.69627" lon="-1.93412">
        <ele>5</ele>
        <time>2018-03-17T19:30:13Z</time>
      </trkpt>
      <trkpt lat="46.69627" lon="-1.93413">
        <ele>5</ele>
        <time>2018-03-17T19:31:13Z</time>
      </trkpt>
      <trkpt lat="46.69628" lon="-1.93413">
        <ele>5</ele>
        <time>2018-03-17T19:32:13Z</time>
      </trkpt>
      <trkpt lat="46.69629" lon="-1.93413">
        <ele>5</ele>
        <time>2018-03-17T19:33:13Z</time>
      </trkpt>
      <trkpt lat="46.69629" lon="-1.93414">
        <ele>5</ele>
        <time>2018-03-17T19:34:13Z</time>
      </trkpt>
      <trkpt lat="46.6963" lon="-1.93414">
        <ele>5</ele>
        <time>2018-03-17T19:35:13Z</time>
      </trkpt>
      <trkpt lat="46.6963" lon="-1.93415">
        <ele>5</ele>
        <time>2018-03-17T19:36:13Z</time>
      </trkpt>
      <trkpt lat="46.69631" lon="-1.93416">
        <ele>5</ele>
        <time>2018-03-17T19:37:13Z</time>
      </trkpt>
      <trkpt lat="46.69631" lon="-1.93417">
        <ele>5</ele>
        <time>2018-03-17T19:38:13Z</time>
      </trkpt>
      <trkpt lat="46.69632" lon="-1.93417">
        <ele>5</ele>
        <time>2018-03-17T19:39:13Z</time>
      </trkpt>
      <trkpt lat="46.69632" lon="-1.93418">
        <ele>5</ele>
        <time>2018-03-17T19:40:13Z</time>
      </trkpt>
      <trkpt lat="46.69632" lon="-1.93419">
        <ele>5</ele>
        <time>2018-03-17T19:41:13Z</time>
      </trkpt>
      <trkpt lat="46.69633" lon="-1.93419">
        <ele>5</ele>
        <time>2018-03-17T19:42:13Z</time>
      </trkpt>
      <trkpt lat="46.69633" lon="-1.9342">
        <ele>5</ele>
        <time>2018-03-17T19:43:13Z</time>
      </trkpt>
      <trkpt lat="46.69633" lon="-1.93421">
        <ele>5</ele>
        <time>2018-03-17T19:44:13Z</time>
      </trkpt>
      <trkpt lat="46.69633" lon="-1.93422">
        <ele>5</ele>
        <time>2018-03-17T19:45:13Z</time>
      </trkpt>
      <trkpt lat="46.69633" lon="-1.93423">
        <ele>5</ele>
        <time>2018-03-17T19:46:13Z</time>
      </trkpt>
      <trkpt lat="46.69685" lon="-1.93435">
        <ele>5</ele>
        <time>2018-03-17T19:47:13Z</time>
      </trkpt>
      <trkpt lat="46.69697" lon="-1.93436">
        <ele>5</ele>
        <time>2018-03-17T19:48:13Z</time>
      </trkpt>
      <trkpt lat="46.69714" lon="-1.93435">
        <ele>5</ele>
        <time>2018-03-17T19:49:13Z</time>
      </trkpt>
      <trkpt lat="46.69721" lon="-1.93434">
        <ele>5</ele>
        <time>2018-03-17T19:50:13Z</time>
      </trkpt>
      <trkpt lat="46.69759" lon="-1.93424">
        <ele>5</ele>
        <time>2018-03-17T19:51:13Z</time>
      </trkpt>
      <trkpt lat="46.69762" lon="-1.93423">
        <ele>5</ele>
        <time>2018-03-17T19:52:13Z</time>
      </trkpt>
      <trkpt lat="46.69772" lon="-1.9342">
        <ele>5</ele>
        <time>2018-03-17T19:53:13Z</time>
      </trkpt>
      <trkpt lat="46.69776" lon="-1.9342">
        <ele>5</ele>
        <time>2018-03-17T19:54:13Z</time>
      </trkpt>
      <trkpt lat="46.69779" lon="-1.9342">
        <ele>5</ele>
        <time>2018-03-17T19:55:13Z</time>
      </trkpt>
      <trkpt lat="46.69785" lon="-1.93422">
        <ele>5</ele>
        <time>2018-03-17T19:56:13Z</time>
      </trkpt>
      <trkpt lat="46.69785" lon="-1.93421">
        <ele>5</ele>
        <time>2018-03-17T19:57:13Z</time>
      </trkpt>
      <trkpt lat="46.69786" lon="-1.93421">
        <ele>5</ele>
        <time>2018-03-17T19:58:13Z</time>
      </trkpt>
      <trkpt lat="46.69786" lon="-1.9342">
        <ele>5</ele>
        <time>2018-03-17T19:59:13Z</time>
      </trkpt>
      <trkpt lat="46.69786" lon="-1.93419">
        <ele>5</ele>
        <time>2018-03-17T20:00:13Z</time>
      </trkpt>
      <trkpt lat="46.69786" lon="-1.93418">
        <ele>5</ele>
        <time>2018-03-17T20:01:13Z</time>
      </trkpt>
      <trkpt lat="46.69787" lon="-1.93418">
        <ele>5</ele>
        <time>2018-03-17T20:02:13Z</time>
      </trkpt>
      <trkpt lat="46.69787" lon="-1.93417">
        <ele>5</ele>
        <time>2018-03-17T20:03:13Z</time>
      </trkpt>
      <trkpt lat="46.69788" lon="-1.93417">
        <ele>5</ele>
        <time>2018-03-17T20:04:13Z</time>
      </trkpt>
      <trkpt lat="46.69789" lon="-1.93417">
        <ele>5</ele>
        <time>2018-03-17T20:05:13Z</time>
      </trkpt>
      <trkpt lat="46.6979" lon="-1.93417">
        <ele>5</ele>
        <time>2018-03-17T20:06:13Z</time>
      </trkpt>
      <trkpt lat="46.69791" lon="-1.93417">
        <ele>5</ele>
        <time>2018-03-17T20:07:13Z</time>
      </trkpt>
      <trkpt lat="46.69791" lon="-1.93418">
        <ele>5</ele>
        <time>2018-03-17T20:08:13Z</time>
      </trkpt>
      <trkpt lat="46.69792" lon="-1.93418">
        <ele>5</ele>
        <time>2018-03-17T20:09:13Z</time>
      </trkpt>
      <trkpt lat="46.69792" lon="-1.93419">
        <ele>5</ele>
        <time>2018-03-17T20:10:13Z</time>
      </trkpt>
      <trkpt lat="46.69792" lon="-1.9342">
        <ele>5</ele>
        <time>2018-03-17T20:11:13Z</time>
      </trkpt>
      <trkpt lat="46.69793" lon="-1.9342">
        <ele>5</ele>
        <time>2018-03-17T20:12:13Z</time>
      </trkpt>
      <trkpt lat="46.69797" lon="-1.93421">
        <ele>5</ele>
        <time>2018-03-17T20:13:13Z</time>
      </trkpt>
      <trkpt lat="46.69798" lon="-1.93421">
        <ele>5</ele>
        <time>2018-03-17T20:14:13Z</time>
      </trkpt>
      <trkpt lat="46.69806" lon="-1.93419">
        <ele>5</ele>
        <time>2018-03-17T20:15:13Z</time>
      </trkpt>
      <trkpt lat="46.69824" lon="-1.93411">
        <ele>5</ele>
        <time>2018-03-17T20:16:13Z</time>
      </trkpt>
      <trkpt lat="46.69892" lon="-1.93385">
        <ele>5</ele>
        <time>2018-03-17T20:17:13Z</time>
      </trkpt>
      <trkpt lat="46.69898" lon="-1.93383">
        <ele>5</ele>
        <time>2018-03-17T20:18:13Z</time>
      </trkpt>
      <trkpt lat="46.69901" lon="-1.93383">
        <ele>5</ele>
        <time>2018-03-17T20:19:13Z</time>
      </trkpt>
      <trkpt lat="46.69908" lon="-1.93383">
        <ele>4</ele>
        <time>2018-03-17T20:20:13Z</time>
      </trkpt>
      <trkpt lat="46.69907" lon="-1.93379">
        <ele>5</ele>
        <time>2018-03-17T20:21:13Z</time>
      </trkpt>
      <trkpt lat="46.69908" lon="-1.93377">
        <ele>5</ele>
        <time>2018-03-17T20:22:13Z</time>
      </trkpt>
      <trkpt lat="46.69908" lon="-1.93376">
        <ele>5</ele>
        <time>2018-03-17T20:23:13Z</time>
      </trkpt>
      <trkpt lat="46.69909" lon="-1.93375">
        <ele>5</ele>
        <time>2018-03-17T20:24:13Z</time>
      </trkpt>
      <trkpt lat="46.69911" lon="-1.93375">
        <ele>5</ele>
        <time>2018-03-17T20:25:13Z</time>
      </trkpt>
      <trkpt lat="46.69912" lon="-1.93375">
        <ele>5</ele>
        <time>2018-03-17T20:26:13Z</time>
      </trkpt>
      <trkpt lat="46.69914" lon="-1.93375">
        <ele>5</ele>
        <time>2018-03-17T20:27:13Z</time>
      </trkpt>
      <trkpt lat="46.69915" lon="-1.93376">
        <ele>5</ele>
        <time>2018-03-17T20:28:13Z</time>
      </trkpt>
      <trkpt lat="46.69915" lon="-1.93377">
        <ele>4</ele>
        <time>2018-03-17T20:29:13Z</time>
      </trkpt>
      <trkpt lat="46.69916" lon="-1.93379">
        <ele>4</ele>
        <time>2018-03-17T20:30:13Z</time>
      </trkpt>
      <trkpt lat="46.69916" lon="-1.93382">
        <ele>4</ele>
        <time>2018-03-17T20:31:13Z</time>
      </trkpt>
      <trkpt lat="46.69915" lon="-1.93383">
        <ele>4</ele>
        <time>2018-03-17T20:32:13Z</time>
      </trkpt>
      <trkpt lat="46.69922" lon="-1.93383">
        <ele>4</ele>
        <time>2018-03-17T20:33:13Z</time>
      </trkpt>
      <trkpt lat="46.69925" lon="-1.93383">
        <ele>4</ele>
        <time>2018-03-17T20:34:13Z</time>
      </trkpt>
      <trkpt lat="46.69935" lon="-1.93382">
        <ele>4</ele>
        <time>2018-03-17T20:35:13Z</time>
      </trkpt>
      <trkpt lat="46.69944" lon="-1.93381">
        <ele>4</ele>
        <time>2018-03-17T20:36:13Z</time>
      </trkpt>
      <trkpt lat="46.69949" lon="-1.93379">
        <ele>4</ele>
        <time>2018-03-17T20:37:13Z</time>
      </trkpt>
      <trkpt lat="46.69953" lon="-1.93377">
        <ele>4</ele>
        <time>2018-03-17T20:38:13Z</time>
      </trkpt>
      <trkpt lat="46.69958" lon="-1.93375">
        <ele>4</ele>
        <time>2018-03-17T20:39:13Z</time>
      </trkpt>
      <trkpt lat="46.69963" lon="-1.93373">
        <ele>4</ele>
        <time>2018-03-17T20:40:13Z</time>
      </trkpt>
      <trkpt lat="46.69969" lon="-1.9337">
        <ele>4</ele>
        <time>2018-03-17T20:41:13Z</time>
      </trkpt>
      <trkpt lat="46.69973" lon="-1.93367">
        <ele>4</ele>
        <time>2018-03-17T20:42:13Z</time>
      </trkpt>
      <trkpt lat="46.69976" lon="-1.93367">
        <ele>4</ele>
        <time>2018-03-17T20:43:13Z</time>
      </trkpt>
      <trkpt lat="46.69978" lon="-1.93366">
        <ele>3</ele>
        <time>2018-03-17T20:44:13Z</time>
      </trkpt>
      <trkpt lat="46.69979" lon="-1.93366">
        <ele>3</ele>
        <time>2018-03-17T20:45:13Z</time>
      </trkpt>
      <trkpt lat="46.69982" lon="-1.93367">
        <ele>3</ele>
        <time>2018-03-17T20:46:13Z</time>
      </trkpt>
      <trkpt lat="46.69987" lon="-1.93369">
        <ele>3</ele>
        <time>2018-03-17T20:47:13Z</time>
      </trkpt>
      <trkpt lat="46.69991" lon="-1.93371">
        <ele>3</ele>
        <time>2018-03-17T20:48:13Z</time>
      </trkpt>
    </trkseg>
  </trk>
</gpx>